<?xml version='1.0' encoding='UTF-8'?><gpx version="1.1" creator="JPX - https://github.com/jenetics/jpx" xmlns="http://www.topografix.com/GPX/1/1"><trk><trkseg><trkpt lat="47.12928717206534" lon="3.1255524647989654"><ele>335.0</ele><time>2026-04-26T07:13:11Z</time></trkpt><trkpt lat="47.129206069439384" lon="3.125540629707965"><ele>335.0</ele><time>2026-04-26T07:13:13Z</time></trkpt><trkpt lat="47.12914117353496" lon="3.1255263422799793"><ele>335.0</ele><time>2026-04-26T07:13:15Z</time></trkpt><trkpt lat="47.129056180168845" lon="3.125478146467091"><ele>335.0</ele><time>2026-04-26T07:13:17.999Z</time></trkpt><trkpt lat="47.12898999020737" lon="3.1254524884913937"><ele>335.0</ele><time>2026-04-26T07:13:19.999Z</time></trkpt><trkpt lat="47.12892363836607" lon="3.1254325043632027"><ele>335.0</ele><time>2026-04-26T07:13:21.999Z</time></trkpt><trkpt lat="47.12883138726876" lon="3.125385734293998"><ele>334.4</ele><time>2026-04-26T07:13:24.999Z</time></trkpt><trkpt lat="47.128758466603266" lon="3.1253617910295337"><ele>333.8</ele><time>2026-04-26T07:13:26.999Z</time></trkpt><trkpt lat="47.1286739258254" lon="3.125344900410406"><ele>333.20000000000005</ele><time>2026-04-26T07:13:28.999Z</time></trkpt><trkpt lat="47.128573993860854" lon="3.1253252008708423"><ele>332.6</ele><time>2026-04-26T07:13:30.999Z</time></trkpt><trkpt lat="47.12847039109258" lon="3.1252628398714197"><ele>332.0</ele><time>2026-04-26T07:13:32.999Z</time></trkpt><trkpt lat="47.128364648400705" lon="3.125229818740863"><ele>332.0</ele><time>2026-04-26T07:13:34.999Z</time></trkpt><trkpt lat="47.12828786252103" lon="3.125217352321965"><ele>332.0</ele><time>2026-04-26T07:13:36.999Z</time></trkpt><trkpt lat="47.128194995612205" lon="3.125203719144482"><ele>332.0</ele><time>2026-04-26T07:13:38.999Z</time></trkpt><trkpt lat="47.12810284562655" lon="3.1251793854618977"><ele>332.0</ele><time>2026-04-26T07:13:40.999Z</time></trkpt><trkpt lat="47.128004644000555" lon="3.1251434896727077"><ele>332.0</ele><time>2026-04-26T07:13:42.999Z</time></trkpt><trkpt lat="47.12790327917278" lon="3.125110581535296"><ele>331.8</ele><time>2026-04-26T07:13:44.999Z</time></trkpt><trkpt lat="47.12779848781168" lon="3.125046192367011"><ele>331.6</ele><time>2026-04-26T07:13:46.999Z</time></trkpt><trkpt lat="47.12769455191537" lon="3.124999368792632"><ele>331.40000000000003</ele><time>2026-04-26T07:13:48.999Z</time></trkpt><trkpt lat="47.127590504685664" lon="3.1249621853289136"><ele>331.20000000000005</ele><time>2026-04-26T07:13:50.999Z</time></trkpt><trkpt lat="47.127490209073905" lon="3.1249514374534595"><ele>331.0</ele><time>2026-04-26T07:13:52.999Z</time></trkpt><trkpt lat="47.12744747756816" lon="3.124822056895345"><ele>329.6</ele><time>2026-04-26T07:13:53.999Z</time></trkpt><trkpt lat="47.127354499032315" lon="3.1248024270575216"><ele>328.20000000000005</ele><time>2026-04-26T07:13:55.999Z</time></trkpt><trkpt lat="47.12726683744798" lon="3.124787976984132"><ele>326.79999999999995</ele><time>2026-04-26T07:13:57.999Z</time></trkpt><trkpt lat="47.12714570608982" lon="3.124776762722373"><ele>325.4</ele><time>2026-04-26T07:13:59.999Z</time></trkpt><trkpt lat="47.127042372772905" lon="3.1247770248146716"><ele>324.0</ele><time>2026-04-26T07:14:01.999Z</time></trkpt><trkpt lat="47.126957871710346" lon="3.1248046865788788"><ele>324.0</ele><time>2026-04-26T07:14:03.999Z</time></trkpt><trkpt lat="47.12688165271781" lon="3.124789256985621"><ele>324.0</ele><time>2026-04-26T07:14:04.999Z</time></trkpt><trkpt lat="47.12681035456139" lon="3.1247964468882765"><ele>324.0</ele><time>2026-04-26T07:14:05.999Z</time></trkpt><trkpt lat="47.126742331480145" lon="3.1248033065298437"><ele>324.0</ele><time>2026-04-26T07:14:06.999Z</time></trkpt><trkpt lat="47.12667424726577" lon="3.124810172332787"><ele>324.0</ele><time>2026-04-26T07:14:07.999Z</time></trkpt><trkpt lat="47.126601461074706" lon="3.124817512317116"><ele>324.0</ele><time>2026-04-26T07:14:08.999Z</time></trkpt><trkpt lat="47.126531865917734" lon="3.124822343147773"><ele>324.0</ele><time>2026-04-26T07:14:09.999Z</time></trkpt><trkpt lat="47.126464069116295" lon="3.1248272553693037"><ele>323.14285714285717</ele><time>2026-04-26T07:14:10.999Z</time></trkpt><trkpt lat="47.12639378902183" lon="3.124832347517859"><ele>322.2857142857143</ele><time>2026-04-26T07:14:11.999Z</time></trkpt><trkpt lat="47.12632276546002" lon="3.124837493533749"><ele>321.42857142857144</ele><time>2026-04-26T07:14:12.999Z</time></trkpt><trkpt lat="47.126253516551806" lon="3.1248424617876647"><ele>320.57142857142856</ele><time>2026-04-26T07:14:13.999Z</time></trkpt><trkpt lat="47.126186773148234" lon="3.1248471455339435"><ele>319.7142857142857</ele><time>2026-04-26T07:14:14.999Z</time></trkpt><trkpt lat="47.126120529690716" lon="3.124853149941623"><ele>318.85714285714283</ele><time>2026-04-26T07:14:15.999Z</time></trkpt><trkpt lat="47.126029450987694" lon="3.1248689243772594"><ele>318.0</ele><time>2026-04-26T07:14:17.999Z</time></trkpt><trkpt lat="47.125940892871085" lon="3.124852354650403"><ele>319.0</ele><time>2026-04-26T07:14:19.999Z</time></trkpt><trkpt lat="47.12590871957987" lon="3.1249626073066454"><ele>320.0</ele><time>2026-04-26T07:14:22.999Z</time></trkpt><trkpt lat="47.12596196459512" lon="3.1250649230637193"><ele>321.0</ele><time>2026-04-26T07:14:25.999Z</time></trkpt><trkpt lat="47.125976392629504" lon="3.125198528610316"><ele>322.0</ele><time>2026-04-26T07:14:28.998Z</time></trkpt><trkpt lat="47.125941033924754" lon="3.125294736113973"><ele>323.0</ele><time>2026-04-26T07:14:30.998Z</time></trkpt><trkpt lat="47.12587757278247" lon="3.125405523525117"><ele>324.0</ele><time>2026-04-26T07:14:33.999Z</time></trkpt><trkpt lat="47.12581062696575" lon="3.125510167388257"><ele>324.0</ele><time>2026-04-26T07:14:36.999Z</time></trkpt><trkpt lat="47.125740613306505" lon="3.125574051465403"><ele>324.0</ele><time>2026-04-26T07:14:39.999Z</time></trkpt><trkpt lat="47.12567965574216" lon="3.125630204223933"><ele>324.0</ele><time>2026-04-26T07:14:41.999Z</time></trkpt><trkpt lat="47.12560509304907" lon="3.1256580378223493"><ele>324.0</ele><time>2026-04-26T07:14:44.999Z</time></trkpt><trkpt lat="47.12550220853113" lon="3.125703487310235"><ele>324.0</ele><time>2026-04-26T07:14:47Z</time></trkpt><trkpt lat="47.12543272783611" lon="3.125727989217996"><ele>324.0</ele><time>2026-04-26T07:14:48Z</time></trkpt><trkpt lat="47.125320291802865" lon="3.125761463108004"><ele>324.4</ele><time>2026-04-26T07:14:50Z</time></trkpt><trkpt lat="47.12520611866396" lon="3.1257945779003213"><ele>324.79999999999995</ele><time>2026-04-26T07:14:52Z</time></trkpt><trkpt lat="47.125098209662305" lon="3.125823823271831"><ele>325.20000000000005</ele><time>2026-04-26T07:14:54Z</time></trkpt><trkpt lat="47.12503132608045" lon="3.1258420327303877"><ele>325.6</ele><time>2026-04-26T07:14:55Z</time></trkpt><trkpt lat="47.12493543668237" lon="3.1258722012210773"><ele>326.0</ele><time>2026-04-26T07:14:57Z</time></trkpt><trkpt lat="47.12486727251649" lon="3.1258696547188505"><ele>326.4</ele><time>2026-04-26T07:14:58Z</time></trkpt><trkpt lat="47.12476837915862" lon="3.125875765393863"><ele>326.8</ele><time>2026-04-26T07:15:00Z</time></trkpt><trkpt lat="47.1246614969245" lon="3.1258707903671996"><ele>327.2</ele><time>2026-04-26T07:15:02Z</time></trkpt><trkpt lat="47.12456180470918" lon="3.125895625997352"><ele>327.59999999999997</ele><time>2026-04-26T07:15:04Z</time></trkpt><trkpt lat="47.124470821707376" lon="3.1259180955863757"><ele>328.0</ele><time>2026-04-26T07:15:06Z</time></trkpt><trkpt lat="47.124384561695614" lon="3.125905886752932"><ele>328.0</ele><time>2026-04-26T07:15:08Z</time></trkpt><trkpt lat="47.12431092504986" lon="3.125890616323161"><ele>328.0</ele><time>2026-04-26T07:15:09.999Z</time></trkpt><trkpt lat="47.12422383262546" lon="3.125936742804666"><ele>328.0</ele><time>2026-04-26T07:15:11.999Z</time></trkpt><trkpt lat="47.12412338050774" lon="3.1259563569023965"><ele>328.0</ele><time>2026-04-26T07:15:13.999Z</time></trkpt><trkpt lat="47.124029489313216" lon="3.1259727149332885"><ele>328.0</ele><time>2026-04-26T07:15:15.999Z</time></trkpt><trkpt lat="47.12396383161296" lon="3.1259744587809823"><ele>328.0</ele><time>2026-04-26T07:15:17.999Z</time></trkpt><trkpt lat="47.123881298364665" lon="3.1259927609046816"><ele>328.66666666666663</ele><time>2026-04-26T07:15:19.999Z</time></trkpt><trkpt lat="47.123784168704695" lon="3.1259947060679316"><ele>329.3333333333333</ele><time>2026-04-26T07:15:21.999Z</time></trkpt><trkpt lat="47.12372101159349" lon="3.1259969898230433"><ele>330.0</ele><time>2026-04-26T07:15:22.999Z</time></trkpt><trkpt lat="47.1236191012478" lon="3.125973551658108"><ele>330.6666666666667</ele><time>2026-04-26T07:15:24.999Z</time></trkpt><trkpt lat="47.12353290370388" lon="3.125961842463724"><ele>331.33333333333337</ele><time>2026-04-26T07:15:26.999Z</time></trkpt><trkpt lat="47.12344236798604" lon="3.125939763627194"><ele>332.0</ele><time>2026-04-26T07:15:28.999Z</time></trkpt><trkpt lat="47.12337014722449" lon="3.125921365932116"><ele>332.0</ele><time>2026-04-26T07:15:30.999Z</time></trkpt><trkpt lat="47.123311468464486" lon="3.1258662421188403"><ele>332.0</ele><time>2026-04-26T07:15:32.999Z</time></trkpt><trkpt lat="47.12324603028613" lon="3.1257772700721027"><ele>332.0</ele><time>2026-04-26T07:15:34.999Z</time></trkpt><trkpt lat="47.12318550900753" lon="3.125744814443875"><ele>332.0</ele><time>2026-04-26T07:15:36.999Z</time></trkpt><trkpt lat="47.12310842439497" lon="3.1256992773633927"><ele>332.0</ele><time>2026-04-26T07:15:38.999Z</time></trkpt><trkpt lat="47.123023033336615" lon="3.125662231868008"><ele>332.0</ele><time>2026-04-26T07:15:41.999Z</time></trkpt><trkpt lat="47.12296500572553" lon="3.1256234650901193"><ele>332.57142857142856</ele><time>2026-04-26T07:15:43.999Z</time></trkpt><trkpt lat="47.12289669922199" lon="3.125567381927238"><ele>333.14285714285717</ele><time>2026-04-26T07:15:45.999Z</time></trkpt><trkpt lat="47.122826144784455" lon="3.125535431377624"><ele>333.7142857142857</ele><time>2026-04-26T07:15:47.999Z</time></trkpt><trkpt lat="47.12276657507211" lon="3.125496924154503"><ele>334.2857142857143</ele><time>2026-04-26T07:15:49.999Z</time></trkpt><trkpt lat="47.12269828610656" lon="3.1254418207043946"><ele>334.8571428571429</ele><time>2026-04-26T07:15:51.999Z</time></trkpt><trkpt lat="47.12262952209247" lon="3.1254137549324064"><ele>335.42857142857144</ele><time>2026-04-26T07:15:53.999Z</time></trkpt><trkpt lat="47.122559693643815" lon="3.1253872363093564"><ele>336.0</ele><time>2026-04-26T07:15:55.999Z</time></trkpt><trkpt lat="47.12250423371849" lon="3.1253173431272536"><ele>336.0</ele><time>2026-04-26T07:15:57.999Z</time></trkpt><trkpt lat="47.122451412197314" lon="3.1252600294077477"><ele>336.0</ele><time>2026-04-26T07:15:59.999Z</time></trkpt><trkpt lat="47.12239112313848" lon="3.125229892528744"><ele>336.0</ele><time>2026-04-26T07:16:02.999Z</time></trkpt><trkpt lat="47.12231730059586" lon="3.125171560292339"><ele>336.0</ele><time>2026-04-26T07:16:05.999Z</time></trkpt><trkpt lat="47.12222207901264" lon="3.1250846928792355"><ele>336.0</ele><time>2026-04-26T07:16:08.999Z</time></trkpt><trkpt lat="47.12215318858356" lon="3.1250278909656126"><ele>336.0</ele><time>2026-04-26T07:16:10.999Z</time></trkpt><trkpt lat="47.122075503501634" lon="3.1249556134493752"><ele>336.1666666666667</ele><time>2026-04-26T07:16:13.999Z</time></trkpt><trkpt lat="47.12201478789755" lon="3.124912327463753"><ele>336.3333333333333</ele><time>2026-04-26T07:16:15.999Z</time></trkpt><trkpt lat="47.121906155333185" lon="3.1248362726667693"><ele>336.5</ele><time>2026-04-26T07:16:18.999Z</time></trkpt><trkpt lat="47.12184959400753" lon="3.1247787967954697"><ele>336.66666666666663</ele><time>2026-04-26T07:16:21.999Z</time></trkpt><trkpt lat="47.12178866123897" lon="3.1247471649758225"><ele>336.8333333333333</ele><time>2026-04-26T07:16:23.999Z</time></trkpt><trkpt lat="47.121754526147285" lon="3.124665452635066"><ele>337.0</ele><time>2026-04-26T07:16:25.999Z</time></trkpt><trkpt lat="47.12170020755443" lon="3.124588772859973"><ele>336.66666666666663</ele><time>2026-04-26T07:16:27.999Z</time></trkpt><trkpt lat="47.12163760601144" lon="3.1245117310921953"><ele>336.3333333333333</ele><time>2026-04-26T07:16:30.999Z</time></trkpt><trkpt lat="47.121582018011615" lon="3.1244628006649213"><ele>336.0</ele><time>2026-04-26T07:16:32.999Z</time></trkpt><trkpt lat="47.121517003559234" lon="3.1243933981915406"><ele>335.6666666666667</ele><time>2026-04-26T07:16:34.999Z</time></trkpt><trkpt lat="47.12144765002149" lon="3.124319560603245"><ele>335.33333333333337</ele><time>2026-04-26T07:16:36.999Z</time></trkpt><trkpt lat="47.12135540223281" lon="3.1242602310884604"><ele>335.0</ele><time>2026-04-26T07:16:40Z</time></trkpt><trkpt lat="47.12127595483226" lon="3.1242431117753697"><ele>335.6666666666667</ele><time>2026-04-26T07:16:42Z</time></trkpt><trkpt lat="47.12120799913852" lon="3.1242397013551795"><ele>336.33333333333337</ele><time>2026-04-26T07:16:44Z</time></trkpt><trkpt lat="47.121113775883344" lon="3.1242426628921516"><ele>337.0</ele><time>2026-04-26T07:16:47Z</time></trkpt><trkpt lat="47.12104968578394" lon="3.1242315042274256"><ele>337.6666666666667</ele><time>2026-04-26T07:16:49Z</time></trkpt><trkpt lat="47.12096544112876" lon="3.1242268991190105"><ele>338.3333333333333</ele><time>2026-04-26T07:16:53Z</time></trkpt><trkpt lat="47.12090079939729" lon="3.1242419802512407"><ele>339.0</ele><time>2026-04-26T07:16:56Z</time></trkpt><trkpt lat="47.12081339795802" lon="3.124237655910747"><ele>339.1666666666667</ele><time>2026-04-26T07:16:58Z</time></trkpt><trkpt lat="47.120720836467996" lon="3.1242244717995895"><ele>339.3333333333333</ele><time>2026-04-26T07:17:01Z</time></trkpt><trkpt lat="47.12063008765119" lon="3.1242166242298692"><ele>339.5</ele><time>2026-04-26T07:17:04Z</time></trkpt><trkpt lat="47.12055548488431" lon="3.124206158179908"><ele>339.66666666666663</ele><time>2026-04-26T07:17:06Z</time></trkpt><trkpt lat="47.12048825881315" lon="3.124203276697146"><ele>339.8333333333333</ele><time>2026-04-26T07:17:08Z</time></trkpt><trkpt lat="47.12039924957998" lon="3.124200354930196"><ele>340.0</ele><time>2026-04-26T07:17:10Z</time></trkpt><trkpt lat="47.12032831745488" lon="3.124186997583017"><ele>340.0</ele><time>2026-04-26T07:17:12Z</time></trkpt><trkpt lat="47.120233134924646" lon="3.124162856915939"><ele>340.0</ele><time>2026-04-26T07:17:15Z</time></trkpt><trkpt lat="47.12015391108852" lon="3.124157443607154"><ele>340.0</ele><time>2026-04-26T07:17:18Z</time></trkpt><trkpt lat="47.12007469565142" lon="3.124140984085796"><ele>340.0</ele><time>2026-04-26T07:17:21Z</time></trkpt><trkpt lat="47.11999739472585" lon="3.124139163833497"><ele>340.0</ele><time>2026-04-26T07:17:24Z</time></trkpt><trkpt lat="47.11991606640849" lon="3.124121568775282"><ele>340.0</ele><time>2026-04-26T07:17:26Z</time></trkpt><trkpt lat="47.119852704606046" lon="3.124110705292192"><ele>340.5</ele><time>2026-04-26T07:17:29Z</time></trkpt><trkpt lat="47.11978191497535" lon="3.1241081679047893"><ele>341.0</ele><time>2026-04-26T07:17:32Z</time></trkpt><trkpt lat="47.119704348907604" lon="3.1240937119460797"><ele>341.5</ele><time>2026-04-26T07:17:35Z</time></trkpt><trkpt lat="47.119624657141735" lon="3.1240951284205885"><ele>342.0</ele><time>2026-04-26T07:17:37Z</time></trkpt><trkpt lat="47.119551379840495" lon="3.1240948844701175"><ele>342.5</ele><time>2026-04-26T07:17:39.999Z</time></trkpt><trkpt lat="47.11946284634528" lon="3.1240961802478324"><ele>343.0</ele><time>2026-04-26T07:17:42.999Z</time></trkpt><trkpt lat="47.11939991400658" lon="3.124085642735058"><ele>343.0</ele><time>2026-04-26T07:17:44.999Z</time></trkpt><trkpt lat="47.11933045128898" lon="3.1240657141108414"><ele>343.0</ele><time>2026-04-26T07:17:47.999Z</time></trkpt><trkpt lat="47.11923857026285" lon="3.124083890876658"><ele>343.0</ele><time>2026-04-26T07:17:50.999Z</time></trkpt><trkpt lat="47.11913862611494" lon="3.1240754921703893"><ele>343.0</ele><time>2026-04-26T07:17:52.999Z</time></trkpt><trkpt lat="47.11902558977712" lon="3.1240594601100913"><ele>343.0</ele><time>2026-04-26T07:17:54.999Z</time></trkpt><trkpt lat="47.11892685491301" lon="3.1240544021019656"><ele>342.66666666666663</ele><time>2026-04-26T07:17:56.999Z</time></trkpt><trkpt lat="47.118847088953835" lon="3.124050947872681"><ele>342.3333333333333</ele><time>2026-04-26T07:17:58.999Z</time></trkpt><trkpt lat="47.11875360424468" lon="3.124042960205664"><ele>342.0</ele><time>2026-04-26T07:18:00.999Z</time></trkpt><trkpt lat="47.11865918645475" lon="3.1240348928073867"><ele>341.6666666666667</ele><time>2026-04-26T07:18:02.999Z</time></trkpt><trkpt lat="47.11858441149803" lon="3.124008005460037"><ele>341.33333333333337</ele><time>2026-04-26T07:18:04.999Z</time></trkpt><trkpt lat="47.118503132494496" lon="3.124003208453875"><ele>341.0</ele><time>2026-04-26T07:18:06.999Z</time></trkpt><trkpt lat="47.11841455542251" lon="3.1239993233469043"><ele>341.0</ele><time>2026-04-26T07:18:08.999Z</time></trkpt><trkpt lat="47.11832007210125" lon="3.1239757293047017"><ele>341.0</ele><time>2026-04-26T07:18:10.999Z</time></trkpt><trkpt lat="47.11825768525766" lon="3.1239327663025938"><ele>341.0</ele><time>2026-04-26T07:18:13.999Z</time></trkpt><trkpt lat="47.11816879332512" lon="3.123940129934361"><ele>341.0</ele><time>2026-04-26T07:18:16.999Z</time></trkpt><trkpt lat="47.118108687884146" lon="3.123972269825138"><ele>341.0</ele><time>2026-04-26T07:18:19.999Z</time></trkpt><trkpt lat="47.11804289321312" lon="3.1239746154724446"><ele>341.0</ele><time>2026-04-26T07:18:22.999Z</time></trkpt><trkpt lat="47.117936667494405" lon="3.12393518337081"><ele>341.1666666666667</ele><time>2026-04-26T07:18:25.999Z</time></trkpt><trkpt lat="47.11785545296954" lon="3.123908029829019"><ele>341.33333333333337</ele><time>2026-04-26T07:18:27.999Z</time></trkpt><trkpt lat="47.11778341345096" lon="3.1238998081888756"><ele>341.5</ele><time>2026-04-26T07:18:29.999Z</time></trkpt><trkpt lat="47.1177032142883" lon="3.1239061072648506"><ele>341.6666666666667</ele><time>2026-04-26T07:18:32.999Z</time></trkpt><trkpt lat="47.117595477658995" lon="3.1238806397379792"><ele>341.8333333333333</ele><time>2026-04-26T07:18:35.999Z</time></trkpt><trkpt lat="47.11751897601375" lon="3.1238573332018644"><ele>342.0</ele><time>2026-04-26T07:18:39.999Z</time></trkpt><trkpt lat="47.11743293852634" lon="3.1238278627153653"><ele>342.6</ele><time>2026-04-26T07:18:41.999Z</time></trkpt><trkpt lat="47.11735905655117" lon="3.123807278464619"><ele>343.20000000000005</ele><time>2026-04-26T07:18:43.999Z</time></trkpt><trkpt lat="47.11728518732771" lon="3.1237876144680135"><ele>343.8</ele><time>2026-04-26T07:18:46Z</time></trkpt><trkpt lat="47.11719605473449" lon="3.1237570155290824"><ele>344.4</ele><time>2026-04-26T07:18:49Z</time></trkpt><trkpt lat="47.11711334687486" lon="3.123721044746644"><ele>345.0</ele><time>2026-04-26T07:18:52Z</time></trkpt><trkpt lat="47.117002091048676" lon="3.123638847651435"><ele>345.0</ele><time>2026-04-26T07:18:54Z</time></trkpt><trkpt lat="47.11691161415136" lon="3.1235968112633956"><ele>345.0</ele><time>2026-04-26T07:18:56Z</time></trkpt><trkpt lat="47.11680836457917" lon="3.123535208752024"><ele>345.0</ele><time>2026-04-26T07:18:58Z</time></trkpt><trkpt lat="47.11671649021271" lon="3.1235023085999165"><ele>345.0</ele><time>2026-04-26T07:19:00Z</time></trkpt><trkpt lat="47.1166302995467" lon="3.1234702596407664"><ele>345.0</ele><time>2026-04-26T07:19:03Z</time></trkpt><trkpt lat="47.1165367731584" lon="3.123425696771465"><ele>344.8333333333333</ele><time>2026-04-26T07:19:05Z</time></trkpt><trkpt lat="47.11647207753992" lon="3.1234001025144256"><ele>344.6666666666667</ele><time>2026-04-26T07:19:08Z</time></trkpt><trkpt lat="47.11637579519894" lon="3.123364937312727"><ele>344.5</ele><time>2026-04-26T07:19:11Z</time></trkpt><trkpt lat="47.116312754605396" lon="3.123345512501532"><ele>344.33333333333337</ele><time>2026-04-26T07:19:12Z</time></trkpt><trkpt lat="47.11620633667048" lon="3.1233135745951426"><ele>344.1666666666667</ele><time>2026-04-26T07:19:14Z</time></trkpt><trkpt lat="47.116143359916826" lon="3.1232971811127745"><ele>344.0</ele><time>2026-04-26T07:19:16Z</time></trkpt><trkpt lat="47.1160399419873" lon="3.1232655225933623"><ele>343.0</ele><time>2026-04-26T07:19:18Z</time></trkpt><trkpt lat="47.1159509326019" lon="3.123215664726359"><ele>342.0</ele><time>2026-04-26T07:19:20Z</time></trkpt><trkpt lat="47.11585566207415" lon="3.123227368208871"><ele>341.0</ele><time>2026-04-26T07:19:22Z</time></trkpt><trkpt lat="47.115744136902684" lon="3.123202508828289"><ele>340.0</ele><time>2026-04-26T07:19:24Z</time></trkpt><trkpt lat="47.11564532685586" lon="3.1231987313142575"><ele>339.0</ele><time>2026-04-26T07:19:26Z</time></trkpt><trkpt lat="47.115566726507325" lon="3.1231926097024836"><ele>339.0</ele><time>2026-04-26T07:19:28Z</time></trkpt><trkpt lat="47.115475667943315" lon="3.1231912587846145"><ele>339.0</ele><time>2026-04-26T07:19:30Z</time></trkpt><trkpt lat="47.115381241549194" lon="3.1232010566082016"><ele>339.0</ele><time>2026-04-26T07:19:32Z</time></trkpt><trkpt lat="47.11528863572134" lon="3.12322911496035"><ele>339.0</ele><time>2026-04-26T07:19:34Z</time></trkpt><trkpt lat="47.11518965643841" lon="3.1232393936069927"><ele>339.0</ele><time>2026-04-26T07:19:36Z</time></trkpt><trkpt lat="47.11509732033366" lon="3.1232661443642935"><ele>339.1666666666667</ele><time>2026-04-26T07:19:38Z</time></trkpt><trkpt lat="47.11499767299097" lon="3.1232858377967063"><ele>339.3333333333333</ele><time>2026-04-26T07:19:40Z</time></trkpt><trkpt lat="47.1149049394445" lon="3.1232927127273893"><ele>339.5</ele><time>2026-04-26T07:19:42Z</time></trkpt><trkpt lat="47.11483042144369" lon="3.1232987089528015"><ele>339.66666666666663</ele><time>2026-04-26T07:19:44Z</time></trkpt><trkpt lat="47.11476353284346" lon="3.1233388758970695"><ele>339.8333333333333</ele><time>2026-04-26T07:19:45.999Z</time></trkpt><trkpt lat="47.11465534799674" lon="3.123358124456956"><ele>340.0</ele><time>2026-04-26T07:19:47.999Z</time></trkpt><trkpt lat="47.11455937855147" lon="3.1233844382777765"><ele>339.4</ele><time>2026-04-26T07:19:49.999Z</time></trkpt><trkpt lat="47.114459275083064" lon="3.1233598068292068"><ele>338.8</ele><time>2026-04-26T07:19:51.999Z</time></trkpt><trkpt lat="47.11439627027594" lon="3.123354055545502"><ele>338.20000000000005</ele><time>2026-04-26T07:19:52.999Z</time></trkpt><trkpt lat="47.11429862540094" lon="3.12332858826635"><ele>337.6</ele><time>2026-04-26T07:19:54.999Z</time></trkpt><trkpt lat="47.11418539631249" lon="3.123299064671609"><ele>337.0</ele><time>2026-04-26T07:19:56.999Z</time></trkpt><trkpt lat="47.11408019133957" lon="3.123245508410853"><ele>335.8</ele><time>2026-04-26T07:19:58.999Z</time></trkpt><trkpt lat="47.11397928599664" lon="3.123178692420086"><ele>334.6</ele><time>2026-04-26T07:20:00.999Z</time></trkpt><trkpt lat="47.113884614978424" lon="3.123126611037477"><ele>333.40000000000003</ele><time>2026-04-26T07:20:02.999Z</time></trkpt><trkpt lat="47.113760985394" lon="3.12313763568996"><ele>332.20000000000005</ele><time>2026-04-26T07:20:04.999Z</time></trkpt><trkpt lat="47.113700403277775" lon="3.123103377504692"><ele>331.0</ele><time>2026-04-26T07:20:05.999Z</time></trkpt><trkpt lat="47.113619487517624" lon="3.12302381359262"><ele>331.0</ele><time>2026-04-26T07:20:07.999Z</time></trkpt><trkpt lat="47.113515313535906" lon="3.122997983006534"><ele>331.0</ele><time>2026-04-26T07:20:09.999Z</time></trkpt><trkpt lat="47.1134473080318" lon="3.122875643189156"><ele>331.0</ele><time>2026-04-26T07:20:11.999Z</time></trkpt><trkpt lat="47.11338746861081" lon="3.1227800352161696"><ele>331.0</ele><time>2026-04-26T07:20:13.999Z</time></trkpt><trkpt lat="47.11329801416971" lon="3.1227356425590043"><ele>331.0</ele><time>2026-04-26T07:20:15.999Z</time></trkpt><trkpt lat="47.11321083879872" lon="3.122699309464459"><ele>331.14285714285717</ele><time>2026-04-26T07:20:17.999Z</time></trkpt><trkpt lat="47.11314416895676" lon="3.1226999764461882"><ele>331.2857142857143</ele><time>2026-04-26T07:20:19.999Z</time></trkpt><trkpt lat="47.113072583706334" lon="3.1227050980288813"><ele>331.42857142857144</ele><time>2026-04-26T07:20:21.999Z</time></trkpt><trkpt lat="47.113002401022285" lon="3.122698230269277"><ele>331.57142857142856</ele><time>2026-04-26T07:20:23.999Z</time></trkpt><trkpt lat="47.11293391266574" lon="3.122721427831594"><ele>331.7142857142857</ele><time>2026-04-26T07:20:25.999Z</time></trkpt><trkpt lat="47.11285657473341" lon="3.1227347793040003"><ele>331.85714285714283</ele><time>2026-04-26T07:20:27.999Z</time></trkpt><trkpt lat="47.11278473532686" lon="3.12276873877982"><ele>332.0</ele><time>2026-04-26T07:20:29.999Z</time></trkpt><trkpt lat="47.11269662149652" lon="3.12279867867632"><ele>332.0</ele><time>2026-04-26T07:20:32.999Z</time></trkpt><trkpt lat="47.11262748437388" lon="3.1227711529327777"><ele>332.0</ele><time>2026-04-26T07:20:34.999Z</time></trkpt><trkpt lat="47.11257858900952" lon="3.1228621636940535"><ele>332.0</ele><time>2026-04-26T07:20:40.999Z</time></trkpt><trkpt lat="47.11250925193124" lon="3.122962190995656"><ele>332.0</ele><time>2026-04-26T07:20:43.999Z</time></trkpt><trkpt lat="47.11241812636817" lon="3.123048804324837"><ele>332.0</ele><time>2026-04-26T07:20:45.999Z</time></trkpt><trkpt lat="47.11233652107251" lon="3.123146341881428"><ele>332.0</ele><time>2026-04-26T07:20:47.999Z</time></trkpt><trkpt lat="47.11228660396468" lon="3.1232156871507217"><ele>332.0</ele><time>2026-04-26T07:20:50.999Z</time></trkpt><trkpt lat="47.11222095324984" lon="3.1232975939467207"><ele>332.0</ele><time>2026-04-26T07:20:55Z</time></trkpt><trkpt lat="47.11213041790806" lon="3.1233860657314363"><ele>332.0</ele><time>2026-04-26T07:20:57Z</time></trkpt><trkpt lat="47.112070137045784" lon="3.12343056913082"><ele>332.0</ele><time>2026-04-26T07:20:58Z</time></trkpt><trkpt lat="47.11200052033243" lon="3.1234990868343315"><ele>332.0</ele><time>2026-04-26T07:21:00Z</time></trkpt><trkpt lat="47.11189761756781" lon="3.1235935910822077"><ele>332.0</ele><time>2026-04-26T07:21:02Z</time></trkpt><trkpt lat="47.11180961059401" lon="3.1236709995380694"><ele>332.0</ele><time>2026-04-26T07:21:04Z</time></trkpt><trkpt lat="47.11171329681934" lon="3.123715732205579"><ele>332.0</ele><time>2026-04-26T07:21:05Z</time></trkpt><trkpt lat="47.111645501725135" lon="3.123762754577429"><ele>332.0</ele><time>2026-04-26T07:21:06Z</time></trkpt><trkpt lat="47.11158784144173" lon="3.1238013679102425"><ele>332.0</ele><time>2026-04-26T07:21:07Z</time></trkpt><trkpt lat="47.11150278566947" lon="3.123894139362314"><ele>332.0</ele><time>2026-04-26T07:21:09Z</time></trkpt><trkpt lat="47.111441539161014" lon="3.123933084777336"><ele>332.33333333333337</ele><time>2026-04-26T07:21:10Z</time></trkpt><trkpt lat="47.1113532637417" lon="3.1239789796531428"><ele>332.6666666666667</ele><time>2026-04-26T07:21:12Z</time></trkpt><trkpt lat="47.11129859963576" lon="3.1240341417854913"><ele>333.0</ele><time>2026-04-26T07:21:13Z</time></trkpt><trkpt lat="47.11123022097271" lon="3.124132493524099"><ele>333.3333333333333</ele><time>2026-04-26T07:21:15Z</time></trkpt><trkpt lat="47.11117529267306" lon="3.1242004940464816"><ele>333.66666666666663</ele><time>2026-04-26T07:21:16Z</time></trkpt><trkpt lat="47.11107780143262" lon="3.124303538425291"><ele>334.0</ele><time>2026-04-26T07:21:18Z</time></trkpt><trkpt lat="47.11098028591576" lon="3.124385625071639"><ele>333.0</ele><time>2026-04-26T07:21:20Z</time></trkpt><trkpt lat="47.11091533753507" lon="3.1244216099910433"><ele>332.0</ele><time>2026-04-26T07:21:21Z</time></trkpt><trkpt lat="47.11085441952022" lon="3.124474980514409"><ele>331.0</ele><time>2026-04-26T07:21:22Z</time></trkpt><trkpt lat="47.11078863569461" lon="3.124544205534618"><ele>330.0</ele><time>2026-04-26T07:21:24Z</time></trkpt><trkpt lat="47.11071729694532" lon="3.124625449284101"><ele>329.0</ele><time>2026-04-26T07:21:26Z</time></trkpt><trkpt lat="47.110628057090544" lon="3.1247312912408476"><ele>328.0</ele><time>2026-04-26T07:21:28Z</time></trkpt><trkpt lat="47.110579378503424" lon="3.124820546823031"><ele>326.2</ele><time>2026-04-26T07:21:30Z</time></trkpt><trkpt lat="47.1104920097766" lon="3.1249057667872195"><ele>324.4</ele><time>2026-04-26T07:21:32Z</time></trkpt><trkpt lat="47.11040567421189" lon="3.1250132006538935"><ele>322.59999999999997</ele><time>2026-04-26T07:21:34Z</time></trkpt><trkpt lat="47.11031612760602" lon="3.1251045529045354"><ele>320.79999999999995</ele><time>2026-04-26T07:21:36Z</time></trkpt><trkpt lat="47.11024468617798" lon="3.1251481752776815"><ele>319.0</ele><time>2026-04-26T07:21:38Z</time></trkpt><trkpt lat="47.11016292864448" lon="3.125241751884233"><ele>319.0</ele><time>2026-04-26T07:21:40Z</time></trkpt><trkpt lat="47.1100674005113" lon="3.1253233436876844"><ele>319.0</ele><time>2026-04-26T07:21:42Z</time></trkpt><trkpt lat="47.10997583363942" lon="3.1253983749498633"><ele>319.0</ele><time>2026-04-26T07:21:44Z</time></trkpt><trkpt lat="47.109883351460596" lon="3.1254677562444826"><ele>319.0</ele><time>2026-04-26T07:21:46Z</time></trkpt><trkpt lat="47.10982277002481" lon="3.125501517968693"><ele>319.0</ele><time>2026-04-26T07:21:47Z</time></trkpt><trkpt lat="47.10970542062013" lon="3.125580553358153"><ele>318.2</ele><time>2026-04-26T07:21:49Z</time></trkpt><trkpt lat="47.109601122510824" lon="3.1256543171625735"><ele>317.4</ele><time>2026-04-26T07:21:50.999Z</time></trkpt><trkpt lat="47.10952992969265" lon="3.125710944481432"><ele>316.6</ele><time>2026-04-26T07:21:51.999Z</time></trkpt><trkpt lat="47.10944815092763" lon="3.1257360320299097"><ele>315.8</ele><time>2026-04-26T07:21:53.999Z</time></trkpt><trkpt lat="47.10935868432004" lon="3.125833810905075"><ele>315.0</ele><time>2026-04-26T07:21:55.999Z</time></trkpt><trkpt lat="47.109253188277464" lon="3.125909513129827"><ele>313.3333333333333</ele><time>2026-04-26T07:21:57.999Z</time></trkpt><trkpt lat="47.1091629097991" lon="3.1259554902617794"><ele>311.6666666666667</ele><time>2026-04-26T07:21:59.999Z</time></trkpt><trkpt lat="47.10909902704965" lon="3.126026508079271"><ele>310.0</ele><time>2026-04-26T07:22:01.999Z</time></trkpt><trkpt lat="47.10902186297585" lon="3.126094440653895"><ele>308.33333333333337</ele><time>2026-04-26T07:22:03.999Z</time></trkpt><trkpt lat="47.10895181254271" lon="3.1261912599584907"><ele>306.6666666666667</ele><time>2026-04-26T07:22:05.999Z</time></trkpt><trkpt lat="47.108878954546626" lon="3.126254653060029"><ele>305.0</ele><time>2026-04-26T07:22:07.999Z</time></trkpt><trkpt lat="47.108801623294156" lon="3.1263719643244423"><ele>303.2</ele><time>2026-04-26T07:22:09.999Z</time></trkpt><trkpt lat="47.10873878977031" lon="3.126499706296388"><ele>301.4</ele><time>2026-04-26T07:22:11.999Z</time></trkpt><trkpt lat="47.108674852937476" lon="3.126623945205528"><ele>299.6</ele><time>2026-04-26T07:22:13.999Z</time></trkpt><trkpt lat="47.10858500521135" lon="3.1267269662797865"><ele>297.8</ele><time>2026-04-26T07:22:15.999Z</time></trkpt><trkpt lat="47.108505927328224" lon="3.126848891439378"><ele>296.0</ele><time>2026-04-26T07:22:17.999Z</time></trkpt><trkpt lat="47.10842055939388" lon="3.1269713027755657"><ele>293.75</ele><time>2026-04-26T07:22:19.999Z</time></trkpt><trkpt lat="47.10832814947148" lon="3.127094560401471"><ele>291.5</ele><time>2026-04-26T07:22:21.999Z</time></trkpt><trkpt lat="47.10822954003391" lon="3.1272005583532527"><ele>289.25</ele><time>2026-04-26T07:22:23.999Z</time></trkpt><trkpt lat="47.108114340116195" lon="3.127270326515765"><ele>287.0</ele><time>2026-04-26T07:22:25.999Z</time></trkpt><trkpt lat="47.10799624644724" lon="3.1273250276533595"><ele>286.5</ele><time>2026-04-26T07:22:27.999Z</time></trkpt><trkpt lat="47.10792345069274" lon="3.12734591790916"><ele>286.0</ele><time>2026-04-26T07:22:28.999Z</time></trkpt><trkpt lat="47.107811836018335" lon="3.127428270620414"><ele>285.5</ele><time>2026-04-26T07:22:30.999Z</time></trkpt><trkpt lat="47.10772564264767" lon="3.127537465944089"><ele>285.0</ele><time>2026-04-26T07:22:32.999Z</time></trkpt><trkpt lat="47.10769199077819" lon="3.1276219321021497"><ele>284.5</ele><time>2026-04-26T07:22:33.999Z</time></trkpt><trkpt lat="47.107657854070865" lon="3.127706074653257"><ele>284.0</ele><time>2026-04-26T07:22:34.999Z</time></trkpt><trkpt lat="47.107633894443985" lon="3.1277918946623164"><ele>283.42857142857144</ele><time>2026-04-26T07:22:35.999Z</time></trkpt><trkpt lat="47.10759031021134" lon="3.127888119337173"><ele>282.85714285714283</ele><time>2026-04-26T07:22:36.999Z</time></trkpt><trkpt lat="47.10756167572209" lon="3.127984425406844"><ele>282.2857142857143</ele><time>2026-04-26T07:22:37.999Z</time></trkpt><trkpt lat="47.10751855431958" lon="3.1280647966407806"><ele>281.7142857142857</ele><time>2026-04-26T07:22:38.999Z</time></trkpt><trkpt lat="47.10746923505992" lon="3.128140089123814"><ele>281.1428571428571</ele><time>2026-04-26T07:22:39.999Z</time></trkpt><trkpt lat="47.10742716201172" lon="3.128209961424202"><ele>280.57142857142856</ele><time>2026-04-26T07:22:40.999Z</time></trkpt><trkpt lat="47.10737618594258" lon="3.1282844870923623"><ele>280.0</ele><time>2026-04-26T07:22:41.999Z</time></trkpt><trkpt lat="47.10732234053722" lon="3.1283537909646877"><ele>278.66666666666663</ele><time>2026-04-26T07:22:42.999Z</time></trkpt><trkpt lat="47.10726595385239" lon="3.128419598716508"><ele>277.3333333333333</ele><time>2026-04-26T07:22:43.999Z</time></trkpt><trkpt lat="47.107209794544076" lon="3.1284850709036043"><ele>276.0</ele><time>2026-04-26T07:22:44.999Z</time></trkpt><trkpt lat="47.107158218890454" lon="3.128544184381644"><ele>274.6666666666667</ele><time>2026-04-26T07:22:45.999Z</time></trkpt><trkpt lat="47.107067442656934" lon="3.1286530978352944"><ele>273.33333333333337</ele><time>2026-04-26T07:22:47.999Z</time></trkpt><trkpt lat="47.10700470014194" lon="3.1287040348186723"><ele>272.0</ele><time>2026-04-26T07:22:48.999Z</time></trkpt><trkpt lat="47.10690761350145" lon="3.128800237681243"><ele>271.99999999999994</ele><time>2026-04-26T07:22:50.999Z</time></trkpt><trkpt lat="47.10685224617701" lon="3.1288618639531864"><ele>272.0</ele><time>2026-04-26T07:22:51.999Z</time></trkpt><trkpt lat="47.10679738045613" lon="3.1289190699471843"><ele>272.0</ele><time>2026-04-26T07:22:52.999Z</time></trkpt><trkpt lat="47.10673613159612" lon="3.128966423629512"><ele>272.0</ele><time>2026-04-26T07:22:53.999Z</time></trkpt><trkpt lat="47.10666503860959" lon="3.129014877316555"><ele>272.0</ele><time>2026-04-26T07:22:54.999Z</time></trkpt><trkpt lat="47.10659923297292" lon="3.1290601366685875"><ele>271.99999999999994</ele><time>2026-04-26T07:22:55.999Z</time></trkpt><trkpt lat="47.10653077119203" lon="3.1290979558808107"><ele>272.0</ele><time>2026-04-26T07:22:56.999Z</time></trkpt><trkpt lat="47.106466473666956" lon="3.12914469613107"><ele>271.2857142857143</ele><time>2026-04-26T07:22:58Z</time></trkpt><trkpt lat="47.10640113678917" lon="3.129194123756732"><ele>270.57142857142856</ele><time>2026-04-26T07:22:59Z</time></trkpt><trkpt lat="47.10634700123985" lon="3.129253284045683"><ele>269.8571428571429</ele><time>2026-04-26T07:23:00Z</time></trkpt><trkpt lat="47.10628966234772" lon="3.129315811489469"><ele>269.1428571428571</ele><time>2026-04-26T07:23:01Z</time></trkpt><trkpt lat="47.10623294705403" lon="3.129381523367321"><ele>268.42857142857144</ele><time>2026-04-26T07:23:02Z</time></trkpt><trkpt lat="47.10618377882889" lon="3.1294439713334476"><ele>267.7142857142857</ele><time>2026-04-26T07:23:03Z</time></trkpt><trkpt lat="47.106132017001094" lon="3.1295103337542223"><ele>267.0</ele><time>2026-04-26T07:23:04Z</time></trkpt><trkpt lat="47.106085847230176" lon="3.129581564601347"><ele>267.0</ele><time>2026-04-26T07:23:05Z</time></trkpt><trkpt lat="47.106042199956036" lon="3.1296563981897507"><ele>267.0</ele><time>2026-04-26T07:23:06Z</time></trkpt><trkpt lat="47.10599748954355" lon="3.1297289000174255"><ele>267.0</ele><time>2026-04-26T07:23:07Z</time></trkpt><trkpt lat="47.10594841885292" lon="3.129802552470271"><ele>267.0</ele><time>2026-04-26T07:23:08Z</time></trkpt><trkpt lat="47.10585715439727" lon="3.1299304466678914"><ele>267.0</ele><time>2026-04-26T07:23:10Z</time></trkpt><trkpt lat="47.105764579883676" lon="3.1300305221707747"><ele>267.0</ele><time>2026-04-26T07:23:12Z</time></trkpt><trkpt lat="47.10567571780965" lon="3.1301223537944995"><ele>266.6</ele><time>2026-04-26T07:23:14Z</time></trkpt><trkpt lat="47.1055736633067" lon="3.1302046723511454"><ele>266.2</ele><time>2026-04-26T07:23:16Z</time></trkpt><trkpt lat="47.10548872116574" lon="3.130278753074602"><ele>265.8</ele><time>2026-04-26T07:23:18Z</time></trkpt><trkpt lat="47.105412350782196" lon="3.130377668917173"><ele>265.4</ele><time>2026-04-26T07:23:20Z</time></trkpt><trkpt lat="47.10532306095861" lon="3.1304822424580325"><ele>265.0</ele><time>2026-04-26T07:23:22Z</time></trkpt><trkpt lat="47.105245898925" lon="3.1306155177338644"><ele>264.6</ele><time>2026-04-26T07:23:24Z</time></trkpt><trkpt lat="47.105190588815226" lon="3.130767277295711"><ele>264.2</ele><time>2026-04-26T07:23:26Z</time></trkpt><trkpt lat="47.1051384905229" lon="3.130901653154726"><ele>263.8</ele><time>2026-04-26T07:23:28Z</time></trkpt><trkpt lat="47.10509433659998" lon="3.1310402677374465"><ele>263.4</ele><time>2026-04-26T07:23:30Z</time></trkpt><trkpt lat="47.10505261147928" lon="3.131180897333681"><ele>263.0</ele><time>2026-04-26T07:23:32Z</time></trkpt><trkpt lat="47.105016250835625" lon="3.1313177494764592"><ele>263.0</ele><time>2026-04-26T07:23:34Z</time></trkpt><trkpt lat="47.10497523300237" lon="3.1314562261926637"><ele>263.0</ele><time>2026-04-26T07:23:36Z</time></trkpt><trkpt lat="47.10491641912057" lon="3.1315970143720904"><ele>263.0</ele><time>2026-04-26T07:23:38Z</time></trkpt><trkpt lat="47.10485942945599" lon="3.1317312426682338"><ele>263.0</ele><time>2026-04-26T07:23:40Z</time></trkpt><trkpt lat="47.104808638041234" lon="3.131875195517889"><ele>263.0</ele><time>2026-04-26T07:23:42Z</time></trkpt><trkpt lat="47.104751450639114" lon="3.132014002968698"><ele>262.0</ele><time>2026-04-26T07:23:44Z</time></trkpt><trkpt lat="47.10470429285347" lon="3.13215302778962"><ele>261.0</ele><time>2026-04-26T07:23:46Z</time></trkpt><trkpt lat="47.10465312862893" lon="3.1322984220941215"><ele>260.0</ele><time>2026-04-26T07:23:48Z</time></trkpt><trkpt lat="47.10460674564493" lon="3.132434967707975"><ele>259.0</ele><time>2026-04-26T07:23:50Z</time></trkpt><trkpt lat="47.104571977786364" lon="3.1325757801923126"><ele>258.0</ele><time>2026-04-26T07:23:52Z</time></trkpt><trkpt lat="47.104501556406234" lon="3.132708849968055"><ele>257.6</ele><time>2026-04-26T07:23:54Z</time></trkpt><trkpt lat="47.104397222751" lon="3.132806996361002"><ele>257.20000000000005</ele><time>2026-04-26T07:23:56Z</time></trkpt><trkpt lat="47.10432684579756" lon="3.132874291585786"><ele>256.8</ele><time>2026-04-26T07:23:58Z</time></trkpt><trkpt lat="47.10424482226826" lon="3.1329110257654285"><ele>256.40000000000003</ele><time>2026-04-26T07:23:59.999Z</time></trkpt><trkpt lat="47.104218801143716" lon="3.133055690473092"><ele>256.0</ele><time>2026-04-26T07:24:01.999Z</time></trkpt><trkpt lat="47.10422907480475" lon="3.1331709837609747"><ele>256.0</ele><time>2026-04-26T07:24:04.999Z</time></trkpt><trkpt lat="47.104261532514805" lon="3.1332724983108142"><ele>256.0</ele><time>2026-04-26T07:24:07.999Z</time></trkpt><trkpt lat="47.10449251614592" lon="3.133266803623013"><ele>256.0</ele><time>2026-04-26T07:24:08.999Z</time></trkpt><trkpt lat="47.104554067536284" lon="3.1333361719509103"><ele>256.0</ele><time>2026-04-26T07:24:10.999Z</time></trkpt><trkpt lat="47.10463166248943" lon="3.1334104174095545"><ele>255.99999999999997</ele><time>2026-04-26T07:24:12.999Z</time></trkpt><trkpt lat="47.104705001410686" lon="3.1334899669018843"><ele>256.0</ele><time>2026-04-26T07:24:14.999Z</time></trkpt><trkpt lat="47.10478346457691" lon="3.133565756510746"><ele>256.0</ele><time>2026-04-26T07:24:16.999Z</time></trkpt><trkpt lat="47.104854642425515" lon="3.1336376211892576"><ele>256.0</ele><time>2026-04-26T07:24:18.999Z</time></trkpt><trkpt lat="47.104921874223514" lon="3.1336917178274626"><ele>255.99999999999997</ele><time>2026-04-26T07:24:20.999Z</time></trkpt><trkpt lat="47.104988733987895" lon="3.133747008776023"><ele>256.0</ele><time>2026-04-26T07:24:22.999Z</time></trkpt><trkpt lat="47.10505748563824" lon="3.1337980906078187"><ele>256.16666666666663</ele><time>2026-04-26T07:24:24.999Z</time></trkpt><trkpt lat="47.10512433417269" lon="3.1338542950115458"><ele>256.3333333333333</ele><time>2026-04-26T07:24:26.999Z</time></trkpt><trkpt lat="47.10518700908243" lon="3.133900878703647"><ele>256.5</ele><time>2026-04-26T07:24:29.999Z</time></trkpt><trkpt lat="47.105258384540626" lon="3.1339524120026128"><ele>256.6666666666667</ele><time>2026-04-26T07:24:32.999Z</time></trkpt><trkpt lat="47.10532933031062" lon="3.134003973968751"><ele>256.83333333333337</ele><time>2026-04-26T07:24:35.999Z</time></trkpt><trkpt lat="47.10538477077857" lon="3.134061986828503"><ele>257.0</ele><time>2026-04-26T07:24:38.999Z</time></trkpt><trkpt lat="47.105474732425144" lon="3.1341229962138413"><ele>257.1666666666667</ele><time>2026-04-26T07:24:40.999Z</time></trkpt><trkpt lat="47.10555848907597" lon="3.1341833619242783"><ele>257.33333333333337</ele><time>2026-04-26T07:24:42.999Z</time></trkpt><trkpt lat="47.105625010990536" lon="3.134238778000985"><ele>257.5</ele><time>2026-04-26T07:24:44.999Z</time></trkpt><trkpt lat="47.1057034418525" lon="3.134288838634262"><ele>257.6666666666667</ele><time>2026-04-26T07:24:47.999Z</time></trkpt><trkpt lat="47.1057704249301" lon="3.1343394963704463"><ele>257.8333333333333</ele><time>2026-04-26T07:24:50.999Z</time></trkpt><trkpt lat="47.105836120777006" lon="3.134392916579316"><ele>258.0</ele><time>2026-04-26T07:24:53.999Z</time></trkpt><trkpt lat="47.105895781164634" lon="3.1344378590147337"><ele>259.1428571428571</ele><time>2026-04-26T07:24:56.999Z</time></trkpt><trkpt lat="47.105968289217785" lon="3.134497267697606"><ele>260.2857142857143</ele><time>2026-04-26T07:24:59.999Z</time></trkpt><trkpt lat="47.10602800991766" lon="3.1345510520335984"><ele>261.42857142857144</ele><time>2026-04-26T07:25:02.999Z</time></trkpt><trkpt lat="47.10608938045866" lon="3.134608567454174"><ele>262.57142857142856</ele><time>2026-04-26T07:25:06Z</time></trkpt><trkpt lat="47.106144703337" lon="3.134670715150569"><ele>263.7142857142857</ele><time>2026-04-26T07:25:09Z</time></trkpt><trkpt lat="47.10619866131185" lon="3.1347374738305915"><ele>264.85714285714283</ele><time>2026-04-26T07:25:12Z</time></trkpt><trkpt lat="47.10624648155081" lon="3.134801839265824"><ele>266.0</ele><time>2026-04-26T07:25:15Z</time></trkpt><trkpt lat="47.106292651341505" lon="3.134880875781462"><ele>266.1666666666667</ele><time>2026-04-26T07:25:18Z</time></trkpt><trkpt lat="47.106347797270246" lon="3.1349547046733153"><ele>266.33333333333337</ele><time>2026-04-26T07:25:21Z</time></trkpt><trkpt lat="47.10639050785761" lon="3.135028449437436"><ele>266.5</ele><time>2026-04-26T07:25:24Z</time></trkpt><trkpt lat="47.10643413618501" lon="3.1351175657343187"><ele>266.6666666666667</ele><time>2026-04-26T07:25:27Z</time></trkpt><trkpt lat="47.10650531352693" lon="3.1352307433784437"><ele>266.8333333333333</ele><time>2026-04-26T07:25:30Z</time></trkpt><trkpt lat="47.10656073167109" lon="3.135308195335943"><ele>267.0</ele><time>2026-04-26T07:25:33Z</time></trkpt><trkpt lat="47.10661442423745" lon="3.1353737592748585"><ele>268.0</ele><time>2026-04-26T07:25:36Z</time></trkpt><trkpt lat="47.10666803178882" lon="3.1354396079778173"><ele>269.0</ele><time>2026-04-26T07:25:39Z</time></trkpt><trkpt lat="47.10674183997918" lon="3.135527701765167"><ele>270.0</ele><time>2026-04-26T07:25:43Z</time></trkpt><trkpt lat="47.10680001973722" lon="3.1355869385047557"><ele>271.0</ele><time>2026-04-26T07:25:47Z</time></trkpt><trkpt lat="47.1068759107814" lon="3.135671008956979"><ele>272.0</ele><time>2026-04-26T07:25:51Z</time></trkpt><trkpt lat="47.106928914822035" lon="3.135732725082805"><ele>273.0</ele><time>2026-04-26T07:25:54Z</time></trkpt><trkpt lat="47.10699301549192" lon="3.135807672442972"><ele>273.0</ele><time>2026-04-26T07:26:11.999Z</time></trkpt><trkpt lat="47.10704682163644" lon="3.1358582077642323"><ele>273.0</ele><time>2026-04-26T07:26:14.999Z</time></trkpt><trkpt lat="47.10710314007938" lon="3.1359286359918848"><ele>273.0</ele><time>2026-04-26T07:26:17.999Z</time></trkpt><trkpt lat="47.10717169873149" lon="3.1359987364670254"><ele>273.0</ele><time>2026-04-26T07:26:21.999Z</time></trkpt><trkpt lat="47.10722292392933" lon="3.1360590396041452"><ele>273.0</ele><time>2026-04-26T07:26:24.999Z</time></trkpt><trkpt lat="47.10727392922075" lon="3.136128898847266"><ele>273.0</ele><time>2026-04-26T07:26:27.999Z</time></trkpt><trkpt lat="47.10732756022866" lon="3.1361932167335764"><ele>273.0</ele><time>2026-04-26T07:26:30.999Z</time></trkpt><trkpt lat="47.1074015461309" lon="3.1362681652866375"><ele>274.14285714285717</ele><time>2026-04-26T07:26:35.999Z</time></trkpt><trkpt lat="47.1074626373197" lon="3.1363227550517436"><ele>275.2857142857143</ele><time>2026-04-26T07:26:39.999Z</time></trkpt><trkpt lat="47.10753352690093" lon="3.13637064016945"><ele>276.42857142857144</ele><time>2026-04-26T07:26:42.999Z</time></trkpt><trkpt lat="47.10759601902479" lon="3.1364205260747102"><ele>277.57142857142856</ele><time>2026-04-26T07:26:45.999Z</time></trkpt><trkpt lat="47.10765149287535" lon="3.136464700890323"><ele>278.7142857142857</ele><time>2026-04-26T07:26:48.999Z</time></trkpt><trkpt lat="47.10773076539517" lon="3.136528644584382"><ele>279.8571428571429</ele><time>2026-04-26T07:26:52.999Z</time></trkpt><trkpt lat="47.10778830067969" lon="3.1365694612428365"><ele>281.0</ele><time>2026-04-26T07:26:56.999Z</time></trkpt><trkpt lat="47.107852866452234" lon="3.136658001538443"><ele>281.0</ele><time>2026-04-26T07:27:00.999Z</time></trkpt><trkpt lat="47.10790169836486" lon="3.136741842680749"><ele>281.0</ele><time>2026-04-26T07:27:03.999Z</time></trkpt><trkpt lat="47.107928544198266" lon="3.136854032266998"><ele>281.0</ele><time>2026-04-26T07:27:06.999Z</time></trkpt><trkpt lat="47.107954319401095" lon="3.1369493519700247"><ele>281.0</ele><time>2026-04-26T07:27:10Z</time></trkpt><trkpt lat="47.10799575557292" lon="3.1370369776246196"><ele>281.0</ele><time>2026-04-26T07:27:13Z</time></trkpt><trkpt lat="47.108014815808176" lon="3.1371305561844722"><ele>281.0</ele><time>2026-04-26T07:27:15Z</time></trkpt><trkpt lat="47.1080458120899" lon="3.1372506157675586"><ele>281.0</ele><time>2026-04-26T07:27:18Z</time></trkpt><trkpt lat="47.108079430727905" lon="3.137389117937818"><ele>281.0</ele><time>2026-04-26T07:27:21Z</time></trkpt><trkpt lat="47.10811173776454" lon="3.1374986980442827"><ele>281.0</ele><time>2026-04-26T07:27:23Z</time></trkpt><trkpt lat="47.10814833617477" lon="3.137620797833995"><ele>281.0</ele><time>2026-04-26T07:27:25Z</time></trkpt><trkpt lat="47.108197917569214" lon="3.1377377523903798"><ele>281.0</ele><time>2026-04-26T07:27:28Z</time></trkpt><trkpt lat="47.108239195598046" lon="3.1378347652661387"><ele>281.0</ele><time>2026-04-26T07:27:31Z</time></trkpt><trkpt lat="47.10826556132374" lon="3.137944134625653"><ele>282.5</ele><time>2026-04-26T07:27:34Z</time></trkpt><trkpt lat="47.10829597276817" lon="3.13803101301505"><ele>284.0</ele><time>2026-04-26T07:27:36Z</time></trkpt><trkpt lat="47.10833255464784" lon="3.13812664992079"><ele>285.5</ele><time>2026-04-26T07:27:38Z</time></trkpt><trkpt lat="47.10837296556469" lon="3.138251314688107"><ele>287.0</ele><time>2026-04-26T07:27:40Z</time></trkpt><trkpt lat="47.10842502459822" lon="3.1383273941669145"><ele>288.5</ele><time>2026-04-26T07:27:42Z</time></trkpt><trkpt lat="47.10849622246147" lon="3.1383905651154667"><ele>290.0</ele><time>2026-04-26T07:27:44Z</time></trkpt><trkpt lat="47.108568529269554" lon="3.1384432024398397"><ele>290.0</ele><time>2026-04-26T07:27:46Z</time></trkpt><trkpt lat="47.108629033152624" lon="3.138541180592963"><ele>290.0</ele><time>2026-04-26T07:27:47Z</time></trkpt><trkpt lat="47.108682693563544" lon="3.138630797252932"><ele>290.0</ele><time>2026-04-26T07:27:49Z</time></trkpt><trkpt lat="47.108703073671336" lon="3.1387330357193663"><ele>290.0</ele><time>2026-04-26T07:27:51Z</time></trkpt><trkpt lat="47.10870634465419" lon="3.1388883797031206"><ele>290.0</ele><time>2026-04-26T07:27:53Z</time></trkpt><trkpt lat="47.10871927299968" lon="3.1390336107994"><ele>290.0</ele><time>2026-04-26T07:27:55Z</time></trkpt><trkpt lat="47.10872633495698" lon="3.139129650965045"><ele>290.2</ele><time>2026-04-26T07:27:56Z</time></trkpt><trkpt lat="47.10872194641284" lon="3.139277144308049"><ele>290.4</ele><time>2026-04-26T07:27:58Z</time></trkpt><trkpt lat="47.10870470671822" lon="3.1393936360703005"><ele>290.6</ele><time>2026-04-26T07:28:00Z</time></trkpt><trkpt lat="47.108623090964876" lon="3.1395282827681976"><ele>290.8</ele><time>2026-04-26T07:28:01.999Z</time></trkpt><trkpt lat="47.108602668913164" lon="3.1396777731514893"><ele>291.0</ele><time>2026-04-26T07:28:03.999Z</time></trkpt><trkpt lat="47.1085517157456" lon="3.139788565295867"><ele>291.0</ele><time>2026-04-26T07:28:05.999Z</time></trkpt><trkpt lat="47.10850406096399" lon="3.139858279970485"><ele>291.0</ele><time>2026-04-26T07:28:07.999Z</time></trkpt><trkpt lat="47.108467080330605" lon="3.139958747293809"><ele>291.0</ele><time>2026-04-26T07:28:09.999Z</time></trkpt><trkpt lat="47.1084244051375" lon="3.1400925368547785"><ele>291.0</ele><time>2026-04-26T07:28:12.999Z</time></trkpt><trkpt lat="47.10836358215823" lon="3.1402098879775138"><ele>291.0</ele><time>2026-04-26T07:28:15.999Z</time></trkpt><trkpt lat="47.10833897861965" lon="3.140295586209768"><ele>291.0</ele><time>2026-04-26T07:28:17.999Z</time></trkpt><trkpt lat="47.108300672118645" lon="3.1403715078541783"><ele>290.7142857142857</ele><time>2026-04-26T07:28:19.999Z</time></trkpt><trkpt lat="47.108270691801955" lon="3.1404710212056877"><ele>290.4285714285714</ele><time>2026-04-26T07:28:22.999Z</time></trkpt><trkpt lat="47.108243475927644" lon="3.1405876568506015"><ele>290.1428571428571</ele><time>2026-04-26T07:28:26.999Z</time></trkpt><trkpt lat="47.10821926904992" lon="3.140677301060875"><ele>289.85714285714283</ele><time>2026-04-26T07:28:29.999Z</time></trkpt><trkpt lat="47.108202489560426" lon="3.1407747631338157"><ele>289.57142857142856</ele><time>2026-04-26T07:28:32.999Z</time></trkpt><trkpt lat="47.10819050813439" lon="3.1408767017875387"><ele>289.2857142857143</ele><time>2026-04-26T07:28:35.999Z</time></trkpt><trkpt lat="47.108165879152466" lon="3.1409864048699014"><ele>289.0</ele><time>2026-04-26T07:28:39.999Z</time></trkpt><trkpt lat="47.10814925658568" lon="3.1410931820830004"><ele>289.0</ele><time>2026-04-26T07:28:56.999Z</time></trkpt><trkpt lat="47.10813732410204" lon="3.1411883865620256"><ele>289.0</ele><time>2026-04-26T07:28:59.999Z</time></trkpt><trkpt lat="47.108125433621325" lon="3.141306568109322"><ele>289.0</ele><time>2026-04-26T07:29:03.999Z</time></trkpt><trkpt lat="47.10813365357552" lon="3.14141825523915"><ele>289.0</ele><time>2026-04-26T07:29:06.999Z</time></trkpt><trkpt lat="47.1081168472093" lon="3.1415303626021145"><ele>289.0</ele><time>2026-04-26T07:29:10.999Z</time></trkpt><trkpt lat="47.10815595416232" lon="3.141651593735567"><ele>289.0</ele><time>2026-04-26T07:29:16Z</time></trkpt><trkpt lat="47.10818391062783" lon="3.141743282763233"><ele>290.8333333333333</ele><time>2026-04-26T07:29:21Z</time></trkpt><trkpt lat="47.108221297273055" lon="3.1418647432670266"><ele>292.66666666666663</ele><time>2026-04-26T07:29:25Z</time></trkpt><trkpt lat="47.10824867945128" lon="3.141955287439381"><ele>294.5</ele><time>2026-04-26T07:29:42Z</time></trkpt><trkpt lat="47.10828900581882" lon="3.1420567337021867"><ele>296.3333333333333</ele><time>2026-04-26T07:29:47Z</time></trkpt><trkpt lat="47.10830059140159" lon="3.142151341223371"><ele>298.1666666666667</ele><time>2026-04-26T07:29:51Z</time></trkpt><trkpt lat="47.108340454729564" lon="3.1422570162884518"><ele>300.0</ele><time>2026-04-26T07:29:56Z</time></trkpt><trkpt lat="47.10836256837959" lon="3.1423632314487824"><ele>302.8333333333333</ele><time>2026-04-26T07:29:59Z</time></trkpt><trkpt lat="47.108397659207455" lon="3.142473970366108"><ele>305.6666666666667</ele><time>2026-04-26T07:30:04Z</time></trkpt><trkpt lat="47.10841600850828" lon="3.142577990087304"><ele>308.5</ele><time>2026-04-26T07:30:08Z</time></trkpt><trkpt lat="47.10842618636006" lon="3.1426849879519336"><ele>311.33333333333337</ele><time>2026-04-26T07:30:13.999Z</time></trkpt><trkpt lat="47.10843040796033" lon="3.142796400394807"><ele>314.1666666666667</ele><time>2026-04-26T07:30:17.999Z</time></trkpt><trkpt lat="47.10842709308678" lon="3.1429062801515117"><ele>317.0</ele><time>2026-04-26T07:30:21.999Z</time></trkpt><trkpt lat="47.10842071767922" lon="3.143013288236718"><ele>317.0</ele><time>2026-04-26T07:30:25.999Z</time></trkpt><trkpt lat="47.108409398617304" lon="3.1431259412599064"><ele>317.0</ele><time>2026-04-26T07:30:29.999Z</time></trkpt><trkpt lat="47.108396257237246" lon="3.1432379476942445"><ele>317.0</ele><time>2026-04-26T07:30:33.999Z</time></trkpt><trkpt lat="47.108380258410016" lon="3.1433287543177686"><ele>317.0</ele><time>2026-04-26T07:30:36.999Z</time></trkpt><trkpt lat="47.108360191359864" lon="3.1434246064428337"><ele>317.0</ele><time>2026-04-26T07:30:40.999Z</time></trkpt><trkpt lat="47.108337052353065" lon="3.1435203040849022"><ele>317.0</ele><time>2026-04-26T07:30:44.999Z</time></trkpt><trkpt lat="47.10831170259391" lon="3.1436169851124083"><ele>317.0</ele><time>2026-04-26T07:30:48.999Z</time></trkpt><trkpt lat="47.10828594992356" lon="3.1437119182558053"><ele>317.42857142857144</ele><time>2026-04-26T07:30:52.999Z</time></trkpt><trkpt lat="47.10825919257486" lon="3.1438115852115733"><ele>317.85714285714283</ele><time>2026-04-26T07:30:58.999Z</time></trkpt><trkpt lat="47.10823317943558" lon="3.1439153408063842"><ele>318.2857142857143</ele><time>2026-04-26T07:31:03.999Z</time></trkpt><trkpt lat="47.108211369850345" lon="3.144014174257753"><ele>318.7142857142857</ele><time>2026-04-26T07:31:07.999Z</time></trkpt><trkpt lat="47.10817470473001" lon="3.1440933263209896"><ele>319.14285714285717</ele><time>2026-04-26T07:31:10.999Z</time></trkpt><trkpt lat="47.10816297293145" lon="3.1441870947799173"><ele>319.57142857142856</ele><time>2026-04-26T07:31:13.999Z</time></trkpt><trkpt lat="47.108151199736184" lon="3.144289323680973"><ele>320.0</ele><time>2026-04-26T07:31:16.999Z</time></trkpt><trkpt lat="47.10814447292144" lon="3.14439678353025"><ele>320.6666666666667</ele><time>2026-04-26T07:31:22Z</time></trkpt><trkpt lat="47.10813764669147" lon="3.1445183504794936"><ele>321.33333333333337</ele><time>2026-04-26T07:31:26Z</time></trkpt><trkpt lat="47.10812152545223" lon="3.144625065455329"><ele>322.0</ele><time>2026-04-26T07:31:29Z</time></trkpt><trkpt lat="47.108152519399965" lon="3.1447127228966956"><ele>322.6666666666667</ele><time>2026-04-26T07:31:34Z</time></trkpt><trkpt lat="47.10824526270534" lon="3.144761238497809"><ele>323.3333333333333</ele><time>2026-04-26T07:31:39Z</time></trkpt><trkpt lat="47.108325520851885" lon="3.144821863679839"><ele>324.0</ele><time>2026-04-26T07:31:43Z</time></trkpt><trkpt lat="47.10841415695645" lon="3.1448661964027274"><ele>325.0</ele><time>2026-04-26T07:31:47Z</time></trkpt><trkpt lat="47.10850855740977" lon="3.144897709586091"><ele>326.0</ele><time>2026-04-26T07:31:51Z</time></trkpt><trkpt lat="47.108570197137865" lon="3.144923323385949"><ele>327.0</ele><time>2026-04-26T07:31:53Z</time></trkpt><trkpt lat="47.10863946400453" lon="3.144922876372797"><ele>328.0</ele><time>2026-04-26T07:31:56Z</time></trkpt><trkpt lat="47.108705937057586" lon="3.1449401567701885"><ele>329.0</ele><time>2026-04-26T07:31:59Z</time></trkpt><trkpt lat="47.108784510336235" lon="3.1449501775081568"><ele>330.0</ele><time>2026-04-26T07:32:02Z</time></trkpt><trkpt lat="47.1088476441119" lon="3.14500385765376"><ele>331.0</ele><time>2026-04-26T07:32:06Z</time></trkpt><trkpt lat="47.108913576606376" lon="3.1450534659771843"><ele>331.0</ele><time>2026-04-26T07:32:11.999Z</time></trkpt><trkpt lat="47.10895780333116" lon="3.145153490258187"><ele>331.0</ele><time>2026-04-26T07:32:14.999Z</time></trkpt><trkpt lat="47.10898109412497" lon="3.145302482706455"><ele>331.0</ele><time>2026-04-26T07:32:15.999Z</time></trkpt><trkpt lat="47.10900648691502" lon="3.1454302687559177"><ele>331.0</ele><time>2026-04-26T07:32:19.999Z</time></trkpt><trkpt lat="47.1090307855021" lon="3.145540978871666"><ele>331.0</ele><time>2026-04-26T07:32:22.999Z</time></trkpt><trkpt lat="47.10904937005027" lon="3.1456560221699674"><ele>331.0</ele><time>2026-04-26T07:32:24.999Z</time></trkpt><trkpt lat="47.10908314368697" lon="3.1458178896299107"><ele>330.6</ele><time>2026-04-26T07:32:26.999Z</time></trkpt><trkpt lat="47.10910837749784" lon="3.145968121394579"><ele>330.20000000000005</ele><time>2026-04-26T07:32:28.999Z</time></trkpt><trkpt lat="47.10911848138833" lon="3.1461056468063937"><ele>329.79999999999995</ele><time>2026-04-26T07:32:30.999Z</time></trkpt><trkpt lat="47.10913278283827" lon="3.1462772096911253"><ele>329.4</ele><time>2026-04-26T07:32:32.999Z</time></trkpt><trkpt lat="47.10916946318182" lon="3.1464179730750663"><ele>329.0</ele><time>2026-04-26T07:32:34.999Z</time></trkpt><trkpt lat="47.10919231117166" lon="3.146563630786733"><ele>328.1666666666667</ele><time>2026-04-26T07:32:36.999Z</time></trkpt><trkpt lat="47.10921749383946" lon="3.1466979535747246"><ele>327.33333333333337</ele><time>2026-04-26T07:32:38.999Z</time></trkpt><trkpt lat="47.10924575330964" lon="3.146809956661711"><ele>326.5</ele><time>2026-04-26T07:32:42.999Z</time></trkpt><trkpt lat="47.10927884976072" lon="3.1469101155024126"><ele>325.6666666666667</ele><time>2026-04-26T07:32:44.999Z</time></trkpt><trkpt lat="47.109303011876875" lon="3.1470002490864113"><ele>324.8333333333333</ele><time>2026-04-26T07:32:46.999Z</time></trkpt><trkpt lat="47.10934564025888" lon="3.147148672929278"><ele>324.0</ele><time>2026-04-26T07:32:48.999Z</time></trkpt><trkpt lat="47.109402089824755" lon="3.147255549571548"><ele>324.0</ele><time>2026-04-26T07:32:50.999Z</time></trkpt><trkpt lat="47.10944140418581" lon="3.147357261566801"><ele>324.0</ele><time>2026-04-26T07:32:53.999Z</time></trkpt><trkpt lat="47.10947002809928" lon="3.147443702501753"><ele>324.0</ele><time>2026-04-26T07:32:56.999Z</time></trkpt><trkpt lat="47.109506256069736" lon="3.147543252891366"><ele>324.0</ele><time>2026-04-26T07:32:58.999Z</time></trkpt><trkpt lat="47.10953500863384" lon="3.1476474576007507"><ele>324.0</ele><time>2026-04-26T07:33:00.999Z</time></trkpt><trkpt lat="47.109581827072596" lon="3.1477522832937566"><ele>324.0</ele><time>2026-04-26T07:33:01.999Z</time></trkpt><trkpt lat="47.109627804157576" lon="3.1479245931387414"><ele>323.2</ele><time>2026-04-26T07:33:03.999Z</time></trkpt><trkpt lat="47.109686927410024" lon="3.148090352717497"><ele>322.4</ele><time>2026-04-26T07:33:05.999Z</time></trkpt><trkpt lat="47.10972942315587" lon="3.1482072882817342"><ele>321.6</ele><time>2026-04-26T07:33:07.999Z</time></trkpt><trkpt lat="47.10977216289103" lon="3.14833036072897"><ele>320.8</ele><time>2026-04-26T07:33:09.999Z</time></trkpt><trkpt lat="47.10982072672104" lon="3.1484538044684127"><ele>320.0</ele><time>2026-04-26T07:33:11.999Z</time></trkpt><trkpt lat="47.10987592656902" lon="3.148537367046795"><ele>318.5</ele><time>2026-04-26T07:33:13.999Z</time></trkpt><trkpt lat="47.109927499137335" lon="3.148661600055658"><ele>317.0</ele><time>2026-04-26T07:33:15.999Z</time></trkpt><trkpt lat="47.109992079217676" lon="3.1487339246069843"><ele>315.5</ele><time>2026-04-26T07:33:17.999Z</time></trkpt><trkpt lat="47.11005766000017" lon="3.1488206213738517"><ele>314.0</ele><time>2026-04-26T07:33:19.999Z</time></trkpt><trkpt lat="47.11011924637463" lon="3.148883362117075"><ele>312.5</ele><time>2026-04-26T07:33:21.999Z</time></trkpt><trkpt lat="47.11017864079655" lon="3.148934654757609"><ele>311.0</ele><time>2026-04-26T07:33:23.998Z</time></trkpt><trkpt lat="47.11028014316099" lon="3.148998355361131"><ele>310.0</ele><time>2026-04-26T07:33:26.998Z</time></trkpt><trkpt lat="47.11039013727816" lon="3.1490612276025662"><ele>309.0</ele><time>2026-04-26T07:33:29Z</time></trkpt><trkpt lat="47.110489747592084" lon="3.1491206120363335"><ele>308.0</ele><time>2026-04-26T07:33:31Z</time></trkpt><trkpt lat="47.11058089392683" lon="3.1491512756693325"><ele>307.0</ele><time>2026-04-26T07:33:34Z</time></trkpt><trkpt lat="47.11066231652851" lon="3.1491949573754865"><ele>306.0</ele><time>2026-04-26T07:33:36Z</time></trkpt><trkpt lat="47.110723607766786" lon="3.1492408507387"><ele>303.6</ele><time>2026-04-26T07:33:38Z</time></trkpt><trkpt lat="47.110800744473465" lon="3.14928112913116"><ele>301.20000000000005</ele><time>2026-04-26T07:33:40Z</time></trkpt><trkpt lat="47.110898328086556" lon="3.1492988545798704"><ele>298.79999999999995</ele><time>2026-04-26T07:33:42Z</time></trkpt><trkpt lat="47.11098477428309" lon="3.1493874683305636"><ele>296.4</ele><time>2026-04-26T07:33:44Z</time></trkpt><trkpt lat="47.11108743203572" lon="3.149486738782278"><ele>294.0</ele><time>2026-04-26T07:33:46Z</time></trkpt><trkpt lat="47.11118470083273" lon="3.149579832476702"><ele>294.0</ele><time>2026-04-26T07:33:48Z</time></trkpt><trkpt lat="47.111249077731685" lon="3.149652984976458"><ele>294.0</ele><time>2026-04-26T07:33:50Z</time></trkpt><trkpt lat="47.11131888334127" lon="3.1497419106474758"><ele>294.0</ele><time>2026-04-26T07:33:53Z</time></trkpt><trkpt lat="47.11137849782511" lon="3.1498076689920897"><ele>294.0</ele><time>2026-04-26T07:33:54Z</time></trkpt><trkpt lat="47.11145323581575" lon="3.1498433115339384"><ele>294.0</ele><time>2026-04-26T07:33:56Z</time></trkpt><trkpt lat="47.111499682862046" lon="3.149909623635684"><ele>294.0</ele><time>2026-04-26T07:33:57Z</time></trkpt><trkpt lat="47.111554925758156" lon="3.1499933241540177"><ele>291.8333333333333</ele><time>2026-04-26T07:33:59Z</time></trkpt><trkpt lat="47.11163802958855" lon="3.15008370739841"><ele>289.6666666666667</ele><time>2026-04-26T07:34:01Z</time></trkpt><trkpt lat="47.11171493201569" lon="3.150176095092293"><ele>287.5</ele><time>2026-04-26T07:34:03Z</time></trkpt><trkpt lat="47.111749937497926" lon="3.150258965893673"><ele>285.33333333333337</ele><time>2026-04-26T07:34:04Z</time></trkpt><trkpt lat="47.11179411491765" lon="3.1503420994703"><ele>283.1666666666667</ele><time>2026-04-26T07:34:06Z</time></trkpt><trkpt lat="47.11184839147609" lon="3.1504541021101864"><ele>281.0</ele><time>2026-04-26T07:34:08Z</time></trkpt><trkpt lat="47.11190879431668" lon="3.1505848934192393"><ele>281.0</ele><time>2026-04-26T07:34:10Z</time></trkpt><trkpt lat="47.111949242269176" lon="3.1506846121854943"><ele>281.0</ele><time>2026-04-26T07:34:13Z</time></trkpt><trkpt lat="47.111973752200804" lon="3.1508076846488944"><ele>281.0</ele><time>2026-04-26T07:34:16Z</time></trkpt><trkpt lat="47.112040116531745" lon="3.150917543580481"><ele>281.0</ele><time>2026-04-26T07:34:18.999Z</time></trkpt><trkpt lat="47.112065115566864" lon="3.1510025910904313"><ele>281.0</ele><time>2026-04-26T07:34:19.999Z</time></trkpt><trkpt lat="47.11211971228303" lon="3.1511638677598977"><ele>279.6</ele><time>2026-04-26T07:34:21.999Z</time></trkpt><trkpt lat="47.112156303439505" lon="3.151255952803022"><ele>278.20000000000005</ele><time>2026-04-26T07:34:22.999Z</time></trkpt><trkpt lat="47.11220127289653" lon="3.151375976856918"><ele>276.79999999999995</ele><time>2026-04-26T07:34:24.999Z</time></trkpt><trkpt lat="47.112296183709155" lon="3.151513772028783"><ele>275.4</ele><time>2026-04-26T07:34:26.999Z</time></trkpt><trkpt lat="47.112362537273796" lon="3.1516063481516374"><ele>274.0</ele><time>2026-04-26T07:34:28.999Z</time></trkpt><trkpt lat="47.11242749407245" lon="3.151713285943747"><ele>270.4</ele><time>2026-04-26T07:34:30.999Z</time></trkpt><trkpt lat="47.11250750787439" lon="3.151780844165858"><ele>266.79999999999995</ele><time>2026-04-26T07:34:33.999Z</time></trkpt><trkpt lat="47.11256253863785" lon="3.1518698760598207"><ele>263.20000000000005</ele><time>2026-04-26T07:34:35.999Z</time></trkpt><trkpt lat="47.11262332510062" lon="3.15197107075966"><ele>259.6</ele><time>2026-04-26T07:34:37.999Z</time></trkpt><trkpt lat="47.1126852331626" lon="3.1520696951879312"><ele>256.0</ele><time>2026-04-26T07:34:39.999Z</time></trkpt><trkpt lat="47.112730885727125" lon="3.152190382500926"><ele>256.0</ele><time>2026-04-26T07:34:42.999Z</time></trkpt><trkpt lat="47.11278288678082" lon="3.152304376269686"><ele>256.0</ele><time>2026-04-26T07:34:44.999Z</time></trkpt><trkpt lat="47.112817338859024" lon="3.152466310216674"><ele>256.0</ele><time>2026-04-26T07:34:46.999Z</time></trkpt><trkpt lat="47.11282503814141" lon="3.1526065655111553"><ele>256.0</ele><time>2026-04-26T07:34:48.999Z</time></trkpt><trkpt lat="47.11282660035789" lon="3.152733652824582"><ele>256.0</ele><time>2026-04-26T07:34:50.999Z</time></trkpt><trkpt lat="47.11285842804982" lon="3.152832509229402"><ele>254.33333333333331</ele><time>2026-04-26T07:34:52.999Z</time></trkpt><trkpt lat="47.11289660417999" lon="3.1529439139098647"><ele>252.66666666666666</ele><time>2026-04-26T07:34:55.999Z</time></trkpt><trkpt lat="47.11294311068717" lon="3.153042625099422"><ele>251.0</ele><time>2026-04-26T07:34:57.999Z</time></trkpt><trkpt lat="47.11297968205155" lon="3.153119383103171"><ele>249.33333333333331</ele><time>2026-04-26T07:35:00.999Z</time></trkpt><trkpt lat="47.113006905556084" lon="3.1532441604995"><ele>247.66666666666666</ele><time>2026-04-26T07:35:04.999Z</time></trkpt><trkpt lat="47.113045246531584" lon="3.1533442601636112"><ele>246.0</ele><time>2026-04-26T07:35:07.999Z</time></trkpt><trkpt lat="47.11307603568593" lon="3.1534751285585383"><ele>244.5</ele><time>2026-04-26T07:35:11.999Z</time></trkpt><trkpt lat="47.11310550227547" lon="3.153604664729654"><ele>243.0</ele><time>2026-04-26T07:35:14.999Z</time></trkpt><trkpt lat="47.113121349443496" lon="3.153759175888026"><ele>241.5</ele><time>2026-04-26T07:35:16.999Z</time></trkpt><trkpt lat="47.1131388225529" lon="3.1538751530176956"><ele>240.0</ele><time>2026-04-26T07:35:18.999Z</time></trkpt><trkpt lat="47.11314997454783" lon="3.1540006819044843"><ele>238.5</ele><time>2026-04-26T07:35:20.999Z</time></trkpt><trkpt lat="47.1131689039994" lon="3.154119301624588"><ele>237.0</ele><time>2026-04-26T07:35:22.999Z</time></trkpt><trkpt lat="47.113187358681046" lon="3.1542170642482454"><ele>236.66666666666666</ele><time>2026-04-26T07:35:24.999Z</time></trkpt><trkpt lat="47.113235261448644" lon="3.15433108267426"><ele>236.33333333333331</ele><time>2026-04-26T07:35:27.999Z</time></trkpt><trkpt lat="47.11327514318542" lon="3.154449516523185"><ele>236.0</ele><time>2026-04-26T07:35:30.998Z</time></trkpt><trkpt lat="47.113304911131394" lon="3.1545678605601113"><ele>235.66666666666666</ele><time>2026-04-26T07:35:34Z</time></trkpt><trkpt lat="47.113333868124556" lon="3.1546561512005913"><ele>235.33333333333331</ele><time>2026-04-26T07:35:37Z</time></trkpt><trkpt lat="47.11336926840456" lon="3.154734017381344"><ele>235.0</ele><time>2026-04-26T07:35:40Z</time></trkpt><trkpt lat="47.11344406613093" lon="3.154795631655406"><ele>235.0</ele><time>2026-04-26T07:35:44Z</time></trkpt><trkpt lat="47.1135021807409" lon="3.154845452933742"><ele>234.99999999999997</ele><time>2026-04-26T07:35:47Z</time></trkpt><trkpt lat="47.11356597778874" lon="3.154879586927688"><ele>235.0</ele><time>2026-04-26T07:35:50Z</time></trkpt><trkpt lat="47.11363863045524" lon="3.1549188996520456"><ele>235.0</ele><time>2026-04-26T07:35:54Z</time></trkpt><trkpt lat="47.11371665299616" lon="3.1549208999809926"><ele>234.99999999999997</ele><time>2026-04-26T07:35:57Z</time></trkpt><trkpt lat="47.113783060616804" lon="3.1549062461321853"><ele>235.0</ele><time>2026-04-26T07:36:00Z</time></trkpt><trkpt lat="47.11384921625292" lon="3.154910458431339"><ele>235.0</ele><time>2026-04-26T07:36:03Z</time></trkpt><trkpt lat="47.11391319849498" lon="3.154938965878143"><ele>235.14285714285714</ele><time>2026-04-26T07:36:06Z</time></trkpt><trkpt lat="47.11398421235959" lon="3.1549708755873493"><ele>235.28571428571428</ele><time>2026-04-26T07:36:10Z</time></trkpt><trkpt lat="47.11405430094262" lon="3.1549914049087273"><ele>235.42857142857142</ele><time>2026-04-26T07:36:14Z</time></trkpt><trkpt lat="47.11411954014733" lon="3.1550310227551597"><ele>235.57142857142856</ele><time>2026-04-26T07:36:18Z</time></trkpt><trkpt lat="47.11417112425825" lon="3.155112380678536"><ele>235.71428571428572</ele><time>2026-04-26T07:37:01.999Z</time></trkpt><trkpt lat="47.11423366976737" lon="3.155153805745923"><ele>235.85714285714283</ele><time>2026-04-26T07:37:06.999Z</time></trkpt><trkpt lat="47.114292716122456" lon="3.155193814385197"><ele>236.0</ele><time>2026-04-26T07:37:10.999Z</time></trkpt><trkpt lat="47.114360263487505" lon="3.1552509537387685"><ele>237.14285714285714</ele><time>2026-04-26T07:37:14.999Z</time></trkpt><trkpt lat="47.11442281327712" lon="3.1553083074899484"><ele>238.28571428571428</ele><time>2026-04-26T07:37:18.999Z</time></trkpt><trkpt lat="47.11448430919776" lon="3.155383672780824"><ele>239.42857142857142</ele><time>2026-04-26T07:37:23.999Z</time></trkpt><trkpt lat="47.11453246185806" lon="3.155472402274397"><ele>240.57142857142856</ele><time>2026-04-26T07:37:27.999Z</time></trkpt><trkpt lat="47.1145799152178" lon="3.1555498639611006"><ele>241.71428571428572</ele><time>2026-04-26T07:37:31.999Z</time></trkpt><trkpt lat="47.11463743513066" lon="3.155629768986093"><ele>242.85714285714283</ele><time>2026-04-26T07:37:35.998Z</time></trkpt><trkpt lat="47.114682132414195" lon="3.1557019390447567"><ele>243.99999999999997</ele><time>2026-04-26T07:37:40Z</time></trkpt><trkpt lat="47.11473712176329" lon="3.155777072083405"><ele>245.1428571428571</ele><time>2026-04-26T07:37:45Z</time></trkpt><trkpt lat="47.11479101952435" lon="3.1558442623844987"><ele>246.28571428571428</ele><time>2026-04-26T07:37:49Z</time></trkpt><trkpt lat="47.114841189667914" lon="3.1559068057355297"><ele>247.42857142857142</ele><time>2026-04-26T07:37:52Z</time></trkpt><trkpt lat="47.11489764701175" lon="3.155974162007208"><ele>248.57142857142856</ele><time>2026-04-26T07:37:56Z</time></trkpt><trkpt lat="47.114951921307394" lon="3.1560301731591758"><ele>249.71428571428572</ele><time>2026-04-26T07:38:00Z</time></trkpt><trkpt lat="47.11502147224262" lon="3.156097770678692"><ele>250.85714285714286</ele><time>2026-04-26T07:38:05Z</time></trkpt><trkpt lat="47.11507664968566" lon="3.1561531227182904"><ele>252.0</ele><time>2026-04-26T07:38:08Z</time></trkpt><trkpt lat="47.11514778540292" lon="3.156197386681422"><ele>252.71428571428572</ele><time>2026-04-26T07:38:13Z</time></trkpt><trkpt lat="47.115211824583085" lon="3.156223750564562"><ele>253.42857142857144</ele><time>2026-04-26T07:38:44.999Z</time></trkpt><trkpt lat="47.115272944612464" lon="3.156250565747296"><ele>254.14285714285714</ele><time>2026-04-26T07:38:48.999Z</time></trkpt><trkpt lat="47.11533991388958" lon="3.156273094585785"><ele>254.85714285714286</ele><time>2026-04-26T07:38:52.999Z</time></trkpt><trkpt lat="47.11540232305679" lon="3.156294089374755"><ele>255.57142857142858</ele><time>2026-04-26T07:38:56.999Z</time></trkpt><trkpt lat="47.11547637380309" lon="3.1562558343398224"><ele>256.2857142857143</ele><time>2026-04-26T07:39:00.999Z</time></trkpt><trkpt lat="47.11555015766536" lon="3.1562936158929835"><ele>257.0</ele><time>2026-04-26T07:39:05.999Z</time></trkpt><trkpt lat="47.1156151556837" lon="3.1562921039150473"><ele>257.0</ele><time>2026-04-26T07:39:18.999Z</time></trkpt><trkpt lat="47.11567288173491" lon="3.1562375943472594"><ele>257.0</ele><time>2026-04-26T07:39:28.999Z</time></trkpt><trkpt lat="47.11574310351765" lon="3.156218424354478"><ele>257.0</ele><time>2026-04-26T07:39:34.999Z</time></trkpt><trkpt lat="47.11580618663023" lon="3.156237659470892"><ele>257.0</ele><time>2026-04-26T07:39:39.999Z</time></trkpt><trkpt lat="47.11587992919327" lon="3.1562539631648825"><ele>257.0</ele><time>2026-04-26T07:39:44.998Z</time></trkpt><trkpt lat="47.115946488357466" lon="3.156260751217716"><ele>257.0</ele><time>2026-04-26T07:39:50Z</time></trkpt><trkpt lat="47.116012102699976" lon="3.1562689003541253"><ele>257.0</ele><time>2026-04-26T07:39:54Z</time></trkpt><trkpt lat="47.116079073624554" lon="3.156276672455924"><ele>258.7142857142857</ele><time>2026-04-26T07:39:59Z</time></trkpt><trkpt lat="47.11614915343768" lon="3.156250266449178"><ele>260.42857142857144</ele><time>2026-04-26T07:40:07Z</time></trkpt><trkpt lat="47.11619774909199" lon="3.1563101494925503"><ele>262.14285714285717</ele><time>2026-04-26T07:40:12Z</time></trkpt><trkpt lat="47.116265366132914" lon="3.1563403045970246"><ele>263.8571428571429</ele><time>2026-04-26T07:40:18Z</time></trkpt><trkpt lat="47.11633427016781" lon="3.1563653828624965"><ele>265.5714285714286</ele><time>2026-04-26T07:40:24Z</time></trkpt><trkpt lat="47.11641054486397" lon="3.156402122066803"><ele>267.2857142857143</ele><time>2026-04-26T07:40:31Z</time></trkpt><trkpt lat="47.116464969861234" lon="3.1564509130123986"><ele>269.0</ele><time>2026-04-26T07:40:37Z</time></trkpt><trkpt lat="47.11652691963935" lon="3.156482105806351"><ele>271.8571428571429</ele><time>2026-04-26T07:40:45.999Z</time></trkpt><trkpt lat="47.11658310952565" lon="3.156529734573691"><ele>274.7142857142857</ele><time>2026-04-26T07:40:54.999Z</time></trkpt><trkpt lat="47.116657700389204" lon="3.156584662225358"><ele>277.57142857142856</ele><time>2026-04-26T07:41:02.999Z</time></trkpt><trkpt lat="47.116708763281274" lon="3.1566663390421423"><ele>280.42857142857144</ele><time>2026-04-26T07:41:44.999Z</time></trkpt><trkpt lat="47.11676416233607" lon="3.1567359342672083"><ele>283.2857142857143</ele><time>2026-04-26T07:41:49.999Z</time></trkpt><trkpt lat="47.116812675609076" lon="3.156803348534485"><ele>286.14285714285717</ele><time>2026-04-26T07:41:55Z</time></trkpt><trkpt lat="47.11685809810204" lon="3.156867721329222"><ele>289.0</ele><time>2026-04-26T07:41:58Z</time></trkpt><trkpt lat="47.11691279594264" lon="3.1569360079660678"><ele>290.2857142857143</ele><time>2026-04-26T07:42:02Z</time></trkpt><trkpt lat="47.11696839456029" lon="3.1569878292174103"><ele>291.57142857142856</ele><time>2026-04-26T07:42:06Z</time></trkpt><trkpt lat="47.11702479031936" lon="3.157039353823976"><ele>292.85714285714283</ele><time>2026-04-26T07:42:10Z</time></trkpt><trkpt lat="47.11708423714861" lon="3.157098921730864"><ele>294.1428571428571</ele><time>2026-04-26T07:42:15Z</time></trkpt><trkpt lat="47.117140635754275" lon="3.157153573308716"><ele>295.4285714285714</ele><time>2026-04-26T07:42:19Z</time></trkpt><trkpt lat="47.11718469959895" lon="3.157247650178778"><ele>296.7142857142857</ele><time>2026-04-26T07:42:22Z</time></trkpt><trkpt lat="47.11723709263324" lon="3.1572990199497624"><ele>298.0</ele><time>2026-04-26T07:42:27Z</time></trkpt><trkpt lat="47.117299321454475" lon="3.1573855917836764"><ele>299.0</ele><time>2026-04-26T07:42:33Z</time></trkpt><trkpt lat="47.117340788075964" lon="3.1574831939442745"><ele>300.0</ele><time>2026-04-26T07:42:36Z</time></trkpt><trkpt lat="47.117391350208486" lon="3.1575773755806886"><ele>301.0</ele><time>2026-04-26T07:42:38Z</time></trkpt><trkpt lat="47.117446803903704" lon="3.157632191401711"><ele>302.0</ele><time>2026-04-26T07:42:42Z</time></trkpt><trkpt lat="47.11749880921769" lon="3.157740823783905"><ele>303.0</ele><time>2026-04-26T07:42:43.999Z</time></trkpt><trkpt lat="47.117551338227564" lon="3.1578438532543704"><ele>304.0</ele><time>2026-04-26T07:42:46.999Z</time></trkpt><trkpt lat="47.117609388822" lon="3.1578946531283405"><ele>304.0</ele><time>2026-04-26T07:42:49.999Z</time></trkpt><trkpt lat="47.11767479051235" lon="3.157933451567404"><ele>304.0</ele><time>2026-04-26T07:42:52.999Z</time></trkpt><trkpt lat="47.11775945297726" lon="3.1579822490008436"><ele>304.0</ele><time>2026-04-26T07:42:55.999Z</time></trkpt><trkpt lat="47.11782014084801" lon="3.158049927334177"><ele>304.0</ele><time>2026-04-26T07:42:57.999Z</time></trkpt><trkpt lat="47.11790339553329" lon="3.1581635161619235"><ele>304.0</ele><time>2026-04-26T07:42:59.999Z</time></trkpt><trkpt lat="47.11795576291685" lon="3.1582552178220773"><ele>304.0</ele><time>2026-04-26T07:43:01.999Z</time></trkpt><trkpt lat="47.118011295131154" lon="3.1583135425980458"><ele>304.0</ele><time>2026-04-26T07:43:03.999Z</time></trkpt><trkpt lat="47.11809789078244" lon="3.158411907727285"><ele>304.0</ele><time>2026-04-26T07:43:05.999Z</time></trkpt><trkpt lat="47.118191947282305" lon="3.1585204999752845"><ele>304.0</ele><time>2026-04-26T07:43:07.999Z</time></trkpt><trkpt lat="47.11824067024046" lon="3.1585820147165333"><ele>304.0</ele><time>2026-04-26T07:43:08.999Z</time></trkpt><trkpt lat="47.11830837348923" lon="3.1586385812677524"><ele>304.0</ele><time>2026-04-26T07:43:10.999Z</time></trkpt><trkpt lat="47.118383837102094" lon="3.158723135722949"><ele>303.8333333333333</ele><time>2026-04-26T07:43:12.999Z</time></trkpt><trkpt lat="47.1184332050711" lon="3.1588124519281777"><ele>303.66666666666663</ele><time>2026-04-26T07:43:13.999Z</time></trkpt><trkpt lat="47.1185158574971" lon="3.1588717563879354"><ele>303.5</ele><time>2026-04-26T07:43:17.999Z</time></trkpt><trkpt lat="47.11856197108776" lon="3.1589409433235898"><ele>303.3333333333333</ele><time>2026-04-26T07:43:19.999Z</time></trkpt><trkpt lat="47.11862691134325" lon="3.159021664758192"><ele>303.1666666666667</ele><time>2026-04-26T07:43:21.999Z</time></trkpt><trkpt lat="47.11869222850974" lon="3.1590683781723126"><ele>303.0</ele><time>2026-04-26T07:43:23.999Z</time></trkpt><trkpt lat="47.118759836960955" lon="3.159161630342186"><ele>303.0</ele><time>2026-04-26T07:43:25.999Z</time></trkpt><trkpt lat="47.11881198772092" lon="3.159216435958231"><ele>303.0</ele><time>2026-04-26T07:43:27.999Z</time></trkpt><trkpt lat="47.11887432766486" lon="3.159253952740893"><ele>303.0</ele><time>2026-04-26T07:43:30.999Z</time></trkpt><trkpt lat="47.11895376407099" lon="3.159335272354889"><ele>303.0</ele><time>2026-04-26T07:43:32.999Z</time></trkpt><trkpt lat="47.11900772027147" lon="3.1594363914634163"><ele>303.0</ele><time>2026-04-26T07:43:34.999Z</time></trkpt><trkpt lat="47.11906095432998" lon="3.1595144417301007"><ele>303.0</ele><time>2026-04-26T07:43:36.999Z</time></trkpt><trkpt lat="47.1191242286642" lon="3.159574573339967"><ele>302.5</ele><time>2026-04-26T07:43:39.999Z</time></trkpt><trkpt lat="47.11919845715189" lon="3.159660509182149"><ele>302.0</ele><time>2026-04-26T07:43:41.999Z</time></trkpt><trkpt lat="47.11925270521915" lon="3.1597184543049655"><ele>301.5</ele><time>2026-04-26T07:43:43.999Z</time></trkpt><trkpt lat="47.11930667405581" lon="3.159816265201357"><ele>301.0</ele><time>2026-04-26T07:43:45.999Z</time></trkpt><trkpt lat="47.119379977551894" lon="3.1599277439309925"><ele>300.5</ele><time>2026-04-26T07:43:47.999Z</time></trkpt><trkpt lat="47.11943313123838" lon="3.1599964718059486"><ele>300.0</ele><time>2026-04-26T07:43:48.999Z</time></trkpt><trkpt lat="47.11949225867587" lon="3.1600666496186953"><ele>299.5</ele><time>2026-04-26T07:43:50.999Z</time></trkpt><trkpt lat="47.119569354642096" lon="3.160152933343129"><ele>299.0</ele><time>2026-04-26T07:43:52.999Z</time></trkpt><trkpt lat="47.11963720077501" lon="3.1602332383760356"><ele>298.5</ele><time>2026-04-26T07:43:54.999Z</time></trkpt><trkpt lat="47.119705465730526" lon="3.1602905710480695"><ele>298.0</ele><time>2026-04-26T07:43:56.998Z</time></trkpt><trkpt lat="47.11977394227451" lon="3.1603743077822313"><ele>297.5</ele><time>2026-04-26T07:43:59Z</time></trkpt><trkpt lat="47.11983751285834" lon="3.1604530719846085"><ele>297.0</ele><time>2026-04-26T07:44:01Z</time></trkpt><trkpt lat="47.11989978641958" lon="3.1605858483698333"><ele>295.0</ele><time>2026-04-26T07:44:03Z</time></trkpt><trkpt lat="47.119968297976634" lon="3.160677477816678"><ele>293.0</ele><time>2026-04-26T07:44:06Z</time></trkpt><trkpt lat="47.12003031586068" lon="3.1607557692501667"><ele>291.0</ele><time>2026-04-26T07:44:08Z</time></trkpt><trkpt lat="47.12005770828977" lon="3.1608824171527212"><ele>289.0</ele><time>2026-04-26T07:44:10Z</time></trkpt><trkpt lat="47.120065130351236" lon="3.16099032172427"><ele>287.0</ele><time>2026-04-26T07:44:12Z</time></trkpt><trkpt lat="47.12008631017585" lon="3.161094194503632"><ele>285.0</ele><time>2026-04-26T07:44:14Z</time></trkpt><trkpt lat="47.12011269567242" lon="3.161204136352526"><ele>282.3333333333333</ele><time>2026-04-26T07:44:17Z</time></trkpt><trkpt lat="47.120146527462644" lon="3.161622820996213"><ele>279.66666666666663</ele><time>2026-04-26T07:44:18Z</time></trkpt><trkpt lat="47.120102855372906" lon="3.161707726271784"><ele>277.0</ele><time>2026-04-26T07:44:19Z</time></trkpt><trkpt lat="47.12008968707841" lon="3.1618469843523127"><ele>277.0</ele><time>2026-04-26T07:44:21Z</time></trkpt><trkpt lat="47.120100157721645" lon="3.1619745411171074"><ele>277.0</ele><time>2026-04-26T07:44:23Z</time></trkpt><trkpt lat="47.12010934685785" lon="3.1620767781380104"><ele>277.0</ele><time>2026-04-26T07:44:25Z</time></trkpt><trkpt lat="47.120120323195685" lon="3.162176864684603"><ele>277.0</ele><time>2026-04-26T07:44:27Z</time></trkpt><trkpt lat="47.12008025947708" lon="3.162302141167616"><ele>277.0</ele><time>2026-04-26T07:44:29Z</time></trkpt><trkpt lat="47.120076583179824" lon="3.1624005096586636"><ele>277.0</ele><time>2026-04-26T07:44:31Z</time></trkpt><trkpt lat="47.12004488220234" lon="3.1625253947901273"><ele>277.0</ele><time>2026-04-26T07:44:33Z</time></trkpt><trkpt lat="47.12006785222898" lon="3.1626625250030895"><ele>277.0</ele><time>2026-04-26T07:44:36Z</time></trkpt><trkpt lat="47.12005235965737" lon="3.1628088761627"><ele>277.0</ele><time>2026-04-26T07:44:39Z</time></trkpt><trkpt lat="47.12003017846808" lon="3.1629478125398167"><ele>277.0</ele><time>2026-04-26T07:44:42Z</time></trkpt><trkpt lat="47.120022227406984" lon="3.1630505602363432"><ele>277.0</ele><time>2026-04-26T07:44:44Z</time></trkpt><trkpt lat="47.11999436850376" lon="3.1631478234479853"><ele>277.0</ele><time>2026-04-26T07:44:46Z</time></trkpt><trkpt lat="47.1199495678789" lon="3.1632823272060646"><ele>276.6</ele><time>2026-04-26T07:44:48Z</time></trkpt><trkpt lat="47.11992372564941" lon="3.163444977426117"><ele>276.2</ele><time>2026-04-26T07:44:50Z</time></trkpt><trkpt lat="47.11991947384192" lon="3.1635993940206872"><ele>275.8</ele><time>2026-04-26T07:44:51.999Z</time></trkpt><trkpt lat="47.11989794324502" lon="3.1637703026276767"><ele>275.4</ele><time>2026-04-26T07:44:53.999Z</time></trkpt><trkpt lat="47.11988294229667" lon="3.1638669643595576"><ele>275.0</ele><time>2026-04-26T07:44:54.999Z</time></trkpt><trkpt lat="47.11989129617863" lon="3.164005749781394"><ele>276.0</ele><time>2026-04-26T07:44:56.999Z</time></trkpt><trkpt lat="47.11988947554135" lon="3.1640999407719095"><ele>277.0</ele><time>2026-04-26T07:44:57.999Z</time></trkpt><trkpt lat="47.11987981613998" lon="3.164272103069905"><ele>278.0</ele><time>2026-04-26T07:44:59.999Z</time></trkpt><trkpt lat="47.11982557160759" lon="3.164432715316932"><ele>279.0</ele><time>2026-04-26T07:45:01.999Z</time></trkpt><trkpt lat="47.11982420377677" lon="3.1645696832244927"><ele>280.0</ele><time>2026-04-26T07:45:03.999Z</time></trkpt><trkpt lat="47.11980176168338" lon="3.1647211871180256"><ele>279.0</ele><time>2026-04-26T07:45:05.999Z</time></trkpt><trkpt lat="47.11978730787146" lon="3.1648789757791205"><ele>278.0</ele><time>2026-04-26T07:45:07.999Z</time></trkpt><trkpt lat="47.119783480226346" lon="3.1650393576776334"><ele>277.0</ele><time>2026-04-26T07:45:09.999Z</time></trkpt><trkpt lat="47.11976559491441" lon="3.165220392753986"><ele>276.0</ele><time>2026-04-26T07:45:11.999Z</time></trkpt><trkpt lat="47.119726073475256" lon="3.1653321682168403"><ele>275.0</ele><time>2026-04-26T07:45:12.999Z</time></trkpt><trkpt lat="47.11968942905852" lon="3.1654300034355045"><ele>275.0</ele><time>2026-04-26T07:45:13.999Z</time></trkpt><trkpt lat="47.11962665133421" lon="3.165573788378895"><ele>275.0</ele><time>2026-04-26T07:45:15.999Z</time></trkpt><trkpt lat="47.11961280723965" lon="3.165714731012392"><ele>275.0</ele><time>2026-04-26T07:45:16.999Z</time></trkpt><trkpt lat="47.11960764557134" lon="3.1658865358312385"><ele>275.0</ele><time>2026-04-26T07:45:18.999Z</time></trkpt><trkpt lat="47.1195916087703" lon="3.166070923576272"><ele>274.0</ele><time>2026-04-26T07:45:20.999Z</time></trkpt><trkpt lat="47.11956923751444" lon="3.1661739784725196"><ele>273.0</ele><time>2026-04-26T07:45:21.999Z</time></trkpt><trkpt lat="47.1195531747001" lon="3.1663591328098066"><ele>272.0</ele><time>2026-04-26T07:45:23.999Z</time></trkpt><trkpt lat="47.11954928151405" lon="3.166451898810207"><ele>271.0</ele><time>2026-04-26T07:45:24.999Z</time></trkpt><trkpt lat="47.11953102670561" lon="3.166553247149476"><ele>270.0</ele><time>2026-04-26T07:45:25.999Z</time></trkpt><trkpt lat="47.119528152666184" lon="3.1666609513148956"><ele>269.0</ele><time>2026-04-26T07:45:26.999Z</time></trkpt><trkpt lat="47.11950732655231" lon="3.1667498062682093"><ele>267.75</ele><time>2026-04-26T07:45:27.999Z</time></trkpt><trkpt lat="47.11948353649798" lon="3.16689428247439"><ele>266.5</ele><time>2026-04-26T07:45:29.999Z</time></trkpt><trkpt lat="47.11945383585" lon="3.167046535645309"><ele>265.25</ele><time>2026-04-26T07:45:31.999Z</time></trkpt><trkpt lat="47.119422837441086" lon="3.167198990694047"><ele>264.0</ele><time>2026-04-26T07:45:33.999Z</time></trkpt><trkpt lat="47.11939251478648" lon="3.1673916584726935"><ele>262.8333333333333</ele><time>2026-04-26T07:45:35.999Z</time></trkpt><trkpt lat="47.119397365013924" lon="3.1675259795466135"><ele>261.6666666666667</ele><time>2026-04-26T07:45:37.999Z</time></trkpt><trkpt lat="47.11936808578196" lon="3.1676409788605384"><ele>260.5</ele><time>2026-04-26T07:45:39.999Z</time></trkpt><trkpt lat="47.11934911837806" lon="3.167749420104509"><ele>259.33333333333337</ele><time>2026-04-26T07:45:42.999Z</time></trkpt><trkpt lat="47.11934019532872" lon="3.167851969732097"><ele>258.1666666666667</ele><time>2026-04-26T07:45:45.999Z</time></trkpt><trkpt lat="47.11940324077237" lon="3.1678521209490884"><ele>257.0</ele><time>2026-04-26T07:45:50.999Z</time></trkpt><trkpt lat="47.119469958397914" lon="3.167865559689716"><ele>257.0</ele><time>2026-04-26T07:45:57.999Z</time></trkpt><trkpt lat="47.1195288773393" lon="3.1678992372928727"><ele>257.0</ele><time>2026-04-26T07:46:05Z</time></trkpt><trkpt lat="47.11960694096266" lon="3.1679068388426237"><ele>257.0</ele><time>2026-04-26T07:46:15Z</time></trkpt><trkpt lat="47.119680834571604" lon="3.1678918946094634"><ele>257.0</ele><time>2026-04-26T07:46:20Z</time></trkpt><trkpt lat="47.119751074545164" lon="3.1678794843279214"><ele>257.0</ele><time>2026-04-26T07:46:26Z</time></trkpt><trkpt lat="47.11982047239412" lon="3.167906034117805"><ele>257.0</ele><time>2026-04-26T07:46:37Z</time></trkpt><trkpt lat="47.119884752913286" lon="3.167902159667886"><ele>257.0</ele><time>2026-04-26T07:46:41Z</time></trkpt><trkpt lat="47.11995028040303" lon="3.1679075651668875"><ele>257.7142857142857</ele><time>2026-04-26T07:46:44Z</time></trkpt><trkpt lat="47.1200319296507" lon="3.167878812432142"><ele>258.42857142857144</ele><time>2026-04-26T07:46:48Z</time></trkpt><trkpt lat="47.120092648790255" lon="3.1679207362172677"><ele>259.14285714285717</ele><time>2026-04-26T07:46:51.999Z</time></trkpt><trkpt lat="47.12014367622036" lon="3.167979958810791"><ele>259.8571428571429</ele><time>2026-04-26T07:47:00.999Z</time></trkpt><trkpt lat="47.12020374802647" lon="3.168028731839511"><ele>260.5714285714286</ele><time>2026-04-26T07:47:10.999Z</time></trkpt><trkpt lat="47.12025970390231" lon="3.167964353631864"><ele>261.2857142857143</ele><time>2026-04-26T07:48:13Z</time></trkpt><trkpt lat="47.12032320587341" lon="3.1679529610537367"><ele>262.0</ele><time>2026-04-26T07:48:17Z</time></trkpt><trkpt lat="47.12038875889833" lon="3.1679225603707377"><ele>262.0</ele><time>2026-04-26T07:48:21Z</time></trkpt><trkpt lat="47.12047147451736" lon="3.1679200558840197"><ele>262.0</ele><time>2026-04-26T07:48:24Z</time></trkpt><trkpt lat="47.12053613270032" lon="3.167894990120731"><ele>262.0</ele><time>2026-04-26T07:48:27Z</time></trkpt><trkpt lat="47.12062717885442" lon="3.1679138663239566"><ele>262.0</ele><time>2026-04-26T07:48:31Z</time></trkpt><trkpt lat="47.120701458161676" lon="3.1679185535797045"><ele>262.0</ele><time>2026-04-26T07:48:34Z</time></trkpt><trkpt lat="47.12077838460159" lon="3.167921802705337"><ele>262.0</ele><time>2026-04-26T07:48:37Z</time></trkpt><trkpt lat="47.120858030839926" lon="3.167919149400452"><ele>264.0</ele><time>2026-04-26T07:48:40Z</time></trkpt><trkpt lat="47.12093068304033" lon="3.167914760488892"><ele>266.0</ele><time>2026-04-26T07:48:43Z</time></trkpt><trkpt lat="47.121006686465286" lon="3.167915832979486"><ele>268.0</ele><time>2026-04-26T07:48:46Z</time></trkpt><trkpt lat="47.12109001237921" lon="3.16791010423557"><ele>270.0</ele><time>2026-04-26T07:48:49Z</time></trkpt><trkpt lat="47.121180235802335" lon="3.1678962002530633"><ele>272.0</ele><time>2026-04-26T07:48:52.999Z</time></trkpt><trkpt lat="47.12125893588509" lon="3.1678977474961725"><ele>274.0</ele><time>2026-04-26T07:48:55.999Z</time></trkpt><trkpt lat="47.121338418197176" lon="3.1678920222612024"><ele>274.00000000000006</ele><time>2026-04-26T07:48:58.999Z</time></trkpt><trkpt lat="47.12140404868781" lon="3.1679025475319165"><ele>274.0</ele><time>2026-04-26T07:49:00.999Z</time></trkpt><trkpt lat="47.12148989724242" lon="3.1679048845964024"><ele>274.0</ele><time>2026-04-26T07:49:03.999Z</time></trkpt><trkpt lat="47.12155449279474" lon="3.1679395287656327"><ele>274.0</ele><time>2026-04-26T07:49:06.999Z</time></trkpt><trkpt lat="47.12161097385507" lon="3.1679945710564934"><ele>274.0</ele><time>2026-04-26T07:49:08.999Z</time></trkpt><trkpt lat="47.121684271291585" lon="3.167969193585404"><ele>274.00000000000006</ele><time>2026-04-26T07:49:13.999Z</time></trkpt><trkpt lat="47.121751771310834" lon="3.1679535064471187"><ele>274.0</ele><time>2026-04-26T07:49:17.999Z</time></trkpt><trkpt lat="47.12182868748418" lon="3.1679622979897264"><ele>274.66666666666663</ele><time>2026-04-26T07:49:20.999Z</time></trkpt><trkpt lat="47.12190742563192" lon="3.1679491784705194"><ele>275.3333333333333</ele><time>2026-04-26T07:49:23.999Z</time></trkpt><trkpt lat="47.121987683021736" lon="3.1679462326612873"><ele>276.0</ele><time>2026-04-26T07:49:26.999Z</time></trkpt><trkpt lat="47.122066348967984" lon="3.1679579372496427"><ele>276.6666666666667</ele><time>2026-04-26T07:49:29.999Z</time></trkpt><trkpt lat="47.122136149421316" lon="3.16790638451343"><ele>277.33333333333337</ele><time>2026-04-26T07:49:31.999Z</time></trkpt><trkpt lat="47.122231300317004" lon="3.1679076587647783"><ele>278.0</ele><time>2026-04-26T07:49:34.999Z</time></trkpt><trkpt lat="47.12231337265808" lon="3.1678769321811986"><ele>278.0</ele><time>2026-04-26T07:49:37.999Z</time></trkpt><trkpt lat="47.122391878094675" lon="3.1678905657401515"><ele>278.0</ele><time>2026-04-26T07:49:40.999Z</time></trkpt><trkpt lat="47.122486858951966" lon="3.167884865231962"><ele>278.0</ele><time>2026-04-26T07:49:43.999Z</time></trkpt><trkpt lat="47.12256395034993" lon="3.167904421938665"><ele>278.0</ele><time>2026-04-26T07:49:45.999Z</time></trkpt><trkpt lat="47.1226484230665" lon="3.1679027478064112"><ele>278.0</ele><time>2026-04-26T07:49:48.999Z</time></trkpt><trkpt lat="47.12272818620119" lon="3.167915100381091"><ele>278.0</ele><time>2026-04-26T07:49:50.999Z</time></trkpt><trkpt lat="47.12283587311524" lon="3.16790617049948"><ele>278.33333333333337</ele><time>2026-04-26T07:49:53.999Z</time></trkpt><trkpt lat="47.1229033513305" lon="3.167909018030551"><ele>278.6666666666667</ele><time>2026-04-26T07:49:55.999Z</time></trkpt><trkpt lat="47.122966101384904" lon="3.1679288149553213"><ele>279.0</ele><time>2026-04-26T07:49:57.999Z</time></trkpt><trkpt lat="47.12305072568048" lon="3.167918153323319"><ele>279.3333333333333</ele><time>2026-04-26T07:50:00.999Z</time></trkpt><trkpt lat="47.1231163255603" lon="3.1679212997376447"><ele>279.66666666666663</ele><time>2026-04-26T07:50:03.999Z</time></trkpt><trkpt lat="47.12320466530314" lon="3.167930703735478"><ele>280.0</ele><time>2026-04-26T07:50:05.999Z</time></trkpt><trkpt lat="47.123303825811476" lon="3.1679365007377953"><ele>280.16666666666663</ele><time>2026-04-26T07:50:08.998Z</time></trkpt><trkpt lat="47.12340476417823" lon="3.1679550728077586"><ele>280.3333333333333</ele><time>2026-04-26T07:50:11.998Z</time></trkpt><trkpt lat="47.12348976770399" lon="3.167930346025476"><ele>280.5</ele><time>2026-04-26T07:50:14.998Z</time></trkpt><trkpt lat="47.1235602269422" lon="3.16793541658091"><ele>280.6666666666667</ele><time>2026-04-26T07:50:17Z</time></trkpt><trkpt lat="47.12363591401248" lon="3.1679345407577815"><ele>280.83333333333337</ele><time>2026-04-26T07:50:19Z</time></trkpt><trkpt lat="47.12370041547895" lon="3.167936760323249"><ele>281.0</ele><time>2026-04-26T07:50:21Z</time></trkpt><trkpt lat="47.12377831971823" lon="3.1679572176679365"><ele>281.0</ele><time>2026-04-26T07:50:23Z</time></trkpt><trkpt lat="47.12384377078687" lon="3.167959704850639"><ele>281.0</ele><time>2026-04-26T07:50:25Z</time></trkpt><trkpt lat="47.12393914250045" lon="3.167944910282645"><ele>281.0</ele><time>2026-04-26T07:50:28Z</time></trkpt><trkpt lat="47.12401931494382" lon="3.1679647935904605"><ele>281.0</ele><time>2026-04-26T07:50:30Z</time></trkpt><trkpt lat="47.12409615982088" lon="3.1679598627511703"><ele>281.0</ele><time>2026-04-26T07:50:32Z</time></trkpt><trkpt lat="47.12417944705293" lon="3.167949178213883"><ele>281.0</ele><time>2026-04-26T07:50:35Z</time></trkpt><trkpt lat="47.12425728045472" lon="3.1679444521384803"><ele>281.1666666666667</ele><time>2026-04-26T07:50:39Z</time></trkpt><trkpt lat="47.124337558689064" lon="3.167930790714077"><ele>281.33333333333337</ele><time>2026-04-26T07:50:41Z</time></trkpt><trkpt lat="47.12441772903603" lon="3.1679320769655455"><ele>281.5</ele><time>2026-04-26T07:50:43Z</time></trkpt><trkpt lat="47.12451503270626" lon="3.1679684032949065"><ele>281.6666666666667</ele><time>2026-04-26T07:50:46Z</time></trkpt><trkpt lat="47.12461864593077" lon="3.1679776180933445"><ele>281.8333333333333</ele><time>2026-04-26T07:50:48Z</time></trkpt><trkpt lat="47.12468198271597" lon="3.1679911883740517"><ele>282.0</ele><time>2026-04-26T07:50:50Z</time></trkpt><trkpt lat="47.12477551492351" lon="3.168007056808351"><ele>282.0</ele><time>2026-04-26T07:50:53Z</time></trkpt><trkpt lat="47.12483488654816" lon="3.167970976533623"><ele>282.0</ele><time>2026-04-26T07:50:56Z</time></trkpt><trkpt lat="47.12492750072235" lon="3.167956124923211"><ele>282.0</ele><time>2026-04-26T07:50:59Z</time></trkpt><trkpt lat="47.12499162284062" lon="3.167958270038521"><ele>282.0</ele><time>2026-04-26T07:51:01Z</time></trkpt><trkpt lat="47.12506671269759" lon="3.167965549104345"><ele>282.0</ele><time>2026-04-26T07:51:03Z</time></trkpt><trkpt lat="47.12514478216112" lon="3.167966079166876"><ele>282.0</ele><time>2026-04-26T07:51:05Z</time></trkpt><trkpt lat="47.125208120319904" lon="3.1679796103980697"><ele>282.0</ele><time>2026-04-26T07:51:06.999Z</time></trkpt><trkpt lat="47.12527177590432" lon="3.1679723899314234"><ele>282.0</ele><time>2026-04-26T07:51:08.999Z</time></trkpt><trkpt lat="47.125341246279994" lon="3.1679443791475"><ele>282.0</ele><time>2026-04-26T07:51:10.999Z</time></trkpt><trkpt lat="47.12540676436653" lon="3.167970547889358"><ele>282.0</ele><time>2026-04-26T07:51:12.999Z</time></trkpt><trkpt lat="47.12547301754718" lon="3.1679812773994795"><ele>282.0</ele><time>2026-04-26T07:51:14.999Z</time></trkpt><trkpt lat="47.12554124516139" lon="3.167994166689472"><ele>282.0</ele><time>2026-04-26T07:51:16.999Z</time></trkpt><trkpt lat="47.12562914547047" lon="3.168004377227485"><ele>282.0</ele><time>2026-04-26T07:51:19.999Z</time></trkpt><trkpt lat="47.125700558667674" lon="3.167963820564098"><ele>282.0</ele><time>2026-04-26T07:51:23.999Z</time></trkpt><trkpt lat="47.125788721993416" lon="3.1679946512761843"><ele>282.0</ele><time>2026-04-26T07:51:26.999Z</time></trkpt><trkpt lat="47.12585663360082" lon="3.167996400263456"><ele>282.0</ele><time>2026-04-26T07:51:29.999Z</time></trkpt><trkpt lat="47.12591557163381" lon="3.168041627776868"><ele>282.0</ele><time>2026-04-26T07:51:32.999Z</time></trkpt><trkpt lat="47.125978271546494" lon="3.167997777306527"><ele>282.0</ele><time>2026-04-26T07:51:35.999Z</time></trkpt><trkpt lat="47.12605550952004" lon="3.1679697326460095"><ele>282.0</ele><time>2026-04-26T07:51:39.999Z</time></trkpt><trkpt lat="47.12613833423554" lon="3.1679790479834096"><ele>282.0</ele><time>2026-04-26T07:51:43.999Z</time></trkpt><trkpt lat="47.12623171533318" lon="3.1679809390520366"><ele>282.0</ele><time>2026-04-26T07:51:47.999Z</time></trkpt><trkpt lat="47.126317631860495" lon="3.167967501986493"><ele>282.0</ele><time>2026-04-26T07:51:50.999Z</time></trkpt><trkpt lat="47.12638868128524" lon="3.1679506378699283"><ele>282.0</ele><time>2026-04-26T07:51:53.999Z</time></trkpt><trkpt lat="47.126473248264745" lon="3.168001119477089"><ele>282.0</ele><time>2026-04-26T07:51:56.999Z</time></trkpt><trkpt lat="47.12657166304333" lon="3.167995424778407"><ele>282.0</ele><time>2026-04-26T07:52:00.999Z</time></trkpt><trkpt lat="47.12664867271231" lon="3.1679854604771585"><ele>282.0</ele><time>2026-04-26T07:52:03.999Z</time></trkpt><trkpt lat="47.126713960130786" lon="3.1679839244070314"><ele>282.8333333333333</ele><time>2026-04-26T07:52:05.999Z</time></trkpt><trkpt lat="47.12680646699731" lon="3.167995922422556"><ele>283.6666666666667</ele><time>2026-04-26T07:52:08.999Z</time></trkpt><trkpt lat="47.12688234960467" lon="3.168019499282656"><ele>284.5</ele><time>2026-04-26T07:52:11.999Z</time></trkpt><trkpt lat="47.12696074548682" lon="3.1680147326593877"><ele>285.33333333333337</ele><time>2026-04-26T07:52:14.999Z</time></trkpt><trkpt lat="47.127031971842996" lon="3.168013683272397"><ele>286.1666666666667</ele><time>2026-04-26T07:52:17.999Z</time></trkpt><trkpt lat="47.12709880830072" lon="3.16802522974401"><ele>287.0</ele><time>2026-04-26T07:52:19.999Z</time></trkpt><trkpt lat="47.127178431246136" lon="3.1680154895230155"><ele>287.0</ele><time>2026-04-26T07:52:23Z</time></trkpt><trkpt lat="47.12726419223585" lon="3.1680423076568704"><ele>287.0</ele><time>2026-04-26T07:52:26Z</time></trkpt><trkpt lat="47.127350397570254" lon="3.168060308562159"><ele>287.0</ele><time>2026-04-26T07:52:29Z</time></trkpt><trkpt lat="47.12743003654876" lon="3.1680664518597914"><ele>287.0</ele><time>2026-04-26T07:52:32Z</time></trkpt><trkpt lat="47.1275381587832" lon="3.168049112243223"><ele>287.0</ele><time>2026-04-26T07:52:35Z</time></trkpt><trkpt lat="47.12762913005079" lon="3.168018892968542"><ele>287.6666666666667</ele><time>2026-04-26T07:52:38Z</time></trkpt><trkpt lat="47.12770681111079" lon="3.168034188522998"><ele>288.33333333333337</ele><time>2026-04-26T07:52:41Z</time></trkpt><trkpt lat="47.12777874435587" lon="3.1679676330619904"><ele>289.0</ele><time>2026-04-26T07:52:44Z</time></trkpt><trkpt lat="47.12785357010922" lon="3.1679754714286013"><ele>289.6666666666667</ele><time>2026-04-26T07:52:47Z</time></trkpt><trkpt lat="47.127947382063255" lon="3.1680171552786835"><ele>290.3333333333333</ele><time>2026-04-26T07:52:49Z</time></trkpt><trkpt lat="47.128011502769844" lon="3.1680014300418526"><ele>291.0</ele><time>2026-04-26T07:52:51Z</time></trkpt><trkpt lat="47.128078369686996" lon="3.1680120193401557"><ele>291.0</ele><time>2026-04-26T07:52:53Z</time></trkpt><trkpt lat="47.128145789222295" lon="3.1679830259060933"><ele>291.0</ele><time>2026-04-26T07:52:55Z</time></trkpt><trkpt lat="47.128209619024716" lon="3.16798259592883"><ele>291.0</ele><time>2026-04-26T07:52:57Z</time></trkpt><trkpt lat="47.1282952015848" lon="3.168003030103183"><ele>291.0</ele><time>2026-04-26T07:53:00Z</time></trkpt><trkpt lat="47.128375155863125" lon="3.1680248147817296"><ele>291.0</ele><time>2026-04-26T07:53:03Z</time></trkpt><trkpt lat="47.12846304251579" lon="3.168061506232735"><ele>291.0</ele><time>2026-04-26T07:53:06Z</time></trkpt><trkpt lat="47.12856045350037" lon="3.1680752379195467"><ele>289.3333333333333</ele><time>2026-04-26T07:53:08Z</time></trkpt><trkpt lat="47.12863118352955" lon="3.1681115433224294"><ele>287.6666666666667</ele><time>2026-04-26T07:53:11Z</time></trkpt><trkpt lat="47.12870153662222" lon="3.1680370388398575"><ele>286.0</ele><time>2026-04-26T07:53:14.999Z</time></trkpt><trkpt lat="47.1287708326819" lon="3.16802429778756"><ele>284.33333333333337</ele><time>2026-04-26T07:53:17.999Z</time></trkpt><trkpt lat="47.128851521335136" lon="3.1679492937976876"><ele>282.6666666666667</ele><time>2026-04-26T07:53:19.999Z</time></trkpt><trkpt lat="47.12891491841634" lon="3.1679217205548476"><ele>281.0</ele><time>2026-04-26T07:53:21.999Z</time></trkpt><trkpt lat="47.12899072648008" lon="3.1678641331940534"><ele>278.5</ele><time>2026-04-26T07:53:24.999Z</time></trkpt><trkpt lat="47.12906344163729" lon="3.1678186276263656"><ele>276.0</ele><time>2026-04-26T07:53:27.999Z</time></trkpt><trkpt lat="47.12913845569575" lon="3.1677905092186727"><ele>273.5</ele><time>2026-04-26T07:53:30.999Z</time></trkpt><trkpt lat="47.12920883806502" lon="3.167744980451736"><ele>271.0</ele><time>2026-04-26T07:53:32.999Z</time></trkpt><trkpt lat="47.12928483649449" lon="3.167687000469269"><ele>268.5</ele><time>2026-04-26T07:53:35.999Z</time></trkpt><trkpt lat="47.12934703467277" lon="3.167606886338601"><ele>266.0</ele><time>2026-04-26T07:53:38.999Z</time></trkpt><trkpt lat="47.12942034261275" lon="3.167514400150298"><ele>266.0</ele><time>2026-04-26T07:53:40.999Z</time></trkpt><trkpt lat="47.12947961622602" lon="3.1674074152866405"><ele>266.0</ele><time>2026-04-26T07:53:42.999Z</time></trkpt><trkpt lat="47.12954677090332" lon="3.167356430611434"><ele>266.0</ele><time>2026-04-26T07:53:44.999Z</time></trkpt><trkpt lat="47.12962379144287" lon="3.1672886674722087"><ele>266.0</ele><time>2026-04-26T07:53:47.999Z</time></trkpt><trkpt lat="47.12966508939758" lon="3.16721523251637"><ele>266.0</ele><time>2026-04-26T07:53:48.999Z</time></trkpt><trkpt lat="47.12972657395264" lon="3.167179903901597"><ele>266.0</ele><time>2026-04-26T07:53:50.999Z</time></trkpt><trkpt lat="47.129812218489356" lon="3.167159663278541"><ele>264.85714285714283</ele><time>2026-04-26T07:53:51.999Z</time></trkpt><trkpt lat="47.129890209122706" lon="3.1671624498511073"><ele>263.7142857142857</ele><time>2026-04-26T07:53:53.999Z</time></trkpt><trkpt lat="47.1299023034691" lon="3.167068632056531"><ele>262.57142857142856</ele><time>2026-04-26T07:53:55.999Z</time></trkpt><trkpt lat="47.129990516402685" lon="3.1670427719654644"><ele>261.42857142857144</ele><time>2026-04-26T07:53:58.999Z</time></trkpt><trkpt lat="47.13005623680626" lon="3.1670463854833275"><ele>260.2857142857143</ele><time>2026-04-26T07:54:00.999Z</time></trkpt><trkpt lat="47.13012431213405" lon="3.167061262547374"><ele>259.1428571428571</ele><time>2026-04-26T07:54:02.999Z</time></trkpt><trkpt lat="47.13018786732918" lon="3.167060854341181"><ele>258.0</ele><time>2026-04-26T07:54:04.999Z</time></trkpt><trkpt lat="47.130268376908575" lon="3.167062147269195"><ele>257.99999999999994</ele><time>2026-04-26T07:54:06.999Z</time></trkpt><trkpt lat="47.13033312175745" lon="3.167065029062398"><ele>258.0</ele><time>2026-04-26T07:54:08.999Z</time></trkpt><trkpt lat="47.13040276517109" lon="3.1670950480782536"><ele>258.0</ele><time>2026-04-26T07:54:10.999Z</time></trkpt><trkpt lat="47.13049095342094" lon="3.1671283726672086"><ele>258.0</ele><time>2026-04-26T07:54:14.999Z</time></trkpt><trkpt lat="47.13054042577052" lon="3.167186577641241"><ele>258.0</ele><time>2026-04-26T07:54:17.999Z</time></trkpt><trkpt lat="47.13057985396812" lon="3.167279052131793"><ele>257.99999999999994</ele><time>2026-04-26T07:54:19.999Z</time></trkpt><trkpt lat="47.13062137702298" lon="3.1673489996474236"><ele>258.0</ele><time>2026-04-26T07:54:21.999Z</time></trkpt><trkpt lat="47.13066763225507" lon="3.167416425756662"><ele>258.57142857142856</ele><time>2026-04-26T07:54:23.999Z</time></trkpt><trkpt lat="47.13071954572916" lon="3.167500336781679"><ele>259.1428571428571</ele><time>2026-04-26T07:54:26.999Z</time></trkpt><trkpt lat="47.130767822499244" lon="3.167576399951138"><ele>259.7142857142857</ele><time>2026-04-26T07:54:30Z</time></trkpt><trkpt lat="47.130812420416575" lon="3.1676644074148688"><ele>260.2857142857143</ele><time>2026-04-26T07:54:33Z</time></trkpt><trkpt lat="47.13083217502756" lon="3.1677583733084114"><ele>260.8571428571429</ele><time>2026-04-26T07:54:35Z</time></trkpt><trkpt lat="47.130882931889595" lon="3.1678393164794385"><ele>261.42857142857144</ele><time>2026-04-26T07:54:41Z</time></trkpt><trkpt lat="47.130912611686426" lon="3.167921043868273"><ele>262.0</ele><time>2026-04-26T07:54:45Z</time></trkpt><trkpt lat="47.13092091358668" lon="3.1681382825804243"><ele>261.7142857142857</ele><time>2026-04-26T07:55:13Z</time></trkpt><trkpt lat="47.130964818274265" lon="3.1682127714425214"><ele>261.42857142857144</ele><time>2026-04-26T07:55:17Z</time></trkpt><trkpt lat="47.1309963935764" lon="3.1683088014494722"><ele>261.14285714285717</ele><time>2026-04-26T07:55:20.999Z</time></trkpt><trkpt lat="47.131017445014834" lon="3.168406008080603"><ele>260.8571428571429</ele><time>2026-04-26T07:55:24.999Z</time></trkpt><trkpt lat="47.131064176682955" lon="3.1684871312709624"><ele>260.57142857142856</ele><time>2026-04-26T07:55:31.999Z</time></trkpt><trkpt lat="47.1310926552682" lon="3.168572123727477"><ele>260.28571428571433</ele><time>2026-04-26T07:55:37.999Z</time></trkpt><trkpt lat="47.13110885603967" lon="3.168681342235872"><ele>260.0</ele><time>2026-04-26T07:55:41.999Z</time></trkpt><trkpt lat="47.131115926010516" lon="3.1687826002405135"><ele>260.00000000000006</ele><time>2026-04-26T07:55:48.999Z</time></trkpt><trkpt lat="47.131118585049116" lon="3.168890793027964"><ele>260.0</ele><time>2026-04-26T07:55:57.999Z</time></trkpt><trkpt lat="47.131141207852366" lon="3.168996320123405"><ele>260.0</ele><time>2026-04-26T07:56:03.999Z</time></trkpt><trkpt lat="47.13116434441901" lon="3.169090433460443"><ele>260.0</ele><time>2026-04-26T07:56:07.999Z</time></trkpt><trkpt lat="47.131170409915995" lon="3.1691943638034945"><ele>260.0</ele><time>2026-04-26T07:56:11.999Z</time></trkpt><trkpt lat="47.13119053843615" lon="3.1693040636005483"><ele>260.00000000000006</ele><time>2026-04-26T07:56:15.999Z</time></trkpt><trkpt lat="47.131226908784114" lon="3.169388902217598"><ele>260.0</ele><time>2026-04-26T07:56:20.999Z</time></trkpt><trkpt lat="47.131255881747364" lon="3.1694745487930276"><ele>260.14285714285717</ele><time>2026-04-26T07:56:45Z</time></trkpt><trkpt lat="47.131315211841276" lon="3.169541709919509"><ele>260.2857142857143</ele><time>2026-04-26T07:56:50Z</time></trkpt><trkpt lat="47.13135898844957" lon="3.169617139789526"><ele>260.42857142857144</ele><time>2026-04-26T07:56:54Z</time></trkpt><trkpt lat="47.131421468142726" lon="3.169670483050642"><ele>260.57142857142856</ele><time>2026-04-26T07:56:59Z</time></trkpt><trkpt lat="47.131484867631514" lon="3.1696751991128775"><ele>260.7142857142857</ele><time>2026-04-26T07:57:03Z</time></trkpt><trkpt lat="47.13154214102222" lon="3.1696321040495414"><ele>260.8571428571429</ele><time>2026-04-26T07:57:40.999Z</time></trkpt><trkpt lat="47.131599091614156" lon="3.169590958236028"><ele>261.0</ele><time>2026-04-26T07:57:43.999Z</time></trkpt><trkpt lat="47.13165795448868" lon="3.1695149653769215"><ele>263.42857142857144</ele><time>2026-04-26T07:57:47.999Z</time></trkpt><trkpt lat="47.131718393045276" lon="3.1694639582712476"><ele>265.85714285714283</ele><time>2026-04-26T07:57:50.999Z</time></trkpt><trkpt lat="47.13178464854703" lon="3.1693939753691227"><ele>268.2857142857143</ele><time>2026-04-26T07:57:54.999Z</time></trkpt><trkpt lat="47.131840481322826" lon="3.169330290956072"><ele>270.7142857142857</ele><time>2026-04-26T07:57:58.999Z</time></trkpt><trkpt lat="47.13189162672549" lon="3.169267329298283"><ele>273.14285714285717</ele><time>2026-04-26T07:58:14.999Z</time></trkpt><trkpt lat="47.13195488340815" lon="3.1692084235860736"><ele>275.57142857142856</ele><time>2026-04-26T07:58:18.999Z</time></trkpt><trkpt lat="47.13200916758087" lon="3.1691608437330965"><ele>278.0</ele><time>2026-04-26T07:58:21.999Z</time></trkpt><trkpt lat="47.132079808116075" lon="3.1691024101654337"><ele>278.0</ele><time>2026-04-26T07:58:25.999Z</time></trkpt><trkpt lat="47.13215022675359" lon="3.1690443275761915"><ele>278.0</ele><time>2026-04-26T07:58:29.999Z</time></trkpt><trkpt lat="47.13221786767933" lon="3.1689793925035667"><ele>278.0</ele><time>2026-04-26T07:58:33.999Z</time></trkpt><trkpt lat="47.13228582711744" lon="3.1689074485086537"><ele>278.0</ele><time>2026-04-26T07:58:37.999Z</time></trkpt><trkpt lat="47.13235403553509" lon="3.1688401289133434"><ele>278.0</ele><time>2026-04-26T07:58:42Z</time></trkpt><trkpt lat="47.132403662698614" lon="3.168782278988026"><ele>278.0</ele><time>2026-04-26T07:58:45Z</time></trkpt><trkpt lat="47.13245687340572" lon="3.1687319658675017"><ele>280.33333333333337</ele><time>2026-04-26T07:58:48Z</time></trkpt><trkpt lat="47.132519628936336" lon="3.1686517607224096"><ele>282.6666666666667</ele><time>2026-04-26T07:58:52Z</time></trkpt><trkpt lat="47.132579489495114" lon="3.1685900482303917"><ele>285.0</ele><time>2026-04-26T07:58:56Z</time></trkpt><trkpt lat="47.132631029030044" lon="3.168536667444536"><ele>287.3333333333333</ele><time>2026-04-26T07:58:59Z</time></trkpt><trkpt lat="47.13269791847232" lon="3.16846725423994"><ele>289.66666666666663</ele><time>2026-04-26T07:59:03Z</time></trkpt><trkpt lat="47.13277127648125" lon="3.1684145501638774"><ele>292.0</ele><time>2026-04-26T07:59:07Z</time></trkpt><trkpt lat="47.132835019284364" lon="3.168341021888984"><ele>292.0</ele><time>2026-04-26T07:59:11Z</time></trkpt><trkpt lat="47.13289613754047" lon="3.1682773753876083"><ele>292.0</ele><time>2026-04-26T07:59:15Z</time></trkpt><trkpt lat="47.132959190665865" lon="3.1682086638830045"><ele>292.0</ele><time>2026-04-26T07:59:19Z</time></trkpt><trkpt lat="47.13303031909821" lon="3.168132306962747"><ele>292.0</ele><time>2026-04-26T07:59:22Z</time></trkpt><trkpt lat="47.13309273856743" lon="3.1680693624576213"><ele>292.0</ele><time>2026-04-26T07:59:25Z</time></trkpt><trkpt lat="47.133161738910495" lon="3.168005839851594"><ele>292.0</ele><time>2026-04-26T07:59:28Z</time></trkpt><trkpt lat="47.13321785927144" lon="3.167936404931915"><ele>293.0</ele><time>2026-04-26T07:59:30.999Z</time></trkpt><trkpt lat="47.133279865836926" lon="3.1678746286642223"><ele>294.0</ele><time>2026-04-26T07:59:33.999Z</time></trkpt><trkpt lat="47.13335027962772" lon="3.1678073215621865"><ele>295.0</ele><time>2026-04-26T07:59:36.999Z</time></trkpt><trkpt lat="47.13340938339179" lon="3.167743670927122"><ele>296.0</ele><time>2026-04-26T07:59:39.999Z</time></trkpt><trkpt lat="47.133460719081214" lon="3.167676247094692"><ele>297.0</ele><time>2026-04-26T07:59:42.999Z</time></trkpt><trkpt lat="47.133524659926174" lon="3.1676096321869918"><ele>298.0</ele><time>2026-04-26T07:59:45.999Z</time></trkpt><trkpt lat="47.133586368920476" lon="3.1675531817184073"><ele>298.0</ele><time>2026-04-26T07:59:48.999Z</time></trkpt><trkpt lat="47.13364356217234" lon="3.1674916553202728"><ele>298.0</ele><time>2026-04-26T07:59:51.999Z</time></trkpt><trkpt lat="47.133696246250736" lon="3.167418667989535"><ele>298.0</ele><time>2026-04-26T07:59:54.999Z</time></trkpt><trkpt lat="47.13375070212084" lon="3.1673589030517713"><ele>298.0</ele><time>2026-04-26T07:59:57.999Z</time></trkpt><trkpt lat="47.133817085044846" lon="3.167295802939018"><ele>298.0</ele><time>2026-04-26T08:00:00.999Z</time></trkpt><trkpt lat="47.13388234379956" lon="3.1672345301373594"><ele>298.0</ele><time>2026-04-26T08:00:03.999Z</time></trkpt><trkpt lat="47.13394825157287" lon="3.1671820126018106"><ele>298.0</ele><time>2026-04-26T08:00:06.999Z</time></trkpt><trkpt lat="47.134007489131186" lon="3.1671182534983586"><ele>298.66666666666663</ele><time>2026-04-26T08:00:09.999Z</time></trkpt><trkpt lat="47.13408215216913" lon="3.1670523307961247"><ele>299.3333333333333</ele><time>2026-04-26T08:00:12.999Z</time></trkpt><trkpt lat="47.134131579547656" lon="3.166987830785937"><ele>300.0</ele><time>2026-04-26T08:00:15.999Z</time></trkpt><trkpt lat="47.13419887743995" lon="3.1669178019850825"><ele>300.6666666666667</ele><time>2026-04-26T08:00:18.999Z</time></trkpt><trkpt lat="47.134259485800676" lon="3.166846559524932"><ele>301.33333333333337</ele><time>2026-04-26T08:00:21.999Z</time></trkpt><trkpt lat="47.134325390580436" lon="3.16677865123885"><ele>302.0</ele><time>2026-04-26T08:00:24.999Z</time></trkpt><trkpt lat="47.134399392430126" lon="3.1667115378668127"><ele>302.0</ele><time>2026-04-26T08:00:27.999Z</time></trkpt><trkpt lat="47.13446938942525" lon="3.166631089785249"><ele>302.0</ele><time>2026-04-26T08:00:30.999Z</time></trkpt><trkpt lat="47.134542945869285" lon="3.166553030429417"><ele>302.0</ele><time>2026-04-26T08:00:33.999Z</time></trkpt><trkpt lat="47.13460453558713" lon="3.166477488870916"><ele>302.0</ele><time>2026-04-26T08:00:36.999Z</time></trkpt><trkpt lat="47.13466351308696" lon="3.1664078195561616"><ele>302.0</ele><time>2026-04-26T08:00:39.999Z</time></trkpt><trkpt lat="47.13473785604411" lon="3.166339016986967"><ele>302.0</ele><time>2026-04-26T08:00:42.998Z</time></trkpt><trkpt lat="47.134812437000996" lon="3.1662806325690513"><ele>302.1666666666667</ele><time>2026-04-26T08:00:46Z</time></trkpt><trkpt lat="47.13488085482438" lon="3.166208838818944"><ele>302.33333333333337</ele><time>2026-04-26T08:00:49Z</time></trkpt><trkpt lat="47.13493434501759" lon="3.166156457580597"><ele>302.5</ele><time>2026-04-26T08:00:51Z</time></trkpt><trkpt lat="47.135004401650484" lon="3.166087493962618"><ele>302.6666666666667</ele><time>2026-04-26T08:00:54Z</time></trkpt><trkpt lat="47.13506706181619" lon="3.1660251956470105"><ele>302.8333333333333</ele><time>2026-04-26T08:00:57Z</time></trkpt><trkpt lat="47.13515174791582" lon="3.165994620465804"><ele>303.0</ele><time>2026-04-26T08:01:00Z</time></trkpt><trkpt lat="47.135216449220856" lon="3.1660138198716576"><ele>303.5</ele><time>2026-04-26T08:01:03Z</time></trkpt><trkpt lat="47.13527347719062" lon="3.1660651336104237"><ele>304.0</ele><time>2026-04-26T08:01:06Z</time></trkpt><trkpt lat="47.13532806968466" lon="3.1661696447818843"><ele>304.5</ele><time>2026-04-26T08:01:09Z</time></trkpt><trkpt lat="47.135363529539816" lon="3.166262104917154"><ele>305.0</ele><time>2026-04-26T08:01:11Z</time></trkpt><trkpt lat="47.13541089132946" lon="3.1663388539906485"><ele>305.5</ele><time>2026-04-26T08:01:13Z</time></trkpt><trkpt lat="47.1354514428709" lon="3.166448880218591"><ele>306.0</ele><time>2026-04-26T08:01:16Z</time></trkpt><trkpt lat="47.135503148901364" lon="3.166532730213528"><ele>306.0</ele><time>2026-04-26T08:01:19Z</time></trkpt><trkpt lat="47.13554797712849" lon="3.1666553590285287"><ele>306.0</ele><time>2026-04-26T08:01:22Z</time></trkpt><trkpt lat="47.13557935291158" lon="3.16677367568386"><ele>306.0</ele><time>2026-04-26T08:01:25Z</time></trkpt><trkpt lat="47.13560773879734" lon="3.166884672884621"><ele>306.0</ele><time>2026-04-26T08:01:27Z</time></trkpt><trkpt lat="47.13562624166572" lon="3.166985473652765"><ele>306.0</ele><time>2026-04-26T08:01:29Z</time></trkpt><trkpt lat="47.13565530132341" lon="3.167073063740744"><ele>306.0</ele><time>2026-04-26T08:01:31Z</time></trkpt><trkpt lat="47.13566526926007" lon="3.1671726283496975"><ele>306.0</ele><time>2026-04-26T08:01:33Z</time></trkpt><trkpt lat="47.13570176363803" lon="3.1672559092369403"><ele>306.0</ele><time>2026-04-26T08:01:35.999Z</time></trkpt><trkpt lat="47.135738482715894" lon="3.1674081487449723"><ele>306.0</ele><time>2026-04-26T08:01:38.999Z</time></trkpt><trkpt lat="47.13576849528888" lon="3.167586353876804"><ele>306.0</ele><time>2026-04-26T08:01:40.999Z</time></trkpt><trkpt lat="47.13578908741129" lon="3.1676789837040036"><ele>306.0</ele><time>2026-04-26T08:01:42.999Z</time></trkpt><trkpt lat="47.13582150313202" lon="3.1677780053665647"><ele>306.0</ele><time>2026-04-26T08:01:44.999Z</time></trkpt><trkpt lat="47.13585624390688" lon="3.167886836266551"><ele>306.1666666666667</ele><time>2026-04-26T08:01:46.999Z</time></trkpt><trkpt lat="47.13587100458322" lon="3.167984635878573"><ele>306.3333333333333</ele><time>2026-04-26T08:01:48.999Z</time></trkpt><trkpt lat="47.135877393727945" lon="3.1681051055146354"><ele>306.5</ele><time>2026-04-26T08:01:50.999Z</time></trkpt><trkpt lat="47.13591935204778" lon="3.1682025975085226"><ele>306.66666666666663</ele><time>2026-04-26T08:01:53.999Z</time></trkpt><trkpt lat="47.135925961334074" lon="3.1683407145485214"><ele>306.8333333333333</ele><time>2026-04-26T08:01:56.999Z</time></trkpt><trkpt lat="47.13595053036843" lon="3.168436178656416"><ele>307.0</ele><time>2026-04-26T08:01:58.999Z</time></trkpt><trkpt lat="47.135976562035324" lon="3.168581064824818"><ele>306.6</ele><time>2026-04-26T08:02:01.999Z</time></trkpt><trkpt lat="47.13599317557639" lon="3.168728151703663"><ele>306.2</ele><time>2026-04-26T08:02:04.999Z</time></trkpt><trkpt lat="47.13602690212399" lon="3.1688692397581497"><ele>305.8</ele><time>2026-04-26T08:02:06.999Z</time></trkpt><trkpt lat="47.13605552228707" lon="3.1690619118052816"><ele>305.4</ele><time>2026-04-26T08:02:08.999Z</time></trkpt><trkpt lat="47.136082464754665" lon="3.1691671207920447"><ele>305.0</ele><time>2026-04-26T08:02:11.999Z</time></trkpt><trkpt lat="47.13612182137409" lon="3.1692718516416685"><ele>304.33333333333337</ele><time>2026-04-26T08:02:13.999Z</time></trkpt><trkpt lat="47.136163692120924" lon="3.169346241739652"><ele>303.6666666666667</ele><time>2026-04-26T08:02:14.999Z</time></trkpt><trkpt lat="47.13620916607955" lon="3.169462186451593"><ele>303.0</ele><time>2026-04-26T08:02:16.999Z</time></trkpt><trkpt lat="47.1362510473627" lon="3.1696033071253282"><ele>302.3333333333333</ele><time>2026-04-26T08:02:18.999Z</time></trkpt><trkpt lat="47.136311472321225" lon="3.169739158669508"><ele>301.66666666666663</ele><time>2026-04-26T08:02:20.999Z</time></trkpt><trkpt lat="47.136343657322456" lon="3.1698240400511084"><ele>301.0</ele><time>2026-04-26T08:02:21.999Z</time></trkpt><trkpt lat="47.136382356069205" lon="3.1699036053343788"><ele>300.3333333333333</ele><time>2026-04-26T08:02:23.999Z</time></trkpt><trkpt lat="47.136429909416144" lon="3.170020912002593"><ele>299.66666666666663</ele><time>2026-04-26T08:02:25.999Z</time></trkpt><trkpt lat="47.136470812326905" lon="3.1701076795824545"><ele>299.0</ele><time>2026-04-26T08:02:27.999Z</time></trkpt><trkpt lat="47.13649759640943" lon="3.1701924531896095"><ele>298.3333333333333</ele><time>2026-04-26T08:02:29.999Z</time></trkpt><trkpt lat="47.136563072528986" lon="3.1702670888248172"><ele>297.6666666666667</ele><time>2026-04-26T08:02:32.999Z</time></trkpt><trkpt lat="47.13660191331768" lon="3.170355241847195"><ele>297.0</ele><time>2026-04-26T08:02:34.999Z</time></trkpt><trkpt lat="47.13665303956435" lon="3.170456092464373"><ele>297.5</ele><time>2026-04-26T08:02:37.999Z</time></trkpt><trkpt lat="47.136727264768766" lon="3.1705324424052748"><ele>298.0</ele><time>2026-04-26T08:02:40.999Z</time></trkpt><trkpt lat="47.136758798043424" lon="3.170653363701488"><ele>298.5</ele><time>2026-04-26T08:02:43.999Z</time></trkpt><trkpt lat="47.136796388948824" lon="3.170737180975535"><ele>299.0</ele><time>2026-04-26T08:02:45.999Z</time></trkpt><trkpt lat="47.13684138606368" lon="3.170832008179432"><ele>299.5</ele><time>2026-04-26T08:02:47.998Z</time></trkpt><trkpt lat="47.13690551871522" lon="3.1708791766283597"><ele>300.0</ele><time>2026-04-26T08:02:50.998Z</time></trkpt><trkpt lat="47.136962771436494" lon="3.170927471902072"><ele>300.0</ele><time>2026-04-26T08:02:53Z</time></trkpt><trkpt lat="47.13701086679888" lon="3.1710363577931515"><ele>300.0</ele><time>2026-04-26T08:02:55Z</time></trkpt><trkpt lat="47.13706681847002" lon="3.1711391219998935"><ele>300.0</ele><time>2026-04-26T08:02:58Z</time></trkpt><trkpt lat="47.13714931168837" lon="3.171204870675866"><ele>300.0</ele><time>2026-04-26T08:03:01Z</time></trkpt><trkpt lat="47.1372092589653" lon="3.171289553920282"><ele>300.0</ele><time>2026-04-26T08:03:03Z</time></trkpt><trkpt lat="47.13726701068556" lon="3.171390109608303"><ele>300.0</ele><time>2026-04-26T08:03:05Z</time></trkpt><trkpt lat="47.137331527545626" lon="3.1714818580192774"><ele>300.4</ele><time>2026-04-26T08:03:08Z</time></trkpt><trkpt lat="47.13740803339866" lon="3.17158258679976"><ele>300.8</ele><time>2026-04-26T08:03:11Z</time></trkpt><trkpt lat="47.137449905015664" lon="3.1716693719250864"><ele>301.2</ele><time>2026-04-26T08:03:12Z</time></trkpt><trkpt lat="47.13751323694472" lon="3.1717799158692404"><ele>301.6</ele><time>2026-04-26T08:03:14Z</time></trkpt><trkpt lat="47.13758648173785" lon="3.1719244076800597"><ele>302.0</ele><time>2026-04-26T08:03:16Z</time></trkpt><trkpt lat="47.137645867042835" lon="3.1719854687977445"><ele>302.0</ele><time>2026-04-26T08:03:18Z</time></trkpt><trkpt lat="47.13770098689134" lon="3.172082608238331"><ele>302.0</ele><time>2026-04-26T08:03:20Z</time></trkpt><trkpt lat="47.13777190900027" lon="3.172164134346008"><ele>302.0</ele><time>2026-04-26T08:03:22Z</time></trkpt><trkpt lat="47.137840163612466" lon="3.172252756860491"><ele>302.0</ele><time>2026-04-26T08:03:25Z</time></trkpt><trkpt lat="47.1379299940481" lon="3.1723165758689427"><ele>302.0</ele><time>2026-04-26T08:03:28Z</time></trkpt><trkpt lat="47.13798287768788" lon="3.172368359714642"><ele>302.0</ele><time>2026-04-26T08:03:30Z</time></trkpt><trkpt lat="47.138043427222236" lon="3.1723965182307516"><ele>300.8</ele><time>2026-04-26T08:03:33Z</time></trkpt><trkpt lat="47.13812507694935" lon="3.1724921593392774"><ele>299.6</ele><time>2026-04-26T08:03:35Z</time></trkpt><trkpt lat="47.138169199447425" lon="3.172595256358472"><ele>298.40000000000003</ele><time>2026-04-26T08:03:36Z</time></trkpt><trkpt lat="47.13823507621168" lon="3.1727418743826656"><ele>297.2</ele><time>2026-04-26T08:03:38Z</time></trkpt><trkpt lat="47.13831843555519" lon="3.172874597480443"><ele>296.0</ele><time>2026-04-26T08:03:40Z</time></trkpt><trkpt lat="47.13836876363269" lon="3.1729309755109854"><ele>296.0</ele><time>2026-04-26T08:03:41Z</time></trkpt><trkpt lat="47.138355301370545" lon="3.1730993009285293"><ele>296.0</ele><time>2026-04-26T08:03:42Z</time></trkpt><trkpt lat="47.13841704711714" lon="3.1731720689220495"><ele>296.0</ele><time>2026-04-26T08:03:43Z</time></trkpt><trkpt lat="47.13850353480076" lon="3.1732537721026497"><ele>296.0</ele><time>2026-04-26T08:03:43.999Z</time></trkpt><trkpt lat="47.13860059250731" lon="3.173284312999191"><ele>296.0</ele><time>2026-04-26T08:03:44.999Z</time></trkpt><trkpt lat="47.13871998519281" lon="3.1732661359780203"><ele>296.0</ele><time>2026-04-26T08:03:46.999Z</time></trkpt><trkpt lat="47.13878799704805" lon="3.1732399774896134"><ele>296.0</ele><time>2026-04-26T08:03:47.999Z</time></trkpt><trkpt lat="47.13887357942624" lon="3.173197296024344"><ele>296.0</ele><time>2026-04-26T08:03:49.999Z</time></trkpt><trkpt lat="47.138953154468744" lon="3.173158266231786"><ele>296.0</ele><time>2026-04-26T08:03:51.999Z</time></trkpt><trkpt lat="47.139034491417156" lon="3.173120842748433"><ele>296.0</ele><time>2026-04-26T08:03:53.999Z</time></trkpt><trkpt lat="47.139102009702015" lon="3.173089784138741"><ele>296.0</ele><time>2026-04-26T08:03:55.999Z</time></trkpt><trkpt lat="47.13919323549534" lon="3.1730478303322607"><ele>295.40000000000003</ele><time>2026-04-26T08:03:57.999Z</time></trkpt><trkpt lat="47.139279456436086" lon="3.1730091715973123"><ele>294.8</ele><time>2026-04-26T08:03:59.999Z</time></trkpt><trkpt lat="47.13936866472091" lon="3.1729700645756607"><ele>294.20000000000005</ele><time>2026-04-26T08:04:01.999Z</time></trkpt><trkpt lat="47.13945105046533" lon="3.172933948408336"><ele>293.6</ele><time>2026-04-26T08:04:03.999Z</time></trkpt><trkpt lat="47.139514510806734" lon="3.172784316112243"><ele>293.0</ele><time>2026-04-26T08:04:05.999Z</time></trkpt><trkpt lat="47.13959227117263" lon="3.172762794608719"><ele>293.0</ele><time>2026-04-26T08:04:07.999Z</time></trkpt><trkpt lat="47.139690218118574" lon="3.172766239308244"><ele>293.0</ele><time>2026-04-26T08:04:09.999Z</time></trkpt><trkpt lat="47.139768407240425" lon="3.1727453290866423"><ele>293.0</ele><time>2026-04-26T08:04:11.999Z</time></trkpt><trkpt lat="47.139839220394954" lon="3.1726967562583295"><ele>293.0</ele><time>2026-04-26T08:04:13.999Z</time></trkpt><trkpt lat="47.139916083331464" lon="3.172665486890308"><ele>293.0</ele><time>2026-04-26T08:04:15.999Z</time></trkpt><trkpt lat="47.139987806430355" lon="3.172630726643943"><ele>293.0</ele><time>2026-04-26T08:04:17.999Z</time></trkpt><trkpt lat="47.14006066737972" lon="3.1725918675433054"><ele>293.0</ele><time>2026-04-26T08:04:19.999Z</time></trkpt><trkpt lat="47.14013576698209" lon="3.1725562404942016"><ele>293.0</ele><time>2026-04-26T08:04:21.999Z</time></trkpt><trkpt lat="47.14020748825989" lon="3.172508768773982"><ele>293.0</ele><time>2026-04-26T08:04:23.999Z</time></trkpt><trkpt lat="47.140273846437786" lon="3.172478806718206"><ele>293.0</ele><time>2026-04-26T08:04:25.999Z</time></trkpt><trkpt lat="47.1403596260307" lon="3.172442449610902"><ele>293.0</ele><time>2026-04-26T08:04:27.999Z</time></trkpt><trkpt lat="47.14043255672256" lon="3.1724086799628624"><ele>293.0</ele><time>2026-04-26T08:04:29.999Z</time></trkpt><trkpt lat="47.14050934578719" lon="3.1723710881684193"><ele>293.0</ele><time>2026-04-26T08:04:31.999Z</time></trkpt><trkpt lat="47.14058530158117" lon="3.1723313129592583"><ele>293.0</ele><time>2026-04-26T08:04:33.999Z</time></trkpt><trkpt lat="47.14066450397184" lon="3.1722916683399167"><ele>293.0</ele><time>2026-04-26T08:04:35.999Z</time></trkpt><trkpt lat="47.14073820381803" lon="3.172241545918777"><ele>293.0</ele><time>2026-04-26T08:04:37.999Z</time></trkpt><trkpt lat="47.14081503973245" lon="3.1722056941476255"><ele>293.0</ele><time>2026-04-26T08:04:39.999Z</time></trkpt><trkpt lat="47.14089790746199" lon="3.1721631776071137"><ele>293.0</ele><time>2026-04-26T08:04:41.999Z</time></trkpt><trkpt lat="47.140977244288315" lon="3.1721332151371793"><ele>293.0</ele><time>2026-04-26T08:04:43.999Z</time></trkpt><trkpt lat="47.14105280854213" lon="3.172075856945485"><ele>293.0</ele><time>2026-04-26T08:04:45.999Z</time></trkpt><trkpt lat="47.14112915444886" lon="3.1720608333252667"><ele>293.0</ele><time>2026-04-26T08:04:47.999Z</time></trkpt><trkpt lat="47.141210384961795" lon="3.172035868852677"><ele>293.0</ele><time>2026-04-26T08:04:49.999Z</time></trkpt><trkpt lat="47.14128524142761" lon="3.1719860098894057"><ele>293.0</ele><time>2026-04-26T08:04:51.999Z</time></trkpt><trkpt lat="47.14136448778089" lon="3.171934399642443"><ele>293.0</ele><time>2026-04-26T08:04:53.999Z</time></trkpt><trkpt lat="47.141443213004386" lon="3.1718807230164807"><ele>293.0</ele><time>2026-04-26T08:04:55.999Z</time></trkpt><trkpt lat="47.14152817354783" lon="3.1718524439945055"><ele>293.0</ele><time>2026-04-26T08:04:58Z</time></trkpt><trkpt lat="47.141604269724056" lon="3.171813936339955"><ele>293.0</ele><time>2026-04-26T08:05:00Z</time></trkpt><trkpt lat="47.141680126232565" lon="3.171775897410452"><ele>293.0</ele><time>2026-04-26T08:05:02Z</time></trkpt><trkpt lat="47.1417527409779" lon="3.171727889687985"><ele>293.0</ele><time>2026-04-26T08:05:04Z</time></trkpt><trkpt lat="47.1418271813705" lon="3.1716849472898048"><ele>293.0</ele><time>2026-04-26T08:05:06Z</time></trkpt><trkpt lat="47.14189800456282" lon="3.171641966615333"><ele>293.0</ele><time>2026-04-26T08:05:08Z</time></trkpt><trkpt lat="47.141968942190296" lon="3.1716133409869673"><ele>293.0</ele><time>2026-04-26T08:05:10Z</time></trkpt><trkpt lat="47.14204255809425" lon="3.1715834110600456"><ele>293.0</ele><time>2026-04-26T08:05:12Z</time></trkpt><trkpt lat="47.142115477328545" lon="3.171547012892726"><ele>293.0</ele><time>2026-04-26T08:05:14Z</time></trkpt><trkpt lat="47.142214277012144" lon="3.1714918373424403"><ele>293.0</ele><time>2026-04-26T08:05:17Z</time></trkpt><trkpt lat="47.142288691685344" lon="3.171447896196341"><ele>293.0</ele><time>2026-04-26T08:05:19Z</time></trkpt><trkpt lat="47.142359814684795" lon="3.1714216505019297"><ele>293.6666666666667</ele><time>2026-04-26T08:05:21Z</time></trkpt><trkpt lat="47.14242625958552" lon="3.171398738622624"><ele>294.33333333333337</ele><time>2026-04-26T08:05:23Z</time></trkpt><trkpt lat="47.14249361152953" lon="3.171367546773226"><ele>295.0</ele><time>2026-04-26T08:05:25Z</time></trkpt><trkpt lat="47.14259235461112" lon="3.171314021912693"><ele>295.6666666666667</ele><time>2026-04-26T08:05:28Z</time></trkpt><trkpt lat="47.142654758786506" lon="3.171283239631212"><ele>296.3333333333333</ele><time>2026-04-26T08:05:30Z</time></trkpt><trkpt lat="47.14273333470181" lon="3.17125589331354"><ele>297.0</ele><time>2026-04-26T08:05:33Z</time></trkpt><trkpt lat="47.1428063571081" lon="3.1712154887932926"><ele>297.0</ele><time>2026-04-26T08:05:36Z</time></trkpt><trkpt lat="47.14288982479362" lon="3.1711732767191614"><ele>297.0</ele><time>2026-04-26T08:05:38Z</time></trkpt><trkpt lat="47.142979338996724" lon="3.1711336271589925"><ele>297.0</ele><time>2026-04-26T08:05:41Z</time></trkpt><trkpt lat="47.14304069313155" lon="3.171097665862175"><ele>297.0</ele><time>2026-04-26T08:05:43Z</time></trkpt><trkpt lat="47.14310497522077" lon="3.1710664477100203"><ele>297.0</ele><time>2026-04-26T08:05:45Z</time></trkpt><trkpt lat="47.143192483048345" lon="3.1710156133803613"><ele>297.0</ele><time>2026-04-26T08:05:47.999Z</time></trkpt><trkpt lat="47.143253899453846" lon="3.170981842498505"><ele>297.14285714285717</ele><time>2026-04-26T08:05:49.999Z</time></trkpt><trkpt lat="47.14331474932698" lon="3.170953248224076"><ele>297.28571428571433</ele><time>2026-04-26T08:05:51.999Z</time></trkpt><trkpt lat="47.143378788826936" lon="3.1709171553141915"><ele>297.42857142857144</ele><time>2026-04-26T08:05:53.999Z</time></trkpt><trkpt lat="47.14344284131829" lon="3.170886304597327"><ele>297.57142857142856</ele><time>2026-04-26T08:05:55.999Z</time></trkpt><trkpt lat="47.143505936280704" lon="3.1708565225687178"><ele>297.71428571428567</ele><time>2026-04-26T08:05:57.999Z</time></trkpt><trkpt lat="47.14356729790197" lon="3.170820175935875"><ele>297.85714285714283</ele><time>2026-04-26T08:05:59.999Z</time></trkpt><trkpt lat="47.14363502298536" lon="3.1707808793983796"><ele>298.0</ele><time>2026-04-26T08:06:01.999Z</time></trkpt><trkpt lat="47.14370440737607" lon="3.1707490575422743"><ele>298.0</ele><time>2026-04-26T08:06:03.999Z</time></trkpt><trkpt lat="47.143775919972256" lon="3.170707909181286"><ele>298.0</ele><time>2026-04-26T08:06:05.999Z</time></trkpt><trkpt lat="47.14384320472763" lon="3.170680542728243"><ele>298.0</ele><time>2026-04-26T08:06:07.999Z</time></trkpt><trkpt lat="47.14391287551285" lon="3.170643941461488"><ele>298.0</ele><time>2026-04-26T08:06:09.999Z</time></trkpt><trkpt lat="47.143980735675434" lon="3.170613176601752"><ele>298.0</ele><time>2026-04-26T08:06:11.999Z</time></trkpt><trkpt lat="47.14404649311514" lon="3.1705669433276995"><ele>298.0</ele><time>2026-04-26T08:06:13.999Z</time></trkpt><trkpt lat="47.144111749920164" lon="3.1705351880704025"><ele>298.0</ele><time>2026-04-26T08:06:15.999Z</time></trkpt><trkpt lat="47.144191104439265" lon="3.1704901104845016"><ele>298.66666666666663</ele><time>2026-04-26T08:06:18.999Z</time></trkpt><trkpt lat="47.14426350769176" lon="3.170450072656564"><ele>299.3333333333333</ele><time>2026-04-26T08:06:20.999Z</time></trkpt><trkpt lat="47.14434350486595" lon="3.1704040190231275"><ele>300.0</ele><time>2026-04-26T08:06:22.999Z</time></trkpt><trkpt lat="47.144414348967224" lon="3.170375136794265"><ele>300.6666666666667</ele><time>2026-04-26T08:06:24.999Z</time></trkpt><trkpt lat="47.14447999019377" lon="3.17034510635796"><ele>301.33333333333337</ele><time>2026-04-26T08:06:27.999Z</time></trkpt><trkpt lat="47.14454843373371" lon="3.170324966869595"><ele>302.0</ele><time>2026-04-26T08:06:29.999Z</time></trkpt><trkpt lat="47.144646666993005" lon="3.17025791114937"><ele>302.0</ele><time>2026-04-26T08:06:31.999Z</time></trkpt><trkpt lat="47.144717798962816" lon="3.1702336479241886"><ele>302.0</ele><time>2026-04-26T08:06:33.999Z</time></trkpt><trkpt lat="47.14478972561693" lon="3.1702043657217733"><ele>302.0</ele><time>2026-04-26T08:06:35.999Z</time></trkpt><trkpt lat="47.14485134618044" lon="3.170168181911175"><ele>302.0</ele><time>2026-04-26T08:06:37.999Z</time></trkpt><trkpt lat="47.14493031762266" lon="3.170150492796437"><ele>308.0</ele><time>2026-04-26T08:06:40.999Z</time></trkpt></trkseg><trkseg><trkpt lat="47.148759159552554" lon="3.166468039399898"><ele>322.0</ele><time>2026-04-26T08:14:37Z</time></trkpt><trkpt lat="47.14881705797619" lon="3.166367177818977"><ele>322.0</ele><time>2026-04-26T08:14:40Z</time></trkpt><trkpt lat="47.14889173743476" lon="3.16628354915361"><ele>322.0</ele><time>2026-04-26T08:14:42Z</time></trkpt><trkpt lat="47.148943533932496" lon="3.166209422477332"><ele>322.0</ele><time>2026-04-26T08:14:44Z</time></trkpt><trkpt lat="47.149004831313434" lon="3.1661166516512202"><ele>322.0</ele><time>2026-04-26T08:14:47Z</time></trkpt><trkpt lat="47.14906939295528" lon="3.166020270295549"><ele>322.0</ele><time>2026-04-26T08:14:50Z</time></trkpt><trkpt lat="47.14911828725209" lon="3.165942893086145"><ele>321.7142857142857</ele><time>2026-04-26T08:14:52Z</time></trkpt><trkpt lat="47.14915918953987" lon="3.1658660970516714"><ele>321.42857142857144</ele><time>2026-04-26T08:14:54Z</time></trkpt><trkpt lat="47.1491734376932" lon="3.1657533728063885"><ele>321.1428571428571</ele><time>2026-04-26T08:14:57Z</time></trkpt><trkpt lat="47.14922839795991" lon="3.1656631865806184"><ele>320.8571428571429</ele><time>2026-04-26T08:14:59Z</time></trkpt><trkpt lat="47.149273893669054" lon="3.165599078578216"><ele>320.57142857142856</ele><time>2026-04-26T08:15:00Z</time></trkpt><trkpt lat="47.1493169305882" lon="3.165516375860002"><ele>320.2857142857143</ele><time>2026-04-26T08:15:02Z</time></trkpt><trkpt lat="47.14937256231935" lon="3.165428044348171"><ele>320.0</ele><time>2026-04-26T08:15:04Z</time></trkpt><trkpt lat="47.149422437408234" lon="3.1653559711733195"><ele>319.6666666666667</ele><time>2026-04-26T08:15:06Z</time></trkpt><trkpt lat="47.1494754672453" lon="3.1652847245542755"><ele>319.33333333333337</ele><time>2026-04-26T08:15:08Z</time></trkpt><trkpt lat="47.14952284813252" lon="3.1651915756806717"><ele>319.0</ele><time>2026-04-26T08:15:10Z</time></trkpt><trkpt lat="47.14957455487475" lon="3.1651084573412613"><ele>318.6666666666667</ele><time>2026-04-26T08:15:12Z</time></trkpt><trkpt lat="47.14963823607333" lon="3.165024601827831"><ele>318.3333333333333</ele><time>2026-04-26T08:15:14Z</time></trkpt><trkpt lat="47.149688122951524" lon="3.164952158757073"><ele>318.0</ele><time>2026-04-26T08:15:16Z</time></trkpt><trkpt lat="47.149729975999065" lon="3.1648600121958532"><ele>317.5</ele><time>2026-04-26T08:15:18Z</time></trkpt><trkpt lat="47.14978596907556" lon="3.16477403855723"><ele>317.0</ele><time>2026-04-26T08:15:20Z</time></trkpt><trkpt lat="47.14985466529058" lon="3.164682612488903"><ele>316.5</ele><time>2026-04-26T08:15:22Z</time></trkpt><trkpt lat="47.14992013806476" lon="3.1645786715381723"><ele>316.0</ele><time>2026-04-26T08:15:24Z</time></trkpt><trkpt lat="47.14998347672682" lon="3.164503437146565"><ele>315.5</ele><time>2026-04-26T08:15:25.999Z</time></trkpt><trkpt lat="47.15004921757408" lon="3.1644070881957442"><ele>315.0</ele><time>2026-04-26T08:15:27.999Z</time></trkpt><trkpt lat="47.1501121336448" lon="3.164303505368133"><ele>314.8333333333333</ele><time>2026-04-26T08:15:29.999Z</time></trkpt><trkpt lat="47.150166941546175" lon="3.164207580261331"><ele>314.6666666666667</ele><time>2026-04-26T08:15:31.999Z</time></trkpt><trkpt lat="47.15022164628318" lon="3.164097824862187"><ele>314.5</ele><time>2026-04-26T08:15:33.999Z</time></trkpt><trkpt lat="47.15030600793947" lon="3.1640500673553573"><ele>314.33333333333337</ele><time>2026-04-26T08:15:35.999Z</time></trkpt><trkpt lat="47.15036973222914" lon="3.1639614474493114"><ele>314.1666666666667</ele><time>2026-04-26T08:15:37.999Z</time></trkpt><trkpt lat="47.15042847982055" lon="3.1638719329502845"><ele>314.0</ele><time>2026-04-26T08:15:39.999Z</time></trkpt><trkpt lat="47.15048754670281" lon="3.163797833210118"><ele>313.2</ele><time>2026-04-26T08:15:41.999Z</time></trkpt><trkpt lat="47.15055867864533" lon="3.1637133957270143"><ele>312.4</ele><time>2026-04-26T08:15:43.999Z</time></trkpt><trkpt lat="47.150671455366705" lon="3.1636955450170285"><ele>311.6</ele><time>2026-04-26T08:15:45.999Z</time></trkpt><trkpt lat="47.15075759014624" lon="3.163713201655306"><ele>310.8</ele><time>2026-04-26T08:15:47.999Z</time></trkpt><trkpt lat="47.15085269273433" lon="3.1637246345729704"><ele>310.0</ele><time>2026-04-26T08:15:49.999Z</time></trkpt><trkpt lat="47.15094572443784" lon="3.163716533957494"><ele>309.66666666666663</ele><time>2026-04-26T08:15:51.999Z</time></trkpt><trkpt lat="47.15103528199897" lon="3.1637062747674043"><ele>309.3333333333333</ele><time>2026-04-26T08:15:53.999Z</time></trkpt><trkpt lat="47.15111921133536" lon="3.1637006219927737"><ele>309.0</ele><time>2026-04-26T08:15:55.999Z</time></trkpt><trkpt lat="47.15120845930348" lon="3.1637098108759436"><ele>308.6666666666667</ele><time>2026-04-26T08:15:57.999Z</time></trkpt><trkpt lat="47.15129992208815" lon="3.1637157267653917"><ele>308.33333333333337</ele><time>2026-04-26T08:15:59.999Z</time></trkpt><trkpt lat="47.15137951774174" lon="3.1637207914939824"><ele>308.0</ele><time>2026-04-26T08:16:00.999Z</time></trkpt><trkpt lat="47.151473675378035" lon="3.163724358731183"><ele>308.0</ele><time>2026-04-26T08:16:02.999Z</time></trkpt><trkpt lat="47.15156061597401" lon="3.163732201670976"><ele>308.0</ele><time>2026-04-26T08:16:04.999Z</time></trkpt><trkpt lat="47.15165367499666" lon="3.1637254295478683"><ele>308.0</ele><time>2026-04-26T08:16:06.999Z</time></trkpt><trkpt lat="47.15174861626771" lon="3.163730806711668"><ele>308.0</ele><time>2026-04-26T08:16:08.999Z</time></trkpt><trkpt lat="47.15182202333642" lon="3.1637232187493356"><ele>308.0</ele><time>2026-04-26T08:16:10.999Z</time></trkpt><trkpt lat="47.15192348482947" lon="3.163706170249599"><ele>308.0</ele><time>2026-04-26T08:16:12.999Z</time></trkpt><trkpt lat="47.15201931151131" lon="3.163709832811764"><ele>308.0</ele><time>2026-04-26T08:16:14.999Z</time></trkpt><trkpt lat="47.15210283759488" lon="3.1637129096252625"><ele>308.0</ele><time>2026-04-26T08:16:16.999Z</time></trkpt><trkpt lat="47.15217052596118" lon="3.1637016602637775"><ele>308.0</ele><time>2026-04-26T08:16:18.999Z</time></trkpt><trkpt lat="47.15227272997623" lon="3.1637026179765813"><ele>308.0</ele><time>2026-04-26T08:16:21.999Z</time></trkpt><trkpt lat="47.15236418181496" lon="3.1636991781976445"><ele>308.0</ele><time>2026-04-26T08:16:23.999Z</time></trkpt><trkpt lat="47.15244398750975" lon="3.1637008253190553"><ele>308.0</ele><time>2026-04-26T08:16:25.999Z</time></trkpt><trkpt lat="47.15254221601202" lon="3.1637149837936827"><ele>308.0</ele><time>2026-04-26T08:16:28.999Z</time></trkpt><trkpt lat="47.1526211501676" lon="3.16369593090145"><ele>308.0</ele><time>2026-04-26T08:16:30.999Z</time></trkpt><trkpt lat="47.152697486005216" lon="3.163702982777073"><ele>308.0</ele><time>2026-04-26T08:16:34Z</time></trkpt><trkpt lat="47.15277576538919" lon="3.163708783465444"><ele>308.0</ele><time>2026-04-26T08:16:36Z</time></trkpt><trkpt lat="47.15285978065264" lon="3.1637040781028594"><ele>308.0</ele><time>2026-04-26T08:16:38Z</time></trkpt><trkpt lat="47.15295114626948" lon="3.163683797703252"><ele>308.0</ele><time>2026-04-26T08:16:41Z</time></trkpt><trkpt lat="47.15305677565974" lon="3.1636941070009614"><ele>308.0</ele><time>2026-04-26T08:16:43Z</time></trkpt><trkpt lat="47.15314462143383" lon="3.163700867342838"><ele>308.0</ele><time>2026-04-26T08:16:45Z</time></trkpt><trkpt lat="47.15323879268675" lon="3.1637091547507237"><ele>308.0</ele><time>2026-04-26T08:16:47Z</time></trkpt><trkpt lat="47.15334554143747" lon="3.163658956933489"><ele>308.0</ele><time>2026-04-26T08:16:49Z</time></trkpt><trkpt lat="47.153422631012084" lon="3.163695533939665"><ele>308.0</ele><time>2026-04-26T08:16:51Z</time></trkpt><trkpt lat="47.15350609349641" lon="3.1637222998914436"><ele>308.0</ele><time>2026-04-26T08:16:53Z</time></trkpt><trkpt lat="47.153586067121616" lon="3.163645888968724"><ele>308.0</ele><time>2026-04-26T08:16:55Z</time></trkpt><trkpt lat="47.153676686940784" lon="3.163671516015727"><ele>308.0</ele><time>2026-04-26T08:16:57Z</time></trkpt><trkpt lat="47.153771667862415" lon="3.1636908615918555"><ele>308.0</ele><time>2026-04-26T08:16:59Z</time></trkpt><trkpt lat="47.15385310800323" lon="3.1637138760562595"><ele>308.0</ele><time>2026-04-26T08:17:01Z</time></trkpt><trkpt lat="47.15395269882145" lon="3.163715497232766"><ele>308.0</ele><time>2026-04-26T08:17:03Z</time></trkpt><trkpt lat="47.15404665287817" lon="3.1637135623903436"><ele>308.0</ele><time>2026-04-26T08:17:05Z</time></trkpt><trkpt lat="47.15415356403203" lon="3.1637213303948317"><ele>308.0</ele><time>2026-04-26T08:17:07Z</time></trkpt><trkpt lat="47.154246669946275" lon="3.163717622902333"><ele>308.0</ele><time>2026-04-26T08:17:09Z</time></trkpt><trkpt lat="47.154342169511125" lon="3.163717051780004"><ele>307.4</ele><time>2026-04-26T08:17:11Z</time></trkpt><trkpt lat="47.1544329757415" lon="3.16370006459541"><ele>306.8</ele><time>2026-04-26T08:17:13Z</time></trkpt><trkpt lat="47.154538386982615" lon="3.1637076917320877"><ele>306.2</ele><time>2026-04-26T08:17:15Z</time></trkpt><trkpt lat="47.15462531961574" lon="3.163707689094276"><ele>305.6</ele><time>2026-04-26T08:17:17Z</time></trkpt><trkpt lat="47.154730105476624" lon="3.16372624901109"><ele>305.0</ele><time>2026-04-26T08:17:19Z</time></trkpt><trkpt lat="47.154824763641294" lon="3.16371109134042"><ele>304.5</ele><time>2026-04-26T08:17:21Z</time></trkpt><trkpt lat="47.154920266070754" lon="3.1637052033109563"><ele>304.0</ele><time>2026-04-26T08:17:23Z</time></trkpt><trkpt lat="47.154993535217365" lon="3.1636883011296493"><ele>303.5</ele><time>2026-04-26T08:17:25Z</time></trkpt><trkpt lat="47.15508726039844" lon="3.1636691964358237"><ele>303.0</ele><time>2026-04-26T08:17:29Z</time></trkpt><trkpt lat="47.15518445771768" lon="3.1636610409218306"><ele>302.5</ele><time>2026-04-26T08:17:31.999Z</time></trkpt><trkpt lat="47.155265983143046" lon="3.1636814328689704"><ele>302.0</ele><time>2026-04-26T08:17:33.999Z</time></trkpt><trkpt lat="47.155345896761204" lon="3.1636932623676186"><ele>302.0</ele><time>2026-04-26T08:17:35.999Z</time></trkpt><trkpt lat="47.15544932991229" lon="3.1637055239582823"><ele>302.0</ele><time>2026-04-26T08:17:37.999Z</time></trkpt><trkpt lat="47.15554918362905" lon="3.1637668668732903"><ele>302.0</ele><time>2026-04-26T08:17:39.999Z</time></trkpt><trkpt lat="47.15563064735866" lon="3.1638747962787224"><ele>302.0</ele><time>2026-04-26T08:17:41.999Z</time></trkpt><trkpt lat="47.155700204734615" lon="3.1639609919386973"><ele>302.0</ele><time>2026-04-26T08:17:43.999Z</time></trkpt><trkpt lat="47.155750233937" lon="3.164023813233347"><ele>301.8</ele><time>2026-04-26T08:17:44.999Z</time></trkpt><trkpt lat="47.15580515252375" lon="3.1641059145720796"><ele>301.6</ele><time>2026-04-26T08:17:46.999Z</time></trkpt><trkpt lat="47.1558544341475" lon="3.1642259955352565"><ele>301.40000000000003</ele><time>2026-04-26T08:17:48.999Z</time></trkpt><trkpt lat="47.15592893253995" lon="3.1643522064144793"><ele>301.2</ele><time>2026-04-26T08:17:50.999Z</time></trkpt><trkpt lat="47.155977431736396" lon="3.164427203565188"><ele>301.0</ele><time>2026-04-26T08:17:52.999Z</time></trkpt><trkpt lat="47.15603217041651" lon="3.164552179717321"><ele>301.0</ele><time>2026-04-26T08:17:54.999Z</time></trkpt><trkpt lat="47.156087196154324" lon="3.164639860061294"><ele>301.0</ele><time>2026-04-26T08:17:56.999Z</time></trkpt><trkpt lat="47.156132853744055" lon="3.164704741688012"><ele>301.0</ele><time>2026-04-26T08:17:58.999Z</time></trkpt><trkpt lat="47.15619889636116" lon="3.164808936497709"><ele>301.0</ele><time>2026-04-26T08:18:01.999Z</time></trkpt><trkpt lat="47.15624698374528" lon="3.1648792004869093"><ele>301.0</ele><time>2026-04-26T08:18:03.999Z</time></trkpt><trkpt lat="47.15631198845937" lon="3.165012647294104"><ele>301.0</ele><time>2026-04-26T08:18:06.999Z</time></trkpt><trkpt lat="47.156354450053875" lon="3.1650875226867425"><ele>301.5</ele><time>2026-04-26T08:18:08.999Z</time></trkpt><trkpt lat="47.15643130899391" lon="3.16515471340614"><ele>302.0</ele><time>2026-04-26T08:18:10.999Z</time></trkpt><trkpt lat="47.15647967853715" lon="3.165245341226807"><ele>302.5</ele><time>2026-04-26T08:18:12.999Z</time></trkpt><trkpt lat="47.1565334304938" lon="3.1653330604820225"><ele>303.0</ele><time>2026-04-26T08:18:15.999Z</time></trkpt><trkpt lat="47.156587228611386" lon="3.165458732976127"><ele>303.5</ele><time>2026-04-26T08:18:17.999Z</time></trkpt><trkpt lat="47.15665933067391" lon="3.165557689886014"><ele>304.0</ele><time>2026-04-26T08:18:20.999Z</time></trkpt><trkpt lat="47.15670352993725" lon="3.1656257757455544"><ele>304.0</ele><time>2026-04-26T08:18:22.999Z</time></trkpt><trkpt lat="47.1567553449961" lon="3.1657120910175447"><ele>304.0</ele><time>2026-04-26T08:18:24.999Z</time></trkpt><trkpt lat="47.156820273133455" lon="3.1657771137179838"><ele>304.0</ele><time>2026-04-26T08:18:27.999Z</time></trkpt><trkpt lat="47.15686260382961" lon="3.1659135688002733"><ele>304.0</ele><time>2026-04-26T08:18:29.999Z</time></trkpt><trkpt lat="47.15692128904707" lon="3.1660355709211103"><ele>304.0</ele><time>2026-04-26T08:18:31.999Z</time></trkpt><trkpt lat="47.15696505746761" lon="3.166105845358872"><ele>304.0</ele><time>2026-04-26T08:18:33.999Z</time></trkpt><trkpt lat="47.15701936379422" lon="3.1662202536353057"><ele>304.0</ele><time>2026-04-26T08:18:35.999Z</time></trkpt><trkpt lat="47.15709813503179" lon="3.16633169095659"><ele>304.0</ele><time>2026-04-26T08:18:37.999Z</time></trkpt><trkpt lat="47.15716082952903" lon="3.1664096432830298"><ele>304.0</ele><time>2026-04-26T08:18:40Z</time></trkpt><trkpt lat="47.15719461704936" lon="3.166542000450009"><ele>304.0</ele><time>2026-04-26T08:18:42Z</time></trkpt><trkpt lat="47.15723057720833" lon="3.166637987730495"><ele>304.0</ele><time>2026-04-26T08:18:44Z</time></trkpt><trkpt lat="47.15726659107246" lon="3.166734110046197"><ele>304.0</ele><time>2026-04-26T08:18:46Z</time></trkpt><trkpt lat="47.157321791240925" lon="3.166872063162917"><ele>304.3333333333333</ele><time>2026-04-26T08:18:49Z</time></trkpt><trkpt lat="47.157344713494034" lon="3.166961434278303"><ele>304.66666666666663</ele><time>2026-04-26T08:18:50Z</time></trkpt><trkpt lat="47.15735972982018" lon="3.167116318573257"><ele>305.0</ele><time>2026-04-26T08:18:52Z</time></trkpt><trkpt lat="47.157370087077915" lon="3.167244046301711"><ele>305.3333333333333</ele><time>2026-04-26T08:18:53Z</time></trkpt><trkpt lat="47.157394531970894" lon="3.1674007028527336"><ele>305.6666666666667</ele><time>2026-04-26T08:18:55Z</time></trkpt><trkpt lat="47.15741379587325" lon="3.1674906779391634"><ele>306.0</ele><time>2026-04-26T08:18:56Z</time></trkpt><trkpt lat="47.15742866195907" lon="3.1675946191989777"><ele>306.0</ele><time>2026-04-26T08:18:57Z</time></trkpt><trkpt lat="47.157427008229796" lon="3.167722445572615"><ele>306.0</ele><time>2026-04-26T08:18:59Z</time></trkpt><trkpt lat="47.1574418978873" lon="3.167877933702392"><ele>306.0</ele><time>2026-04-26T08:19:01Z</time></trkpt><trkpt lat="47.15746083051072" lon="3.1679722575331835"><ele>306.0</ele><time>2026-04-26T08:19:02Z</time></trkpt><trkpt lat="47.15745514718531" lon="3.1680771234416745"><ele>306.0</ele><time>2026-04-26T08:19:04Z</time></trkpt><trkpt lat="47.15750340306083" lon="3.16820414617357"><ele>306.0</ele><time>2026-04-26T08:19:06Z</time></trkpt><trkpt lat="47.15752128269005" lon="3.1683951159317947"><ele>306.0</ele><time>2026-04-26T08:19:08Z</time></trkpt><trkpt lat="47.157521876171224" lon="3.1685487841177533"><ele>306.0</ele><time>2026-04-26T08:19:10Z</time></trkpt><trkpt lat="47.15756476489873" lon="3.1686794546840047"><ele>306.0</ele><time>2026-04-26T08:19:12Z</time></trkpt><trkpt lat="47.15758300856158" lon="3.1688319899219857"><ele>306.0</ele><time>2026-04-26T08:19:14Z</time></trkpt><trkpt lat="47.15761024411415" lon="3.1689983766450958"><ele>306.0</ele><time>2026-04-26T08:19:16Z</time></trkpt><trkpt lat="47.15761688105452" lon="3.1691182385506744"><ele>305.8333333333333</ele><time>2026-04-26T08:19:18Z</time></trkpt><trkpt lat="47.15764645637691" lon="3.169228235304873"><ele>305.6666666666667</ele><time>2026-04-26T08:19:20Z</time></trkpt><trkpt lat="47.15767003215152" lon="3.1693214996879786"><ele>305.5</ele><time>2026-04-26T08:19:21Z</time></trkpt><trkpt lat="47.157672505447714" lon="3.1694823560494494"><ele>305.33333333333337</ele><time>2026-04-26T08:19:23Z</time></trkpt><trkpt lat="47.15769619386597" lon="3.1695927427443538"><ele>305.1666666666667</ele><time>2026-04-26T08:19:25Z</time></trkpt><trkpt lat="47.15770486348533" lon="3.169693536005621"><ele>305.0</ele><time>2026-04-26T08:19:27Z</time></trkpt><trkpt lat="47.157716520344515" lon="3.169829730565819"><ele>305.4</ele><time>2026-04-26T08:19:30Z</time></trkpt><trkpt lat="47.157722446998456" lon="3.1700046199674143"><ele>305.8</ele><time>2026-04-26T08:19:33Z</time></trkpt><trkpt lat="47.15775315857082" lon="3.1701649934076346"><ele>306.2</ele><time>2026-04-26T08:19:35Z</time></trkpt><trkpt lat="47.15775338314522" lon="3.1702909612546506"><ele>306.6</ele><time>2026-04-26T08:19:37Z</time></trkpt><trkpt lat="47.157788648688296" lon="3.1704101961768987"><ele>307.0</ele><time>2026-04-26T08:19:38.999Z</time></trkpt><trkpt lat="47.15778923616051" lon="3.170529161552819"><ele>307.0</ele><time>2026-04-26T08:19:40.999Z</time></trkpt><trkpt lat="47.15780601603361" lon="3.170637872053787"><ele>307.0</ele><time>2026-04-26T08:19:42.999Z</time></trkpt><trkpt lat="47.157831972190415" lon="3.1707374176062637"><ele>307.0</ele><time>2026-04-26T08:19:44.999Z</time></trkpt><trkpt lat="47.15784104156695" lon="3.1708605593151113"><ele>307.0</ele><time>2026-04-26T08:19:46.999Z</time></trkpt><trkpt lat="47.15785374629721" lon="3.17097887525526"><ele>307.0</ele><time>2026-04-26T08:19:48.999Z</time></trkpt><trkpt lat="47.15787044759832" lon="3.1711138809072468"><ele>307.0</ele><time>2026-04-26T08:19:50.999Z</time></trkpt><trkpt lat="47.15790204141817" lon="3.1712246107428594"><ele>307.3333333333333</ele><time>2026-04-26T08:19:52.999Z</time></trkpt><trkpt lat="47.15791619250391" lon="3.1713311297818585"><ele>307.66666666666663</ele><time>2026-04-26T08:19:54.999Z</time></trkpt><trkpt lat="47.15792560543206" lon="3.171476474471769"><ele>308.0</ele><time>2026-04-26T08:19:56.999Z</time></trkpt><trkpt lat="47.15795622812103" lon="3.171560408925339"><ele>308.3333333333333</ele><time>2026-04-26T08:19:58.999Z</time></trkpt><trkpt lat="47.15797872780404" lon="3.171691060000055"><ele>308.6666666666667</ele><time>2026-04-26T08:20:00.999Z</time></trkpt><trkpt lat="47.15797378318866" lon="3.1718149843597105"><ele>309.0</ele><time>2026-04-26T08:20:02.999Z</time></trkpt><trkpt lat="47.15800189018768" lon="3.1719027991626576"><ele>309.2</ele><time>2026-04-26T08:20:04.999Z</time></trkpt><trkpt lat="47.15802325116413" lon="3.172057704343029"><ele>309.4</ele><time>2026-04-26T08:20:06.999Z</time></trkpt><trkpt lat="47.158057278720065" lon="3.172183441244571"><ele>309.6</ele><time>2026-04-26T08:20:08.999Z</time></trkpt><trkpt lat="47.158076594110824" lon="3.1722956687902655"><ele>309.8</ele><time>2026-04-26T08:20:10.999Z</time></trkpt><trkpt lat="47.15806909196169" lon="3.1724418072591813"><ele>310.0</ele><time>2026-04-26T08:20:12.999Z</time></trkpt><trkpt lat="47.15809470961308" lon="3.172578576536531"><ele>310.0</ele><time>2026-04-26T08:20:14.999Z</time></trkpt><trkpt lat="47.1581142387307" lon="3.1727067710194583"><ele>310.0</ele><time>2026-04-26T08:20:16.999Z</time></trkpt><trkpt lat="47.158108722419165" lon="3.1728275140448776"><ele>310.0</ele><time>2026-04-26T08:20:18.999Z</time></trkpt><trkpt lat="47.15813364910076" lon="3.1729701437328464"><ele>310.0</ele><time>2026-04-26T08:20:20.999Z</time></trkpt><trkpt lat="47.15815450038024" lon="3.17309149840813"><ele>310.0</ele><time>2026-04-26T08:20:22.999Z</time></trkpt><trkpt lat="47.15816065120669" lon="3.1732220825033117"><ele>310.0</ele><time>2026-04-26T08:20:24.999Z</time></trkpt><trkpt lat="47.15819728562889" lon="3.173357890259544"><ele>309.6</ele><time>2026-04-26T08:20:26.999Z</time></trkpt><trkpt lat="47.15821308891906" lon="3.1735203372979295"><ele>309.2</ele><time>2026-04-26T08:20:28.999Z</time></trkpt><trkpt lat="47.15822407051872" lon="3.17368319097004"><ele>308.8</ele><time>2026-04-26T08:20:30.999Z</time></trkpt><trkpt lat="47.158242818377225" lon="3.1738328698621183"><ele>308.4</ele><time>2026-04-26T08:20:32.999Z</time></trkpt><trkpt lat="47.158260027943825" lon="3.173942013157316"><ele>308.0</ele><time>2026-04-26T08:20:34.999Z</time></trkpt><trkpt lat="47.15828959475703" lon="3.1741018453514087"><ele>307.6</ele><time>2026-04-26T08:20:36.999Z</time></trkpt><trkpt lat="47.158299644576736" lon="3.1742393429395346"><ele>307.20000000000005</ele><time>2026-04-26T08:20:38.999Z</time></trkpt><trkpt lat="47.158335212667765" lon="3.1743966096438383"><ele>306.8</ele><time>2026-04-26T08:20:40.999Z</time></trkpt><trkpt lat="47.15836029850082" lon="3.174514305235787"><ele>306.40000000000003</ele><time>2026-04-26T08:20:42.999Z</time></trkpt><trkpt lat="47.15838067189825" lon="3.1746595547262975"><ele>306.0</ele><time>2026-04-26T08:20:44.999Z</time></trkpt><trkpt lat="47.15837902012086" lon="3.1747538666046813"><ele>306.0</ele><time>2026-04-26T08:20:46Z</time></trkpt><trkpt lat="47.15838212789038" lon="3.174848342458813"><ele>306.0</ele><time>2026-04-26T08:20:47Z</time></trkpt><trkpt lat="47.15838886787071" lon="3.174948670757859"><ele>306.0</ele><time>2026-04-26T08:20:48Z</time></trkpt><trkpt lat="47.15841127994544" lon="3.1751006368863406"><ele>306.0</ele><time>2026-04-26T08:20:50Z</time></trkpt><trkpt lat="47.15843571966624" lon="3.175204098685954"><ele>306.0</ele><time>2026-04-26T08:20:52Z</time></trkpt><trkpt lat="47.158483171920935" lon="3.1752903900363756"><ele>306.0</ele><time>2026-04-26T08:20:56Z</time></trkpt><trkpt lat="47.15853355012378" lon="3.1752100800269076"><ele>306.0</ele><time>2026-04-26T08:20:58Z</time></trkpt><trkpt lat="47.15857105625173" lon="3.175119336853069"><ele>306.0</ele><time>2026-04-26T08:21:00Z</time></trkpt><trkpt lat="47.15860696281442" lon="3.1750241988222565"><ele>306.0</ele><time>2026-04-26T08:21:02Z</time></trkpt><trkpt lat="47.158644963076014" lon="3.1749223558940507"><ele>306.0</ele><time>2026-04-26T08:21:04Z</time></trkpt><trkpt lat="47.15867958406279" lon="3.17481899480057"><ele>306.0</ele><time>2026-04-26T08:21:06Z</time></trkpt><trkpt lat="47.15872123595895" lon="3.1747170697599705"><ele>306.0</ele><time>2026-04-26T08:21:08Z</time></trkpt><trkpt lat="47.15877498687298" lon="3.1745743653905865"><ele>306.0</ele><time>2026-04-26T08:21:11Z</time></trkpt><trkpt lat="47.158821025105404" lon="3.1744590720023784"><ele>306.0</ele><time>2026-04-26T08:21:13Z</time></trkpt><trkpt lat="47.158871024640504" lon="3.1743312032217195"><ele>306.0</ele><time>2026-04-26T08:21:15Z</time></trkpt><trkpt lat="47.158909986528435" lon="3.1742225504514705"><ele>306.0</ele><time>2026-04-26T08:21:17Z</time></trkpt><trkpt lat="47.158960017947635" lon="3.174110906665129"><ele>306.0</ele><time>2026-04-26T08:21:19Z</time></trkpt><trkpt lat="47.15899886013134" lon="3.1739954361741"><ele>304.8</ele><time>2026-04-26T08:21:21Z</time></trkpt><trkpt lat="47.159040167269524" lon="3.1738799424522486"><ele>303.6</ele><time>2026-04-26T08:21:23Z</time></trkpt><trkpt lat="47.159082729135775" lon="3.1737701766946915"><ele>302.4</ele><time>2026-04-26T08:21:25Z</time></trkpt><trkpt lat="47.15912627420958" lon="3.1736534116611272"><ele>301.2</ele><time>2026-04-26T08:21:27Z</time></trkpt><trkpt lat="47.15917467569493" lon="3.173527224656005"><ele>300.0</ele><time>2026-04-26T08:21:29Z</time></trkpt><trkpt lat="47.159223308945776" lon="3.1734022127569683"><ele>300.0</ele><time>2026-04-26T08:21:31Z</time></trkpt><trkpt lat="47.159272036998374" lon="3.1732742756746823"><ele>300.0</ele><time>2026-04-26T08:21:33Z</time></trkpt><trkpt lat="47.15931484026587" lon="3.1731512896323295"><ele>300.0</ele><time>2026-04-26T08:21:35Z</time></trkpt><trkpt lat="47.15936315133715" lon="3.173029536880133"><ele>300.0</ele><time>2026-04-26T08:21:37Z</time></trkpt><trkpt lat="47.15940876099716" lon="3.1729073682654745"><ele>300.0</ele><time>2026-04-26T08:21:39Z</time></trkpt><trkpt lat="47.15945275251118" lon="3.1727846807765876"><ele>300.4285714285714</ele><time>2026-04-26T08:21:40.999Z</time></trkpt><trkpt lat="47.159493952845935" lon="3.172677326724983"><ele>300.85714285714283</ele><time>2026-04-26T08:21:42.999Z</time></trkpt><trkpt lat="47.15953334108013" lon="3.1725765016423075"><ele>301.2857142857143</ele><time>2026-04-26T08:21:44.999Z</time></trkpt><trkpt lat="47.1595708256213" lon="3.1724822945238675"><ele>301.71428571428567</ele><time>2026-04-26T08:21:46.999Z</time></trkpt><trkpt lat="47.159604091721235" lon="3.17239946426536"><ele>302.1428571428571</ele><time>2026-04-26T08:21:48.999Z</time></trkpt><trkpt lat="47.15962953529506" lon="3.1723086869387975"><ele>302.57142857142856</ele><time>2026-04-26T08:21:50.999Z</time></trkpt><trkpt lat="47.15966287222309" lon="3.172226421226729"><ele>303.0</ele><time>2026-04-26T08:21:52.999Z</time></trkpt><trkpt lat="47.15970878071854" lon="3.1721044768154742"><ele>303.0</ele><time>2026-04-26T08:21:55.999Z</time></trkpt><trkpt lat="47.15973367872049" lon="3.172019194430077"><ele>303.0</ele><time>2026-04-26T08:21:57.999Z</time></trkpt><trkpt lat="47.159776829161025" lon="3.171916976279075"><ele>303.0</ele><time>2026-04-26T08:22:00.999Z</time></trkpt><trkpt lat="47.159807708288305" lon="3.1718261773681125"><ele>303.0</ele><time>2026-04-26T08:22:02.999Z</time></trkpt><trkpt lat="47.15983925208279" lon="3.1717419031679954"><ele>303.0</ele><time>2026-04-26T08:22:04.999Z</time></trkpt><trkpt lat="47.1598828420128" lon="3.171629431933104"><ele>303.0</ele><time>2026-04-26T08:22:07.999Z</time></trkpt><trkpt lat="47.15991691035248" lon="3.171535677373384"><ele>303.0</ele><time>2026-04-26T08:22:10.999Z</time></trkpt><trkpt lat="47.15996236180528" lon="3.171419213016389"><ele>303.8333333333333</ele><time>2026-04-26T08:22:13.999Z</time></trkpt><trkpt lat="47.15999265122334" lon="3.171331125423639"><ele>304.6666666666667</ele><time>2026-04-26T08:22:15.999Z</time></trkpt><trkpt lat="47.16002418584086" lon="3.1712509091741765"><ele>305.5</ele><time>2026-04-26T08:22:17.999Z</time></trkpt><trkpt lat="47.16005713244527" lon="3.1711628843196618"><ele>306.33333333333337</ele><time>2026-04-26T08:22:19.999Z</time></trkpt><trkpt lat="47.16008981058424" lon="3.17108170676164"><ele>307.1666666666667</ele><time>2026-04-26T08:22:21.999Z</time></trkpt><trkpt lat="47.16013564577643" lon="3.170958808849206"><ele>308.0</ele><time>2026-04-26T08:22:24.999Z</time></trkpt><trkpt lat="47.160178374826835" lon="3.1708388166905577"><ele>308.0</ele><time>2026-04-26T08:22:27.999Z</time></trkpt><trkpt lat="47.16022399030146" lon="3.1707182648810135"><ele>308.0</ele><time>2026-04-26T08:22:30.999Z</time></trkpt><trkpt lat="47.16026607189808" lon="3.17059753249744"><ele>308.0</ele><time>2026-04-26T08:22:33.999Z</time></trkpt><trkpt lat="47.16031501071854" lon="3.1704788231481995"><ele>308.0</ele><time>2026-04-26T08:22:36.999Z</time></trkpt><trkpt lat="47.16034573126237" lon="3.170390173000524"><ele>308.0</ele><time>2026-04-26T08:22:39.999Z</time></trkpt><trkpt lat="47.16038999507413" lon="3.1702831411643837"><ele>308.0</ele><time>2026-04-26T08:22:42.999Z</time></trkpt><trkpt lat="47.16043242011667" lon="3.170170699157365"><ele>308.33333333333337</ele><time>2026-04-26T08:22:45.999Z</time></trkpt><trkpt lat="47.16047858186451" lon="3.170053755927211"><ele>308.6666666666667</ele><time>2026-04-26T08:22:47.999Z</time></trkpt><trkpt lat="47.160515400377705" lon="3.1699440326360495"><ele>309.0</ele><time>2026-04-26T08:22:50.999Z</time></trkpt><trkpt lat="47.16054570871225" lon="3.1698615280954496"><ele>309.3333333333333</ele><time>2026-04-26T08:22:54Z</time></trkpt><trkpt lat="47.160587380332025" lon="3.1697451824932568"><ele>309.66666666666663</ele><time>2026-04-26T08:22:57Z</time></trkpt><trkpt lat="47.16063066616874" lon="3.1696302672781758"><ele>310.0</ele><time>2026-04-26T08:22:59Z</time></trkpt><trkpt lat="47.16067113849241" lon="3.1695135959127425"><ele>310.16666666666663</ele><time>2026-04-26T08:23:02Z</time></trkpt><trkpt lat="47.16070603833443" lon="3.16942627323142"><ele>310.3333333333333</ele><time>2026-04-26T08:23:05Z</time></trkpt><trkpt lat="47.16074068741566" lon="3.1693168243280283"><ele>310.5</ele><time>2026-04-26T08:23:08Z</time></trkpt><trkpt lat="47.16079307360216" lon="3.1691716498467692"><ele>310.6666666666667</ele><time>2026-04-26T08:23:11Z</time></trkpt><trkpt lat="47.160831790758486" lon="3.1690554877810126"><ele>310.83333333333337</ele><time>2026-04-26T08:23:14Z</time></trkpt><trkpt lat="47.160874109469056" lon="3.168935977849406"><ele>311.0</ele><time>2026-04-26T08:23:17Z</time></trkpt><trkpt lat="47.16090305290726" lon="3.1688526142634372"><ele>311.1666666666667</ele><time>2026-04-26T08:23:19Z</time></trkpt><trkpt lat="47.160932071953916" lon="3.168761099702147"><ele>311.33333333333337</ele><time>2026-04-26T08:23:21Z</time></trkpt><trkpt lat="47.16097466305653" lon="3.1686363490657863"><ele>311.5</ele><time>2026-04-26T08:23:24Z</time></trkpt><trkpt lat="47.16100952626182" lon="3.1685419449587595"><ele>311.6666666666667</ele><time>2026-04-26T08:23:26Z</time></trkpt><trkpt lat="47.161045410150265" lon="3.1684516017369058"><ele>311.8333333333333</ele><time>2026-04-26T08:23:28Z</time></trkpt><trkpt lat="47.161081918622244" lon="3.1683505597545443"><ele>312.0</ele><time>2026-04-26T08:23:30Z</time></trkpt><trkpt lat="47.16112249070326" lon="3.1682418665785375"><ele>311.3333333333333</ele><time>2026-04-26T08:23:32Z</time></trkpt><trkpt lat="47.161160875031" lon="3.168134764344278"><ele>310.6666666666667</ele><time>2026-04-26T08:23:34Z</time></trkpt><trkpt lat="47.161199169400746" lon="3.168029053703555"><ele>310.0</ele><time>2026-04-26T08:23:36Z</time></trkpt><trkpt lat="47.161241901110294" lon="3.167917395232989"><ele>309.33333333333337</ele><time>2026-04-26T08:23:38Z</time></trkpt><trkpt lat="47.161286297663814" lon="3.1678071989603347"><ele>308.6666666666667</ele><time>2026-04-26T08:23:40Z</time></trkpt><trkpt lat="47.16133069584285" lon="3.167687460230549"><ele>308.0</ele><time>2026-04-26T08:23:41.999Z</time></trkpt><trkpt lat="47.16137652530129" lon="3.167568247563314"><ele>308.0</ele><time>2026-04-26T08:23:43.999Z</time></trkpt><trkpt lat="47.16142028467351" lon="3.167443502906098"><ele>308.0</ele><time>2026-04-26T08:23:45.999Z</time></trkpt><trkpt lat="47.16147000448365" lon="3.1673110444175983"><ele>308.0</ele><time>2026-04-26T08:23:47.999Z</time></trkpt><trkpt lat="47.16152234240402" lon="3.1671720303350157"><ele>308.0</ele><time>2026-04-26T08:23:49.999Z</time></trkpt><trkpt lat="47.16158657296498" lon="3.1670462605474636"><ele>308.0</ele><time>2026-04-26T08:23:51.999Z</time></trkpt><trkpt lat="47.161641791743605" lon="3.1668981320213367"><ele>306.33333333333337</ele><time>2026-04-26T08:23:53.999Z</time></trkpt><trkpt lat="47.161697706219144" lon="3.1667481372452446"><ele>304.6666666666667</ele><time>2026-04-26T08:23:55.999Z</time></trkpt><trkpt lat="47.1617292278799" lon="3.1666635779745036"><ele>303.0</ele><time>2026-04-26T08:23:56.999Z</time></trkpt><trkpt lat="47.16176112115247" lon="3.166578021836704"><ele>301.3333333333333</ele><time>2026-04-26T08:23:57.999Z</time></trkpt><trkpt lat="47.16179411512642" lon="3.16648951298622"><ele>299.66666666666663</ele><time>2026-04-26T08:23:58.999Z</time></trkpt><trkpt lat="47.16182798827713" lon="3.1663986456174538"><ele>298.0</ele><time>2026-04-26T08:23:59.999Z</time></trkpt><trkpt lat="47.16186209140075" lon="3.1663071615659715"><ele>297.3333333333333</ele><time>2026-04-26T08:24:00.999Z</time></trkpt><trkpt lat="47.16189719472891" lon="3.1662129942393675"><ele>296.66666666666663</ele><time>2026-04-26T08:24:01.999Z</time></trkpt><trkpt lat="47.161929427942816" lon="3.1661257161278265"><ele>296.0</ele><time>2026-04-26T08:24:02.999Z</time></trkpt><trkpt lat="47.16196111505468" lon="3.1660397766800763"><ele>295.3333333333333</ele><time>2026-04-26T08:24:03.999Z</time></trkpt><trkpt lat="47.161991222400914" lon="3.165958121339968"><ele>294.6666666666667</ele><time>2026-04-26T08:24:04.999Z</time></trkpt><trkpt lat="47.162044689731914" lon="3.1658131108993968"><ele>294.0</ele><time>2026-04-26T08:24:06.999Z</time></trkpt><trkpt lat="47.16209430299303" lon="3.165677119269352"><ele>294.0</ele><time>2026-04-26T08:24:08.999Z</time></trkpt><trkpt lat="47.162135467610995" lon="3.165564202158146"><ele>294.0</ele><time>2026-04-26T08:24:10.999Z</time></trkpt><trkpt lat="47.16217290524045" lon="3.1654615080398854"><ele>294.0</ele><time>2026-04-26T08:24:12.999Z</time></trkpt><trkpt lat="47.162212024932096" lon="3.165354200136434"><ele>294.0</ele><time>2026-04-26T08:24:14.999Z</time></trkpt><trkpt lat="47.16225255278103" lon="3.1652430294853664"><ele>294.0</ele><time>2026-04-26T08:24:16.999Z</time></trkpt><trkpt lat="47.16226863734233" lon="3.1651150349714654"><ele>294.0</ele><time>2026-04-26T08:24:18.999Z</time></trkpt><trkpt lat="47.16231510758988" lon="3.1650054802724394"><ele>294.0</ele><time>2026-04-26T08:24:20.999Z</time></trkpt><trkpt lat="47.16235207065068" lon="3.164899230133295"><ele>294.0</ele><time>2026-04-26T08:24:22.999Z</time></trkpt><trkpt lat="47.162387597511454" lon="3.164793818906268"><ele>294.0</ele><time>2026-04-26T08:24:24.999Z</time></trkpt><trkpt lat="47.16242239601571" lon="3.1646911727789497"><ele>294.0</ele><time>2026-04-26T08:24:26.999Z</time></trkpt><trkpt lat="47.162458688548966" lon="3.1645925758595954"><ele>294.0</ele><time>2026-04-26T08:24:28.999Z</time></trkpt><trkpt lat="47.16249226863603" lon="3.164504405283894"><ele>294.0</ele><time>2026-04-26T08:24:30.999Z</time></trkpt><trkpt lat="47.16252644791838" lon="3.1644161031965377"><ele>294.6666666666667</ele><time>2026-04-26T08:24:32.999Z</time></trkpt><trkpt lat="47.16255509002153" lon="3.1643197324775305"><ele>295.3333333333333</ele><time>2026-04-26T08:24:34.999Z</time></trkpt><trkpt lat="47.16259221794513" lon="3.164234601938431"><ele>296.0</ele><time>2026-04-26T08:24:36.999Z</time></trkpt><trkpt lat="47.1626226022384" lon="3.164140410592653"><ele>296.66666666666663</ele><time>2026-04-26T08:24:38.999Z</time></trkpt><trkpt lat="47.16265362347523" lon="3.1640547590188626"><ele>297.3333333333333</ele><time>2026-04-26T08:24:40.999Z</time></trkpt><trkpt lat="47.16270148612887" lon="3.1639354747900716"><ele>298.0</ele><time>2026-04-26T08:24:43.999Z</time></trkpt><trkpt lat="47.16274445675042" lon="3.1638130108921922"><ele>298.0</ele><time>2026-04-26T08:24:46.999Z</time></trkpt><trkpt lat="47.16279034990748" lon="3.163700404453332"><ele>298.0</ele><time>2026-04-26T08:24:49.999Z</time></trkpt><trkpt lat="47.162829745041115" lon="3.1635838621161603"><ele>298.0</ele><time>2026-04-26T08:24:52.999Z</time></trkpt><trkpt lat="47.16286919484992" lon="3.163479741157493"><ele>298.0</ele><time>2026-04-26T08:24:55.999Z</time></trkpt><trkpt lat="47.16290514021159" lon="3.163370644326541"><ele>298.0</ele><time>2026-04-26T08:24:59Z</time></trkpt><trkpt lat="47.16294609882736" lon="3.1632711290982782"><ele>298.0</ele><time>2026-04-26T08:25:02Z</time></trkpt><trkpt lat="47.16297725762682" lon="3.1631834207364897"><ele>298.66666666666663</ele><time>2026-04-26T08:25:05Z</time></trkpt><trkpt lat="47.16299528788591" lon="3.1630867412898906"><ele>299.3333333333333</ele><time>2026-04-26T08:25:18Z</time></trkpt><trkpt lat="47.163042226512914" lon="3.162978048598074"><ele>300.0</ele><time>2026-04-26T08:25:21Z</time></trkpt><trkpt lat="47.16308111278199" lon="3.162865513945843"><ele>300.6666666666667</ele><time>2026-04-26T08:25:24Z</time></trkpt><trkpt lat="47.163122627639254" lon="3.162752739878759"><ele>301.33333333333337</ele><time>2026-04-26T08:25:27Z</time></trkpt><trkpt lat="47.16316639361585" lon="3.1626469419640797"><ele>302.0</ele><time>2026-04-26T08:25:30Z</time></trkpt><trkpt lat="47.16321705446298" lon="3.1625104072155543"><ele>303.33333333333337</ele><time>2026-04-26T08:25:34Z</time></trkpt><trkpt lat="47.163255996950355" lon="3.162398196133652"><ele>304.6666666666667</ele><time>2026-04-26T08:25:37Z</time></trkpt><trkpt lat="47.16329503730217" lon="3.1623064395413465"><ele>306.0</ele><time>2026-04-26T08:25:39Z</time></trkpt><trkpt lat="47.163327007558905" lon="3.1622149522818193"><ele>307.3333333333333</ele><time>2026-04-26T08:25:43Z</time></trkpt><trkpt lat="47.16336653496877" lon="3.1621091026635733"><ele>308.66666666666663</ele><time>2026-04-26T08:25:46Z</time></trkpt><trkpt lat="47.163419943926876" lon="3.161989414914243"><ele>310.0</ele><time>2026-04-26T08:25:47.999Z</time></trkpt><trkpt lat="47.16344564518549" lon="3.1618913451798436"><ele>310.66666666666663</ele><time>2026-04-26T08:25:50.999Z</time></trkpt><trkpt lat="47.16348489377901" lon="3.1617839983768943"><ele>311.3333333333333</ele><time>2026-04-26T08:25:53.999Z</time></trkpt><trkpt lat="47.16352458733232" lon="3.1616723083036384"><ele>312.0</ele><time>2026-04-26T08:25:56.999Z</time></trkpt><trkpt lat="47.16355591680746" lon="3.1615852983738297"><ele>312.6666666666667</ele><time>2026-04-26T08:25:59.999Z</time></trkpt><trkpt lat="47.16359084227237" lon="3.1614869691877434"><ele>313.33333333333337</ele><time>2026-04-26T08:26:02.999Z</time></trkpt><trkpt lat="47.16362997080757" lon="3.161388587108421"><ele>314.0</ele><time>2026-04-26T08:26:04.999Z</time></trkpt><trkpt lat="47.16367409937357" lon="3.1612765039810835"><ele>315.1666666666667</ele><time>2026-04-26T08:26:07.999Z</time></trkpt><trkpt lat="47.16371441651379" lon="3.161157349360842"><ele>316.33333333333337</ele><time>2026-04-26T08:26:10.999Z</time></trkpt><trkpt lat="47.16375395057618" lon="3.1610392453966325"><ele>317.5</ele><time>2026-04-26T08:26:13.999Z</time></trkpt><trkpt lat="47.16378738954275" lon="3.1609593559476106"><ele>318.6666666666667</ele><time>2026-04-26T08:26:15.999Z</time></trkpt><trkpt lat="47.163828588579364" lon="3.1608350375718044"><ele>319.8333333333333</ele><time>2026-04-26T08:26:18.999Z</time></trkpt><trkpt lat="47.16387620435057" lon="3.160719709979335"><ele>321.0</ele><time>2026-04-26T08:26:21.999Z</time></trkpt><trkpt lat="47.1639083049167" lon="3.1606325963026096"><ele>320.85714285714283</ele><time>2026-04-26T08:26:23.999Z</time></trkpt><trkpt lat="47.163937681397826" lon="3.1605470448046296"><ele>320.7142857142857</ele><time>2026-04-26T08:26:25.999Z</time></trkpt><trkpt lat="47.163970651917026" lon="3.1604679083280787"><ele>320.57142857142856</ele><time>2026-04-26T08:26:27.999Z</time></trkpt><trkpt lat="47.16401422600544" lon="3.160340764943385"><ele>320.42857142857144</ele><time>2026-04-26T08:26:30.999Z</time></trkpt><trkpt lat="47.16404513002076" lon="3.1602573482753287"><ele>320.2857142857143</ele><time>2026-04-26T08:26:32.999Z</time></trkpt><trkpt lat="47.16407554128653" lon="3.16016571225142"><ele>320.1428571428571</ele><time>2026-04-26T08:26:34.999Z</time></trkpt><trkpt lat="47.16410903809958" lon="3.160073785923793"><ele>320.0</ele><time>2026-04-26T08:26:36.999Z</time></trkpt><trkpt lat="47.16414067974122" lon="3.1599848119642626"><ele>320.0</ele><time>2026-04-26T08:26:39.999Z</time></trkpt><trkpt lat="47.164176977606864" lon="3.1599043271585012"><ele>320.0</ele><time>2026-04-26T08:26:41.999Z</time></trkpt><trkpt lat="47.16422710192563" lon="3.1597676483828505"><ele>320.0</ele><time>2026-04-26T08:26:44.999Z</time></trkpt><trkpt lat="47.16426991957325" lon="3.1596448289701495"><ele>320.0</ele><time>2026-04-26T08:26:47.999Z</time></trkpt><trkpt lat="47.16432071846524" lon="3.1595308995799445"><ele>320.0</ele><time>2026-04-26T08:26:50.999Z</time></trkpt><trkpt lat="47.16434616751954" lon="3.1594270986935724"><ele>320.0</ele><time>2026-04-26T08:26:52.999Z</time></trkpt><trkpt lat="47.16440546335577" lon="3.1593046496490036"><ele>320.1666666666667</ele><time>2026-04-26T08:26:54.999Z</time></trkpt><trkpt lat="47.164443740581376" lon="3.159184242526836"><ele>320.33333333333337</ele><time>2026-04-26T08:26:56.999Z</time></trkpt><trkpt lat="47.1644839191821" lon="3.1590759185879858"><ele>320.5</ele><time>2026-04-26T08:26:58.999Z</time></trkpt><trkpt lat="47.164528323015375" lon="3.15897447820228"><ele>320.6666666666667</ele><time>2026-04-26T08:27:00.999Z</time></trkpt><trkpt lat="47.16456268949205" lon="3.158876373842838"><ele>320.8333333333333</ele><time>2026-04-26T08:27:02.999Z</time></trkpt><trkpt lat="47.164594112181845" lon="3.158771954907595"><ele>321.0</ele><time>2026-04-26T08:27:05Z</time></trkpt><trkpt lat="47.16463706958685" lon="3.158677031612532"><ele>321.6666666666667</ele><time>2026-04-26T08:27:07Z</time></trkpt><trkpt lat="47.16467082013913" lon="3.1585821868671022"><ele>322.3333333333333</ele><time>2026-04-26T08:27:09Z</time></trkpt><trkpt lat="47.16469811799242" lon="3.158483449766969"><ele>323.0</ele><time>2026-04-26T08:27:11Z</time></trkpt><trkpt lat="47.164754521287094" lon="3.1583671683630437"><ele>323.66666666666663</ele><time>2026-04-26T08:27:14Z</time></trkpt><trkpt lat="47.16478419923188" lon="3.158274769797457"><ele>324.3333333333333</ele><time>2026-04-26T08:27:16Z</time></trkpt><trkpt lat="47.16482257907986" lon="3.1581731606883596"><ele>325.0</ele><time>2026-04-26T08:27:18Z</time></trkpt><trkpt lat="47.164857047022934" lon="3.158072748761143"><ele>324.16666666666663</ele><time>2026-04-26T08:27:20Z</time></trkpt><trkpt lat="47.164892849803216" lon="3.1579726455143295"><ele>323.3333333333333</ele><time>2026-04-26T08:27:22Z</time></trkpt><trkpt lat="47.16493146716344" lon="3.1578682030914837"><ele>322.5</ele><time>2026-04-26T08:27:24Z</time></trkpt><trkpt lat="47.164969803088844" lon="3.157766026374307"><ele>321.6666666666667</ele><time>2026-04-26T08:27:26Z</time></trkpt><trkpt lat="47.16500462243317" lon="3.1576561137541956"><ele>320.83333333333337</ele><time>2026-04-26T08:27:28Z</time></trkpt><trkpt lat="47.165045535467456" lon="3.1575457222683276"><ele>320.0</ele><time>2026-04-26T08:27:30Z</time></trkpt><trkpt lat="47.165088724931124" lon="3.1574341216227726"><ele>320.33333333333337</ele><time>2026-04-26T08:27:32Z</time></trkpt><trkpt lat="47.1651262041672" lon="3.1573198385053374"><ele>320.6666666666667</ele><time>2026-04-26T08:27:34Z</time></trkpt><trkpt lat="47.165167764066155" lon="3.1572098073547856"><ele>321.0</ele><time>2026-04-26T08:27:36Z</time></trkpt><trkpt lat="47.16521193260227" lon="3.157094541593018"><ele>321.3333333333333</ele><time>2026-04-26T08:27:38Z</time></trkpt><trkpt lat="47.16525103150079" lon="3.156988278710708"><ele>321.66666666666663</ele><time>2026-04-26T08:27:40Z</time></trkpt><trkpt lat="47.16528939860296" lon="3.1568758414657543"><ele>322.0</ele><time>2026-04-26T08:27:42Z</time></trkpt><trkpt lat="47.165337206105185" lon="3.15676907519934"><ele>322.0</ele><time>2026-04-26T08:27:44Z</time></trkpt><trkpt lat="47.16537286393111" lon="3.156647273211009"><ele>322.0</ele><time>2026-04-26T08:27:46Z</time></trkpt><trkpt lat="47.165414983757394" lon="3.1565396186380306"><ele>322.0</ele><time>2026-04-26T08:27:48Z</time></trkpt><trkpt lat="47.16546382734965" lon="3.1564353865670722"><ele>322.0</ele><time>2026-04-26T08:27:50Z</time></trkpt><trkpt lat="47.165506505862666" lon="3.156315996229928"><ele>322.0</ele><time>2026-04-26T08:27:52Z</time></trkpt><trkpt lat="47.16554611685441" lon="3.156203762813438"><ele>322.0</ele><time>2026-04-26T08:27:53.999Z</time></trkpt><trkpt lat="47.16559146524498" lon="3.156088652437283"><ele>321.6</ele><time>2026-04-26T08:27:55.999Z</time></trkpt><trkpt lat="47.16563648130606" lon="3.1559701471349157"><ele>321.20000000000005</ele><time>2026-04-26T08:27:57.999Z</time></trkpt><trkpt lat="47.16568542163282" lon="3.155851812343304"><ele>320.8</ele><time>2026-04-26T08:27:59.999Z</time></trkpt><trkpt lat="47.1657217984324" lon="3.155743040145628"><ele>320.4</ele><time>2026-04-26T08:28:01.999Z</time></trkpt><trkpt lat="47.16577494676285" lon="3.1556013865617727"><ele>320.0</ele><time>2026-04-26T08:28:03.999Z</time></trkpt><trkpt lat="47.16580886699829" lon="3.1554764685396117"><ele>319.8</ele><time>2026-04-26T08:28:05.999Z</time></trkpt><trkpt lat="47.16587776163113" lon="3.155387603363316"><ele>319.6</ele><time>2026-04-26T08:28:07.999Z</time></trkpt><trkpt lat="47.16591144075432" lon="3.1552942041872654"><ele>319.4</ele><time>2026-04-26T08:28:09.999Z</time></trkpt><trkpt lat="47.16593334410013" lon="3.1551981977578496"><ele>319.2</ele><time>2026-04-26T08:28:12.999Z</time></trkpt><trkpt lat="47.16581545574132" lon="3.154990819573634"><ele>319.0</ele><time>2026-04-26T08:28:14.999Z</time></trkpt><trkpt lat="47.16575839214897" lon="3.154947199370553"><ele>319.66666666666663</ele><time>2026-04-26T08:28:16.999Z</time></trkpt><trkpt lat="47.165688912071694" lon="3.1548937565432884"><ele>320.3333333333333</ele><time>2026-04-26T08:28:18.999Z</time></trkpt><trkpt lat="47.1656233351397" lon="3.1548410715515134"><ele>321.0</ele><time>2026-04-26T08:28:20.999Z</time></trkpt><trkpt lat="47.16555752736983" lon="3.154786851549724"><ele>321.6666666666667</ele><time>2026-04-26T08:28:22.999Z</time></trkpt><trkpt lat="47.16548336540926" lon="3.1547271440115146"><ele>322.33333333333337</ele><time>2026-04-26T08:28:24.999Z</time></trkpt><trkpt lat="47.165413507458" lon="3.1546712395377057"><ele>323.0</ele><time>2026-04-26T08:28:26.999Z</time></trkpt><trkpt lat="47.165347240894235" lon="3.154617260209059"><ele>323.0</ele><time>2026-04-26T08:28:28.999Z</time></trkpt><trkpt lat="47.16527464560301" lon="3.1545574817273154"><ele>323.0</ele><time>2026-04-26T08:28:30.999Z</time></trkpt><trkpt lat="47.165199458639115" lon="3.154496691144267"><ele>323.0</ele><time>2026-04-26T08:28:32.999Z</time></trkpt><trkpt lat="47.165108604775384" lon="3.154467691597621"><ele>323.0</ele><time>2026-04-26T08:28:34.999Z</time></trkpt><trkpt lat="47.165031403101544" lon="3.1544234089486753"><ele>323.0</ele><time>2026-04-26T08:28:36.999Z</time></trkpt><trkpt lat="47.164954957972085" lon="3.154351409968517"><ele>323.0</ele><time>2026-04-26T08:28:38.999Z</time></trkpt><trkpt lat="47.16488043121378" lon="3.154284737497641"><ele>323.33333333333337</ele><time>2026-04-26T08:28:40.999Z</time></trkpt><trkpt lat="47.16481145030709" lon="3.154227705370451"><ele>323.6666666666667</ele><time>2026-04-26T08:28:42.999Z</time></trkpt><trkpt lat="47.16474252636083" lon="3.1541759650410683"><ele>324.0</ele><time>2026-04-26T08:28:44.999Z</time></trkpt><trkpt lat="47.164676863760846" lon="3.1541303183529954"><ele>324.3333333333333</ele><time>2026-04-26T08:28:46.999Z</time></trkpt><trkpt lat="47.16460582311536" lon="3.154065609736539"><ele>324.66666666666663</ele><time>2026-04-26T08:28:48.999Z</time></trkpt><trkpt lat="47.16455137423571" lon="3.1540158471879094"><ele>325.0</ele><time>2026-04-26T08:28:50.999Z</time></trkpt><trkpt lat="47.164474754737" lon="3.1539561240771627"><ele>325.0</ele><time>2026-04-26T08:28:52.999Z</time></trkpt><trkpt lat="47.16442123313947" lon="3.1538877256149123"><ele>325.0</ele><time>2026-04-26T08:28:54.999Z</time></trkpt><trkpt lat="47.16437598462688" lon="3.1538167411174083"><ele>325.0</ele><time>2026-04-26T08:28:56.999Z</time></trkpt><trkpt lat="47.16429607366006" lon="3.1537769991580236"><ele>325.0</ele><time>2026-04-26T08:28:58.999Z</time></trkpt><trkpt lat="47.16422648028375" lon="3.1537160120336"><ele>325.0</ele><time>2026-04-26T08:29:00.999Z</time></trkpt><trkpt lat="47.164148805283716" lon="3.153656697289385"><ele>325.0</ele><time>2026-04-26T08:29:02.999Z</time></trkpt><trkpt lat="47.16408191407548" lon="3.1536084168768914"><ele>325.5</ele><time>2026-04-26T08:29:04.999Z</time></trkpt><trkpt lat="47.16401459396051" lon="3.1535594832093032"><ele>326.0</ele><time>2026-04-26T08:29:06.999Z</time></trkpt><trkpt lat="47.1639490722483" lon="3.1534963039010293"><ele>326.5</ele><time>2026-04-26T08:29:08.998Z</time></trkpt><trkpt lat="47.16388416889527" lon="3.153460510737447"><ele>327.0</ele><time>2026-04-26T08:29:11Z</time></trkpt><trkpt lat="47.16380727903304" lon="3.153420707566545"><ele>327.5</ele><time>2026-04-26T08:29:13Z</time></trkpt><trkpt lat="47.16372363629949" lon="3.1533241584886174"><ele>328.0</ele><time>2026-04-26T08:29:15Z</time></trkpt><trkpt lat="47.163639851364415" lon="3.1532694502692853"><ele>328.0</ele><time>2026-04-26T08:29:17Z</time></trkpt><trkpt lat="47.16355164166593" lon="3.15322153724445"><ele>328.0</ele><time>2026-04-26T08:29:19Z</time></trkpt><trkpt lat="47.16347126345822" lon="3.153150400042082"><ele>328.0</ele><time>2026-04-26T08:29:21Z</time></trkpt><trkpt lat="47.163402809298496" lon="3.1530832045815256"><ele>328.0</ele><time>2026-04-26T08:29:23Z</time></trkpt><trkpt lat="47.163334065805515" lon="3.1530309224891715"><ele>328.0</ele><time>2026-04-26T08:29:25Z</time></trkpt><trkpt lat="47.16326329389924" lon="3.1529674883971333"><ele>328.0</ele><time>2026-04-26T08:29:27Z</time></trkpt><trkpt lat="47.16318749755424" lon="3.1529102052890674"><ele>328.0</ele><time>2026-04-26T08:29:29Z</time></trkpt><trkpt lat="47.16312074782975" lon="3.1528514407734387"><ele>328.0</ele><time>2026-04-26T08:29:31Z</time></trkpt><trkpt lat="47.16305703001946" lon="3.1527945122130143"><ele>328.0</ele><time>2026-04-26T08:29:33Z</time></trkpt><trkpt lat="47.162973325520724" lon="3.15274440382533"><ele>328.0</ele><time>2026-04-26T08:29:35Z</time></trkpt><trkpt lat="47.16289688833994" lon="3.152699230422266"><ele>328.0</ele><time>2026-04-26T08:29:37Z</time></trkpt><trkpt lat="47.162814851285766" lon="3.1526273185570797"><ele>328.0</ele><time>2026-04-26T08:29:39Z</time></trkpt><trkpt lat="47.16274592489714" lon="3.1525616708084785"><ele>328.0</ele><time>2026-04-26T08:29:41Z</time></trkpt><trkpt lat="47.162663482388076" lon="3.152492844806054"><ele>328.0</ele><time>2026-04-26T08:29:43Z</time></trkpt><trkpt lat="47.16258962766907" lon="3.152426051031792"><ele>328.0</ele><time>2026-04-26T08:29:45Z</time></trkpt><trkpt lat="47.16251053395267" lon="3.152352400042215"><ele>328.0</ele><time>2026-04-26T08:29:47Z</time></trkpt><trkpt lat="47.16242927875002" lon="3.15230248282297"><ele>328.0</ele><time>2026-04-26T08:29:49Z</time></trkpt><trkpt lat="47.16235740302062" lon="3.1522314915903142"><ele>328.0</ele><time>2026-04-26T08:29:51Z</time></trkpt><trkpt lat="47.16227111353278" lon="3.152161144639421"><ele>328.0</ele><time>2026-04-26T08:29:53Z</time></trkpt><trkpt lat="47.16219028429072" lon="3.152084303867499"><ele>328.0</ele><time>2026-04-26T08:29:55Z</time></trkpt><trkpt lat="47.1621151187023" lon="3.152021161291613"><ele>328.0</ele><time>2026-04-26T08:29:57Z</time></trkpt><trkpt lat="47.16203960095482" lon="3.1519616960137014"><ele>328.0</ele><time>2026-04-26T08:29:59Z</time></trkpt><trkpt lat="47.1619654490773" lon="3.151890491364389"><ele>328.0</ele><time>2026-04-26T08:30:01Z</time></trkpt><trkpt lat="47.16189376762153" lon="3.1518382572079835"><ele>328.0</ele><time>2026-04-26T08:30:03Z</time></trkpt><trkpt lat="47.16180996878835" lon="3.1517753341480192"><ele>328.0</ele><time>2026-04-26T08:30:05Z</time></trkpt><trkpt lat="47.16173680617804" lon="3.151713442224638"><ele>328.0</ele><time>2026-04-26T08:30:06.999Z</time></trkpt><trkpt lat="47.16167290144061" lon="3.151659046279389"><ele>328.0</ele><time>2026-04-26T08:30:08.999Z</time></trkpt><trkpt lat="47.16159889630839" lon="3.1516010961384326"><ele>328.0</ele><time>2026-04-26T08:30:10.999Z</time></trkpt><trkpt lat="47.16152891683709" lon="3.151545890838288"><ele>327.3333333333333</ele><time>2026-04-26T08:30:12.999Z</time></trkpt><trkpt lat="47.16145383434277" lon="3.151485057720311"><ele>326.66666666666663</ele><time>2026-04-26T08:30:14.999Z</time></trkpt><trkpt lat="47.16137909287645" lon="3.151430226057794"><ele>326.0</ele><time>2026-04-26T08:30:16.999Z</time></trkpt><trkpt lat="47.16131547358992" lon="3.1513840036072316"><ele>325.3333333333333</ele><time>2026-04-26T08:30:19.999Z</time></trkpt><trkpt lat="47.16123269849832" lon="3.1513195083958516"><ele>324.6666666666667</ele><time>2026-04-26T08:30:21.999Z</time></trkpt><trkpt lat="47.16115286608013" lon="3.1512557940488177"><ele>324.0</ele><time>2026-04-26T08:30:24.999Z</time></trkpt><trkpt lat="47.161080756665335" lon="3.1511960411046536"><ele>324.0</ele><time>2026-04-26T08:30:26.999Z</time></trkpt><trkpt lat="47.16101669232062" lon="3.1511438010321258"><ele>324.0</ele><time>2026-04-26T08:30:28.999Z</time></trkpt><trkpt lat="47.16093756867231" lon="3.1510958984535202"><ele>324.0</ele><time>2026-04-26T08:30:30.999Z</time></trkpt><trkpt lat="47.16087123741151" lon="3.151017254085688"><ele>324.0</ele><time>2026-04-26T08:30:32.999Z</time></trkpt><trkpt lat="47.16079406763359" lon="3.150962047164889"><ele>324.0</ele><time>2026-04-26T08:30:34.999Z</time></trkpt><trkpt lat="47.16071474663052" lon="3.150895465090245"><ele>324.0</ele><time>2026-04-26T08:30:36.999Z</time></trkpt><trkpt lat="47.16063513712169" lon="3.150826204483418"><ele>323.5</ele><time>2026-04-26T08:30:38.999Z</time></trkpt><trkpt lat="47.16055355650357" lon="3.150759461961442"><ele>323.0</ele><time>2026-04-26T08:30:40.999Z</time></trkpt><trkpt lat="47.16047618700577" lon="3.150694279219093"><ele>322.5</ele><time>2026-04-26T08:30:42.999Z</time></trkpt><trkpt lat="47.1604018565319" lon="3.150634058321416"><ele>322.0</ele><time>2026-04-26T08:30:44.999Z</time></trkpt><trkpt lat="47.16032556887683" lon="3.1505790726200456"><ele>321.5</ele><time>2026-04-26T08:30:46.999Z</time></trkpt><trkpt lat="47.160248590236655" lon="3.1505110098112485"><ele>321.0</ele><time>2026-04-26T08:30:48.999Z</time></trkpt><trkpt lat="47.1601703603857" lon="3.150452482820267"><ele>321.0</ele><time>2026-04-26T08:30:50.999Z</time></trkpt><trkpt lat="47.160095950396446" lon="3.150382734041866"><ele>321.0</ele><time>2026-04-26T08:30:52.999Z</time></trkpt><trkpt lat="47.1600130293028" lon="3.150321309683573"><ele>321.0</ele><time>2026-04-26T08:30:54.999Z</time></trkpt><trkpt lat="47.15993140104365" lon="3.1502564568435933"><ele>321.0</ele><time>2026-04-26T08:30:56.999Z</time></trkpt><trkpt lat="47.159849486849566" lon="3.150179890903315"><ele>321.0</ele><time>2026-04-26T08:30:58.999Z</time></trkpt><trkpt lat="47.15976275743415" lon="3.150110638190296"><ele>321.0</ele><time>2026-04-26T08:31:00.999Z</time></trkpt><trkpt lat="47.159679296494616" lon="3.1500508615377667"><ele>321.0</ele><time>2026-04-26T08:31:02.999Z</time></trkpt><trkpt lat="47.159597535437214" lon="3.149978839557078"><ele>321.0</ele><time>2026-04-26T08:31:04.999Z</time></trkpt><trkpt lat="47.15951780229351" lon="3.1499177704436545"><ele>321.0</ele><time>2026-04-26T08:31:06.999Z</time></trkpt><trkpt lat="47.159436202383795" lon="3.1498511988220055"><ele>321.0</ele><time>2026-04-26T08:31:08.999Z</time></trkpt><trkpt lat="47.15935138792604" lon="3.1497898366641097"><ele>321.4</ele><time>2026-04-26T08:31:10.999Z</time></trkpt><trkpt lat="47.15926565722471" lon="3.1497179652304994"><ele>321.8</ele><time>2026-04-26T08:31:12.999Z</time></trkpt><trkpt lat="47.159183083110875" lon="3.14964416585763"><ele>322.2</ele><time>2026-04-26T08:31:14.999Z</time></trkpt><trkpt lat="47.15909770472688" lon="3.149575881889889"><ele>322.59999999999997</ele><time>2026-04-26T08:31:17Z</time></trkpt><trkpt lat="47.159010546917344" lon="3.149511373359227"><ele>323.0</ele><time>2026-04-26T08:31:19Z</time></trkpt><trkpt lat="47.158926462503516" lon="3.1494452913429836"><ele>323.0</ele><time>2026-04-26T08:31:21Z</time></trkpt><trkpt lat="47.158848398197385" lon="3.149366536908185"><ele>323.0</ele><time>2026-04-26T08:31:23Z</time></trkpt><trkpt lat="47.15876422077619" lon="3.149303871965585"><ele>323.0</ele><time>2026-04-26T08:31:25Z</time></trkpt><trkpt lat="47.15868067755097" lon="3.1492361420973807"><ele>323.0</ele><time>2026-04-26T08:31:27Z</time></trkpt><trkpt lat="47.15858986412653" lon="3.1491746931669993"><ele>323.0</ele><time>2026-04-26T08:31:29Z</time></trkpt><trkpt lat="47.15850569579944" lon="3.149097941437125"><ele>323.0</ele><time>2026-04-26T08:31:31Z</time></trkpt><trkpt lat="47.15841894760303" lon="3.149027890674992"><ele>323.0</ele><time>2026-04-26T08:31:33Z</time></trkpt><trkpt lat="47.15833687851089" lon="3.1489617862155663"><ele>323.0</ele><time>2026-04-26T08:31:35Z</time></trkpt><trkpt lat="47.15825422513214" lon="3.148895906427639"><ele>323.0</ele><time>2026-04-26T08:31:37Z</time></trkpt><trkpt lat="47.15816986525322" lon="3.148829487668711"><ele>323.0</ele><time>2026-04-26T08:31:39Z</time></trkpt><trkpt lat="47.15809077999795" lon="3.1487665225815773"><ele>321.83333333333337</ele><time>2026-04-26T08:31:41Z</time></trkpt><trkpt lat="47.15800962942664" lon="3.1486968209332424"><ele>320.6666666666667</ele><time>2026-04-26T08:31:43Z</time></trkpt><trkpt lat="47.157928083911784" lon="3.148631180024709"><ele>319.5</ele><time>2026-04-26T08:31:45Z</time></trkpt><trkpt lat="47.15785236746786" lon="3.1485690418530456"><ele>318.3333333333333</ele><time>2026-04-26T08:31:47Z</time></trkpt><trkpt lat="47.15777577056564" lon="3.148506984268805"><ele>317.16666666666663</ele><time>2026-04-26T08:31:49Z</time></trkpt><trkpt lat="47.15770062770117" lon="3.1484554030394936"><ele>316.0</ele><time>2026-04-26T08:31:51Z</time></trkpt><trkpt lat="47.15763277952839" lon="3.1484000192302393"><ele>316.0</ele><time>2026-04-26T08:31:53Z</time></trkpt><trkpt lat="47.1575510444211" lon="3.1483312221352198"><ele>316.0</ele><time>2026-04-26T08:31:56Z</time></trkpt><trkpt lat="47.15750917709179" lon="3.1482185929417565"><ele>316.0</ele><time>2026-04-26T08:32:00Z</time></trkpt><trkpt lat="47.15750154960537" lon="3.1481127941107023"><ele>316.0</ele><time>2026-04-26T08:32:03Z</time></trkpt><trkpt lat="47.15748576902634" lon="3.1479941488484333"><ele>316.0</ele><time>2026-04-26T08:32:07Z</time></trkpt><trkpt lat="47.157472959951725" lon="3.147894557119757"><ele>316.0</ele><time>2026-04-26T08:32:11.999Z</time></trkpt><trkpt lat="47.15747063118198" lon="3.147790300415617"><ele>315.5</ele><time>2026-04-26T08:32:45.999Z</time></trkpt><trkpt lat="47.15753578899342" lon="3.1477520943640487"><ele>315.0</ele><time>2026-04-26T08:33:14.999Z</time></trkpt><trkpt lat="47.15757911907975" lon="3.147659228907067"><ele>314.5</ele><time>2026-04-26T08:33:37Z</time></trkpt><trkpt lat="47.15752186804275" lon="3.147698844774648"><ele>314.0</ele><time>2026-04-26T08:34:37.999Z</time></trkpt><trkpt lat="47.15749904241342" lon="3.147603827264358"><ele>313.5</ele><time>2026-04-26T08:34:39.999Z</time></trkpt><trkpt lat="47.15746555458706" lon="3.1474553066686797"><ele>313.0</ele><time>2026-04-26T08:34:42.999Z</time></trkpt><trkpt lat="47.157448004018825" lon="3.147363103295409"><ele>312.3333333333333</ele><time>2026-04-26T08:34:45.999Z</time></trkpt><trkpt lat="47.15740310022028" lon="3.147282849099008"><ele>311.66666666666663</ele><time>2026-04-26T08:34:53.999Z</time></trkpt><trkpt lat="47.15738147428059" lon="3.1471885504193433"><ele>311.0</ele><time>2026-04-26T08:34:55.999Z</time></trkpt><trkpt lat="47.15737954510443" lon="3.1470884890580546"><ele>310.3333333333333</ele><time>2026-04-26T08:34:56.999Z</time></trkpt><trkpt lat="47.15736719882919" lon="3.1469511765619878"><ele>309.6666666666667</ele><time>2026-04-26T08:34:58.999Z</time></trkpt><trkpt lat="47.15736480000149" lon="3.146820369542113"><ele>309.0</ele><time>2026-04-26T08:35:00.999Z</time></trkpt><trkpt lat="47.15734450069122" lon="3.146680945254315"><ele>307.8333333333333</ele><time>2026-04-26T08:35:02.999Z</time></trkpt><trkpt lat="47.157322571629685" lon="3.1465232405052785"><ele>306.6666666666667</ele><time>2026-04-26T08:35:04.999Z</time></trkpt><trkpt lat="47.15728655539804" lon="3.1463717632697175"><ele>305.5</ele><time>2026-04-26T08:35:06.999Z</time></trkpt><trkpt lat="47.15728457796678" lon="3.1462681906738315"><ele>304.33333333333337</ele><time>2026-04-26T08:35:07.999Z</time></trkpt><trkpt lat="47.15727671241603" lon="3.146169772837563"><ele>303.1666666666667</ele><time>2026-04-26T08:35:08.999Z</time></trkpt><trkpt lat="47.157264438881526" lon="3.146073288386116"><ele>302.0</ele><time>2026-04-26T08:35:09.999Z</time></trkpt><trkpt lat="47.15725449423644" lon="3.1459713345602514"><ele>302.0</ele><time>2026-04-26T08:35:10.999Z</time></trkpt><trkpt lat="47.15724337282649" lon="3.1458774662207887"><ele>302.0</ele><time>2026-04-26T08:35:11.999Z</time></trkpt><trkpt lat="47.157224550390616" lon="3.1456860195407397"><ele>302.0</ele><time>2026-04-26T08:35:13.999Z</time></trkpt><trkpt lat="47.15720457532314" lon="3.145581884865906"><ele>302.0</ele><time>2026-04-26T08:35:14.999Z</time></trkpt><trkpt lat="47.157188351606244" lon="3.145469311897574"><ele>302.0</ele><time>2026-04-26T08:35:15.999Z</time></trkpt><trkpt lat="47.15717267821771" lon="3.145343085228801"><ele>302.0</ele><time>2026-04-26T08:35:16.999Z</time></trkpt><trkpt lat="47.157160433097836" lon="3.1452343337249924"><ele>301.6666666666667</ele><time>2026-04-26T08:35:17.999Z</time></trkpt><trkpt lat="47.15714796711671" lon="3.1451241050406473"><ele>301.33333333333337</ele><time>2026-04-26T08:35:18.999Z</time></trkpt><trkpt lat="47.15712559542536" lon="3.145011169739391"><ele>301.0</ele><time>2026-04-26T08:35:19.999Z</time></trkpt><trkpt lat="47.15711887888988" lon="3.144896471273425"><ele>300.6666666666667</ele><time>2026-04-26T08:35:20.999Z</time></trkpt><trkpt lat="47.15710763090672" lon="3.144787613403518"><ele>300.3333333333333</ele><time>2026-04-26T08:35:21.999Z</time></trkpt><trkpt lat="47.157103237644336" lon="3.144674238830992"><ele>300.0</ele><time>2026-04-26T08:35:22.999Z</time></trkpt><trkpt lat="47.15708689938794" lon="3.144561003824555"><ele>300.0</ele><time>2026-04-26T08:35:23.999Z</time></trkpt><trkpt lat="47.15707995850157" lon="3.1444571063804365"><ele>300.0</ele><time>2026-04-26T08:35:24.999Z</time></trkpt><trkpt lat="47.15706413807343" lon="3.1442703695859713"><ele>300.0</ele><time>2026-04-26T08:35:26.999Z</time></trkpt><trkpt lat="47.15704612164421" lon="3.144100048645827"><ele>300.0</ele><time>2026-04-26T08:35:29Z</time></trkpt><trkpt lat="47.1570391792518" lon="3.14393304108395"><ele>300.0</ele><time>2026-04-26T08:35:31Z</time></trkpt><trkpt lat="47.157020967194406" lon="3.1437963473695016"><ele>299.6666666666667</ele><time>2026-04-26T08:35:33Z</time></trkpt><trkpt lat="47.15700447742578" lon="3.1436616298308033"><ele>299.3333333333333</ele><time>2026-04-26T08:35:36Z</time></trkpt><trkpt lat="47.15700024286959" lon="3.143568445359629"><ele>299.0</ele><time>2026-04-26T08:35:38Z</time></trkpt><trkpt lat="47.1569876241897" lon="3.1434481202579843"><ele>298.66666666666663</ele><time>2026-04-26T08:35:40Z</time></trkpt><trkpt lat="47.15697033669879" lon="3.1432968016215095"><ele>298.3333333333333</ele><time>2026-04-26T08:35:42Z</time></trkpt><trkpt lat="47.15701140073415" lon="3.1431887225147843"><ele>298.0</ele><time>2026-04-26T08:35:44Z</time></trkpt><trkpt lat="47.15699487974267" lon="3.14305450558323"><ele>298.0</ele><time>2026-04-26T08:35:46Z</time></trkpt><trkpt lat="47.15697859422929" lon="3.1429478377696407"><ele>298.0</ele><time>2026-04-26T08:35:48Z</time></trkpt><trkpt lat="47.15695048641182" lon="3.1428545812102318"><ele>298.0</ele><time>2026-04-26T08:35:50Z</time></trkpt><trkpt lat="47.15691075667423" lon="3.142734987869683"><ele>298.0</ele><time>2026-04-26T08:35:52Z</time></trkpt><trkpt lat="47.15687275500707" lon="3.142644994419004"><ele>298.0</ele><time>2026-04-26T08:35:54Z</time></trkpt><trkpt lat="47.156860700173546" lon="3.142554016920984"><ele>298.0</ele><time>2026-04-26T08:35:56Z</time></trkpt><trkpt lat="47.15684971445709" lon="3.142432964464867"><ele>298.2857142857143</ele><time>2026-04-26T08:35:58Z</time></trkpt><trkpt lat="47.1568426994876" lon="3.14233462847525"><ele>298.57142857142856</ele><time>2026-04-26T08:36:00Z</time></trkpt><trkpt lat="47.156832753168146" lon="3.1422194868499456"><ele>298.85714285714283</ele><time>2026-04-26T08:36:02Z</time></trkpt><trkpt lat="47.156824369384715" lon="3.142117043207192"><ele>299.1428571428571</ele><time>2026-04-26T08:36:04Z</time></trkpt><trkpt lat="47.15682836874338" lon="3.1420123236190807"><ele>299.42857142857144</ele><time>2026-04-26T08:36:06Z</time></trkpt><trkpt lat="47.15680768029605" lon="3.1419047022370385"><ele>299.71428571428567</ele><time>2026-04-26T08:36:08Z</time></trkpt><trkpt lat="47.15679845102276" lon="3.1417897128702332"><ele>300.0</ele><time>2026-04-26T08:36:11Z</time></trkpt><trkpt lat="47.156779073915025" lon="3.1416864828267648"><ele>299.99999999999994</ele><time>2026-04-26T08:36:14Z</time></trkpt><trkpt lat="47.15677491244853" lon="3.141576461443318"><ele>300.0</ele><time>2026-04-26T08:36:18Z</time></trkpt><trkpt lat="47.15675994500123" lon="3.1414557711936393"><ele>300.0</ele><time>2026-04-26T08:36:21.999Z</time></trkpt><trkpt lat="47.1567499073722" lon="3.1413628524671964"><ele>300.0</ele><time>2026-04-26T08:36:23.999Z</time></trkpt><trkpt lat="47.15673472608945" lon="3.1412629306580744"><ele>300.0</ele><time>2026-04-26T08:36:26.999Z</time></trkpt><trkpt lat="47.156720763067725" lon="3.141151876937365"><ele>299.99999999999994</ele><time>2026-04-26T08:36:29.999Z</time></trkpt><trkpt lat="47.15672512988216" lon="3.141051965936941"><ele>300.0</ele><time>2026-04-26T08:36:32.999Z</time></trkpt><trkpt lat="47.15670096354202" lon="3.1409309233905374"><ele>300.71428571428567</ele><time>2026-04-26T08:36:35.999Z</time></trkpt><trkpt lat="47.156692182428685" lon="3.1408332042654634"><ele>301.42857142857144</ele><time>2026-04-26T08:36:38.999Z</time></trkpt><trkpt lat="47.156676843192045" lon="3.1407344139700237"><ele>302.1428571428571</ele><time>2026-04-26T08:36:41.999Z</time></trkpt><trkpt lat="47.156654998937206" lon="3.1406305502962173"><ele>302.85714285714283</ele><time>2026-04-26T08:36:44.999Z</time></trkpt><trkpt lat="47.15663837255492" lon="3.1405247224797646"><ele>303.57142857142856</ele><time>2026-04-26T08:36:47.999Z</time></trkpt><trkpt lat="47.15662096316968" lon="3.1404110124432028"><ele>304.2857142857143</ele><time>2026-04-26T08:36:50.999Z</time></trkpt><trkpt lat="47.156612710577164" lon="3.140300154612534"><ele>305.0</ele><time>2026-04-26T08:36:54.999Z</time></trkpt><trkpt lat="47.156589477103346" lon="3.1401715462304662"><ele>306.14285714285717</ele><time>2026-04-26T08:36:58.999Z</time></trkpt><trkpt lat="47.15656803486376" lon="3.1400649935319844"><ele>307.2857142857143</ele><time>2026-04-26T08:37:02.999Z</time></trkpt><trkpt lat="47.156561126914774" lon="3.139962387652314"><ele>308.42857142857144</ele><time>2026-04-26T08:37:06.999Z</time></trkpt><trkpt lat="47.15655527253009" lon="3.1398622502857294"><ele>309.57142857142856</ele><time>2026-04-26T08:37:09.999Z</time></trkpt><trkpt lat="47.156537667106875" lon="3.1397653219271198"><ele>310.7142857142857</ele><time>2026-04-26T08:37:12.999Z</time></trkpt><trkpt lat="47.15653135106961" lon="3.1396631746119077"><ele>311.85714285714283</ele><time>2026-04-26T08:37:15.999Z</time></trkpt><trkpt lat="47.156510306192445" lon="3.1395534731722705"><ele>313.0</ele><time>2026-04-26T08:37:18.999Z</time></trkpt><trkpt lat="47.1564978315971" lon="3.1394343157868527"><ele>314.0</ele><time>2026-04-26T08:37:21.999Z</time></trkpt><trkpt lat="47.15649374761953" lon="3.1393237609162834"><ele>315.0</ele><time>2026-04-26T08:37:25.999Z</time></trkpt><trkpt lat="47.156477071918985" lon="3.13920836681172"><ele>316.0</ele><time>2026-04-26T08:37:28.999Z</time></trkpt><trkpt lat="47.15645208896672" lon="3.139097740704027"><ele>317.0</ele><time>2026-04-26T08:37:31.999Z</time></trkpt><trkpt lat="47.15644224723388" lon="3.1389858482592223"><ele>318.0</ele><time>2026-04-26T08:37:35Z</time></trkpt><trkpt lat="47.15642748427747" lon="3.138874436375734"><ele>319.0</ele><time>2026-04-26T08:37:39Z</time></trkpt><trkpt lat="47.156414132877025" lon="3.1387809342769866"><ele>319.14285714285717</ele><time>2026-04-26T08:37:42Z</time></trkpt><trkpt lat="47.15640058725202" lon="3.138682435204111"><ele>319.2857142857143</ele><time>2026-04-26T08:37:45Z</time></trkpt><trkpt lat="47.156385217517325" lon="3.138574359550977"><ele>319.42857142857144</ele><time>2026-04-26T08:37:48Z</time></trkpt><trkpt lat="47.15638114029806" lon="3.138475223230364"><ele>319.57142857142856</ele><time>2026-04-26T08:37:50Z</time></trkpt><trkpt lat="47.15639725796235" lon="3.1383793962246056"><ele>319.7142857142857</ele><time>2026-04-26T08:37:54Z</time></trkpt><trkpt lat="47.156385972694785" lon="3.1382803854911177"><ele>319.85714285714283</ele><time>2026-04-26T08:38:00Z</time></trkpt><trkpt lat="47.15636155773045" lon="3.1381950167389014"><ele>320.0</ele><time>2026-04-26T08:38:02Z</time></trkpt><trkpt lat="47.156329313269296" lon="3.1381041140305284"><ele>320.1666666666667</ele><time>2026-04-26T08:38:05Z</time></trkpt><trkpt lat="47.156326001756746" lon="3.1379826126996297"><ele>320.33333333333337</ele><time>2026-04-26T08:38:08Z</time></trkpt><trkpt lat="47.15631085132754" lon="3.137850233112"><ele>320.5</ele><time>2026-04-26T08:38:11Z</time></trkpt><trkpt lat="47.156302298670965" lon="3.137726206538003"><ele>320.6666666666667</ele><time>2026-04-26T08:38:14Z</time></trkpt><trkpt lat="47.15629315395369" lon="3.137611596749242"><ele>320.8333333333333</ele><time>2026-04-26T08:38:17Z</time></trkpt><trkpt lat="47.15629168337372" lon="3.1375061182075186"><ele>321.0</ele><time>2026-04-26T08:38:20Z</time></trkpt><trkpt lat="47.15627129096687" lon="3.1373806173749963"><ele>321.3333333333333</ele><time>2026-04-26T08:38:22.999Z</time></trkpt><trkpt lat="47.15624479944391" lon="3.1372913333375987"><ele>321.6666666666667</ele><time>2026-04-26T08:38:25.999Z</time></trkpt><trkpt lat="47.156233795884674" lon="3.137178575645706"><ele>322.0</ele><time>2026-04-26T08:38:27.999Z</time></trkpt><trkpt lat="47.156226220495846" lon="3.1370596176638244"><ele>322.33333333333337</ele><time>2026-04-26T08:38:30.999Z</time></trkpt><trkpt lat="47.15620562234131" lon="3.136952970065479"><ele>322.6666666666667</ele><time>2026-04-26T08:38:32.999Z</time></trkpt><trkpt lat="47.15619650753796" lon="3.1368097218055295"><ele>323.0</ele><time>2026-04-26T08:38:35.999Z</time></trkpt><trkpt lat="47.156187116246045" lon="3.1366871292676572"><ele>323.00000000000006</ele><time>2026-04-26T08:38:38.999Z</time></trkpt><trkpt lat="47.15617318928702" lon="3.136593658100118"><ele>323.0</ele><time>2026-04-26T08:38:40.999Z</time></trkpt><trkpt lat="47.156159159890535" lon="3.1364884203030443"><ele>323.0</ele><time>2026-04-26T08:38:43.999Z</time></trkpt><trkpt lat="47.15614694051564" lon="3.1363796180343964"><ele>323.0</ele><time>2026-04-26T08:38:46.999Z</time></trkpt><trkpt lat="47.1561360942389" lon="3.136284649808419"><ele>323.0</ele><time>2026-04-26T08:38:48.999Z</time></trkpt><trkpt lat="47.15612779133739" lon="3.1361483873523843"><ele>323.00000000000006</ele><time>2026-04-26T08:38:51.999Z</time></trkpt><trkpt lat="47.15610940105456" lon="3.1360520018420996"><ele>323.0</ele><time>2026-04-26T08:38:53.999Z</time></trkpt><trkpt lat="47.15607242343684" lon="3.1359357965505033"><ele>323.5</ele><time>2026-04-26T08:38:55.999Z</time></trkpt><trkpt lat="47.15608465635121" lon="3.1358374934648183"><ele>324.0</ele><time>2026-04-26T08:38:58.999Z</time></trkpt><trkpt lat="47.15606658452983" lon="3.135731012849972"><ele>324.5</ele><time>2026-04-26T08:39:01.999Z</time></trkpt><trkpt lat="47.15605853913029" lon="3.135638753983193"><ele>325.0</ele><time>2026-04-26T08:39:03.999Z</time></trkpt><trkpt lat="47.156077695291124" lon="3.1355235386063676"><ele>325.5</ele><time>2026-04-26T08:39:06.999Z</time></trkpt><trkpt lat="47.15604673978879" lon="3.1353952231722717"><ele>326.0</ele><time>2026-04-26T08:39:09.999Z</time></trkpt><trkpt lat="47.15602237481393" lon="3.135278751618986"><ele>326.33333333333337</ele><time>2026-04-26T08:39:12.999Z</time></trkpt><trkpt lat="47.156009599170694" lon="3.135139114556721"><ele>326.6666666666667</ele><time>2026-04-26T08:39:15.999Z</time></trkpt><trkpt lat="47.15599704178108" lon="3.135000382755011"><ele>327.0</ele><time>2026-04-26T08:39:18.999Z</time></trkpt><trkpt lat="47.15598576748622" lon="3.134889042099575"><ele>327.3333333333333</ele><time>2026-04-26T08:39:21.999Z</time></trkpt><trkpt lat="47.15594206502676" lon="3.134793326331123"><ele>327.66666666666663</ele><time>2026-04-26T08:39:24.999Z</time></trkpt><trkpt lat="47.1559168165257" lon="3.1346770495191305"><ele>328.0</ele><time>2026-04-26T08:39:29.999Z</time></trkpt><trkpt lat="47.15590562315664" lon="3.1345616299094203"><ele>327.99999999999994</ele><time>2026-04-26T08:39:33.999Z</time></trkpt><trkpt lat="47.15593281747082" lon="3.1344634436645724"><ele>328.0</ele><time>2026-04-26T08:39:35.999Z</time></trkpt><trkpt lat="47.15591347939168" lon="3.1343692472949245"><ele>328.0</ele><time>2026-04-26T08:39:37.999Z</time></trkpt><trkpt lat="47.15590779439945" lon="3.134265450421705"><ele>328.0</ele><time>2026-04-26T08:39:41Z</time></trkpt><trkpt lat="47.15588524764165" lon="3.134165152144819"><ele>328.0</ele><time>2026-04-26T08:39:43Z</time></trkpt><trkpt lat="47.155867772471645" lon="3.134067025163293"><ele>327.99999999999994</ele><time>2026-04-26T08:39:46Z</time></trkpt><trkpt lat="47.155858449161094" lon="3.133949665147723"><ele>328.0</ele><time>2026-04-26T08:39:49Z</time></trkpt><trkpt lat="47.15584233101528" lon="3.133807394661418"><ele>327.99999999999994</ele><time>2026-04-26T08:39:52Z</time></trkpt><trkpt lat="47.15583106367154" lon="3.13370653136084"><ele>328.0</ele><time>2026-04-26T08:39:55Z</time></trkpt><trkpt lat="47.15580534599889" lon="3.1336171655742584"><ele>328.0</ele><time>2026-04-26T08:39:58Z</time></trkpt><trkpt lat="47.15579114876034" lon="3.133502676298123"><ele>328.0</ele><time>2026-04-26T08:40:00Z</time></trkpt><trkpt lat="47.15580213034161" lon="3.1333840152128203"><ele>328.0</ele><time>2026-04-26T08:40:03Z</time></trkpt><trkpt lat="47.15578734569079" lon="3.1332870773739527"><ele>327.99999999999994</ele><time>2026-04-26T08:40:06Z</time></trkpt><trkpt lat="47.15577353475645" lon="3.13316317571114"><ele>328.0</ele><time>2026-04-26T08:40:09Z</time></trkpt><trkpt lat="47.15576611790868" lon="3.1330711994447427"><ele>327.66666666666663</ele><time>2026-04-26T08:40:11Z</time></trkpt><trkpt lat="47.155739832716684" lon="3.132947741054754"><ele>327.3333333333333</ele><time>2026-04-26T08:40:15Z</time></trkpt><trkpt lat="47.1557161997702" lon="3.132848231310431"><ele>327.0</ele><time>2026-04-26T08:40:17Z</time></trkpt><trkpt lat="47.15571000512007" lon="3.1327532488005967"><ele>326.6666666666667</ele><time>2026-04-26T08:40:20Z</time></trkpt><trkpt lat="47.155699563532835" lon="3.132638354821898"><ele>326.33333333333337</ele><time>2026-04-26T08:40:22Z</time></trkpt><trkpt lat="47.15568108221779" lon="3.132485737824854"><ele>326.0</ele><time>2026-04-26T08:40:25Z</time></trkpt><trkpt lat="47.15566305566713" lon="3.132366111753244"><ele>325.0</ele><time>2026-04-26T08:40:27Z</time></trkpt><trkpt lat="47.15565489834446" lon="3.1322313482677733"><ele>324.0</ele><time>2026-04-26T08:40:29Z</time></trkpt><trkpt lat="47.155626351766514" lon="3.1320507892364002"><ele>323.0</ele><time>2026-04-26T08:40:30.999Z</time></trkpt><trkpt lat="47.15559830211921" lon="3.131877097276532"><ele>322.0</ele><time>2026-04-26T08:40:32.999Z</time></trkpt><trkpt lat="47.15557777503282" lon="3.1317889155528076"><ele>321.0</ele><time>2026-04-26T08:40:33.999Z</time></trkpt><trkpt lat="47.15556273913844" lon="3.1316911483076835"><ele>321.0</ele><time>2026-04-26T08:40:34.999Z</time></trkpt><trkpt lat="47.15554577777844" lon="3.131600412180179"><ele>321.0</ele><time>2026-04-26T08:40:35.999Z</time></trkpt><trkpt lat="47.15553807034541" lon="3.131508240075877"><ele>321.0</ele><time>2026-04-26T08:40:36.999Z</time></trkpt><trkpt lat="47.15551548062575" lon="3.1313613956694524"><ele>321.0</ele><time>2026-04-26T08:40:38.999Z</time></trkpt><trkpt lat="47.15550250614669" lon="3.1312183990399833"><ele>321.0</ele><time>2026-04-26T08:40:40.999Z</time></trkpt><trkpt lat="47.15548438219833" lon="3.13112919972727"><ele>321.0</ele><time>2026-04-26T08:40:41.999Z</time></trkpt><trkpt lat="47.15545218946096" lon="3.1309761376337124"><ele>320.8</ele><time>2026-04-26T08:40:43.999Z</time></trkpt><trkpt lat="47.15543344943799" lon="3.1308135724671184"><ele>320.6</ele><time>2026-04-26T08:40:45.999Z</time></trkpt><trkpt lat="47.15540710544791" lon="3.130651495965341"><ele>320.4</ele><time>2026-04-26T08:40:47.999Z</time></trkpt><trkpt lat="47.15538422240756" lon="3.1304679969730556"><ele>320.2</ele><time>2026-04-26T08:40:49.999Z</time></trkpt><trkpt lat="47.15537268731538" lon="3.130376145444866"><ele>320.0</ele><time>2026-04-26T08:40:50.999Z</time></trkpt><trkpt lat="47.15534681020269" lon="3.1302653722537155"><ele>319.4</ele><time>2026-04-26T08:40:51.999Z</time></trkpt><trkpt lat="47.15534146333846" lon="3.1301549578311696"><ele>318.8</ele><time>2026-04-26T08:40:52.999Z</time></trkpt><trkpt lat="47.15532585415763" lon="3.129975039526693"><ele>318.2</ele><time>2026-04-26T08:40:54.999Z</time></trkpt><trkpt lat="47.155312953709334" lon="3.1298758338594705"><ele>317.6</ele><time>2026-04-26T08:40:55.999Z</time></trkpt><trkpt lat="47.1552833090286" lon="3.1296811961920326"><ele>317.0</ele><time>2026-04-26T08:40:57.999Z</time></trkpt><trkpt lat="47.155268237508544" lon="3.129571798276188"><ele>316.1666666666667</ele><time>2026-04-26T08:40:58.999Z</time></trkpt><trkpt lat="47.15525072415876" lon="3.129464492179914"><ele>315.33333333333337</ele><time>2026-04-26T08:40:59.999Z</time></trkpt><trkpt lat="47.155238616842524" lon="3.12936167596692"><ele>314.5</ele><time>2026-04-26T08:41:00.999Z</time></trkpt><trkpt lat="47.155213849564575" lon="3.12917027934721"><ele>313.6666666666667</ele><time>2026-04-26T08:41:02.999Z</time></trkpt><trkpt lat="47.15519672069139" lon="3.1290551388340924"><ele>312.8333333333333</ele><time>2026-04-26T08:41:03.999Z</time></trkpt><trkpt lat="47.15518483444725" lon="3.1289541942414996"><ele>312.0</ele><time>2026-04-26T08:41:04.999Z</time></trkpt><trkpt lat="47.15515959138136" lon="3.128780248161561"><ele>311.1666666666667</ele><time>2026-04-26T08:41:06.999Z</time></trkpt><trkpt lat="47.155137528005845" lon="3.1285944663056786"><ele>310.3333333333333</ele><time>2026-04-26T08:41:08.999Z</time></trkpt><trkpt lat="47.155125270077484" lon="3.1285036072748866"><ele>309.5</ele><time>2026-04-26T08:41:09.999Z</time></trkpt><trkpt lat="47.15510748958587" lon="3.128414040466662"><ele>308.66666666666663</ele><time>2026-04-26T08:41:10.999Z</time></trkpt><trkpt lat="47.155098805344856" lon="3.128314720158523"><ele>307.8333333333333</ele><time>2026-04-26T08:41:11.999Z</time></trkpt><trkpt lat="47.15507918720631" lon="3.128208332380698"><ele>307.0</ele><time>2026-04-26T08:41:12.999Z</time></trkpt><trkpt lat="47.15505705169084" lon="3.1280441774723453"><ele>306.16666666666663</ele><time>2026-04-26T08:41:14.999Z</time></trkpt><trkpt lat="47.15504744903578" lon="3.1278932245924236"><ele>305.3333333333333</ele><time>2026-04-26T08:41:16.999Z</time></trkpt><trkpt lat="47.15503902470364" lon="3.1277691981532594"><ele>304.5</ele><time>2026-04-26T08:41:18.999Z</time></trkpt><trkpt lat="47.15502231615454" lon="3.1276793785318504"><ele>303.6666666666667</ele><time>2026-04-26T08:41:19.999Z</time></trkpt><trkpt lat="47.155012332098735" lon="3.1275873945312296"><ele>302.83333333333337</ele><time>2026-04-26T08:41:20.999Z</time></trkpt><trkpt lat="47.15500003226356" lon="3.127487544561845"><ele>302.0</ele><time>2026-04-26T08:41:21.999Z</time></trkpt><trkpt lat="47.154983717920935" lon="3.1273882746750794"><ele>301.1666666666667</ele><time>2026-04-26T08:41:22.999Z</time></trkpt><trkpt lat="47.154962224418625" lon="3.1272779794833205"><ele>300.33333333333337</ele><time>2026-04-26T08:41:23.999Z</time></trkpt><trkpt lat="47.15494607941704" lon="3.127163920778004"><ele>299.5</ele><time>2026-04-26T08:41:24.999Z</time></trkpt><trkpt lat="47.15493200234496" lon="3.1270643787566406"><ele>298.6666666666667</ele><time>2026-04-26T08:41:25.999Z</time></trkpt><trkpt lat="47.154913588780445" lon="3.1269346701406455"><ele>297.8333333333333</ele><time>2026-04-26T08:41:26.999Z</time></trkpt><trkpt lat="47.15490286947442" lon="3.1268226342922785"><ele>297.0</ele><time>2026-04-26T08:41:27.999Z</time></trkpt><trkpt lat="47.15489922964476" lon="3.126723638217232"><ele>297.0</ele><time>2026-04-26T08:41:28.999Z</time></trkpt><trkpt lat="47.15489413197251" lon="3.1266246070952284"><ele>297.0</ele><time>2026-04-26T08:41:29.999Z</time></trkpt><trkpt lat="47.15487558190959" lon="3.1264493062026175"><ele>297.0</ele><time>2026-04-26T08:41:31.999Z</time></trkpt><trkpt lat="47.15485678802438" lon="3.1263582076895657"><ele>297.0</ele><time>2026-04-26T08:41:32.999Z</time></trkpt><trkpt lat="47.154838030157826" lon="3.126265354056413"><ele>297.0</ele><time>2026-04-26T08:41:33.999Z</time></trkpt><trkpt lat="47.15479909340335" lon="3.1260937230942916"><ele>297.0</ele><time>2026-04-26T08:41:35.999Z</time></trkpt><trkpt lat="47.154783925206964" lon="3.1259762021678945"><ele>295.0</ele><time>2026-04-26T08:41:36.999Z</time></trkpt><trkpt lat="47.15476803475786" lon="3.1257993021632915"><ele>293.0</ele><time>2026-04-26T08:41:38.999Z</time></trkpt><trkpt lat="47.15475860394641" lon="3.125699420047348"><ele>291.0</ele><time>2026-04-26T08:41:39.999Z</time></trkpt><trkpt lat="47.15474484434152" lon="3.125600404308038"><ele>289.0</ele><time>2026-04-26T08:41:40.999Z</time></trkpt><trkpt lat="47.1547282412206" lon="3.1255051856418308"><ele>287.0</ele><time>2026-04-26T08:41:41.999Z</time></trkpt><trkpt lat="47.15471165811629" lon="3.1254070134255842"><ele>285.0</ele><time>2026-04-26T08:41:43.999Z</time></trkpt><trkpt lat="47.15469282918773" lon="3.1253029899830573"><ele>283.8</ele><time>2026-04-26T08:41:44.999Z</time></trkpt><trkpt lat="47.15467895396583" lon="3.125157547166088"><ele>282.6</ele><time>2026-04-26T08:41:47Z</time></trkpt><trkpt lat="47.154633705524866" lon="3.12499269164181"><ele>281.4</ele><time>2026-04-26T08:41:49Z</time></trkpt><trkpt lat="47.15461258719273" lon="3.1248846748194623"><ele>280.2</ele><time>2026-04-26T08:41:51Z</time></trkpt><trkpt lat="47.15462014719924" lon="3.124709443609428"><ele>279.0</ele><time>2026-04-26T08:41:53Z</time></trkpt><trkpt lat="47.15457143450547" lon="3.124599290083903"><ele>279.2857142857143</ele><time>2026-04-26T08:41:55Z</time></trkpt><trkpt lat="47.15457245143115" lon="3.1244963246226294"><ele>279.57142857142856</ele><time>2026-04-26T08:41:57Z</time></trkpt><trkpt lat="47.15455857943152" lon="3.1243784213237347"><ele>279.8571428571429</ele><time>2026-04-26T08:41:59Z</time></trkpt><trkpt lat="47.1545330565256" lon="3.1242917045235066"><ele>280.1428571428571</ele><time>2026-04-26T08:42:01Z</time></trkpt><trkpt lat="47.154515095528616" lon="3.124180056640314"><ele>280.42857142857144</ele><time>2026-04-26T08:42:03Z</time></trkpt><trkpt lat="47.15452180571456" lon="3.124058112738923"><ele>280.7142857142857</ele><time>2026-04-26T08:42:06Z</time></trkpt><trkpt lat="47.15450102798398" lon="3.123967915741892"><ele>281.0</ele><time>2026-04-26T08:42:11Z</time></trkpt><trkpt lat="47.15447769398057" lon="3.1238506739715484"><ele>281.0</ele><time>2026-04-26T08:42:15Z</time></trkpt><trkpt lat="47.15445888777716" lon="3.1237339577217504"><ele>281.0</ele><time>2026-04-26T08:42:19Z</time></trkpt><trkpt lat="47.15445361348375" lon="3.123633645548367"><ele>281.0</ele><time>2026-04-26T08:42:22Z</time></trkpt><trkpt lat="47.15441661652145" lon="3.123527111735916"><ele>281.0</ele><time>2026-04-26T08:42:25Z</time></trkpt><trkpt lat="47.1543850775537" lon="3.1233958731638176"><ele>281.0</ele><time>2026-04-26T08:42:28Z</time></trkpt><trkpt lat="47.154369924979164" lon="3.1232673676216582"><ele>281.0</ele><time>2026-04-26T08:42:31Z</time></trkpt><trkpt lat="47.15440005168543" lon="3.1231347258215285"><ele>282.40000000000003</ele><time>2026-04-26T08:42:34Z</time></trkpt><trkpt lat="47.154458110263256" lon="3.1230911081375963"><ele>283.8</ele><time>2026-04-26T08:42:36Z</time></trkpt><trkpt lat="47.154585001532254" lon="3.123065684420931"><ele>285.20000000000005</ele><time>2026-04-26T08:42:39Z</time></trkpt><trkpt lat="47.15466758576905" lon="3.1230530256807287"><ele>286.6</ele><time>2026-04-26T08:42:40.999Z</time></trkpt><trkpt lat="47.15476003596519" lon="3.1230403431119598"><ele>288.0</ele><time>2026-04-26T08:42:42.999Z</time></trkpt><trkpt lat="47.15485723340086" lon="3.123044785072784"><ele>287.8</ele><time>2026-04-26T08:42:44.999Z</time></trkpt><trkpt lat="47.15496057468239" lon="3.1230475149416104"><ele>287.6</ele><time>2026-04-26T08:42:46.999Z</time></trkpt><trkpt lat="47.15506486371094" lon="3.12303972855304"><ele>287.4</ele><time>2026-04-26T08:42:48.999Z</time></trkpt><trkpt lat="47.15517439255688" lon="3.1230435815431807"><ele>287.2</ele><time>2026-04-26T08:42:50.999Z</time></trkpt><trkpt lat="47.1552916634316" lon="3.1230499705439643"><ele>287.0</ele><time>2026-04-26T08:42:52.999Z</time></trkpt><trkpt lat="47.15541126712734" lon="3.1230712472380566"><ele>287.0</ele><time>2026-04-26T08:42:54.999Z</time></trkpt><trkpt lat="47.155478505068416" lon="3.1230681610532907"><ele>287.0</ele><time>2026-04-26T08:42:55.999Z</time></trkpt><trkpt lat="47.155594415261994" lon="3.1230699132425985"><ele>287.0</ele><time>2026-04-26T08:42:57.999Z</time></trkpt><trkpt lat="47.155700934477736" lon="3.1230657820361953"><ele>287.0</ele><time>2026-04-26T08:42:59.999Z</time></trkpt><trkpt lat="47.15580188614651" lon="3.1230954882664057"><ele>287.0</ele><time>2026-04-26T08:43:01.999Z</time></trkpt><trkpt lat="47.15590717638488" lon="3.1231033446350343"><ele>286.6</ele><time>2026-04-26T08:43:03.999Z</time></trkpt><trkpt lat="47.15600762985447" lon="3.1231143248909934"><ele>286.2</ele><time>2026-04-26T08:43:05.999Z</time></trkpt><trkpt lat="47.15612165680215" lon="3.123119022940149"><ele>285.8</ele><time>2026-04-26T08:43:07.999Z</time></trkpt><trkpt lat="47.156228838701885" lon="3.123140518368233"><ele>285.4</ele><time>2026-04-26T08:43:09.999Z</time></trkpt><trkpt lat="47.156335634841845" lon="3.123148346722949"><ele>285.0</ele><time>2026-04-26T08:43:11.999Z</time></trkpt><trkpt lat="47.15644498148094" lon="3.123144202054138"><ele>284.8333333333333</ele><time>2026-04-26T08:43:13.999Z</time></trkpt><trkpt lat="47.15656070597355" lon="3.123147415786813"><ele>284.6666666666667</ele><time>2026-04-26T08:43:15.999Z</time></trkpt><trkpt lat="47.15668846563106" lon="3.1231629059218537"><ele>284.5</ele><time>2026-04-26T08:43:17.999Z</time></trkpt><trkpt lat="47.1567531937128" lon="3.1231714609626784"><ele>284.33333333333337</ele><time>2026-04-26T08:43:18.999Z</time></trkpt><trkpt lat="47.156819446591236" lon="3.123161997431122"><ele>284.1666666666667</ele><time>2026-04-26T08:43:19.999Z</time></trkpt><trkpt lat="47.15688856664225" lon="3.1231450274354304"><ele>284.0</ele><time>2026-04-26T08:43:20.999Z</time></trkpt><trkpt lat="47.156961072851075" lon="3.12318497914553"><ele>284.0</ele><time>2026-04-26T08:43:21.999Z</time></trkpt><trkpt lat="47.1570887217663" lon="3.123186585690651"><ele>284.0</ele><time>2026-04-26T08:43:23.999Z</time></trkpt><trkpt lat="47.157157345683515" lon="3.123190843323741"><ele>284.0</ele><time>2026-04-26T08:43:24.999Z</time></trkpt><trkpt lat="47.15722364350812" lon="3.123195544797988"><ele>284.0</ele><time>2026-04-26T08:43:25.999Z</time></trkpt><trkpt lat="47.15728992943406" lon="3.1231974740738706"><ele>284.0</ele><time>2026-04-26T08:43:26.999Z</time></trkpt><trkpt lat="47.157409906422295" lon="3.1232045831673045"><ele>284.0</ele><time>2026-04-26T08:43:28.999Z</time></trkpt><trkpt lat="47.1574777175441" lon="3.123216888204243"><ele>283.1666666666667</ele><time>2026-04-26T08:43:29.999Z</time></trkpt><trkpt lat="47.15754052003187" lon="3.123233231382048"><ele>282.33333333333337</ele><time>2026-04-26T08:43:30.999Z</time></trkpt><trkpt lat="47.15764772291437" lon="3.1232485648680592"><ele>281.5</ele><time>2026-04-26T08:43:32.999Z</time></trkpt><trkpt lat="47.15773924000734" lon="3.1232700272326723"><ele>280.6666666666667</ele><time>2026-04-26T08:43:34.999Z</time></trkpt><trkpt lat="47.15782285687426" lon="3.1232706663842715"><ele>279.8333333333333</ele><time>2026-04-26T08:43:36.999Z</time></trkpt><trkpt lat="47.15791362635274" lon="3.1232713186227543"><ele>279.0</ele><time>2026-04-26T08:43:38.999Z</time></trkpt><trkpt lat="47.157999271745844" lon="3.1232811079444276"><ele>279.0</ele><time>2026-04-26T08:43:40.999Z</time></trkpt><trkpt lat="47.15807651165072" lon="3.123266740974526"><ele>279.0</ele><time>2026-04-26T08:43:43.999Z</time></trkpt><trkpt lat="47.158240335810305" lon="3.1233678691050586"><ele>279.0</ele><time>2026-04-26T08:43:44.999Z</time></trkpt><trkpt lat="47.15832332632243" lon="3.123377632740025"><ele>279.0</ele><time>2026-04-26T08:43:46.999Z</time></trkpt><trkpt lat="47.158417273557795" lon="3.123392423705121"><ele>279.0</ele><time>2026-04-26T08:43:49.999Z</time></trkpt><trkpt lat="47.15849942973158" lon="3.1233943672106093"><ele>278.71428571428567</ele><time>2026-04-26T08:43:52Z</time></trkpt><trkpt lat="47.15858134014346" lon="3.123395996717959"><ele>278.42857142857144</ele><time>2026-04-26T08:43:54Z</time></trkpt><trkpt lat="47.15865921503187" lon="3.123405171562623"><ele>278.1428571428571</ele><time>2026-04-26T08:43:56Z</time></trkpt><trkpt lat="47.15873023706452" lon="3.1234247382554825"><ele>277.85714285714283</ele><time>2026-04-26T08:43:58Z</time></trkpt><trkpt lat="47.15880377880218" lon="3.1234468091062366"><ele>277.57142857142856</ele><time>2026-04-26T08:44:00Z</time></trkpt><trkpt lat="47.158875842436196" lon="3.1234569115716586"><ele>277.2857142857143</ele><time>2026-04-26T08:44:02Z</time></trkpt><trkpt lat="47.158928425615585" lon="3.1233964320858183"><ele>277.0</ele><time>2026-04-26T08:44:05Z</time></trkpt><trkpt lat="47.15901982679492" lon="3.1234142095235424"><ele>276.3333333333333</ele><time>2026-04-26T08:44:08Z</time></trkpt><trkpt lat="47.159108055510096" lon="3.1234195744755895"><ele>275.66666666666663</ele><time>2026-04-26T08:44:11Z</time></trkpt><trkpt lat="47.159192145812874" lon="3.1234197378258584"><ele>275.0</ele><time>2026-04-26T08:44:14Z</time></trkpt><trkpt lat="47.15927044830626" lon="3.123426136777034"><ele>274.3333333333333</ele><time>2026-04-26T08:44:16Z</time></trkpt><trkpt lat="47.159355329885045" lon="3.1234128084772763"><ele>273.6666666666667</ele><time>2026-04-26T08:44:19Z</time></trkpt><trkpt lat="47.159467076747525" lon="3.12342104040589"><ele>273.0</ele><time>2026-04-26T08:44:22Z</time></trkpt><trkpt lat="47.15952961513832" lon="3.1234319578692573"><ele>273.0</ele><time>2026-04-26T08:44:24Z</time></trkpt><trkpt lat="47.15959797376662" lon="3.123454295629972"><ele>273.0</ele><time>2026-04-26T08:44:26Z</time></trkpt><trkpt lat="47.15968532413235" lon="3.1234471493921308"><ele>273.0</ele><time>2026-04-26T08:44:29Z</time></trkpt><trkpt lat="47.15975537891948" lon="3.1234658445663013"><ele>273.0</ele><time>2026-04-26T08:44:31Z</time></trkpt><trkpt lat="47.15982427494178" lon="3.1234766840595167"><ele>273.0</ele><time>2026-04-26T08:44:33Z</time></trkpt><trkpt lat="47.159888002658796" lon="3.123479157289909"><ele>273.0</ele><time>2026-04-26T08:44:35Z</time></trkpt><trkpt lat="47.15995148817653" lon="3.123478190340845"><ele>273.0</ele><time>2026-04-26T08:44:37Z</time></trkpt><trkpt lat="47.16002741733094" lon="3.123493846640389"><ele>273.3333333333333</ele><time>2026-04-26T08:44:39Z</time></trkpt><trkpt lat="47.16011542046634" lon="3.123491120851144"><ele>273.6666666666667</ele><time>2026-04-26T08:44:42Z</time></trkpt><trkpt lat="47.16020199796359" lon="3.123498565752816"><ele>274.0</ele><time>2026-04-26T08:44:44.999Z</time></trkpt><trkpt lat="47.16026560840542" lon="3.1235014816109907"><ele>274.33333333333337</ele><time>2026-04-26T08:44:46.999Z</time></trkpt><trkpt lat="47.160329133103644" lon="3.123512265866885"><ele>274.6666666666667</ele><time>2026-04-26T08:44:48.999Z</time></trkpt><trkpt lat="47.16039251717975" lon="3.1235099489087017"><ele>275.0</ele><time>2026-04-26T08:44:50.999Z</time></trkpt><trkpt lat="47.16048201645285" lon="3.1235136788392808"><ele>275.0</ele><time>2026-04-26T08:44:54.999Z</time></trkpt><trkpt lat="47.16056924668691" lon="3.123517808410817"><ele>275.0</ele><time>2026-04-26T08:44:57.999Z</time></trkpt><trkpt lat="47.16065865184821" lon="3.1235147580200264"><ele>275.0</ele><time>2026-04-26T08:45:00.999Z</time></trkpt><trkpt lat="47.16075015401845" lon="3.1234807118834693"><ele>275.0</ele><time>2026-04-26T08:45:03.999Z</time></trkpt><trkpt lat="47.16078938215841" lon="3.1232952136885457"><ele>275.0</ele><time>2026-04-26T08:45:07.999Z</time></trkpt><trkpt lat="47.16078436483536" lon="3.123141495145209"><ele>274.6666666666667</ele><time>2026-04-26T08:45:09.999Z</time></trkpt><trkpt lat="47.1607732580756" lon="3.12296569962234"><ele>274.33333333333337</ele><time>2026-04-26T08:45:11.999Z</time></trkpt><trkpt lat="47.16077323392306" lon="3.1228604791078616"><ele>274.0</ele><time>2026-04-26T08:45:12.999Z</time></trkpt><trkpt lat="47.160765780379165" lon="3.122757698658423"><ele>273.6666666666667</ele><time>2026-04-26T08:45:13.999Z</time></trkpt><trkpt lat="47.16077117158169" lon="3.122661032382838"><ele>273.3333333333333</ele><time>2026-04-26T08:45:14.999Z</time></trkpt><trkpt lat="47.16077238372933" lon="3.1225496338371648"><ele>273.0</ele><time>2026-04-26T08:45:15.999Z</time></trkpt><trkpt lat="47.16077116153073" lon="3.122425565869487"><ele>271.5</ele><time>2026-04-26T08:45:16.999Z</time></trkpt><trkpt lat="47.1607796903697" lon="3.1223047283741203"><ele>270.0</ele><time>2026-04-26T08:45:17.999Z</time></trkpt><trkpt lat="47.16078160522917" lon="3.1221773127901935"><ele>268.5</ele><time>2026-04-26T08:45:18.999Z</time></trkpt><trkpt lat="47.16078715928739" lon="3.1220542761252457"><ele>267.0</ele><time>2026-04-26T08:45:19.999Z</time></trkpt><trkpt lat="47.16078832324473" lon="3.12195133383841"><ele>265.5</ele><time>2026-04-26T08:45:20.999Z</time></trkpt><trkpt lat="47.160783953462484" lon="3.1218519679723022"><ele>264.0</ele><time>2026-04-26T08:45:21.999Z</time></trkpt><trkpt lat="47.16079572031369" lon="3.1217434150088286"><ele>264.0</ele><time>2026-04-26T08:45:22.999Z</time></trkpt><trkpt lat="47.16079219912367" lon="3.121641845528493"><ele>264.0</ele><time>2026-04-26T08:45:23.999Z</time></trkpt><trkpt lat="47.160789658503944" lon="3.121547248243961"><ele>264.0</ele><time>2026-04-26T08:45:24.999Z</time></trkpt><trkpt lat="47.160793361751686" lon="3.121449136524417"><ele>264.0</ele><time>2026-04-26T08:45:25.999Z</time></trkpt><trkpt lat="47.16081219344928" lon="3.121234173435868"><ele>264.0</ele><time>2026-04-26T08:45:27.999Z</time></trkpt><trkpt lat="47.160773377862355" lon="3.1211482679449736"><ele>264.0</ele><time>2026-04-26T08:45:28.999Z</time></trkpt><trkpt lat="47.16075266733485" lon="3.1210240925922634"><ele>263.8333333333333</ele><time>2026-04-26T08:45:29.999Z</time></trkpt><trkpt lat="47.160742908757285" lon="3.12091423868826"><ele>263.6666666666667</ele><time>2026-04-26T08:45:30.999Z</time></trkpt><trkpt lat="47.16074626351417" lon="3.120810171423102"><ele>263.5</ele><time>2026-04-26T08:45:31.999Z</time></trkpt><trkpt lat="47.1607746738618" lon="3.1206607348029314"><ele>263.33333333333337</ele><time>2026-04-26T08:45:33.999Z</time></trkpt><trkpt lat="47.160769860625315" lon="3.1205657023241997"><ele>263.1666666666667</ele><time>2026-04-26T08:45:34.999Z</time></trkpt><trkpt lat="47.160771055975935" lon="3.120404172189015"><ele>263.0</ele><time>2026-04-26T08:45:36.999Z</time></trkpt><trkpt lat="47.160768271500295" lon="3.120259765073415"><ele>263.33333333333337</ele><time>2026-04-26T08:45:38.999Z</time></trkpt><trkpt lat="47.16077053810687" lon="3.1201658797093716"><ele>263.6666666666667</ele><time>2026-04-26T08:45:40.999Z</time></trkpt><trkpt lat="47.16075694546698" lon="3.1200552943783477"><ele>264.0</ele><time>2026-04-26T08:45:43.999Z</time></trkpt><trkpt lat="47.160749082766294" lon="3.119932594917501"><ele>264.3333333333333</ele><time>2026-04-26T08:45:50.999Z</time></trkpt><trkpt lat="47.160732042029004" lon="3.119829651733019"><ele>264.66666666666663</ele><time>2026-04-26T08:45:55.999Z</time></trkpt><trkpt lat="47.160722386822926" lon="3.1197074133593703"><ele>265.0</ele><time>2026-04-26T08:46:02Z</time></trkpt><trkpt lat="47.16070559787277" lon="3.1196077233117694"><ele>265.57142857142856</ele><time>2026-04-26T08:46:07Z</time></trkpt><trkpt lat="47.16069969120521" lon="3.119505848698132"><ele>266.1428571428571</ele><time>2026-04-26T08:46:10Z</time></trkpt><trkpt lat="47.16068789087927" lon="3.1193871702697957"><ele>266.7142857142857</ele><time>2026-04-26T08:46:14Z</time></trkpt><trkpt lat="47.16068583343817" lon="3.119290845064272"><ele>267.2857142857143</ele><time>2026-04-26T08:46:17Z</time></trkpt><trkpt lat="47.16069470838751" lon="3.1191897966472966"><ele>267.8571428571429</ele><time>2026-04-26T08:46:20Z</time></trkpt><trkpt lat="47.16067742672156" lon="3.119079407495202"><ele>268.42857142857144</ele><time>2026-04-26T08:46:23Z</time></trkpt><trkpt lat="47.16068385527844" lon="3.1189719492374883"><ele>269.0</ele><time>2026-04-26T08:46:26Z</time></trkpt><trkpt lat="47.1606744838557" lon="3.118860832615173"><ele>269.57142857142856</ele><time>2026-04-26T08:46:29Z</time></trkpt><trkpt lat="47.16067406516021" lon="3.118764918483092"><ele>270.14285714285717</ele><time>2026-04-26T08:46:32Z</time></trkpt><trkpt lat="47.16068184667342" lon="3.1186651903997205"><ele>270.7142857142857</ele><time>2026-04-26T08:46:35Z</time></trkpt><trkpt lat="47.1606816433082" lon="3.118549889339105"><ele>271.2857142857143</ele><time>2026-04-26T08:46:38Z</time></trkpt><trkpt lat="47.16068368939614" lon="3.11843832824206"><ele>271.8571428571429</ele><time>2026-04-26T08:46:42Z</time></trkpt><trkpt lat="47.1606709296427" lon="3.118333688377646"><ele>272.42857142857144</ele><time>2026-04-26T08:46:45Z</time></trkpt><trkpt lat="47.16066778055655" lon="3.1182166357870913"><ele>273.0</ele><time>2026-04-26T08:46:49Z</time></trkpt><trkpt lat="47.16065113756676" lon="3.118088495340918"><ele>273.0</ele><time>2026-04-26T08:46:52.999Z</time></trkpt><trkpt lat="47.16064332106272" lon="3.1179366468734755"><ele>273.0</ele><time>2026-04-26T08:46:56.999Z</time></trkpt><trkpt lat="47.160639057109464" lon="3.1178404558473214"><ele>273.0</ele><time>2026-04-26T08:46:59.999Z</time></trkpt><trkpt lat="47.16063948627835" lon="3.1177396668937702"><ele>273.0</ele><time>2026-04-26T08:47:02.999Z</time></trkpt><trkpt lat="47.16062532880933" lon="3.1176485886441134"><ele>273.0</ele><time>2026-04-26T08:47:04.999Z</time></trkpt><trkpt lat="47.16062094300054" lon="3.117549613798748"><ele>273.0</ele><time>2026-04-26T08:47:05.999Z</time></trkpt><trkpt lat="47.16063195642816" lon="3.117398507693593"><ele>273.0</ele><time>2026-04-26T08:47:08.999Z</time></trkpt><trkpt lat="47.160634422742724" lon="3.1173034028717765"><ele>273.0</ele><time>2026-04-26T08:47:11.999Z</time></trkpt><trkpt lat="47.160612032760774" lon="3.117215655538308"><ele>273.0</ele><time>2026-04-26T08:47:13.999Z</time></trkpt><trkpt lat="47.16060770263002" lon="3.117095825125263"><ele>273.0</ele><time>2026-04-26T08:47:15.999Z</time></trkpt><trkpt lat="47.160602356648724" lon="3.1169744777830615"><ele>273.0</ele><time>2026-04-26T08:47:18.999Z</time></trkpt><trkpt lat="47.16060216934979" lon="3.1168744646023443"><ele>273.0</ele><time>2026-04-26T08:47:20.999Z</time></trkpt><trkpt lat="47.16059743655032" lon="3.1167482710265384"><ele>273.0</ele><time>2026-04-26T08:47:24.999Z</time></trkpt><trkpt lat="47.16059589983853" lon="3.1165930292686186"><ele>273.0</ele><time>2026-04-26T08:47:26.999Z</time></trkpt><trkpt lat="47.1605901822326" lon="3.1164728208317882"><ele>273.0</ele><time>2026-04-26T08:47:28.999Z</time></trkpt><trkpt lat="47.16058876058556" lon="3.1163422228340396"><ele>273.0</ele><time>2026-04-26T08:47:30.999Z</time></trkpt><trkpt lat="47.16057776000549" lon="3.116249456630568"><ele>273.0</ele><time>2026-04-26T08:47:33.999Z</time></trkpt><trkpt lat="47.160580112063464" lon="3.116106715537955"><ele>273.0</ele><time>2026-04-26T08:47:35.999Z</time></trkpt><trkpt lat="47.160578297632384" lon="3.1159728960293243"><ele>273.0</ele><time>2026-04-26T08:47:37.999Z</time></trkpt><trkpt lat="47.160581872612454" lon="3.1158632730166587"><ele>273.0</ele><time>2026-04-26T08:47:39.999Z</time></trkpt><trkpt lat="47.160585157945015" lon="3.1157221684421468"><ele>273.0</ele><time>2026-04-26T08:47:41.999Z</time></trkpt><trkpt lat="47.160580824144525" lon="3.1155819305549137"><ele>273.0</ele><time>2026-04-26T08:47:43.999Z</time></trkpt><trkpt lat="47.16058020000318" lon="3.1154256113713847"><ele>273.0</ele><time>2026-04-26T08:47:45.999Z</time></trkpt><trkpt lat="47.160575055776484" lon="3.115288572590647"><ele>273.0</ele><time>2026-04-26T08:47:47.999Z</time></trkpt><trkpt lat="47.1605658416089" lon="3.115160717280233"><ele>273.0</ele><time>2026-04-26T08:47:49.999Z</time></trkpt><trkpt lat="47.160553064560474" lon="3.115004560667513"><ele>273.0</ele><time>2026-04-26T08:47:51.999Z</time></trkpt><trkpt lat="47.160551632093316" lon="3.114858877895954"><ele>273.0</ele><time>2026-04-26T08:47:53.999Z</time></trkpt><trkpt lat="47.16055962846673" lon="3.114735286785072"><ele>273.0</ele><time>2026-04-26T08:47:55.999Z</time></trkpt><trkpt lat="47.160533254948" lon="3.114586553561143"><ele>273.0</ele><time>2026-04-26T08:47:57.999Z</time></trkpt><trkpt lat="47.16052981476172" lon="3.1144418539309298"><ele>273.4</ele><time>2026-04-26T08:47:59.999Z</time></trkpt><trkpt lat="47.16052278105288" lon="3.1142819870156107"><ele>273.8</ele><time>2026-04-26T08:48:01.999Z</time></trkpt><trkpt lat="47.16052168676556" lon="3.1141019689569402"><ele>274.2</ele><time>2026-04-26T08:48:04Z</time></trkpt><trkpt lat="47.16051219696232" lon="3.1139380730200625"><ele>274.6</ele><time>2026-04-26T08:48:06Z</time></trkpt><trkpt lat="47.16051359536977" lon="3.1138334844041404"><ele>275.0</ele><time>2026-04-26T08:48:07Z</time></trkpt><trkpt lat="47.16051325842144" lon="3.1136555486269124"><ele>275.0</ele><time>2026-04-26T08:48:09Z</time></trkpt><trkpt lat="47.160516399950424" lon="3.113483725564165"><ele>275.0</ele><time>2026-04-26T08:48:11Z</time></trkpt><trkpt lat="47.1605044204832" lon="3.113378003078438"><ele>275.0</ele><time>2026-04-26T08:48:12Z</time></trkpt><trkpt lat="47.16051044387203" lon="3.113205432805535"><ele>275.0</ele><time>2026-04-26T08:48:14Z</time></trkpt><trkpt lat="47.16051155997594" lon="3.1130421731113924"><ele>275.0</ele><time>2026-04-26T08:48:16Z</time></trkpt><trkpt lat="47.16049613620885" lon="3.1128724057488375"><ele>274.8571428571429</ele><time>2026-04-26T08:48:18Z</time></trkpt><trkpt lat="47.160488677613344" lon="3.1127747259613097"><ele>274.7142857142857</ele><time>2026-04-26T08:48:19Z</time></trkpt><trkpt lat="47.16048869005181" lon="3.112654347419758"><ele>274.57142857142856</ele><time>2026-04-26T08:48:20Z</time></trkpt><trkpt lat="47.160484332081076" lon="3.1125392756007284"><ele>274.42857142857144</ele><time>2026-04-26T08:48:21Z</time></trkpt><trkpt lat="47.16048719026896" lon="3.1124378896638616"><ele>274.2857142857143</ele><time>2026-04-26T08:48:22Z</time></trkpt><trkpt lat="47.160493890750416" lon="3.112325102027032"><ele>274.14285714285717</ele><time>2026-04-26T08:48:23Z</time></trkpt><trkpt lat="47.16048740439194" lon="3.112216999420294"><ele>274.0</ele><time>2026-04-26T08:48:24Z</time></trkpt><trkpt lat="47.16049009125858" lon="3.112123039735939"><ele>273.42857142857144</ele><time>2026-04-26T08:48:25Z</time></trkpt><trkpt lat="47.16047985198318" lon="3.112026814714617"><ele>272.8571428571429</ele><time>2026-04-26T08:48:26Z</time></trkpt><trkpt lat="47.160467781494255" lon="3.111932925066064"><ele>272.2857142857143</ele><time>2026-04-26T08:48:27Z</time></trkpt><trkpt lat="47.160469725767186" lon="3.111829204965285"><ele>271.7142857142857</ele><time>2026-04-26T08:48:28Z</time></trkpt><trkpt lat="47.16047073331123" lon="3.1117159121937825"><ele>271.1428571428571</ele><time>2026-04-26T08:48:29Z</time></trkpt><trkpt lat="47.16046361638598" lon="3.111607089252927"><ele>270.57142857142856</ele><time>2026-04-26T08:48:30Z</time></trkpt><trkpt lat="47.16047164776454" lon="3.111494453758839"><ele>270.0</ele><time>2026-04-26T08:48:31Z</time></trkpt><trkpt lat="47.1604648099963" lon="3.111374417793757"><ele>269.3333333333333</ele><time>2026-04-26T08:48:32Z</time></trkpt><trkpt lat="47.160466243778906" lon="3.111251152914253"><ele>268.6666666666667</ele><time>2026-04-26T08:48:33Z</time></trkpt><trkpt lat="47.16045860236267" lon="3.11113534499085"><ele>268.0</ele><time>2026-04-26T08:48:34Z</time></trkpt><trkpt lat="47.1604545327169" lon="3.111024267925495"><ele>267.33333333333337</ele><time>2026-04-26T08:48:35Z</time></trkpt><trkpt lat="47.16045081576741" lon="3.1108127262754075"><ele>266.6666666666667</ele><time>2026-04-26T08:48:37Z</time></trkpt><trkpt lat="47.160440622018" lon="3.1107173139362443"><ele>266.0</ele><time>2026-04-26T08:48:38Z</time></trkpt><trkpt lat="47.16045175312725" lon="3.110601531596809"><ele>265.5</ele><time>2026-04-26T08:48:39Z</time></trkpt><trkpt lat="47.16045539912556" lon="3.1105031081300165"><ele>265.0</ele><time>2026-04-26T08:48:40Z</time></trkpt><trkpt lat="47.1604483225961" lon="3.1103738985322624"><ele>264.5</ele><time>2026-04-26T08:48:41Z</time></trkpt><trkpt lat="47.160442124734395" lon="3.1102732791205803"><ele>264.0</ele><time>2026-04-26T08:48:42Z</time></trkpt><trkpt lat="47.16044653885894" lon="3.1101799197961895"><ele>263.5</ele><time>2026-04-26T08:48:43Z</time></trkpt><trkpt lat="47.16043414648204" lon="3.1099951544745363"><ele>263.0</ele><time>2026-04-26T08:48:45Z</time></trkpt><trkpt lat="47.16043054688542" lon="3.1098997048035946"><ele>262.8</ele><time>2026-04-26T08:48:46Z</time></trkpt><trkpt lat="47.1604237057366" lon="3.109800313478675"><ele>262.6</ele><time>2026-04-26T08:48:47Z</time></trkpt><trkpt lat="47.160429190456675" lon="3.109703073164619"><ele>262.4</ele><time>2026-04-26T08:48:48Z</time></trkpt><trkpt lat="47.16042678869282" lon="3.1095973508157053"><ele>262.2</ele><time>2026-04-26T08:48:49Z</time></trkpt><trkpt lat="47.16043065868994" lon="3.109413292800361"><ele>262.0</ele><time>2026-04-26T08:48:51Z</time></trkpt><trkpt lat="47.160429719995314" lon="3.1092183358419354"><ele>262.0</ele><time>2026-04-26T08:48:53Z</time></trkpt><trkpt lat="47.160416931150785" lon="3.1091160738447807"><ele>262.0</ele><time>2026-04-26T08:48:54Z</time></trkpt><trkpt lat="47.160424523168714" lon="3.1090012208469395"><ele>262.0</ele><time>2026-04-26T08:48:55Z</time></trkpt><trkpt lat="47.160419169255654" lon="3.108897957703759"><ele>262.0</ele><time>2026-04-26T08:48:56Z</time></trkpt><trkpt lat="47.16043837783945" lon="3.1088040808033286"><ele>262.0</ele><time>2026-04-26T08:48:56.999Z</time></trkpt><trkpt lat="47.160425980300076" lon="3.108693218070694"><ele>262.0</ele><time>2026-04-26T08:48:57.999Z</time></trkpt><trkpt lat="47.160425056662284" lon="3.1085780980311246"><ele>262.0</ele><time>2026-04-26T08:48:58.999Z</time></trkpt><trkpt lat="47.1604172537104" lon="3.10846401533607"><ele>261.5</ele><time>2026-04-26T08:48:59.999Z</time></trkpt><trkpt lat="47.16040919842" lon="3.1083672899255617"><ele>261.0</ele><time>2026-04-26T08:49:00.999Z</time></trkpt><trkpt lat="47.160412171547776" lon="3.108260054972686"><ele>260.5</ele><time>2026-04-26T08:49:01.999Z</time></trkpt><trkpt lat="47.160416064658044" lon="3.108155726387779"><ele>260.0</ele><time>2026-04-26T08:49:02.999Z</time></trkpt><trkpt lat="47.160399716549314" lon="3.1080343453944628"><ele>259.5</ele><time>2026-04-26T08:49:03.999Z</time></trkpt><trkpt lat="47.16039092817678" lon="3.1079138492400187"><ele>259.0</ele><time>2026-04-26T08:49:04.999Z</time></trkpt><trkpt lat="47.160389899652756" lon="3.1077992474481846"><ele>257.8</ele><time>2026-04-26T08:49:05.999Z</time></trkpt><trkpt lat="47.160385220267244" lon="3.107682344147785"><ele>256.59999999999997</ele><time>2026-04-26T08:49:06.999Z</time></trkpt><trkpt lat="47.16038047227382" lon="3.1075821157821872"><ele>255.4</ele><time>2026-04-26T08:49:07.999Z</time></trkpt><trkpt lat="47.160393896653126" lon="3.107434935080212"><ele>254.2</ele><time>2026-04-26T08:49:09.999Z</time></trkpt><trkpt lat="47.16040169914678" lon="3.1072557182054443"><ele>253.0</ele><time>2026-04-26T08:49:11.999Z</time></trkpt><trkpt lat="47.16041437636169" lon="3.1070831961160597"><ele>252.2</ele><time>2026-04-26T08:49:13.999Z</time></trkpt><trkpt lat="47.16044329221873" lon="3.1069294774109677"><ele>251.4</ele><time>2026-04-26T08:49:15.999Z</time></trkpt><trkpt lat="47.16049195808611" lon="3.106787075475791"><ele>250.59999999999997</ele><time>2026-04-26T08:49:17.999Z</time></trkpt><trkpt lat="47.16052309822849" lon="3.1066297417047597"><ele>249.79999999999998</ele><time>2026-04-26T08:49:19.999Z</time></trkpt><trkpt lat="47.160537699585305" lon="3.1065063451980954"><ele>249.0</ele><time>2026-04-26T08:49:21.999Z</time></trkpt><trkpt lat="47.16056446216112" lon="3.1063636123439466"><ele>248.83333333333334</ele><time>2026-04-26T08:49:23.999Z</time></trkpt><trkpt lat="47.16057680429281" lon="3.1062680512324756"><ele>248.66666666666669</ele><time>2026-04-26T08:49:25.999Z</time></trkpt><trkpt lat="47.16063125861596" lon="3.106154115662005"><ele>248.5</ele><time>2026-04-26T08:49:28.999Z</time></trkpt><trkpt lat="47.16069863323083" lon="3.1060948748847443"><ele>248.33333333333334</ele><time>2026-04-26T08:49:30.999Z</time></trkpt><trkpt lat="47.160733060385844" lon="3.1060119228747016"><ele>248.16666666666669</ele><time>2026-04-26T08:49:32.999Z</time></trkpt><trkpt lat="47.16073493447591" lon="3.1059079787736352"><ele>248.0</ele><time>2026-04-26T08:49:34.999Z</time></trkpt><trkpt lat="47.160718157245114" lon="3.105799729202226"><ele>248.83333333333334</ele><time>2026-04-26T08:49:36.999Z</time></trkpt><trkpt lat="47.16069215450828" lon="3.1056917086648035"><ele>249.66666666666669</ele><time>2026-04-26T08:49:38.999Z</time></trkpt><trkpt lat="47.160640581779234" lon="3.1056280702139607"><ele>250.5</ele><time>2026-04-26T08:49:40.999Z</time></trkpt><trkpt lat="47.16057966627029" lon="3.1055288829451144"><ele>251.33333333333331</ele><time>2026-04-26T08:49:42.999Z</time></trkpt><trkpt lat="47.16052791718987" lon="3.1054752806806043"><ele>252.16666666666666</ele><time>2026-04-26T08:49:44.999Z</time></trkpt><trkpt lat="47.16045752275927" lon="3.1054396394133574"><ele>253.0</ele><time>2026-04-26T08:49:46.999Z</time></trkpt><trkpt lat="47.160375267157" lon="3.105373295717866"><ele>253.00000000000003</ele><time>2026-04-26T08:49:49.999Z</time></trkpt><trkpt lat="47.16032510492234" lon="3.1052871692876476"><ele>253.0</ele><time>2026-04-26T08:49:51.999Z</time></trkpt><trkpt lat="47.16030947673085" lon="3.1051934488254593"><ele>253.00000000000003</ele><time>2026-04-26T08:49:53.999Z</time></trkpt><trkpt lat="47.160279209393146" lon="3.1051034814838085"><ele>253.00000000000003</ele><time>2026-04-26T08:49:55.999Z</time></trkpt><trkpt lat="47.16027461534082" lon="3.1049902020288567"><ele>253.0</ele><time>2026-04-26T08:49:57.999Z</time></trkpt><trkpt lat="47.1602685600992" lon="3.104881839326944"><ele>253.00000000000003</ele><time>2026-04-26T08:49:59.999Z</time></trkpt><trkpt lat="47.160273210271555" lon="3.104782211534023"><ele>253.00000000000003</ele><time>2026-04-26T08:50:01.999Z</time></trkpt><trkpt lat="47.16027373805809" lon="3.104650435199493"><ele>253.8571428571429</ele><time>2026-04-26T08:50:04.999Z</time></trkpt><trkpt lat="47.16027561306992" lon="3.1045423024588534"><ele>254.71428571428572</ele><time>2026-04-26T08:50:07.999Z</time></trkpt><trkpt lat="47.16025777026498" lon="3.104436199595345"><ele>255.57142857142858</ele><time>2026-04-26T08:50:14Z</time></trkpt><trkpt lat="47.16025728817242" lon="3.104321259927941"><ele>256.42857142857144</ele><time>2026-04-26T08:50:19Z</time></trkpt><trkpt lat="47.16025450269937" lon="3.1042007836470735"><ele>257.2857142857143</ele><time>2026-04-26T08:50:24Z</time></trkpt><trkpt lat="47.16025685605483" lon="3.1041043412682776"><ele>258.14285714285717</ele><time>2026-04-26T08:50:28Z</time></trkpt><trkpt lat="47.16025714367015" lon="3.1040039734483473"><ele>259.0</ele><time>2026-04-26T08:50:32Z</time></trkpt><trkpt lat="47.16024473187783" lon="3.103907292438485"><ele>259.42857142857144</ele><time>2026-04-26T08:50:37Z</time></trkpt><trkpt lat="47.160241469759974" lon="3.1038074111455902"><ele>259.8571428571429</ele><time>2026-04-26T08:50:41Z</time></trkpt><trkpt lat="47.16023779256925" lon="3.103713656649496"><ele>260.2857142857143</ele><time>2026-04-26T08:50:44Z</time></trkpt><trkpt lat="47.160231528632245" lon="3.103618823211292"><ele>260.7142857142857</ele><time>2026-04-26T08:50:47Z</time></trkpt><trkpt lat="47.160227182128814" lon="3.1035116240045095"><ele>261.14285714285717</ele><time>2026-04-26T08:50:50Z</time></trkpt><trkpt lat="47.16021985838826" lon="3.1034006492130906"><ele>261.57142857142856</ele><time>2026-04-26T08:50:53Z</time></trkpt><trkpt lat="47.160213715242556" lon="3.103303834890715"><ele>262.0</ele><time>2026-04-26T08:50:56Z</time></trkpt><trkpt lat="47.1602079893366" lon="3.103203929176405"><ele>262.3333333333333</ele><time>2026-04-26T08:50:58.999Z</time></trkpt><trkpt lat="47.16020069432833" lon="3.103086350352198"><ele>262.66666666666663</ele><time>2026-04-26T08:51:02.999Z</time></trkpt><trkpt lat="47.16020368831422" lon="3.1029786509548996"><ele>263.0</ele><time>2026-04-26T08:51:06.999Z</time></trkpt><trkpt lat="47.1601913003176" lon="3.1028421638200823"><ele>263.3333333333333</ele><time>2026-04-26T08:51:10.999Z</time></trkpt><trkpt lat="47.16020329152014" lon="3.1027474146504"><ele>263.6666666666667</ele><time>2026-04-26T08:51:12.999Z</time></trkpt><trkpt lat="47.16020843470864" lon="3.102635878566401"><ele>264.0</ele><time>2026-04-26T08:51:14.999Z</time></trkpt><trkpt lat="47.16020697046061" lon="3.1025091585219604"><ele>264.0</ele><time>2026-04-26T08:51:17.999Z</time></trkpt><trkpt lat="47.16020987760781" lon="3.1024160739459496"><ele>264.0</ele><time>2026-04-26T08:51:19.999Z</time></trkpt><trkpt lat="47.16020664360691" lon="3.10231854009854"><ele>264.0</ele><time>2026-04-26T08:51:21.999Z</time></trkpt><trkpt lat="47.160205402036475" lon="3.1022060414660246"><ele>264.0</ele><time>2026-04-26T08:51:23.999Z</time></trkpt><trkpt lat="47.16020427888721" lon="3.102088280629437"><ele>264.0</ele><time>2026-04-26T08:51:25.999Z</time></trkpt><trkpt lat="47.160204180600374" lon="3.1019678216680187"><ele>264.0</ele><time>2026-04-26T08:51:27.999Z</time></trkpt><trkpt lat="47.160198192650824" lon="3.1018370431647773"><ele>263.8</ele><time>2026-04-26T08:51:29.999Z</time></trkpt><trkpt lat="47.160194234108545" lon="3.1017094967363144"><ele>263.59999999999997</ele><time>2026-04-26T08:51:31.999Z</time></trkpt><trkpt lat="47.16019306418036" lon="3.1015715134742563"><ele>263.4</ele><time>2026-04-26T08:51:33.999Z</time></trkpt><trkpt lat="47.16019103541573" lon="3.1014252815915055"><ele>263.2</ele><time>2026-04-26T08:51:35.999Z</time></trkpt><trkpt lat="47.16018874777819" lon="3.101280874287562"><ele>263.0</ele><time>2026-04-26T08:51:37.999Z</time></trkpt><trkpt lat="47.16018326214772" lon="3.1011369458848357"><ele>262.8</ele><time>2026-04-26T08:51:39.999Z</time></trkpt><trkpt lat="47.16018263159466" lon="3.1009853906841385"><ele>262.6</ele><time>2026-04-26T08:51:41.999Z</time></trkpt><trkpt lat="47.16017618130988" lon="3.1008256637325133"><ele>262.4</ele><time>2026-04-26T08:51:43.999Z</time></trkpt><trkpt lat="47.16017334986627" lon="3.1006628273627737"><ele>262.2</ele><time>2026-04-26T08:51:45.999Z</time></trkpt><trkpt lat="47.1601765258526" lon="3.1005014615077533"><ele>262.0</ele><time>2026-04-26T08:51:47.999Z</time></trkpt><trkpt lat="47.16017181569165" lon="3.1003408604401423"><ele>262.0</ele><time>2026-04-26T08:51:49.999Z</time></trkpt><trkpt lat="47.1601640396562" lon="3.1001850000085205"><ele>262.0</ele><time>2026-04-26T08:51:51.999Z</time></trkpt><trkpt lat="47.16016708927048" lon="3.1000046737060916"><ele>262.0</ele><time>2026-04-26T08:51:53.999Z</time></trkpt><trkpt lat="47.16013766834671" lon="3.099849009166828"><ele>262.0</ele><time>2026-04-26T08:51:55.999Z</time></trkpt><trkpt lat="47.160048483521365" lon="3.0997484034960396"><ele>262.0</ele><time>2026-04-26T08:51:57.999Z</time></trkpt><trkpt lat="47.15994385289937" lon="3.0997318788407973"><ele>262.0</ele><time>2026-04-26T08:51:59.999Z</time></trkpt><trkpt lat="47.15984204339831" lon="3.099740400699359"><ele>262.0</ele><time>2026-04-26T08:52:01.999Z</time></trkpt><trkpt lat="47.15973994943898" lon="3.0997545912369726"><ele>262.0</ele><time>2026-04-26T08:52:03.999Z</time></trkpt><trkpt lat="47.159637270323174" lon="3.0997601162423454"><ele>262.0</ele><time>2026-04-26T08:52:05.999Z</time></trkpt><trkpt lat="47.15953211243592" lon="3.099764016356602"><ele>262.0</ele><time>2026-04-26T08:52:07.999Z</time></trkpt><trkpt lat="47.159424436970355" lon="3.0997698592670866"><ele>262.0</ele><time>2026-04-26T08:52:09.999Z</time></trkpt><trkpt lat="47.159316584754684" lon="3.0997826472131464"><ele>262.0</ele><time>2026-04-26T08:52:11.999Z</time></trkpt><trkpt lat="47.159206912046415" lon="3.099790127668369"><ele>262.0</ele><time>2026-04-26T08:52:13.999Z</time></trkpt><trkpt lat="47.159091010390654" lon="3.099789552749394"><ele>262.0</ele><time>2026-04-26T08:52:16Z</time></trkpt><trkpt lat="47.158979420169146" lon="3.0997980436504937"><ele>261.8</ele><time>2026-04-26T08:52:18Z</time></trkpt><trkpt lat="47.15886855538169" lon="3.0998050651877893"><ele>261.6</ele><time>2026-04-26T08:52:20Z</time></trkpt><trkpt lat="47.15876212760946" lon="3.0998091366455056"><ele>261.40000000000003</ele><time>2026-04-26T08:52:22Z</time></trkpt><trkpt lat="47.158658886827354" lon="3.099817188777834"><ele>261.2</ele><time>2026-04-26T08:52:24Z</time></trkpt><trkpt lat="47.15854684186062" lon="3.0998259120102105"><ele>261.0</ele><time>2026-04-26T08:52:26Z</time></trkpt><trkpt lat="47.158441130222236" lon="3.099830954527937"><ele>261.0</ele><time>2026-04-26T08:52:28Z</time></trkpt><trkpt lat="47.158332912624275" lon="3.0998350689376393"><ele>261.0</ele><time>2026-04-26T08:52:30Z</time></trkpt><trkpt lat="47.158227438851995" lon="3.099838374368233"><ele>261.0</ele><time>2026-04-26T08:52:32Z</time></trkpt><trkpt lat="47.158123801961196" lon="3.0998427263362798"><ele>261.0</ele><time>2026-04-26T08:52:34Z</time></trkpt><trkpt lat="47.158022069760065" lon="3.0998470749930274"><ele>261.0</ele><time>2026-04-26T08:52:36Z</time></trkpt><trkpt lat="47.15792062365766" lon="3.0998513442060327"><ele>260.8</ele><time>2026-04-26T08:52:38Z</time></trkpt><trkpt lat="47.15781781882057" lon="3.099864065073849"><ele>260.6</ele><time>2026-04-26T08:52:40Z</time></trkpt><trkpt lat="47.157716382084054" lon="3.0998620403421033"><ele>260.4</ele><time>2026-04-26T08:52:42Z</time></trkpt><trkpt lat="47.15761361040262" lon="3.09987141922986"><ele>260.2</ele><time>2026-04-26T08:52:44Z</time></trkpt><trkpt lat="47.15751122782913" lon="3.0998775899281577"><ele>260.0</ele><time>2026-04-26T08:52:46Z</time></trkpt><trkpt lat="47.15740666518297" lon="3.099878017706386"><ele>259.8</ele><time>2026-04-26T08:52:48Z</time></trkpt><trkpt lat="47.15730675169115" lon="3.09988691391922"><ele>259.6</ele><time>2026-04-26T08:52:50Z</time></trkpt><trkpt lat="47.157206821905" lon="3.09988788165519"><ele>259.4</ele><time>2026-04-26T08:52:52Z</time></trkpt><trkpt lat="47.15711526599239" lon="3.09989637355588"><ele>259.2</ele><time>2026-04-26T08:52:54Z</time></trkpt><trkpt lat="47.15702070092186" lon="3.0999031662518477"><ele>259.0</ele><time>2026-04-26T08:52:56Z</time></trkpt><trkpt lat="47.15692716759329" lon="3.099908142269989"><ele>259.0</ele><time>2026-04-26T08:52:58Z</time></trkpt><trkpt lat="47.15683413894621" lon="3.0999091710266806"><ele>259.0</ele><time>2026-04-26T08:53:00Z</time></trkpt><trkpt lat="47.156738437277156" lon="3.0999321172442413"><ele>259.0</ele><time>2026-04-26T08:53:02Z</time></trkpt><trkpt lat="47.15664911636404" lon="3.099920335908345"><ele>259.0</ele><time>2026-04-26T08:53:04Z</time></trkpt><trkpt lat="47.156579862687835" lon="3.0999233573272567"><ele>259.0</ele><time>2026-04-26T08:53:06Z</time></trkpt><trkpt lat="47.156473713575046" lon="3.0999258179488076"><ele>259.2</ele><time>2026-04-26T08:53:07.999Z</time></trkpt><trkpt lat="47.156378850088394" lon="3.0999352455315785"><ele>259.4</ele><time>2026-04-26T08:53:09.999Z</time></trkpt><trkpt lat="47.1562818906681" lon="3.099940836055342"><ele>259.6</ele><time>2026-04-26T08:53:11.999Z</time></trkpt><trkpt lat="47.15619061977198" lon="3.099947242646552"><ele>259.8</ele><time>2026-04-26T08:53:13.999Z</time></trkpt><trkpt lat="47.15609272012676" lon="3.0999416054297013"><ele>260.0</ele><time>2026-04-26T08:53:15.999Z</time></trkpt><trkpt lat="47.156006053978814" lon="3.099948181182938"><ele>260.00000000000006</ele><time>2026-04-26T08:53:17.999Z</time></trkpt><trkpt lat="47.155927388099066" lon="3.0999835990802387"><ele>260.0</ele><time>2026-04-26T08:53:19.999Z</time></trkpt><trkpt lat="47.15587351013746" lon="3.1000857454908552"><ele>260.0</ele><time>2026-04-26T08:53:21.999Z</time></trkpt><trkpt lat="47.15587139171599" lon="3.10019466005835"><ele>260.0</ele><time>2026-04-26T08:53:23.999Z</time></trkpt><trkpt lat="47.15589843289246" lon="3.1002929946127282"><ele>260.0</ele><time>2026-04-26T08:53:25.999Z</time></trkpt><trkpt lat="47.15592012292512" lon="3.100380920544399"><ele>260.00000000000006</ele><time>2026-04-26T08:53:27.999Z</time></trkpt><trkpt lat="47.155940647561266" lon="3.1004771486985923"><ele>260.0</ele><time>2026-04-26T08:53:29.999Z</time></trkpt><trkpt lat="47.15600640175929" lon="3.1005988135519673"><ele>260.00000000000006</ele><time>2026-04-26T08:53:31.999Z</time></trkpt><trkpt lat="47.155997725023745" lon="3.1007153580912"><ele>260.0</ele><time>2026-04-26T08:53:34.999Z</time></trkpt><trkpt lat="47.15601919898308" lon="3.100810966789842"><ele>260.0</ele><time>2026-04-26T08:53:36.999Z</time></trkpt><trkpt lat="47.156050267768144" lon="3.100905285375393"><ele>260.0</ele><time>2026-04-26T08:53:38.999Z</time></trkpt><trkpt lat="47.15605047434936" lon="3.101037646015907"><ele>260.0</ele><time>2026-04-26T08:53:41.999Z</time></trkpt><trkpt lat="47.15605759322651" lon="3.1011327191711366"><ele>260.00000000000006</ele><time>2026-04-26T08:53:43.999Z</time></trkpt><trkpt lat="47.1560649386021" lon="3.101234394388932"><ele>260.0</ele><time>2026-04-26T08:53:46.999Z</time></trkpt><trkpt lat="47.156088533824786" lon="3.101346244526596"><ele>260.1666666666667</ele><time>2026-04-26T08:53:48.999Z</time></trkpt><trkpt lat="47.15611063556111" lon="3.101471963931729"><ele>260.33333333333337</ele><time>2026-04-26T08:53:51.999Z</time></trkpt><trkpt lat="47.15612393198795" lon="3.1016123633182615"><ele>260.5</ele><time>2026-04-26T08:53:54.999Z</time></trkpt><trkpt lat="47.15612321537614" lon="3.101743037741632"><ele>260.6666666666667</ele><time>2026-04-26T08:53:57.999Z</time></trkpt><trkpt lat="47.15612081510895" lon="3.10183571046451"><ele>260.8333333333333</ele><time>2026-04-26T08:53:59.999Z</time></trkpt><trkpt lat="47.156123330614406" lon="3.1019306606431627"><ele>261.0</ele><time>2026-04-26T08:54:02.999Z</time></trkpt><trkpt lat="47.156127163910966" lon="3.102071876037662"><ele>261.6</ele><time>2026-04-26T08:54:05.999Z</time></trkpt><trkpt lat="47.156128637141094" lon="3.1021943498397535"><ele>262.20000000000005</ele><time>2026-04-26T08:54:08.999Z</time></trkpt><trkpt lat="47.156125774318554" lon="3.1023165001309327"><ele>262.79999999999995</ele><time>2026-04-26T08:54:11.999Z</time></trkpt><trkpt lat="47.156124983775044" lon="3.1024394156820527"><ele>263.4</ele><time>2026-04-26T08:54:15.999Z</time></trkpt><trkpt lat="47.15613405579016" lon="3.1025663589748045"><ele>264.0</ele><time>2026-04-26T08:54:18.999Z</time></trkpt><trkpt lat="47.15613530151665" lon="3.1027406097344765"><ele>264.1666666666667</ele><time>2026-04-26T08:54:20.999Z</time></trkpt><trkpt lat="47.156202868368894" lon="3.1028224574836942"><ele>264.3333333333333</ele><time>2026-04-26T08:54:25Z</time></trkpt><trkpt lat="47.156218464426296" lon="3.102914165918289"><ele>264.5</ele><time>2026-04-26T08:54:27Z</time></trkpt><trkpt lat="47.15621148514587" lon="3.1030372054936985"><ele>264.66666666666663</ele><time>2026-04-26T08:54:30Z</time></trkpt><trkpt lat="47.15621577826044" lon="3.103141699017602"><ele>264.8333333333333</ele><time>2026-04-26T08:54:32Z</time></trkpt><trkpt lat="47.15620848000219" lon="3.1032555627098257"><ele>265.0</ele><time>2026-04-26T08:54:35Z</time></trkpt><trkpt lat="47.1561996341741" lon="3.1033569704815354"><ele>264.3333333333333</ele><time>2026-04-26T08:54:36Z</time></trkpt><trkpt lat="47.15617286907901" lon="3.10351866501368"><ele>263.66666666666663</ele><time>2026-04-26T08:54:38Z</time></trkpt><trkpt lat="47.15614003938713" lon="3.1036260113553067"><ele>263.0</ele><time>2026-04-26T08:54:40Z</time></trkpt><trkpt lat="47.15607810636456" lon="3.103691397281267"><ele>262.3333333333333</ele><time>2026-04-26T08:54:43Z</time></trkpt><trkpt lat="47.15603186004565" lon="3.1036086206741684"><ele>261.6666666666667</ele><time>2026-04-26T08:54:45Z</time></trkpt><trkpt lat="47.15601425803833" lon="3.103508058202485"><ele>261.0</ele><time>2026-04-26T08:54:47Z</time></trkpt><trkpt lat="47.155986896964336" lon="3.1034173408168004"><ele>261.0</ele><time>2026-04-26T08:54:49Z</time></trkpt><trkpt lat="47.15595624506919" lon="3.1033296521014435"><ele>261.0</ele><time>2026-04-26T08:54:51Z</time></trkpt><trkpt lat="47.15592326067306" lon="3.1032400948168495"><ele>261.0</ele><time>2026-04-26T08:54:53Z</time></trkpt><trkpt lat="47.15588642344241" lon="3.1031636422967566"><ele>261.0</ele><time>2026-04-26T08:54:55Z</time></trkpt><trkpt lat="47.15580922814161" lon="3.1031117922048983"><ele>261.0</ele><time>2026-04-26T08:54:57Z</time></trkpt><trkpt lat="47.155767004309375" lon="3.1030230626115163"><ele>261.0</ele><time>2026-04-26T08:55:00Z</time></trkpt><trkpt lat="47.15572118377299" lon="3.102946964292138"><ele>261.0</ele><time>2026-04-26T08:55:02Z</time></trkpt><trkpt lat="47.15568016112683" lon="3.1028682527913043"><ele>261.0</ele><time>2026-04-26T08:55:04Z</time></trkpt><trkpt lat="47.15561838737018" lon="3.1027795023306797"><ele>261.0</ele><time>2026-04-26T08:55:07Z</time></trkpt><trkpt lat="47.15559443167524" lon="3.1026794638403925"><ele>261.0</ele><time>2026-04-26T08:55:10Z</time></trkpt><trkpt lat="47.15555051156801" lon="3.1025908205736408"><ele>261.0</ele><time>2026-04-26T08:55:13Z</time></trkpt><trkpt lat="47.15549852524492" lon="3.1025135107061823"><ele>261.0</ele><time>2026-04-26T08:55:16Z</time></trkpt><trkpt lat="47.155448296765115" lon="3.1024029415087315"><ele>261.0</ele><time>2026-04-26T08:55:18.999Z</time></trkpt><trkpt lat="47.15539929361527" lon="3.102327790481104"><ele>261.1666666666667</ele><time>2026-04-26T08:55:20.999Z</time></trkpt><trkpt lat="47.15534538667528" lon="3.1022421246598215"><ele>261.3333333333333</ele><time>2026-04-26T08:55:22.999Z</time></trkpt><trkpt lat="47.155294751671576" lon="3.102158216015992"><ele>261.5</ele><time>2026-04-26T08:55:26.999Z</time></trkpt><trkpt lat="47.15525546777694" lon="3.1020812407819305"><ele>261.66666666666663</ele><time>2026-04-26T08:55:29.999Z</time></trkpt><trkpt lat="47.155198108700134" lon="3.1019867300496595"><ele>261.8333333333333</ele><time>2026-04-26T08:55:32.999Z</time></trkpt><trkpt lat="47.15514621466412" lon="3.101916787047029"><ele>262.0</ele><time>2026-04-26T08:55:34.999Z</time></trkpt><trkpt lat="47.1550928276683" lon="3.1018004908285226"><ele>262.0</ele><time>2026-04-26T08:55:37.999Z</time></trkpt><trkpt lat="47.15504273282042" lon="3.1017439593114564"><ele>262.0</ele><time>2026-04-26T08:55:39.999Z</time></trkpt><trkpt lat="47.154978341558646" lon="3.1016625258817307"><ele>262.0</ele><time>2026-04-26T08:55:41.999Z</time></trkpt><trkpt lat="47.154937508184815" lon="3.101590322212715"><ele>262.0</ele><time>2026-04-26T08:55:43.999Z</time></trkpt><trkpt lat="47.154893281854534" lon="3.1015116363971234"><ele>262.0</ele><time>2026-04-26T08:55:45.999Z</time></trkpt><trkpt lat="47.15481570108094" lon="3.1013745142870786"><ele>262.0</ele><time>2026-04-26T08:55:48.999Z</time></trkpt><trkpt lat="47.154769328134925" lon="3.101284001960603"><ele>261.5</ele><time>2026-04-26T08:55:51.999Z</time></trkpt><trkpt lat="47.15469714337865" lon="3.1012078896600648"><ele>261.0</ele><time>2026-04-26T08:55:54.999Z</time></trkpt><trkpt lat="47.154640530512204" lon="3.1011389521415396"><ele>260.5</ele><time>2026-04-26T08:55:57.999Z</time></trkpt><trkpt lat="47.15460107389786" lon="3.1010455371967476"><ele>260.0</ele><time>2026-04-26T08:55:59.999Z</time></trkpt><trkpt lat="47.15454104241521" lon="3.1009331575074763"><ele>259.5</ele><time>2026-04-26T08:56:02.999Z</time></trkpt><trkpt lat="47.15448459223159" lon="3.100858953350631"><ele>259.0</ele><time>2026-04-26T08:56:04.999Z</time></trkpt><trkpt lat="47.154434604848014" lon="3.1007788030209373"><ele>258.8333333333333</ele><time>2026-04-26T08:56:06.999Z</time></trkpt><trkpt lat="47.15436889860602" lon="3.100686616467925"><ele>258.66666666666663</ele><time>2026-04-26T08:56:09.999Z</time></trkpt><trkpt lat="47.15430497898455" lon="3.1006305912888585"><ele>258.5</ele><time>2026-04-26T08:56:12.999Z</time></trkpt><trkpt lat="47.15424512456221" lon="3.1005467258405766"><ele>258.3333333333333</ele><time>2026-04-26T08:56:20.999Z</time></trkpt><trkpt lat="47.154181194855454" lon="3.100464583320857"><ele>258.1666666666667</ele><time>2026-04-26T08:56:23.999Z</time></trkpt><trkpt lat="47.154098222152975" lon="3.100349258902937"><ele>258.0</ele><time>2026-04-26T08:56:26.999Z</time></trkpt><trkpt lat="47.15403044231518" lon="3.100259631342824"><ele>258.0</ele><time>2026-04-26T08:56:29Z</time></trkpt><trkpt lat="47.15396559163778" lon="3.1001510686337466"><ele>258.0</ele><time>2026-04-26T08:56:31Z</time></trkpt><trkpt lat="47.15389013845476" lon="3.100109552369302"><ele>258.0</ele><time>2026-04-26T08:56:33Z</time></trkpt><trkpt lat="47.153834369291445" lon="3.1000379778089866"><ele>258.0</ele><time>2026-04-26T08:56:35Z</time></trkpt><trkpt lat="47.15376881395195" lon="3.100087081317331"><ele>258.0</ele><time>2026-04-26T08:56:38Z</time></trkpt><trkpt lat="47.15374914913158" lon="3.1001822377061745"><ele>258.0</ele><time>2026-04-26T08:56:40Z</time></trkpt><trkpt lat="47.153733974846" lon="3.1003136556562034"><ele>257.99999999999994</ele><time>2026-04-26T08:56:43Z</time></trkpt><trkpt lat="47.153727388509985" lon="3.1004145814587822"><ele>258.0</ele><time>2026-04-26T08:56:45Z</time></trkpt><trkpt lat="47.153701269473736" lon="3.100533858853048"><ele>258.0</ele><time>2026-04-26T08:56:49Z</time></trkpt><trkpt lat="47.15368070889821" lon="3.100629984928921"><ele>258.0</ele><time>2026-04-26T08:56:51Z</time></trkpt><trkpt lat="47.1536653418681" lon="3.100750346692752"><ele>258.0</ele><time>2026-04-26T08:56:54Z</time></trkpt><trkpt lat="47.15366178755584" lon="3.1008628710966404"><ele>257.99999999999994</ele><time>2026-04-26T08:56:57Z</time></trkpt><trkpt lat="47.15364336960728" lon="3.10095537123548"><ele>258.0</ele><time>2026-04-26T08:56:59Z</time></trkpt><trkpt lat="47.153630446975086" lon="3.1010636955975635"><ele>258.4285714285714</ele><time>2026-04-26T08:57:02Z</time></trkpt><trkpt lat="47.15360795423581" lon="3.1011704091920387"><ele>258.85714285714283</ele><time>2026-04-26T08:57:05Z</time></trkpt><trkpt lat="47.15358995087665" lon="3.101292551138635"><ele>259.2857142857143</ele><time>2026-04-26T08:57:25.999Z</time></trkpt><trkpt lat="47.153592703165714" lon="3.1014004792487"><ele>259.71428571428567</ele><time>2026-04-26T08:57:28.999Z</time></trkpt><trkpt lat="47.153581815954325" lon="3.1014964378997774"><ele>260.1428571428571</ele><time>2026-04-26T08:57:30.999Z</time></trkpt><trkpt lat="47.15358557677373" lon="3.101595806916763"><ele>260.57142857142856</ele><time>2026-04-26T08:57:33.999Z</time></trkpt><trkpt lat="47.15355306756605" lon="3.101704547987236"><ele>261.0</ele><time>2026-04-26T08:57:35.999Z</time></trkpt><trkpt lat="47.15353021166817" lon="3.1017991231350655"><ele>261.1666666666667</ele><time>2026-04-26T08:57:37.999Z</time></trkpt><trkpt lat="47.15350624705388" lon="3.101926130311272"><ele>261.3333333333333</ele><time>2026-04-26T08:57:40.999Z</time></trkpt><trkpt lat="47.153484790312696" lon="3.102053815182388"><ele>261.5</ele><time>2026-04-26T08:57:43.999Z</time></trkpt><trkpt lat="47.153457187288566" lon="3.1021393953863066"><ele>261.66666666666663</ele><time>2026-04-26T08:57:45.999Z</time></trkpt><trkpt lat="47.153437668581496" lon="3.102264711383295"><ele>261.8333333333333</ele><time>2026-04-26T08:57:48.999Z</time></trkpt><trkpt lat="47.15342142914283" lon="3.1023958440011388"><ele>262.0</ele><time>2026-04-26T08:57:51.999Z</time></trkpt><trkpt lat="47.15340175314291" lon="3.1025156732753745"><ele>262.16666666666663</ele><time>2026-04-26T08:57:54.999Z</time></trkpt><trkpt lat="47.153391837668636" lon="3.102624485775122"><ele>262.3333333333333</ele><time>2026-04-26T08:57:57.999Z</time></trkpt><trkpt lat="47.15337986483399" lon="3.1027550962820087"><ele>262.5</ele><time>2026-04-26T08:58:00.999Z</time></trkpt><trkpt lat="47.15334140888657" lon="3.102863677949241"><ele>262.6666666666667</ele><time>2026-04-26T08:58:03.999Z</time></trkpt><trkpt lat="47.15331934399853" lon="3.102981939844892"><ele>262.83333333333337</ele><time>2026-04-26T08:58:06.999Z</time></trkpt><trkpt lat="47.153311912344805" lon="3.103108163149558"><ele>263.0</ele><time>2026-04-26T08:58:09.999Z</time></trkpt><trkpt lat="47.15331243117836" lon="3.1032215058002928"><ele>263.0</ele><time>2026-04-26T08:58:12.999Z</time></trkpt><trkpt lat="47.15328457297" lon="3.103306594957631"><ele>263.0</ele><time>2026-04-26T08:58:15.999Z</time></trkpt><trkpt lat="47.153284275098954" lon="3.103400590677894"><ele>263.0</ele><time>2026-04-26T08:58:17.999Z</time></trkpt><trkpt lat="47.15325581885913" lon="3.1035195427833244"><ele>263.0</ele><time>2026-04-26T08:58:20.999Z</time></trkpt><trkpt lat="47.15322864117825" lon="3.10362141449628"><ele>263.0</ele><time>2026-04-26T08:58:23.999Z</time></trkpt><trkpt lat="47.153214686755334" lon="3.103712733494241"><ele>263.0</ele><time>2026-04-26T08:58:26.999Z</time></trkpt><trkpt lat="47.15319889500894" lon="3.1038281029927033"><ele>263.0</ele><time>2026-04-26T08:58:29.999Z</time></trkpt><trkpt lat="47.153187532867605" lon="3.10394614994179"><ele>263.33333333333337</ele><time>2026-04-26T08:58:32.999Z</time></trkpt><trkpt lat="47.15315736082572" lon="3.1040532588432344"><ele>263.6666666666667</ele><time>2026-04-26T08:58:35Z</time></trkpt><trkpt lat="47.153149329222884" lon="3.1041557830104862"><ele>264.0</ele><time>2026-04-26T08:58:37Z</time></trkpt><trkpt lat="47.15313593798085" lon="3.1042594123649216"><ele>264.3333333333333</ele><time>2026-04-26T08:58:39Z</time></trkpt><trkpt lat="47.153121131425664" lon="3.1043779667284435"><ele>264.66666666666663</ele><time>2026-04-26T08:58:41Z</time></trkpt><trkpt lat="47.15311700408873" lon="3.1044909954878883"><ele>265.0</ele><time>2026-04-26T08:58:43Z</time></trkpt><trkpt lat="47.153094675592456" lon="3.1045973877133863"><ele>265.3333333333333</ele><time>2026-04-26T08:58:45Z</time></trkpt><trkpt lat="47.15309533424175" lon="3.1046971292029073"><ele>265.66666666666663</ele><time>2026-04-26T08:58:47Z</time></trkpt><trkpt lat="47.15305467718255" lon="3.104799409517224"><ele>266.0</ele><time>2026-04-26T08:58:49Z</time></trkpt><trkpt lat="47.15304426447951" lon="3.1049140617534916"><ele>266.3333333333333</ele><time>2026-04-26T08:58:51Z</time></trkpt><trkpt lat="47.15300533402805" lon="3.1050170998269"><ele>266.6666666666667</ele><time>2026-04-26T08:58:53Z</time></trkpt><trkpt lat="47.153006857787716" lon="3.1051257735629596"><ele>267.0</ele><time>2026-04-26T08:58:55Z</time></trkpt><trkpt lat="47.152993778299" lon="3.1052405652816937"><ele>267.0</ele><time>2026-04-26T08:58:57Z</time></trkpt><trkpt lat="47.15299356502158" lon="3.1053690868171535"><ele>267.0</ele><time>2026-04-26T08:58:59Z</time></trkpt><trkpt lat="47.152963210316486" lon="3.10548345355751"><ele>267.0</ele><time>2026-04-26T08:59:01Z</time></trkpt><trkpt lat="47.152944017307384" lon="3.105610064821994"><ele>267.0</ele><time>2026-04-26T08:59:03Z</time></trkpt><trkpt lat="47.152935388835836" lon="3.1057201386868245"><ele>267.0</ele><time>2026-04-26T08:59:05Z</time></trkpt><trkpt lat="47.15291979923106" lon="3.105832043708368"><ele>267.0</ele><time>2026-04-26T08:59:07Z</time></trkpt><trkpt lat="47.15286971988734" lon="3.1059346742148195"><ele>266.8333333333333</ele><time>2026-04-26T08:59:09Z</time></trkpt><trkpt lat="47.152866400724186" lon="3.106070993431253"><ele>266.6666666666667</ele><time>2026-04-26T08:59:12Z</time></trkpt><trkpt lat="47.15284532687963" lon="3.1061765621683737"><ele>266.5</ele><time>2026-04-26T08:59:14Z</time></trkpt><trkpt lat="47.15286057536799" lon="3.106289292314629"><ele>266.33333333333337</ele><time>2026-04-26T08:59:16Z</time></trkpt><trkpt lat="47.152834481298584" lon="3.1063823938488966"><ele>266.1666666666667</ele><time>2026-04-26T08:59:18Z</time></trkpt><trkpt lat="47.15281705983818" lon="3.1065166046327954"><ele>266.0</ele><time>2026-04-26T08:59:21Z</time></trkpt><trkpt lat="47.15280436076615" lon="3.106643775315095"><ele>266.0</ele><time>2026-04-26T08:59:24Z</time></trkpt><trkpt lat="47.15278634081165" lon="3.1067733997801485"><ele>266.0</ele><time>2026-04-26T08:59:27Z</time></trkpt><trkpt lat="47.152778777965885" lon="3.106879735217292"><ele>266.0</ele><time>2026-04-26T08:59:29.999Z</time></trkpt><trkpt lat="47.15275421059575" lon="3.107000835673325"><ele>266.0</ele><time>2026-04-26T08:59:32.999Z</time></trkpt><trkpt lat="47.15273519905438" lon="3.1071014453551484"><ele>266.0</ele><time>2026-04-26T08:59:35.999Z</time></trkpt><trkpt lat="47.15272009798082" lon="3.107230481690278"><ele>266.0</ele><time>2026-04-26T08:59:38.999Z</time></trkpt><trkpt lat="47.152715192880805" lon="3.1073629754971748"><ele>266.2857142857143</ele><time>2026-04-26T08:59:41.999Z</time></trkpt><trkpt lat="47.15269415908516" lon="3.1074639698318696"><ele>266.57142857142856</ele><time>2026-04-26T08:59:44.999Z</time></trkpt><trkpt lat="47.15268126734149" lon="3.1075606311099793"><ele>266.8571428571429</ele><time>2026-04-26T08:59:47.999Z</time></trkpt><trkpt lat="47.15265844147473" lon="3.107667827579637"><ele>267.1428571428571</ele><time>2026-04-26T09:00:40Z</time></trkpt><trkpt lat="47.152677390762626" lon="3.107761700069654"><ele>267.42857142857144</ele><time>2026-04-26T09:00:55Z</time></trkpt><trkpt lat="47.152651884897935" lon="3.107863413009415"><ele>267.7142857142857</ele><time>2026-04-26T09:00:58Z</time></trkpt><trkpt lat="47.152637758924186" lon="3.1079874697257703"><ele>268.0</ele><time>2026-04-26T09:01:01Z</time></trkpt><trkpt lat="47.15260243812746" lon="3.1081016277639737"><ele>268.0</ele><time>2026-04-26T09:01:04Z</time></trkpt><trkpt lat="47.152592239361276" lon="3.108230770565571"><ele>268.0</ele><time>2026-04-26T09:01:07Z</time></trkpt><trkpt lat="47.15257922762299" lon="3.108356620945676"><ele>268.0</ele><time>2026-04-26T09:01:10Z</time></trkpt><trkpt lat="47.152558953745" lon="3.1084710882848676"><ele>268.0</ele><time>2026-04-26T09:01:13Z</time></trkpt><trkpt lat="47.152547875976836" lon="3.1085872935041983"><ele>268.0</ele><time>2026-04-26T09:01:15.999Z</time></trkpt><trkpt lat="47.152528667694426" lon="3.1087166355640816"><ele>268.0</ele><time>2026-04-26T09:01:18.999Z</time></trkpt><trkpt lat="47.15251708036401" lon="3.108841456014948"><ele>268.0</ele><time>2026-04-26T09:01:22.999Z</time></trkpt><trkpt lat="47.152494982568946" lon="3.108939292386296"><ele>268.0</ele><time>2026-04-26T09:01:25.999Z</time></trkpt><trkpt lat="47.1524793873364" lon="3.109036316230165"><ele>268.0</ele><time>2026-04-26T09:01:28.999Z</time></trkpt><trkpt lat="47.152475898224594" lon="3.1091415460400555"><ele>268.0</ele><time>2026-04-26T09:01:31.999Z</time></trkpt><trkpt lat="47.152461756369725" lon="3.1092664242048103"><ele>268.0</ele><time>2026-04-26T09:01:35.999Z</time></trkpt><trkpt lat="47.15244992844817" lon="3.1093675205882225"><ele>268.0</ele><time>2026-04-26T09:01:38.999Z</time></trkpt><trkpt lat="47.15243086483932" lon="3.109493411021918"><ele>268.0</ele><time>2026-04-26T09:01:42.999Z</time></trkpt><trkpt lat="47.15242258893921" lon="3.1095862786591013"><ele>268.0</ele><time>2026-04-26T09:01:45.999Z</time></trkpt><trkpt lat="47.1524061798327" lon="3.109703784996241"><ele>268.0</ele><time>2026-04-26T09:01:49.999Z</time></trkpt><trkpt lat="47.1523879381228" lon="3.1097950667826897"><ele>268.0</ele><time>2026-04-26T09:01:52.999Z</time></trkpt><trkpt lat="47.152374530454765" lon="3.109893978527462"><ele>268.0</ele><time>2026-04-26T09:01:55.999Z</time></trkpt><trkpt lat="47.15235993691963" lon="3.109991432027198"><ele>268.0</ele><time>2026-04-26T09:01:58.999Z</time></trkpt><trkpt lat="47.152360170019826" lon="3.1100880637697306"><ele>268.0</ele><time>2026-04-26T09:02:01.999Z</time></trkpt><trkpt lat="47.15233928530897" lon="3.1101907788008614"><ele>268.0</ele><time>2026-04-26T09:02:04.999Z</time></trkpt><trkpt lat="47.15231465181712" lon="3.110305612373022"><ele>268.0</ele><time>2026-04-26T09:02:07.999Z</time></trkpt><trkpt lat="47.15230432435257" lon="3.1104165607992735"><ele>268.0</ele><time>2026-04-26T09:02:11.999Z</time></trkpt><trkpt lat="47.15230814332104" lon="3.110536219222244"><ele>268.0</ele><time>2026-04-26T09:02:15.999Z</time></trkpt><trkpt lat="47.15228864978342" lon="3.1106396440185824"><ele>268.0</ele><time>2026-04-26T09:02:18.999Z</time></trkpt><trkpt lat="47.15225686267917" lon="3.110733168064009"><ele>268.0</ele><time>2026-04-26T09:02:21.999Z</time></trkpt><trkpt lat="47.15225655578512" lon="3.110836996027968"><ele>268.14285714285717</ele><time>2026-04-26T09:02:24.999Z</time></trkpt><trkpt lat="47.1522420903948" lon="3.1109344530558674"><ele>268.2857142857143</ele><time>2026-04-26T09:02:27.999Z</time></trkpt><trkpt lat="47.152219939273934" lon="3.111040312469887"><ele>268.42857142857144</ele><time>2026-04-26T09:02:30.999Z</time></trkpt><trkpt lat="47.15221768850979" lon="3.111137839659104"><ele>268.57142857142856</ele><time>2026-04-26T09:02:33.999Z</time></trkpt><trkpt lat="47.152216399495266" lon="3.111239365828358"><ele>268.7142857142857</ele><time>2026-04-26T09:02:36.999Z</time></trkpt><trkpt lat="47.1521974180241" lon="3.1113435815363033"><ele>268.8571428571429</ele><time>2026-04-26T09:02:39.999Z</time></trkpt><trkpt lat="47.15217312203921" lon="3.1114533412100966"><ele>269.0</ele><time>2026-04-26T09:02:43.998Z</time></trkpt><trkpt lat="47.152154643035935" lon="3.111575072894597"><ele>269.33333333333337</ele><time>2026-04-26T09:03:04Z</time></trkpt><trkpt lat="47.15214313642465" lon="3.1117039349731623"><ele>269.6666666666667</ele><time>2026-04-26T09:03:07Z</time></trkpt><trkpt lat="47.15211624344833" lon="3.111826104994993"><ele>270.0</ele><time>2026-04-26T09:03:10Z</time></trkpt><trkpt lat="47.15210491438" lon="3.111951637614349"><ele>270.3333333333333</ele><time>2026-04-26T09:03:13Z</time></trkpt><trkpt lat="47.15208960621417" lon="3.1120767398204086"><ele>270.66666666666663</ele><time>2026-04-26T09:03:16Z</time></trkpt><trkpt lat="47.152066900608936" lon="3.112201629096127"><ele>271.0</ele><time>2026-04-26T09:03:19Z</time></trkpt><trkpt lat="47.15204831489863" lon="3.1123312776632717"><ele>271.16666666666663</ele><time>2026-04-26T09:03:22Z</time></trkpt><trkpt lat="47.152031092857825" lon="3.1124580762198066"><ele>271.3333333333333</ele><time>2026-04-26T09:03:25Z</time></trkpt><trkpt lat="47.15201023231669" lon="3.112587340272756"><ele>271.5</ele><time>2026-04-26T09:03:28Z</time></trkpt><trkpt lat="47.151993989831965" lon="3.112707125069973"><ele>271.6666666666667</ele><time>2026-04-26T09:03:31Z</time></trkpt><trkpt lat="47.151975614777506" lon="3.1128146652115003"><ele>271.83333333333337</ele><time>2026-04-26T09:03:34Z</time></trkpt><trkpt lat="47.15196731216968" lon="3.1129141033739147"><ele>272.0</ele><time>2026-04-26T09:03:36.999Z</time></trkpt><trkpt lat="47.15194903896868" lon="3.113034938887365"><ele>271.99999999999994</ele><time>2026-04-26T09:03:40.999Z</time></trkpt><trkpt lat="47.15194315366918" lon="3.113145400156095"><ele>272.0</ele><time>2026-04-26T09:03:44.999Z</time></trkpt><trkpt lat="47.15192035482087" lon="3.1132370324236427"><ele>272.0</ele><time>2026-04-26T09:04:01.999Z</time></trkpt><trkpt lat="47.151906701433326" lon="3.1133431045930053"><ele>272.0</ele><time>2026-04-26T09:04:04.999Z</time></trkpt><trkpt lat="47.15189452959366" lon="3.113436142769892"><ele>272.0</ele><time>2026-04-26T09:04:07.999Z</time></trkpt><trkpt lat="47.151876683771924" lon="3.1135310077391356"><ele>271.99999999999994</ele><time>2026-04-26T09:04:10.999Z</time></trkpt><trkpt lat="47.15186958234812" lon="3.1136575205734793"><ele>272.0</ele><time>2026-04-26T09:04:14.999Z</time></trkpt><trkpt lat="47.151851649946146" lon="3.113758083857641"><ele>272.2857142857143</ele><time>2026-04-26T09:04:17.999Z</time></trkpt><trkpt lat="47.15184441659053" lon="3.113855775705821"><ele>272.57142857142856</ele><time>2026-04-26T09:04:20.999Z</time></trkpt><trkpt lat="47.151832730654874" lon="3.113951707245607"><ele>272.8571428571429</ele><time>2026-04-26T09:04:23.999Z</time></trkpt><trkpt lat="47.151779549941466" lon="3.1140447042689106"><ele>273.1428571428571</ele><time>2026-04-26T09:04:27.999Z</time></trkpt><trkpt lat="47.15171572222456" lon="3.114079059232327"><ele>273.42857142857144</ele><time>2026-04-26T09:04:30.999Z</time></trkpt><trkpt lat="47.15164452764202" lon="3.114112845045835"><ele>273.7142857142857</ele><time>2026-04-26T09:04:33.999Z</time></trkpt><trkpt lat="47.1515741245522" lon="3.1141455786049006"><ele>274.0</ele><time>2026-04-26T09:04:36.999Z</time></trkpt><trkpt lat="47.15149899773642" lon="3.114170628531901"><ele>274.66666666666663</ele><time>2026-04-26T09:04:40.999Z</time></trkpt><trkpt lat="47.15141200252802" lon="3.114200032160463"><ele>275.3333333333333</ele><time>2026-04-26T09:04:43.999Z</time></trkpt><trkpt lat="47.15134428088409" lon="3.1142322891005296"><ele>276.0</ele><time>2026-04-26T09:04:46.999Z</time></trkpt><trkpt lat="47.151280084977174" lon="3.1142449076431644"><ele>276.6666666666667</ele><time>2026-04-26T09:04:48.999Z</time></trkpt><trkpt lat="47.15120278371598" lon="3.1142823033902935"><ele>277.33333333333337</ele><time>2026-04-26T09:04:52Z</time></trkpt><trkpt lat="47.15113471745959" lon="3.114313457017764"><ele>278.0</ele><time>2026-04-26T09:04:55Z</time></trkpt><trkpt lat="47.15105756218425" lon="3.114314999865444"><ele>278.0</ele><time>2026-04-26T09:04:58Z</time></trkpt><trkpt lat="47.150984832761495" lon="3.114304075588534"><ele>278.0</ele><time>2026-04-26T09:05:00Z</time></trkpt><trkpt lat="47.15091838238015" lon="3.1143163659041204"><ele>278.0</ele><time>2026-04-26T09:05:03Z</time></trkpt><trkpt lat="47.15083470913279" lon="3.1142880053126993"><ele>278.0</ele><time>2026-04-26T09:05:07Z</time></trkpt><trkpt lat="47.15077382082489" lon="3.1142244698602486"><ele>278.0</ele><time>2026-04-26T09:05:10Z</time></trkpt><trkpt lat="47.15074780434524" lon="3.114102890197377"><ele>278.0</ele><time>2026-04-26T09:05:13Z</time></trkpt><trkpt lat="47.15072726507428" lon="3.113951585976977"><ele>278.0</ele><time>2026-04-26T09:05:16Z</time></trkpt><trkpt lat="47.1507153948261" lon="3.113823100365006"><ele>278.0</ele><time>2026-04-26T09:05:18Z</time></trkpt><trkpt lat="47.15069229629338" lon="3.113709066239488"><ele>278.0</ele><time>2026-04-26T09:05:21Z</time></trkpt><trkpt lat="47.15066299928198" lon="3.113583071226111"><ele>278.0</ele><time>2026-04-26T09:05:22Z</time></trkpt><trkpt lat="47.15064588020831" lon="3.1134345209782452"><ele>278.0</ele><time>2026-04-26T09:05:24Z</time></trkpt><trkpt lat="47.15063906975788" lon="3.113302856899251"><ele>278.0</ele><time>2026-04-26T09:05:26Z</time></trkpt><trkpt lat="47.15061748263506" lon="3.113191829885413"><ele>278.0</ele><time>2026-04-26T09:05:28Z</time></trkpt><trkpt lat="47.150595273230145" lon="3.11307308980148"><ele>278.0</ele><time>2026-04-26T09:05:30Z</time></trkpt><trkpt lat="47.15058755118256" lon="3.1129662786577597"><ele>278.0</ele><time>2026-04-26T09:05:32Z</time></trkpt><trkpt lat="47.15056277075004" lon="3.1128701579127216"><ele>278.0</ele><time>2026-04-26T09:05:34Z</time></trkpt><trkpt lat="47.15056665326197" lon="3.112774752999321"><ele>278.0</ele><time>2026-04-26T09:05:36Z</time></trkpt><trkpt lat="47.15055260515718" lon="3.112676683973156"><ele>278.0</ele><time>2026-04-26T09:05:38Z</time></trkpt><trkpt lat="47.15052772889051" lon="3.112577359410697"><ele>278.0</ele><time>2026-04-26T09:05:41Z</time></trkpt><trkpt lat="47.15049745712709" lon="3.112466845187853"><ele>278.0</ele><time>2026-04-26T09:05:44Z</time></trkpt><trkpt lat="47.15048411412217" lon="3.11232662642087"><ele>278.0</ele><time>2026-04-26T09:05:47Z</time></trkpt><trkpt lat="47.15045940306399" lon="3.1122338632516273"><ele>278.0</ele><time>2026-04-26T09:05:49.999Z</time></trkpt><trkpt lat="47.15044104592311" lon="3.1121215847268267"><ele>278.0</ele><time>2026-04-26T09:05:52.999Z</time></trkpt><trkpt lat="47.15042181295471" lon="3.111985536820652"><ele>278.0</ele><time>2026-04-26T09:05:55.999Z</time></trkpt><trkpt lat="47.15040101489627" lon="3.1118648509834426"><ele>278.0</ele><time>2026-04-26T09:05:58.999Z</time></trkpt><trkpt lat="47.15038125459547" lon="3.111728988147984"><ele>278.0</ele><time>2026-04-26T09:06:01.999Z</time></trkpt><trkpt lat="47.150377854332355" lon="3.1116255089320393"><ele>278.0</ele><time>2026-04-26T09:06:04.999Z</time></trkpt><trkpt lat="47.15036060608964" lon="3.1114987701774686"><ele>278.0</ele><time>2026-04-26T09:06:07.999Z</time></trkpt><trkpt lat="47.15035014889099" lon="3.111393568148267"><ele>278.0</ele><time>2026-04-26T09:06:10.999Z</time></trkpt><trkpt lat="47.15031565262324" lon="3.111281692135414"><ele>278.0</ele><time>2026-04-26T09:06:13.999Z</time></trkpt><trkpt lat="47.15032466844947" lon="3.1111668736251543"><ele>277.6666666666667</ele><time>2026-04-26T09:06:15.999Z</time></trkpt><trkpt lat="47.15032034781525" lon="3.1110399535232953"><ele>277.33333333333337</ele><time>2026-04-26T09:06:17.999Z</time></trkpt><trkpt lat="47.15028821490873" lon="3.110873113486555"><ele>277.0</ele><time>2026-04-26T09:06:20.999Z</time></trkpt><trkpt lat="47.15027730827078" lon="3.110741566007799"><ele>276.6666666666667</ele><time>2026-04-26T09:06:22.999Z</time></trkpt><trkpt lat="47.15025897125772" lon="3.110634155347897"><ele>276.3333333333333</ele><time>2026-04-26T09:06:24.999Z</time></trkpt><trkpt lat="47.150242538886005" lon="3.110536711396342"><ele>276.0</ele><time>2026-04-26T09:06:26.999Z</time></trkpt><trkpt lat="47.150223479682424" lon="3.110430047990363"><ele>275.5</ele><time>2026-04-26T09:06:28.999Z</time></trkpt><trkpt lat="47.15022055536958" lon="3.1103286167766058"><ele>275.0</ele><time>2026-04-26T09:06:30.999Z</time></trkpt><trkpt lat="47.15020410470879" lon="3.110199094399873"><ele>274.5</ele><time>2026-04-26T09:06:33.999Z</time></trkpt><trkpt lat="47.150181387531326" lon="3.1101113770020485"><ele>274.0</ele><time>2026-04-26T09:06:35.999Z</time></trkpt><trkpt lat="47.150155737518055" lon="3.1100253425476585"><ele>273.5</ele><time>2026-04-26T09:06:36.999Z</time></trkpt><trkpt lat="47.150156387323925" lon="3.1098885460562737"><ele>273.0</ele><time>2026-04-26T09:06:38.999Z</time></trkpt><trkpt lat="47.15010489621932" lon="3.1098034824841325"><ele>273.0</ele><time>2026-04-26T09:06:40.999Z</time></trkpt><trkpt lat="47.15003425611719" lon="3.109827156670983"><ele>273.0</ele><time>2026-04-26T09:06:43.999Z</time></trkpt><trkpt lat="47.1500124491196" lon="3.1099204285386257"><ele>273.0</ele><time>2026-04-26T09:06:45.999Z</time></trkpt><trkpt lat="47.14996483842897" lon="3.109993643057053"><ele>273.0</ele><time>2026-04-26T09:06:48.999Z</time></trkpt><trkpt lat="47.14994913679087" lon="3.1100884099364907"><ele>273.0</ele><time>2026-04-26T09:06:51.999Z</time></trkpt><trkpt lat="47.14990329382476" lon="3.110163802919958"><ele>273.0</ele><time>2026-04-26T09:06:54.999Z</time></trkpt><trkpt lat="47.149869388810316" lon="3.110258117165675"><ele>273.0</ele><time>2026-04-26T09:06:59Z</time></trkpt><trkpt lat="47.14983599480162" lon="3.110358724714977"><ele>273.14285714285717</ele><time>2026-04-26T09:07:03Z</time></trkpt><trkpt lat="47.14979063234244" lon="3.1104437173245723"><ele>273.2857142857143</ele><time>2026-04-26T09:07:06Z</time></trkpt><trkpt lat="47.14974730529929" lon="3.110525711925883"><ele>273.42857142857144</ele><time>2026-04-26T09:07:10Z</time></trkpt><trkpt lat="47.14970547439104" lon="3.1106043764822964"><ele>273.57142857142856</ele><time>2026-04-26T09:07:25Z</time></trkpt><trkpt lat="47.14966241257379" lon="3.1106817367035204"><ele>273.7142857142857</ele><time>2026-04-26T09:07:28Z</time></trkpt><trkpt lat="47.14963689070161" lon="3.1107794959046364"><ele>273.8571428571429</ele><time>2026-04-26T09:07:32Z</time></trkpt><trkpt lat="47.1495946326548" lon="3.1108532641528397"><ele>274.0</ele><time>2026-04-26T09:07:35Z</time></trkpt><trkpt lat="47.149545072373485" lon="3.1109519764707354"><ele>274.5</ele><time>2026-04-26T09:07:39Z</time></trkpt><trkpt lat="47.149490259451454" lon="3.1110364884561483"><ele>275.0</ele><time>2026-04-26T09:07:43Z</time></trkpt><trkpt lat="47.14943640086316" lon="3.111139192699135"><ele>275.5</ele><time>2026-04-26T09:07:47Z</time></trkpt><trkpt lat="47.14938614229436" lon="3.111238791935841"><ele>276.0</ele><time>2026-04-26T09:07:51Z</time></trkpt><trkpt lat="47.149347591377065" lon="3.111314353451235"><ele>276.5</ele><time>2026-04-26T09:07:54Z</time></trkpt><trkpt lat="47.149268220446544" lon="3.1113634365023115"><ele>277.0</ele><time>2026-04-26T09:08:14.999Z</time></trkpt><trkpt lat="47.14923240408113" lon="3.1114729640992063"><ele>277.42857142857144</ele><time>2026-04-26T09:08:18.999Z</time></trkpt><trkpt lat="47.14919445116863" lon="3.1115808456663636"><ele>277.85714285714283</ele><time>2026-04-26T09:08:22.999Z</time></trkpt><trkpt lat="47.14915391512155" lon="3.1116562111923995"><ele>278.2857142857143</ele><time>2026-04-26T09:08:25.999Z</time></trkpt><trkpt lat="47.14911028960004" lon="3.1117396992788358"><ele>278.7142857142857</ele><time>2026-04-26T09:08:29.999Z</time></trkpt><trkpt lat="47.149074505665844" lon="3.111830035515467"><ele>279.1428571428571</ele><time>2026-04-26T09:08:32.999Z</time></trkpt><trkpt lat="47.14902172707174" lon="3.1119153117332052"><ele>279.57142857142856</ele><time>2026-04-26T09:08:35.999Z</time></trkpt><trkpt lat="47.14897862697846" lon="3.1120003108834275"><ele>280.0</ele><time>2026-04-26T09:08:38.999Z</time></trkpt><trkpt lat="47.14893477120747" lon="3.1120926277250254"><ele>280.0</ele><time>2026-04-26T09:08:41.999Z</time></trkpt><trkpt lat="47.14889459907825" lon="3.112166769135913"><ele>280.0</ele><time>2026-04-26T09:08:44.999Z</time></trkpt><trkpt lat="47.1488508107921" lon="3.112263076617573"><ele>280.0</ele><time>2026-04-26T09:08:47.999Z</time></trkpt><trkpt lat="47.14880857334362" lon="3.1123552510213233"><ele>280.0</ele><time>2026-04-26T09:08:50.999Z</time></trkpt><trkpt lat="47.148758921824275" lon="3.112435852893972"><ele>280.0</ele><time>2026-04-26T09:08:53.999Z</time></trkpt><trkpt lat="47.14871614932184" lon="3.1125273612743323"><ele>280.0</ele><time>2026-04-26T09:08:56.999Z</time></trkpt><trkpt lat="47.14866423522" lon="3.1126260031154716"><ele>280.5</ele><time>2026-04-26T09:08:59.999Z</time></trkpt><trkpt lat="47.14862112739276" lon="3.112727434008142"><ele>281.0</ele><time>2026-04-26T09:09:02.999Z</time></trkpt><trkpt lat="47.14857179996259" lon="3.112830284636586"><ele>281.5</ele><time>2026-04-26T09:09:07Z</time></trkpt><trkpt lat="47.14853738583827" lon="3.1129183281570714"><ele>282.0</ele><time>2026-04-26T09:09:10Z</time></trkpt><trkpt lat="47.14849460550141" lon="3.112996501663279"><ele>282.5</ele><time>2026-04-26T09:09:13Z</time></trkpt><trkpt lat="47.1484390231782" lon="3.1130503128012057"><ele>283.0</ele><time>2026-04-26T09:09:15Z</time></trkpt><trkpt lat="47.14838947940257" lon="3.1131542791717"><ele>283.0</ele><time>2026-04-26T09:09:18Z</time></trkpt><trkpt lat="47.148344106407485" lon="3.1132611638266283"><ele>283.0</ele><time>2026-04-26T09:09:21Z</time></trkpt><trkpt lat="47.148303766989024" lon="3.1133335895983745"><ele>283.0</ele><time>2026-04-26T09:09:24Z</time></trkpt><trkpt lat="47.148247153598646" lon="3.113449893487555"><ele>283.0</ele><time>2026-04-26T09:09:27Z</time></trkpt><trkpt lat="47.14821847376608" lon="3.113539640430918"><ele>283.0</ele><time>2026-04-26T09:09:31Z</time></trkpt><trkpt lat="47.14816054269616" lon="3.1136264169310888"><ele>283.0</ele><time>2026-04-26T09:09:34Z</time></trkpt><trkpt lat="47.148107906069846" lon="3.1137059110792067"><ele>283.0</ele><time>2026-04-26T09:09:37Z</time></trkpt><trkpt lat="47.1480674435271" lon="3.1137924768010192"><ele>283.0</ele><time>2026-04-26T09:09:40Z</time></trkpt><trkpt lat="47.14802858714592" lon="3.113892446867344"><ele>283.0</ele><time>2026-04-26T09:09:43Z</time></trkpt><trkpt lat="47.14799021691268" lon="3.113979131166694"><ele>283.0</ele><time>2026-04-26T09:09:47Z</time></trkpt><trkpt lat="47.14794022474983" lon="3.114051330146139"><ele>283.0</ele><time>2026-04-26T09:09:51Z</time></trkpt><trkpt lat="47.14786193387291" lon="3.1140405012026693"><ele>283.0</ele><time>2026-04-26T09:09:54Z</time></trkpt><trkpt lat="47.14779145613848" lon="3.113996411448912"><ele>283.0</ele><time>2026-04-26T09:09:57Z</time></trkpt><trkpt lat="47.14772612411141" lon="3.113945180495173"><ele>283.0</ele><time>2026-04-26T09:10:00Z</time></trkpt><trkpt lat="47.14766697073252" lon="3.113903017004021"><ele>283.0</ele><time>2026-04-26T09:10:02Z</time></trkpt><trkpt lat="47.147613725341195" lon="3.113846721839838"><ele>283.0</ele><time>2026-04-26T09:10:04Z</time></trkpt><trkpt lat="47.14754880358969" lon="3.1138083696555143"><ele>283.0</ele><time>2026-04-26T09:10:05.999Z</time></trkpt><trkpt lat="47.14749201424326" lon="3.113750162842727"><ele>283.0</ele><time>2026-04-26T09:10:07.999Z</time></trkpt><trkpt lat="47.147429617215195" lon="3.113666753662146"><ele>283.0</ele><time>2026-04-26T09:10:09.999Z</time></trkpt><trkpt lat="47.14733434157854" lon="3.1135837893232297"><ele>283.0</ele><time>2026-04-26T09:10:11.999Z</time></trkpt><trkpt lat="47.14725590567908" lon="3.113500906655068"><ele>283.0</ele><time>2026-04-26T09:10:13.999Z</time></trkpt><trkpt lat="47.14715871338618" lon="3.11340693450425"><ele>283.0</ele><time>2026-04-26T09:10:15.999Z</time></trkpt><trkpt lat="47.147072220346395" lon="3.1133098747200596"><ele>283.0</ele><time>2026-04-26T09:10:17.999Z</time></trkpt><trkpt lat="47.14702857184584" lon="3.1132261508239023"><ele>283.0</ele><time>2026-04-26T09:10:18.999Z</time></trkpt><trkpt lat="47.14692894671917" lon="3.1131868688496707"><ele>281.16666666666663</ele><time>2026-04-26T09:10:20.999Z</time></trkpt><trkpt lat="47.146863164731" lon="3.1130811808089356"><ele>279.3333333333333</ele><time>2026-04-26T09:10:22.999Z</time></trkpt><trkpt lat="47.14680355016194" lon="3.1129956762920656"><ele>277.5</ele><time>2026-04-26T09:10:24.999Z</time></trkpt><trkpt lat="47.1467241196702" lon="3.1129619893413523"><ele>275.6666666666667</ele><time>2026-04-26T09:10:26.999Z</time></trkpt><trkpt lat="47.146657828717494" lon="3.112879289688483"><ele>273.83333333333337</ele><time>2026-04-26T09:10:28.999Z</time></trkpt><trkpt lat="47.14658826182566" lon="3.1128014773476793"><ele>272.0</ele><time>2026-04-26T09:10:30.999Z</time></trkpt><trkpt lat="47.14651948205073" lon="3.112694798089195"><ele>271.33333333333337</ele><time>2026-04-26T09:10:32.999Z</time></trkpt><trkpt lat="47.14644399196636" lon="3.1126219134563797"><ele>270.6666666666667</ele><time>2026-04-26T09:10:34.999Z</time></trkpt><trkpt lat="47.14636638024692" lon="3.112547297023947"><ele>270.0</ele><time>2026-04-26T09:10:36.999Z</time></trkpt><trkpt lat="47.14629823092503" lon="3.1124600522283514"><ele>269.3333333333333</ele><time>2026-04-26T09:10:38.999Z</time></trkpt><trkpt lat="47.14622374860309" lon="3.112375651397271"><ele>268.66666666666663</ele><time>2026-04-26T09:10:40.999Z</time></trkpt><trkpt lat="47.146163059301806" lon="3.112334995673346"><ele>268.0</ele><time>2026-04-26T09:10:42.999Z</time></trkpt><trkpt lat="47.14610023255923" lon="3.112281218035238"><ele>265.8</ele><time>2026-04-26T09:10:44.999Z</time></trkpt><trkpt lat="47.14602984581207" lon="3.1122091756803596"><ele>263.6</ele><time>2026-04-26T09:10:46.999Z</time></trkpt><trkpt lat="47.14594789238451" lon="3.1121394931972746"><ele>261.4</ele><time>2026-04-26T09:10:48.999Z</time></trkpt><trkpt lat="47.145865372280625" lon="3.112044035260749"><ele>259.2</ele><time>2026-04-26T09:10:50.999Z</time></trkpt><trkpt lat="47.145798154930226" lon="3.111934038481887"><ele>257.0</ele><time>2026-04-26T09:10:52.999Z</time></trkpt><trkpt lat="47.145702622870076" lon="3.111872130251391"><ele>256.83333333333337</ele><time>2026-04-26T09:10:54.999Z</time></trkpt><trkpt lat="47.145647211426855" lon="3.111792376279133"><ele>256.6666666666667</ele><time>2026-04-26T09:10:57.999Z</time></trkpt><trkpt lat="47.145591622008546" lon="3.1116975145170556"><ele>256.5</ele><time>2026-04-26T09:10:59.999Z</time></trkpt><trkpt lat="47.145560065302014" lon="3.111611683483715"><ele>256.3333333333333</ele><time>2026-04-26T09:11:01.999Z</time></trkpt><trkpt lat="47.145580260038685" lon="3.111446945112107"><ele>256.16666666666663</ele><time>2026-04-26T09:11:03.999Z</time></trkpt><trkpt lat="47.14561364322866" lon="3.111333725956014"><ele>256.0</ele><time>2026-04-26T09:11:05.999Z</time></trkpt><trkpt lat="47.14567590823402" lon="3.1112102274599924"><ele>255.4</ele><time>2026-04-26T09:11:07.999Z</time></trkpt><trkpt lat="47.1457409471189" lon="3.1111123139664913"><ele>254.8</ele><time>2026-04-26T09:11:10Z</time></trkpt><trkpt lat="47.14581609981313" lon="3.1109751860983605"><ele>254.20000000000002</ele><time>2026-04-26T09:11:12Z</time></trkpt><trkpt lat="47.145872161873314" lon="3.1108388965723948"><ele>253.60000000000002</ele><time>2026-04-26T09:11:14Z</time></trkpt><trkpt lat="47.14592928795687" lon="3.110718478979417"><ele>253.0</ele><time>2026-04-26T09:11:16Z</time></trkpt><trkpt lat="47.14598637091681" lon="3.1105672052483992"><ele>252.99999999999997</ele><time>2026-04-26T09:11:18Z</time></trkpt><trkpt lat="47.14603566734856" lon="3.1104267183712806"><ele>253.0</ele><time>2026-04-26T09:11:20Z</time></trkpt><trkpt lat="47.14608527819237" lon="3.110358082837925"><ele>253.0</ele><time>2026-04-26T09:11:21Z</time></trkpt><trkpt lat="47.146148685007404" lon="3.1102475157723655"><ele>253.0</ele><time>2026-04-26T09:11:23Z</time></trkpt><trkpt lat="47.14620883459842" lon="3.110172860727752"><ele>252.99999999999997</ele><time>2026-04-26T09:11:25Z</time></trkpt><trkpt lat="47.14624588272558" lon="3.1100923524346498"><ele>253.0</ele><time>2026-04-26T09:11:26Z</time></trkpt><trkpt lat="47.14629580527966" lon="3.1100025733400867"><ele>252.49999999999997</ele><time>2026-04-26T09:11:29Z</time></trkpt><trkpt lat="47.1462694247591" lon="3.1098805839812447"><ele>252.0</ele><time>2026-04-26T09:11:32Z</time></trkpt><trkpt lat="47.14620030056321" lon="3.1098356207761153"><ele>251.5</ele><time>2026-04-26T09:11:35Z</time></trkpt><trkpt lat="47.14615780286887" lon="3.1097547040751845"><ele>251.0</ele><time>2026-04-26T09:11:37Z</time></trkpt><trkpt lat="47.146061722176086" lon="3.1097085192694705"><ele>250.49999999999997</ele><time>2026-04-26T09:11:39Z</time></trkpt><trkpt lat="47.14597497048435" lon="3.1096157742241326"><ele>250.0</ele><time>2026-04-26T09:11:40Z</time></trkpt><trkpt lat="47.14586495797744" lon="3.109532324210319"><ele>250.0</ele><time>2026-04-26T09:11:42Z</time></trkpt><trkpt lat="47.145808706725845" lon="3.109456927059725"><ele>250.0</ele><time>2026-04-26T09:11:43Z</time></trkpt><trkpt lat="47.14575269563906" lon="3.109403789737703"><ele>250.0</ele><time>2026-04-26T09:11:44Z</time></trkpt><trkpt lat="47.14567754491859" lon="3.1093164523509507"><ele>250.0</ele><time>2026-04-26T09:11:46Z</time></trkpt><trkpt lat="47.14557716112323" lon="3.109199484887889"><ele>250.0</ele><time>2026-04-26T09:11:48Z</time></trkpt><trkpt lat="47.14549613754459" lon="3.1091466308012703"><ele>252.83333333333331</ele><time>2026-04-26T09:11:50Z</time></trkpt><trkpt lat="47.14544996452362" lon="3.109064648609316"><ele>255.66666666666666</ele><time>2026-04-26T09:11:53Z</time></trkpt><trkpt lat="47.14538508358259" lon="3.109027081965255"><ele>258.5</ele><time>2026-04-26T09:11:56Z</time></trkpt><trkpt lat="47.14532420738159" lon="3.1089627608495443"><ele>261.3333333333333</ele><time>2026-04-26T09:11:59Z</time></trkpt><trkpt lat="47.14524710948139" lon="3.1089009846366187"><ele>264.1666666666667</ele><time>2026-04-26T09:12:03Z</time></trkpt><trkpt lat="47.145174395859236" lon="3.108851552763397"><ele>267.0</ele><time>2026-04-26T09:12:20.999Z</time></trkpt><trkpt lat="47.14510168028608" lon="3.108852171008723"><ele>267.00000000000006</ele><time>2026-04-26T09:12:24.999Z</time></trkpt><trkpt lat="47.1450384087504" lon="3.1088792138287094"><ele>267.0</ele><time>2026-04-26T09:12:27.999Z</time></trkpt><trkpt lat="47.14496487119879" lon="3.108909192209304"><ele>267.0</ele><time>2026-04-26T09:12:30.999Z</time></trkpt><trkpt lat="47.14491730026337" lon="3.108990824249428"><ele>267.0</ele><time>2026-04-26T09:12:35.999Z</time></trkpt><trkpt lat="47.144822450045154" lon="3.1090312280529107"><ele>267.0</ele><time>2026-04-26T09:13:08.999Z</time></trkpt><trkpt lat="47.14477738037778" lon="3.109098561854568"><ele>267.00000000000006</ele><time>2026-04-26T09:13:13.999Z</time></trkpt><trkpt lat="47.14472837315631" lon="3.1091612329999787"><ele>267.0</ele><time>2026-04-26T09:13:17Z</time></trkpt><trkpt lat="47.144674605877796" lon="3.1092382708100095"><ele>268.7142857142857</ele><time>2026-04-26T09:13:22Z</time></trkpt><trkpt lat="47.14462913214057" lon="3.109307821092188"><ele>270.42857142857144</ele><time>2026-04-26T09:13:25Z</time></trkpt><trkpt lat="47.14458619975758" lon="3.109390863475207"><ele>272.1428571428571</ele><time>2026-04-26T09:13:29Z</time></trkpt><trkpt lat="47.144548598233285" lon="3.1094842639234073"><ele>273.8571428571429</ele><time>2026-04-26T09:13:34Z</time></trkpt><trkpt lat="47.144506257192084" lon="3.109576668310525"><ele>275.57142857142856</ele><time>2026-04-26T09:13:39Z</time></trkpt><trkpt lat="47.14446272070536" lon="3.1096492576929564"><ele>277.2857142857143</ele><time>2026-04-26T09:13:44Z</time></trkpt><trkpt lat="47.144419993868254" lon="3.109720009311402"><ele>279.0</ele><time>2026-04-26T09:13:51Z</time></trkpt><trkpt lat="47.14436376481303" lon="3.1097819074912323"><ele>278.99999999999994</ele><time>2026-04-26T09:13:54Z</time></trkpt><trkpt lat="47.14431843254879" lon="3.1098809426748133"><ele>279.0</ele><time>2026-04-26T09:14:00Z</time></trkpt><trkpt lat="47.14429234642103" lon="3.1099860523886864"><ele>279.0</ele><time>2026-04-26T09:14:05Z</time></trkpt><trkpt lat="47.14428120777685" lon="3.110094451409859"><ele>279.0</ele><time>2026-04-26T09:14:11Z</time></trkpt><trkpt lat="47.14424396220635" lon="3.1101727734473017"><ele>279.0</ele><time>2026-04-26T09:14:15.999Z</time></trkpt><trkpt lat="47.14421704624726" lon="3.1102608977960338"><ele>278.99999999999994</ele><time>2026-04-26T09:14:20.999Z</time></trkpt><trkpt lat="47.14419636083925" lon="3.1103607989551927"><ele>279.0</ele><time>2026-04-26T09:14:26.999Z</time></trkpt><trkpt lat="47.1441684627532" lon="3.1104625918816273"><ele>278.2857142857143</ele><time>2026-04-26T09:14:31.999Z</time></trkpt><trkpt lat="47.144129911316774" lon="3.1105445635608917"><ele>277.57142857142856</ele><time>2026-04-26T09:14:35.999Z</time></trkpt><trkpt lat="47.14409510013743" lon="3.1106232138064724"><ele>276.8571428571429</ele><time>2026-04-26T09:14:39.999Z</time></trkpt><trkpt lat="47.14402302456008" lon="3.110674915443543"><ele>276.1428571428571</ele><time>2026-04-26T09:14:44.999Z</time></trkpt><trkpt lat="47.143955724847" lon="3.11068205698023"><ele>275.42857142857144</ele><time>2026-04-26T09:14:48.999Z</time></trkpt><trkpt lat="47.14389536376436" lon="3.1106335493645636"><ele>274.7142857142857</ele><time>2026-04-26T09:14:53.999Z</time></trkpt><trkpt lat="47.14386872087717" lon="3.110546443211565"><ele>274.0</ele><time>2026-04-26T09:14:58.999Z</time></trkpt><trkpt lat="47.143846828790586" lon="3.110457978313733"><ele>276.16666666666663</ele><time>2026-04-26T09:15:04.999Z</time></trkpt><trkpt lat="47.14384761685548" lon="3.1103464419966222"><ele>278.3333333333333</ele><time>2026-04-26T09:15:10.999Z</time></trkpt><trkpt lat="47.14386515586946" lon="3.1102505083245027"><ele>280.5</ele><time>2026-04-26T09:15:14.999Z</time></trkpt><trkpt lat="47.143869580008" lon="3.110135045013823"><ele>282.6666666666667</ele><time>2026-04-26T09:15:20.999Z</time></trkpt><trkpt lat="47.14387615949421" lon="3.110011297401371"><ele>284.83333333333337</ele><time>2026-04-26T09:15:25Z</time></trkpt><trkpt lat="47.143887433922615" lon="3.1099006377638148"><ele>287.0</ele><time>2026-04-26T09:15:28Z</time></trkpt><trkpt lat="47.143887460499954" lon="3.1098010780746224"><ele>287.0</ele><time>2026-04-26T09:15:31Z</time></trkpt><trkpt lat="47.143895378807116" lon="3.1096543856165453"><ele>287.0</ele><time>2026-04-26T09:15:35Z</time></trkpt><trkpt lat="47.143900803772205" lon="3.1095594312109767"><ele>287.0</ele><time>2026-04-26T09:15:38Z</time></trkpt><trkpt lat="47.1439308722691" lon="3.1094305653481147"><ele>287.0</ele><time>2026-04-26T09:16:19Z</time></trkpt><trkpt lat="47.143919192701375" lon="3.109315012279124"><ele>287.0</ele><time>2026-04-26T09:16:22.999Z</time></trkpt><trkpt lat="47.143888022834325" lon="3.1092332733883996"><ele>287.0</ele><time>2026-04-26T09:16:25.999Z</time></trkpt><trkpt lat="47.14387621183598" lon="3.1091418301260627"><ele>287.0</ele><time>2026-04-26T09:16:28.999Z</time></trkpt><trkpt lat="47.14386430922562" lon="3.109036472697513"><ele>287.0</ele><time>2026-04-26T09:16:31.999Z</time></trkpt><trkpt lat="47.1438281548187" lon="3.1089393656454845"><ele>287.0</ele><time>2026-04-26T09:16:35.999Z</time></trkpt><trkpt lat="47.14380687547276" lon="3.1088286601387787"><ele>287.0</ele><time>2026-04-26T09:16:39.999Z</time></trkpt><trkpt lat="47.143809583433786" lon="3.1087153418557514"><ele>287.0</ele><time>2026-04-26T09:16:43.999Z</time></trkpt><trkpt lat="47.14377347424327" lon="3.1086128215742357"><ele>287.0</ele><time>2026-04-26T09:16:47.999Z</time></trkpt><trkpt lat="47.14375380765469" lon="3.108500958066316"><ele>287.0</ele><time>2026-04-26T09:16:51.999Z</time></trkpt><trkpt lat="47.14371173563822" lon="3.108376621344594"><ele>287.0</ele><time>2026-04-26T09:16:56.999Z</time></trkpt><trkpt lat="47.143682170903055" lon="3.1082793758515095"><ele>287.0</ele><time>2026-04-26T09:17:00.999Z</time></trkpt><trkpt lat="47.14362668276391" lon="3.108198612393018"><ele>287.0</ele><time>2026-04-26T09:17:04.999Z</time></trkpt><trkpt lat="47.14357688706452" lon="3.108123300318142"><ele>287.0</ele><time>2026-04-26T09:17:08.999Z</time></trkpt><trkpt lat="47.143518204644664" lon="3.108068254372097"><ele>287.0</ele><time>2026-04-26T09:17:12.999Z</time></trkpt><trkpt lat="47.14345077353842" lon="3.108023751079629"><ele>286.7142857142857</ele><time>2026-04-26T09:17:16.999Z</time></trkpt><trkpt lat="47.14339069696867" lon="3.1079800795621564"><ele>286.42857142857144</ele><time>2026-04-26T09:17:20.999Z</time></trkpt><trkpt lat="47.14332987411069" lon="3.1079535712296646"><ele>286.1428571428571</ele><time>2026-04-26T09:17:23.999Z</time></trkpt><trkpt lat="47.14325197887322" lon="3.1079263400037456"><ele>285.8571428571429</ele><time>2026-04-26T09:17:28Z</time></trkpt><trkpt lat="47.14318474912982" lon="3.107921958221573"><ele>285.57142857142856</ele><time>2026-04-26T09:17:31Z</time></trkpt><trkpt lat="47.14312003149714" lon="3.1079234706942103"><ele>285.2857142857143</ele><time>2026-04-26T09:17:34Z</time></trkpt><trkpt lat="47.14304791869811" lon="3.1079241551755783"><ele>285.0</ele><time>2026-04-26T09:17:37Z</time></trkpt><trkpt lat="47.14296027069047" lon="3.107940507742654"><ele>285.0</ele><time>2026-04-26T09:17:40Z</time></trkpt><trkpt lat="47.142882330432286" lon="3.107951509678302"><ele>285.0</ele><time>2026-04-26T09:17:43Z</time></trkpt><trkpt lat="47.142806223432586" lon="3.1079734750360517"><ele>285.0</ele><time>2026-04-26T09:17:47Z</time></trkpt><trkpt lat="47.142733787254" lon="3.1079855729920975"><ele>285.0</ele><time>2026-04-26T09:17:49Z</time></trkpt><trkpt lat="47.14265317847142" lon="3.10801039198812"><ele>285.0</ele><time>2026-04-26T09:17:52Z</time></trkpt><trkpt lat="47.14257507020661" lon="3.1080239053872236"><ele>285.0</ele><time>2026-04-26T09:17:55Z</time></trkpt><trkpt lat="47.142498605000355" lon="3.1080519755205342"><ele>285.0</ele><time>2026-04-26T09:17:58Z</time></trkpt><trkpt lat="47.142413342123035" lon="3.1080855350051046"><ele>285.0</ele><time>2026-04-26T09:18:01Z</time></trkpt><trkpt lat="47.14234235626182" lon="3.108101223256453"><ele>285.0</ele><time>2026-04-26T09:18:04Z</time></trkpt><trkpt lat="47.14227521345803" lon="3.1081032455973436"><ele>285.0</ele><time>2026-04-26T09:18:07Z</time></trkpt><trkpt lat="47.14217626258324" lon="3.1081224241629424"><ele>285.0</ele><time>2026-04-26T09:18:10Z</time></trkpt><trkpt lat="47.14211194426007" lon="3.108125541729081"><ele>285.0</ele><time>2026-04-26T09:18:12Z</time></trkpt><trkpt lat="47.142018892221294" lon="3.1081373738760982"><ele>284.85714285714283</ele><time>2026-04-26T09:18:15Z</time></trkpt><trkpt lat="47.14194588102486" lon="3.1081487869388544"><ele>284.7142857142857</ele><time>2026-04-26T09:18:17Z</time></trkpt><trkpt lat="47.14187873723751" lon="3.108154784484365"><ele>284.57142857142856</ele><time>2026-04-26T09:18:19Z</time></trkpt><trkpt lat="47.1417986792307" lon="3.108163649770499"><ele>284.42857142857144</ele><time>2026-04-26T09:18:21Z</time></trkpt><trkpt lat="47.14173355797357" lon="3.10816230145931"><ele>284.2857142857143</ele><time>2026-04-26T09:18:22.999Z</time></trkpt><trkpt lat="47.14167238902656" lon="3.1081905920018684"><ele>284.1428571428571</ele><time>2026-04-26T09:18:24.999Z</time></trkpt><trkpt lat="47.141578749356135" lon="3.1081843838862713"><ele>284.0</ele><time>2026-04-26T09:18:26.999Z</time></trkpt><trkpt lat="47.14150046290746" lon="3.1081848026282293"><ele>283.1666666666667</ele><time>2026-04-26T09:18:28.999Z</time></trkpt><trkpt lat="47.14142320809166" lon="3.1082028520372957"><ele>282.33333333333337</ele><time>2026-04-26T09:18:30.999Z</time></trkpt><trkpt lat="47.14134925028602" lon="3.108217001661391"><ele>281.5</ele><time>2026-04-26T09:18:32.999Z</time></trkpt><trkpt lat="47.14128610743705" lon="3.10823314127016"><ele>280.6666666666667</ele><time>2026-04-26T09:18:34.999Z</time></trkpt><trkpt lat="47.141192066808564" lon="3.1082406116764076"><ele>279.8333333333333</ele><time>2026-04-26T09:18:36.999Z</time></trkpt><trkpt lat="47.14108739356689" lon="3.108269905794807"><ele>279.0</ele><time>2026-04-26T09:18:39.999Z</time></trkpt><trkpt lat="47.14102201230283" lon="3.108289334815019"><ele>280.0</ele><time>2026-04-26T09:18:41.999Z</time></trkpt><trkpt lat="47.14093612627697" lon="3.1083130247780195"><ele>281.0</ele><time>2026-04-26T09:18:44.999Z</time></trkpt><trkpt lat="47.1408348190251" lon="3.108326963576288"><ele>282.0</ele><time>2026-04-26T09:18:46.999Z</time></trkpt><trkpt lat="47.14076234599317" lon="3.1083161288756576"><ele>283.0</ele><time>2026-04-26T09:18:48.999Z</time></trkpt><trkpt lat="47.140698964907656" lon="3.1083317728399256"><ele>284.0</ele><time>2026-04-26T09:18:50.999Z</time></trkpt><trkpt lat="47.14061718520743" lon="3.1083451071125587"><ele>285.0</ele><time>2026-04-26T09:18:52.999Z</time></trkpt><trkpt lat="47.140550198211876" lon="3.1083495713257663"><ele>285.0</ele><time>2026-04-26T09:18:54.999Z</time></trkpt><trkpt lat="47.14048467209196" lon="3.1083359869691365"><ele>285.0</ele><time>2026-04-26T09:18:56.999Z</time></trkpt><trkpt lat="47.14041852159566" lon="3.108309753535406"><ele>285.0</ele><time>2026-04-26T09:18:58.999Z</time></trkpt><trkpt lat="47.14032516347705" lon="3.108293773001119"><ele>285.0</ele><time>2026-04-26T09:19:01.999Z</time></trkpt><trkpt lat="47.140238767590624" lon="3.1082683963696787"><ele>285.0</ele><time>2026-04-26T09:19:04.999Z</time></trkpt><trkpt lat="47.14014854198546" lon="3.1082497743455484"><ele>285.0</ele><time>2026-04-26T09:19:07.999Z</time></trkpt><trkpt lat="47.1400596870994" lon="3.1082343778792225"><ele>285.0</ele><time>2026-04-26T09:19:10.999Z</time></trkpt><trkpt lat="47.139972149793905" lon="3.108211511393992"><ele>285.0</ele><time>2026-04-26T09:19:13.999Z</time></trkpt><trkpt lat="47.13988181701891" lon="3.108192004219636"><ele>285.0</ele><time>2026-04-26T09:19:16.999Z</time></trkpt><trkpt lat="47.139796443180835" lon="3.1081693605310092"><ele>285.0</ele><time>2026-04-26T09:19:19.999Z</time></trkpt><trkpt lat="47.13971019968697" lon="3.108150412690413"><ele>285.0</ele><time>2026-04-26T09:19:22.999Z</time></trkpt><trkpt lat="47.13961717632693" lon="3.108127502825168"><ele>285.0</ele><time>2026-04-26T09:19:26.999Z</time></trkpt><trkpt lat="47.139544827920616" lon="3.1081146602113527"><ele>285.0</ele><time>2026-04-26T09:19:29.999Z</time></trkpt><trkpt lat="47.13948184796657" lon="3.108097978439345"><ele>285.0</ele><time>2026-04-26T09:19:32.999Z</time></trkpt><trkpt lat="47.13941342996034" lon="3.108081273167851"><ele>285.0</ele><time>2026-04-26T09:19:36Z</time></trkpt><trkpt lat="47.13932664135977" lon="3.108058594848972"><ele>285.0</ele><time>2026-04-26T09:19:40Z</time></trkpt><trkpt lat="47.13924476505933" lon="3.1080215637520796"><ele>285.0</ele><time>2026-04-26T09:19:45Z</time></trkpt><trkpt lat="47.13916824394673" lon="3.107964776377788"><ele>285.0</ele><time>2026-04-26T09:19:49Z</time></trkpt><trkpt lat="47.13910424721386" lon="3.1078993405220423"><ele>284.8333333333333</ele><time>2026-04-26T09:19:55Z</time></trkpt><trkpt lat="47.13903626478408" lon="3.1078376221988204"><ele>284.6666666666667</ele><time>2026-04-26T09:19:59Z</time></trkpt><trkpt lat="47.13896577809124" lon="3.107776993047647"><ele>284.5</ele><time>2026-04-26T09:20:03Z</time></trkpt><trkpt lat="47.138900730352425" lon="3.1077284027597196"><ele>284.33333333333337</ele><time>2026-04-26T09:20:05Z</time></trkpt><trkpt lat="47.138831651429584" lon="3.107678531823527"><ele>284.1666666666667</ele><time>2026-04-26T09:20:07Z</time></trkpt><trkpt lat="47.13874859186257" lon="3.1076259569651876"><ele>284.0</ele><time>2026-04-26T09:20:09Z</time></trkpt><trkpt lat="47.13865104904037" lon="3.1075593741530976"><ele>284.0</ele><time>2026-04-26T09:20:11Z</time></trkpt><trkpt lat="47.138563620041374" lon="3.107495773181211"><ele>284.0</ele><time>2026-04-26T09:20:13Z</time></trkpt><trkpt lat="47.13848333038529" lon="3.1074570231760132"><ele>284.0</ele><time>2026-04-26T09:20:15Z</time></trkpt><trkpt lat="47.1383946277615" lon="3.107429520485708"><ele>284.0</ele><time>2026-04-26T09:20:17Z</time></trkpt><trkpt lat="47.138290455890385" lon="3.1074228880068206"><ele>284.0</ele><time>2026-04-26T09:20:19Z</time></trkpt><trkpt lat="47.13818869841896" lon="3.1073949217476544"><ele>283.5</ele><time>2026-04-26T09:20:21Z</time></trkpt><trkpt lat="47.13811687956985" lon="3.1073786433363213"><ele>283.0</ele><time>2026-04-26T09:20:24Z</time></trkpt><trkpt lat="47.138047813072156" lon="3.10734555656932"><ele>282.5</ele><time>2026-04-26T09:20:26Z</time></trkpt><trkpt lat="47.137962723071524" lon="3.107318008284606"><ele>282.0</ele><time>2026-04-26T09:20:27.999Z</time></trkpt><trkpt lat="47.1378958029797" lon="3.107319038502867"><ele>281.5</ele><time>2026-04-26T09:20:29.999Z</time></trkpt><trkpt lat="47.13784914876181" lon="3.107421598313893"><ele>281.0</ele><time>2026-04-26T09:20:32.999Z</time></trkpt><trkpt lat="47.13782674588492" lon="3.1075273679666857"><ele>281.00000000000006</ele><time>2026-04-26T09:20:35.999Z</time></trkpt><trkpt lat="47.13779499691633" lon="3.1076258025191854"><ele>281.0</ele><time>2026-04-26T09:20:38.999Z</time></trkpt><trkpt lat="47.13777708694036" lon="3.1077227001902927"><ele>281.0</ele><time>2026-04-26T09:20:41.999Z</time></trkpt><trkpt lat="47.137748602615375" lon="3.1078261783012544"><ele>281.0</ele><time>2026-04-26T09:20:44.999Z</time></trkpt><trkpt lat="47.13773218005435" lon="3.1079217893081865"><ele>281.0</ele><time>2026-04-26T09:20:47.999Z</time></trkpt><trkpt lat="47.13771226870478" lon="3.1080158309212957"><ele>281.00000000000006</ele><time>2026-04-26T09:20:50.999Z</time></trkpt><trkpt lat="47.1376734350374" lon="3.10810900542124"><ele>281.0</ele><time>2026-04-26T09:20:54.999Z</time></trkpt><trkpt lat="47.137641549370706" lon="3.108204934722697"><ele>281.42857142857144</ele><time>2026-04-26T09:20:58.999Z</time></trkpt><trkpt lat="47.137631129444514" lon="3.108310537299313"><ele>281.8571428571429</ele><time>2026-04-26T09:21:08.999Z</time></trkpt><trkpt lat="47.13760889090763" lon="3.1084065114181088"><ele>282.2857142857143</ele><time>2026-04-26T09:21:13.999Z</time></trkpt><trkpt lat="47.137582922217995" lon="3.108505443189583"><ele>282.7142857142857</ele><time>2026-04-26T09:21:18.999Z</time></trkpt><trkpt lat="47.13755655816786" lon="3.1086108912262973"><ele>283.1428571428571</ele><time>2026-04-26T09:21:23.999Z</time></trkpt><trkpt lat="47.13752758967234" lon="3.108694381886993"><ele>283.57142857142856</ele><time>2026-04-26T09:21:27.999Z</time></trkpt><trkpt lat="47.13749829527537" lon="3.108781820950092"><ele>284.0</ele><time>2026-04-26T09:21:31.999Z</time></trkpt><trkpt lat="47.13746882242376" lon="3.1088727259615916"><ele>284.0</ele><time>2026-04-26T09:21:35.999Z</time></trkpt><trkpt lat="47.137448527737156" lon="3.1089639130571602"><ele>284.0</ele><time>2026-04-26T09:21:40Z</time></trkpt><trkpt lat="47.13742947877589" lon="3.109069171379947"><ele>284.0</ele><time>2026-04-26T09:21:45Z</time></trkpt><trkpt lat="47.13740196068107" lon="3.1091721484874375"><ele>284.0</ele><time>2026-04-26T09:21:50Z</time></trkpt><trkpt lat="47.137386672485064" lon="3.1092702639245937"><ele>284.0</ele><time>2026-04-26T09:21:55Z</time></trkpt><trkpt lat="47.13736741344155" lon="3.109381315752308"><ele>284.0</ele><time>2026-04-26T09:22:01Z</time></trkpt><trkpt lat="47.137355464122074" lon="3.1094839767018247"><ele>284.0</ele><time>2026-04-26T09:22:06Z</time></trkpt><trkpt lat="47.137338366980366" lon="3.10959918330317"><ele>284.1428571428571</ele><time>2026-04-26T09:22:11Z</time></trkpt><trkpt lat="47.137325110671306" lon="3.1096907013562225"><ele>284.2857142857143</ele><time>2026-04-26T09:22:15Z</time></trkpt><trkpt lat="47.13730794766686" lon="3.109783506739599"><ele>284.42857142857144</ele><time>2026-04-26T09:22:20Z</time></trkpt><trkpt lat="47.137292990715146" lon="3.109886809649145"><ele>284.57142857142856</ele><time>2026-04-26T09:22:25Z</time></trkpt><trkpt lat="47.13729122541211" lon="3.109995671146034"><ele>284.7142857142857</ele><time>2026-04-26T09:22:30Z</time></trkpt><trkpt lat="47.137282829261615" lon="3.1101000290886875"><ele>284.85714285714283</ele><time>2026-04-26T09:22:34.999Z</time></trkpt><trkpt lat="47.13726999492618" lon="3.1101994313953347"><ele>285.0</ele><time>2026-04-26T09:22:38.999Z</time></trkpt><trkpt lat="47.13725567226566" lon="3.1103125362018553"><ele>285.85714285714283</ele><time>2026-04-26T09:22:43.999Z</time></trkpt><trkpt lat="47.137254665831534" lon="3.1104116239414044"><ele>286.7142857142857</ele><time>2026-04-26T09:22:48.999Z</time></trkpt><trkpt lat="47.13724589367947" lon="3.1105160200242046"><ele>287.57142857142856</ele><time>2026-04-26T09:22:53.999Z</time></trkpt><trkpt lat="47.13724235296197" lon="3.110609012201777"><ele>288.42857142857144</ele><time>2026-04-26T09:22:57.999Z</time></trkpt><trkpt lat="47.137235756924646" lon="3.110701184510748"><ele>289.2857142857143</ele><time>2026-04-26T09:23:01.999Z</time></trkpt><trkpt lat="47.137228206154745" lon="3.1108021816583595"><ele>290.1428571428571</ele><time>2026-04-26T09:23:05.999Z</time></trkpt><trkpt lat="47.137227368797255" lon="3.1109076116810543"><ele>291.0</ele><time>2026-04-26T09:23:10.999Z</time></trkpt><trkpt lat="47.13723294363787" lon="3.111006945363191"><ele>292.1428571428571</ele><time>2026-04-26T09:23:15.999Z</time></trkpt><trkpt lat="47.1372255224882" lon="3.111103484542437"><ele>293.2857142857143</ele><time>2026-04-26T09:23:19.999Z</time></trkpt><trkpt lat="47.13723088371767" lon="3.111210371636919"><ele>294.42857142857144</ele><time>2026-04-26T09:23:24.999Z</time></trkpt><trkpt lat="47.13721913342458" lon="3.1113072125289816"><ele>295.57142857142856</ele><time>2026-04-26T09:23:28.999Z</time></trkpt><trkpt lat="47.13722268456949" lon="3.111409834810737"><ele>296.7142857142857</ele><time>2026-04-26T09:23:33.999Z</time></trkpt><trkpt lat="47.13722269286277" lon="3.1115210085737046"><ele>297.85714285714283</ele><time>2026-04-26T09:23:36.999Z</time></trkpt><trkpt lat="47.137218529486006" lon="3.111623264788578"><ele>299.0</ele><time>2026-04-26T09:23:39.999Z</time></trkpt><trkpt lat="47.13721713027716" lon="3.1117235477040706"><ele>300.42857142857144</ele><time>2026-04-26T09:23:42.999Z</time></trkpt><trkpt lat="47.137214091889184" lon="3.1118206208791293"><ele>301.8571428571429</ele><time>2026-04-26T09:23:46Z</time></trkpt><trkpt lat="47.13721774014809" lon="3.111914818235452"><ele>303.28571428571433</ele><time>2026-04-26T09:23:49Z</time></trkpt><trkpt lat="47.13723035204235" lon="3.1120433403043823"><ele>304.7142857142857</ele><time>2026-04-26T09:23:53Z</time></trkpt><trkpt lat="47.13723853236395" lon="3.1121481448681654"><ele>306.14285714285717</ele><time>2026-04-26T09:23:58Z</time></trkpt><trkpt lat="47.13724300282437" lon="3.1122571071449405"><ele>307.5714285714286</ele><time>2026-04-26T09:24:01Z</time></trkpt><trkpt lat="47.13725306358193" lon="3.1123531039372674"><ele>309.0</ele><time>2026-04-26T09:24:06Z</time></trkpt><trkpt lat="47.13727098220895" lon="3.112451907882221"><ele>310.28571428571433</ele><time>2026-04-26T09:24:11Z</time></trkpt><trkpt lat="47.13729004448992" lon="3.1125627008022536"><ele>311.57142857142856</ele><time>2026-04-26T09:24:15Z</time></trkpt><trkpt lat="47.13730756969007" lon="3.1126695915556595"><ele>312.8571428571429</ele><time>2026-04-26T09:24:19Z</time></trkpt><trkpt lat="47.13732696099423" lon="3.112787864132804"><ele>314.14285714285717</ele><time>2026-04-26T09:24:23Z</time></trkpt><trkpt lat="47.13734185821926" lon="3.112878726137064"><ele>315.42857142857144</ele><time>2026-04-26T09:24:27Z</time></trkpt><trkpt lat="47.13735995580517" lon="3.1129913701843135"><ele>316.7142857142857</ele><time>2026-04-26T09:24:31Z</time></trkpt><trkpt lat="47.13737461198506" lon="3.1130853498831317"><ele>318.0</ele><time>2026-04-26T09:24:35Z</time></trkpt><trkpt lat="47.13736669156581" lon="3.113189089572486"><ele>318.1666666666667</ele><time>2026-04-26T09:24:37.999Z</time></trkpt><trkpt lat="47.13738277961468" lon="3.1132841857838276"><ele>318.3333333333333</ele><time>2026-04-26T09:24:40.999Z</time></trkpt><trkpt lat="47.13740446847488" lon="3.113405822263388"><ele>318.5</ele><time>2026-04-26T09:24:44.999Z</time></trkpt><trkpt lat="47.1374046669539" lon="3.1135129876404157"><ele>318.66666666666663</ele><time>2026-04-26T09:24:48.999Z</time></trkpt><trkpt lat="47.13743255258129" lon="3.1136455815471122"><ele>318.8333333333333</ele><time>2026-04-26T09:24:52.999Z</time></trkpt><trkpt lat="47.13745386296448" lon="3.113762379185751"><ele>319.0</ele><time>2026-04-26T09:24:55.999Z</time></trkpt><trkpt lat="47.13748378536702" lon="3.113890707341508"><ele>319.0</ele><time>2026-04-26T09:24:59.999Z</time></trkpt><trkpt lat="47.13749213151606" lon="3.1140126802192993"><ele>319.0</ele><time>2026-04-26T09:25:02.999Z</time></trkpt><trkpt lat="47.137504729292786" lon="3.114113712024345"><ele>319.0</ele><time>2026-04-26T09:25:05.999Z</time></trkpt><trkpt lat="47.137514233458226" lon="3.1142082711218606"><ele>319.0</ele><time>2026-04-26T09:25:07.999Z</time></trkpt><trkpt lat="47.13752801240047" lon="3.114335018948348"><ele>319.0</ele><time>2026-04-26T09:25:10.999Z</time></trkpt><trkpt lat="47.137542315843035" lon="3.1144610890288473"><ele>319.0</ele><time>2026-04-26T09:25:13.999Z</time></trkpt><trkpt lat="47.137572829617355" lon="3.114578805523892"><ele>319.0</ele><time>2026-04-26T09:25:16.999Z</time></trkpt><trkpt lat="47.137589488770196" lon="3.1146959213064833"><ele>319.0</ele><time>2026-04-26T09:25:19.999Z</time></trkpt><trkpt lat="47.13761159913557" lon="3.114827647405153"><ele>319.0</ele><time>2026-04-26T09:25:22.999Z</time></trkpt><trkpt lat="47.13762515267609" lon="3.114950921689025"><ele>319.0</ele><time>2026-04-26T09:25:25.999Z</time></trkpt><trkpt lat="47.13763665935589" lon="3.115050178576428"><ele>319.0</ele><time>2026-04-26T09:25:27.999Z</time></trkpt><trkpt lat="47.13766124565731" lon="3.115188313198075"><ele>319.0</ele><time>2026-04-26T09:25:30.999Z</time></trkpt><trkpt lat="47.137677863616574" lon="3.115330862643585"><ele>319.0</ele><time>2026-04-26T09:25:33.999Z</time></trkpt><trkpt lat="47.13769082911654" lon="3.115442829566212"><ele>319.0</ele><time>2026-04-26T09:25:35.999Z</time></trkpt><trkpt lat="47.13772306074991" lon="3.1155622504129266"><ele>319.0</ele><time>2026-04-26T09:25:37.999Z</time></trkpt><trkpt lat="47.13772400484597" lon="3.1156781974120866"><ele>319.0</ele><time>2026-04-26T09:25:39.999Z</time></trkpt><trkpt lat="47.137752733072865" lon="3.115822017722322"><ele>319.0</ele><time>2026-04-26T09:25:41.999Z</time></trkpt><trkpt lat="47.13777550527154" lon="3.115964025151584"><ele>319.0</ele><time>2026-04-26T09:25:43.999Z</time></trkpt><trkpt lat="47.137761210971796" lon="3.116118942877293"><ele>319.2</ele><time>2026-04-26T09:25:45.999Z</time></trkpt><trkpt lat="47.13776999501814" lon="3.1162859708846726"><ele>319.4</ele><time>2026-04-26T09:25:47.999Z</time></trkpt><trkpt lat="47.13776288015084" lon="3.116451955994273"><ele>319.6</ele><time>2026-04-26T09:25:49.999Z</time></trkpt><trkpt lat="47.137758597451324" lon="3.116626352701039"><ele>319.8</ele><time>2026-04-26T09:25:52Z</time></trkpt><trkpt lat="47.13777542457887" lon="3.1167170066838112"><ele>320.0</ele><time>2026-04-26T09:25:53Z</time></trkpt><trkpt lat="47.13776828584786" lon="3.116816387336611"><ele>319.6</ele><time>2026-04-26T09:25:54Z</time></trkpt><trkpt lat="47.13775614596437" lon="3.116914251101836"><ele>319.2</ele><time>2026-04-26T09:25:55Z</time></trkpt><trkpt lat="47.13775038962802" lon="3.1170075790244014"><ele>318.8</ele><time>2026-04-26T09:25:56Z</time></trkpt><trkpt lat="47.13774480644022" lon="3.1171904303597175"><ele>318.4</ele><time>2026-04-26T09:25:58Z</time></trkpt><trkpt lat="47.13773446808293" lon="3.117352680254465"><ele>318.0</ele><time>2026-04-26T09:26:00Z</time></trkpt><trkpt lat="47.13773521348291" lon="3.1175041276619764"><ele>317.0</ele><time>2026-04-26T09:26:02Z</time></trkpt><trkpt lat="47.13773319595606" lon="3.1176550142486232"><ele>316.0</ele><time>2026-04-26T09:26:04Z</time></trkpt><trkpt lat="47.13770747382849" lon="3.117811616069841"><ele>315.0</ele><time>2026-04-26T09:26:06Z</time></trkpt><trkpt lat="47.13770089081027" lon="3.1179542153975195"><ele>314.0</ele><time>2026-04-26T09:26:08Z</time></trkpt><trkpt lat="47.13766868464711" lon="3.1180911565185663"><ele>313.0</ele><time>2026-04-26T09:26:10Z</time></trkpt><trkpt lat="47.137633039481976" lon="3.118240757260311"><ele>312.3333333333333</ele><time>2026-04-26T09:26:12Z</time></trkpt><trkpt lat="47.13759789429413" lon="3.1184042370332796"><ele>311.66666666666663</ele><time>2026-04-26T09:26:14Z</time></trkpt><trkpt lat="47.13757988571618" lon="3.1185052527739168"><ele>311.0</ele><time>2026-04-26T09:26:15Z</time></trkpt><trkpt lat="47.137563622671564" lon="3.118600767003666"><ele>310.3333333333333</ele><time>2026-04-26T09:26:16Z</time></trkpt><trkpt lat="47.13753332307177" lon="3.1186993194654264"><ele>309.6666666666667</ele><time>2026-04-26T09:26:17Z</time></trkpt><trkpt lat="47.137520293217065" lon="3.11880903161538"><ele>309.0</ele><time>2026-04-26T09:26:18Z</time></trkpt><trkpt lat="47.13750597530239" lon="3.1189091511386478"><ele>309.00000000000006</ele><time>2026-04-26T09:26:19Z</time></trkpt><trkpt lat="47.13750525355603" lon="3.1190115668531857"><ele>309.0</ele><time>2026-04-26T09:26:20Z</time></trkpt><trkpt lat="47.137491475088964" lon="3.1191120578979925"><ele>309.0</ele><time>2026-04-26T09:26:21Z</time></trkpt><trkpt lat="47.13746851763207" lon="3.1192107370529962"><ele>309.0</ele><time>2026-04-26T09:26:22Z</time></trkpt><trkpt lat="47.13746928962396" lon="3.1193159264101444"><ele>309.0</ele><time>2026-04-26T09:26:23Z</time></trkpt><trkpt lat="47.13744757298305" lon="3.1194140285614256"><ele>309.00000000000006</ele><time>2026-04-26T09:26:24Z</time></trkpt><trkpt lat="47.137433611886834" lon="3.1195222814472245"><ele>309.0</ele><time>2026-04-26T09:26:25Z</time></trkpt><trkpt lat="47.1374215694397" lon="3.119621631308909"><ele>310.1666666666667</ele><time>2026-04-26T09:26:26Z</time></trkpt><trkpt lat="47.1374124154454" lon="3.1197269383493995"><ele>311.3333333333333</ele><time>2026-04-26T09:26:27Z</time></trkpt><trkpt lat="47.137401834601846" lon="3.1198225050944837"><ele>312.5</ele><time>2026-04-26T09:26:28Z</time></trkpt><trkpt lat="47.13738026531816" lon="3.1199130820921974"><ele>313.66666666666663</ele><time>2026-04-26T09:26:29Z</time></trkpt><trkpt lat="47.13735768569121" lon="3.120084678035726"><ele>314.8333333333333</ele><time>2026-04-26T09:26:31Z</time></trkpt><trkpt lat="47.13734785333339" lon="3.1201815347959485"><ele>316.0</ele><time>2026-04-26T09:26:32Z</time></trkpt><trkpt lat="47.13733881784832" lon="3.120367264307935"><ele>316.0</ele><time>2026-04-26T09:26:34Z</time></trkpt><trkpt lat="47.13734511081129" lon="3.1204609566307027"><ele>316.0</ele><time>2026-04-26T09:26:35Z</time></trkpt><trkpt lat="47.137364456087866" lon="3.12055313232518"><ele>316.0</ele><time>2026-04-26T09:26:36Z</time></trkpt><trkpt lat="47.137387941932" lon="3.1207202219882486"><ele>316.0</ele><time>2026-04-26T09:26:38Z</time></trkpt><trkpt lat="47.137417768104754" lon="3.1208535437495053"><ele>316.0</ele><time>2026-04-26T09:26:40Z</time></trkpt><trkpt lat="47.13741861844116" lon="3.1209731672684016"><ele>316.0</ele><time>2026-04-26T09:26:41.999Z</time></trkpt><trkpt lat="47.137345075195164" lon="3.121081580827839"><ele>315.3333333333333</ele><time>2026-04-26T09:26:43.999Z</time></trkpt><trkpt lat="47.13724997844429" lon="3.1211375155879284"><ele>314.66666666666663</ele><time>2026-04-26T09:26:45.999Z</time></trkpt><trkpt lat="47.13717856313272" lon="3.1211858297859836"><ele>314.0</ele><time>2026-04-26T09:26:47.999Z</time></trkpt><trkpt lat="47.13712264816112" lon="3.1212415476920454"><ele>313.3333333333333</ele><time>2026-04-26T09:26:49.999Z</time></trkpt><trkpt lat="47.13706171043612" lon="3.1212843473611915"><ele>312.6666666666667</ele><time>2026-04-26T09:26:51.999Z</time></trkpt><trkpt lat="47.13698707900516" lon="3.1213389651694867"><ele>312.0</ele><time>2026-04-26T09:26:54.999Z</time></trkpt><trkpt lat="47.13692390464317" lon="3.121371770246661"><ele>312.0</ele><time>2026-04-26T09:26:58.999Z</time></trkpt><trkpt lat="47.13686642778629" lon="3.1214194157372486"><ele>312.0</ele><time>2026-04-26T09:27:02.999Z</time></trkpt><trkpt lat="47.13679286518232" lon="3.12146583686661"><ele>312.0</ele><time>2026-04-26T09:27:06.999Z</time></trkpt><trkpt lat="47.136722317846285" lon="3.12150144657279"><ele>312.0</ele><time>2026-04-26T09:27:10.999Z</time></trkpt><trkpt lat="47.136662788085964" lon="3.1215414799941072"><ele>312.0</ele><time>2026-04-26T09:27:14.999Z</time></trkpt><trkpt lat="47.13659755523491" lon="3.1215711099763195"><ele>312.0</ele><time>2026-04-26T09:27:18.999Z</time></trkpt><trkpt lat="47.13653313537162" lon="3.1216071686400966"><ele>312.0</ele><time>2026-04-26T09:27:23.999Z</time></trkpt><trkpt lat="47.136475459214076" lon="3.121666847626369"><ele>313.42857142857144</ele><time>2026-04-26T09:27:31.999Z</time></trkpt><trkpt lat="47.13641187586409" lon="3.1217161248500154"><ele>314.85714285714283</ele><time>2026-04-26T09:27:35.999Z</time></trkpt><trkpt lat="47.136339789442005" lon="3.121754133339128"><ele>316.2857142857143</ele><time>2026-04-26T09:27:40.999Z</time></trkpt><trkpt lat="47.13626318457149" lon="3.121774239231733"><ele>317.7142857142857</ele><time>2026-04-26T09:27:45.999Z</time></trkpt><trkpt lat="47.13619781435096" lon="3.1218082407236696"><ele>319.1428571428571</ele><time>2026-04-26T09:27:51.999Z</time></trkpt><trkpt lat="47.1361314789662" lon="3.1218695000697236"><ele>320.57142857142856</ele><time>2026-04-26T09:27:59Z</time></trkpt><trkpt lat="47.1360692848672" lon="3.121912595521641"><ele>322.0</ele><time>2026-04-26T09:28:04Z</time></trkpt><trkpt lat="47.13600288556051" lon="3.1219446750923106"><ele>322.0</ele><time>2026-04-26T09:28:19Z</time></trkpt><trkpt lat="47.13594344206688" lon="3.1219811491388096"><ele>322.0</ele><time>2026-04-26T09:28:25Z</time></trkpt><trkpt lat="47.135877553614854" lon="3.1220286040391967"><ele>322.0</ele><time>2026-04-26T09:28:31Z</time></trkpt><trkpt lat="47.135812563090454" lon="3.122073892858021"><ele>322.0</ele><time>2026-04-26T09:28:45Z</time></trkpt><trkpt lat="47.13573991602456" lon="3.122116277581658"><ele>322.0</ele><time>2026-04-26T09:28:57.999Z</time></trkpt><trkpt lat="47.13567507897749" lon="3.1221396633820016"><ele>322.0</ele><time>2026-04-26T09:29:03.999Z</time></trkpt><trkpt lat="47.13561735845337" lon="3.122179369227731"><ele>322.0</ele><time>2026-04-26T09:29:07.999Z</time></trkpt><trkpt lat="47.135554322890165" lon="3.1222169759884197"><ele>322.42857142857144</ele><time>2026-04-26T09:29:12.999Z</time></trkpt><trkpt lat="47.1354856987092" lon="3.1222207616524025"><ele>322.8571428571429</ele><time>2026-04-26T09:29:20.999Z</time></trkpt><trkpt lat="47.13541706343032" lon="3.1222478989130713"><ele>323.2857142857143</ele><time>2026-04-26T09:29:36.999Z</time></trkpt><trkpt lat="47.13535749646268" lon="3.122294434224494"><ele>323.7142857142857</ele><time>2026-04-26T09:29:41.999Z</time></trkpt><trkpt lat="47.1352929587632" lon="3.122343755413589"><ele>324.14285714285717</ele><time>2026-04-26T09:29:47.999Z</time></trkpt><trkpt lat="47.13523210320843" lon="3.1223780960843115"><ele>324.57142857142856</ele><time>2026-04-26T09:29:53.999Z</time></trkpt><trkpt lat="47.135169005471404" lon="3.1224042961154996"><ele>325.0</ele><time>2026-04-26T09:29:59.999Z</time></trkpt><trkpt lat="47.135096483239906" lon="3.1224400787653077"><ele>325.0</ele><time>2026-04-26T09:30:05Z</time></trkpt><trkpt lat="47.13502371356527" lon="3.122470684412152"><ele>325.0</ele><time>2026-04-26T09:30:08Z</time></trkpt><trkpt lat="47.13494567186759" lon="3.122525974073649"><ele>325.0</ele><time>2026-04-26T09:30:23Z</time></trkpt><trkpt lat="47.134875171372364" lon="3.1225507904693908"><ele>325.0</ele><time>2026-04-26T09:30:27Z</time></trkpt><trkpt lat="47.13481130535862" lon="3.122597451109275"><ele>325.0</ele><time>2026-04-26T09:30:30Z</time></trkpt><trkpt lat="47.134739259609674" lon="3.122651045786832"><ele>325.0</ele><time>2026-04-26T09:30:33Z</time></trkpt><trkpt lat="47.134656661411306" lon="3.1226854451836177"><ele>326.3333333333333</ele><time>2026-04-26T09:30:36Z</time></trkpt><trkpt lat="47.134570158654384" lon="3.1227101691549017"><ele>327.66666666666663</ele><time>2026-04-26T09:30:39Z</time></trkpt><trkpt lat="47.13449850257335" lon="3.122756534546982"><ele>329.0</ele><time>2026-04-26T09:30:42Z</time></trkpt><trkpt lat="47.13441865351836" lon="3.1228018897117726"><ele>330.3333333333333</ele><time>2026-04-26T09:30:45Z</time></trkpt><trkpt lat="47.13433388712752" lon="3.1228371122546594"><ele>331.6666666666667</ele><time>2026-04-26T09:30:48Z</time></trkpt><trkpt lat="47.13426222721008" lon="3.122876057079528"><ele>333.0</ele><time>2026-04-26T09:30:51Z</time></trkpt><trkpt lat="47.134185382121935" lon="3.12292364702133"><ele>333.0</ele><time>2026-04-26T09:30:54Z</time></trkpt><trkpt lat="47.13410685645462" lon="3.1229731271042187"><ele>333.0</ele><time>2026-04-26T09:30:56.999Z</time></trkpt><trkpt lat="47.134042356331385" lon="3.123026964919523"><ele>333.0</ele><time>2026-04-26T09:30:59.999Z</time></trkpt><trkpt lat="47.133964679315476" lon="3.1230712183542257"><ele>333.0</ele><time>2026-04-26T09:31:02.999Z</time></trkpt><trkpt lat="47.133879667869905" lon="3.1231160018831283"><ele>333.0</ele><time>2026-04-26T09:31:05.999Z</time></trkpt><trkpt lat="47.13381904912529" lon="3.1231570814888685"><ele>333.0</ele><time>2026-04-26T09:31:07.999Z</time></trkpt><trkpt lat="47.13375900893453" lon="3.1231938203726446"><ele>332.5</ele><time>2026-04-26T09:31:09.999Z</time></trkpt><trkpt lat="47.13369112675553" lon="3.1232217554008894"><ele>332.0</ele><time>2026-04-26T09:31:11.999Z</time></trkpt><trkpt lat="47.13361343279219" lon="3.1232678811526045"><ele>331.5</ele><time>2026-04-26T09:31:14.999Z</time></trkpt><trkpt lat="47.13353982304195" lon="3.1233186422563803"><ele>331.0</ele><time>2026-04-26T09:31:16.999Z</time></trkpt><trkpt lat="47.13345157216825" lon="3.123375126133555"><ele>330.5</ele><time>2026-04-26T09:31:18.999Z</time></trkpt><trkpt lat="47.133358983390565" lon="3.123404294400195"><ele>330.0</ele><time>2026-04-26T09:31:21.999Z</time></trkpt><trkpt lat="47.13328114331685" lon="3.1234349535352632"><ele>330.0</ele><time>2026-04-26T09:31:23.999Z</time></trkpt><trkpt lat="47.13322519161368" lon="3.1235022193202306"><ele>330.0</ele><time>2026-04-26T09:31:25.999Z</time></trkpt><trkpt lat="47.13315504124121" lon="3.123536054123895"><ele>330.0</ele><time>2026-04-26T09:31:27.999Z</time></trkpt><trkpt lat="47.133089889779406" lon="3.1235660148979734"><ele>330.0</ele><time>2026-04-26T09:31:29.999Z</time></trkpt><trkpt lat="47.13300070669269" lon="3.123627489140924"><ele>330.0</ele><time>2026-04-26T09:31:32.999Z</time></trkpt><trkpt lat="47.13291730721922" lon="3.1236640401728524"><ele>330.0</ele><time>2026-04-26T09:31:35.999Z</time></trkpt><trkpt lat="47.13285130516249" lon="3.1236996477751027"><ele>331.0</ele><time>2026-04-26T09:31:37.999Z</time></trkpt><trkpt lat="47.13278787542104" lon="3.1237312196437412"><ele>332.0</ele><time>2026-04-26T09:31:39.999Z</time></trkpt><trkpt lat="47.13272515333237" lon="3.123762629481134"><ele>333.0</ele><time>2026-04-26T09:31:41.999Z</time></trkpt><trkpt lat="47.13263697955512" lon="3.123804485253286"><ele>334.0</ele><time>2026-04-26T09:31:44.999Z</time></trkpt><trkpt lat="47.13255823146129" lon="3.12387231232848"><ele>335.0</ele><time>2026-04-26T09:31:47.999Z</time></trkpt><trkpt lat="47.132472612652826" lon="3.1239182060368327"><ele>336.0</ele><time>2026-04-26T09:31:50.999Z</time></trkpt><trkpt lat="47.132406786467875" lon="3.123954186673422"><ele>336.0</ele><time>2026-04-26T09:31:53.999Z</time></trkpt><trkpt lat="47.132332831291166" lon="3.12398638812086"><ele>336.0</ele><time>2026-04-26T09:31:57.999Z</time></trkpt><trkpt lat="47.13226052981562" lon="3.1240314829849996"><ele>336.0</ele><time>2026-04-26T09:32:01.999Z</time></trkpt><trkpt lat="47.132177099748105" lon="3.124078416108834"><ele>336.0</ele><time>2026-04-26T09:32:05.999Z</time></trkpt><trkpt lat="47.13211789470823" lon="3.124121455194199"><ele>336.0</ele><time>2026-04-26T09:32:08.998Z</time></trkpt><trkpt lat="47.13203596170104" lon="3.1241577857853913"><ele>336.0</ele><time>2026-04-26T09:32:12Z</time></trkpt><trkpt lat="47.13195269602325" lon="3.1242006619685707"><ele>336.0</ele><time>2026-04-26T09:32:15Z</time></trkpt><trkpt lat="47.1318702378211" lon="3.1242422388255435"><ele>336.0</ele><time>2026-04-26T09:32:18Z</time></trkpt><trkpt lat="47.13178778109384" lon="3.124284993053755"><ele>336.0</ele><time>2026-04-26T09:32:21Z</time></trkpt><trkpt lat="47.13171764403671" lon="3.124299896411343"><ele>336.0</ele><time>2026-04-26T09:32:24Z</time></trkpt><trkpt lat="47.13164348804946" lon="3.124351436137306"><ele>336.0</ele><time>2026-04-26T09:32:27Z</time></trkpt><trkpt lat="47.131579330669645" lon="3.124393747436212"><ele>336.0</ele><time>2026-04-26T09:32:31Z</time></trkpt><trkpt lat="47.131517387286195" lon="3.124443900517565"><ele>336.42857142857144</ele><time>2026-04-26T09:32:34Z</time></trkpt><trkpt lat="47.13144849630318" lon="3.1244867795330644"><ele>336.8571428571429</ele><time>2026-04-26T09:32:37Z</time></trkpt><trkpt lat="47.13138216021271" lon="3.1245391792417503"><ele>337.2857142857143</ele><time>2026-04-26T09:32:40Z</time></trkpt><trkpt lat="47.13131680386327" lon="3.1245721074381025"><ele>337.7142857142857</ele><time>2026-04-26T09:32:43Z</time></trkpt><trkpt lat="47.131248585912076" lon="3.124590617117733"><ele>338.14285714285717</ele><time>2026-04-26T09:32:46Z</time></trkpt><trkpt lat="47.13118003355819" lon="3.1246268362816614"><ele>338.57142857142856</ele><time>2026-04-26T09:32:49Z</time></trkpt><trkpt lat="47.13110790470196" lon="3.1246784288059506"><ele>339.0</ele><time>2026-04-26T09:32:52Z</time></trkpt><trkpt lat="47.13103470747105" lon="3.124708437779398"><ele>339.0</ele><time>2026-04-26T09:32:55Z</time></trkpt><trkpt lat="47.130973137612784" lon="3.1247448261825728"><ele>339.0</ele><time>2026-04-26T09:32:58Z</time></trkpt><trkpt lat="47.13090528303168" lon="3.124790454864926"><ele>339.0</ele><time>2026-04-26T09:33:00.999Z</time></trkpt><trkpt lat="47.13082561610522" lon="3.1248482138547993"><ele>339.0</ele><time>2026-04-26T09:33:04.999Z</time></trkpt><trkpt lat="47.13076024317026" lon="3.124869590624276"><ele>339.0</ele><time>2026-04-26T09:33:07.999Z</time></trkpt><trkpt lat="47.13068741020975" lon="3.1249013757118456"><ele>339.0</ele><time>2026-04-26T09:33:10.999Z</time></trkpt><trkpt lat="47.13060818840862" lon="3.1249614030849275"><ele>338.85714285714283</ele><time>2026-04-26T09:33:14.999Z</time></trkpt><trkpt lat="47.13054052198921" lon="3.125003053923043"><ele>338.7142857142857</ele><time>2026-04-26T09:33:17.999Z</time></trkpt><trkpt lat="47.13047342081641" lon="3.1250420616602703"><ele>338.57142857142856</ele><time>2026-04-26T09:33:20.999Z</time></trkpt><trkpt lat="47.13039446678782" lon="3.1250728380539874"><ele>338.42857142857144</ele><time>2026-04-26T09:33:24.999Z</time></trkpt><trkpt lat="47.130328369658606" lon="3.125108910021322"><ele>338.2857142857143</ele><time>2026-04-26T09:33:27.999Z</time></trkpt><trkpt lat="47.13026165483762" lon="3.1251451681898486"><ele>338.14285714285717</ele><time>2026-04-26T09:33:30.999Z</time></trkpt><trkpt lat="47.13020184174098" lon="3.125175627396099"><ele>338.0</ele><time>2026-04-26T09:33:33.999Z</time></trkpt><trkpt lat="47.13013389266848" lon="3.125207406549299"><ele>338.0</ele><time>2026-04-26T09:33:35.999Z</time></trkpt><trkpt lat="47.13006605768257" lon="3.125243946334546"><ele>338.0</ele><time>2026-04-26T09:33:38.999Z</time></trkpt><trkpt lat="47.12999385967618" lon="3.1252768237249975"><ele>338.0</ele><time>2026-04-26T09:33:41.999Z</time></trkpt><trkpt lat="47.129918312067836" lon="3.125315295865788"><ele>338.0</ele><time>2026-04-26T09:33:45.999Z</time></trkpt><trkpt lat="47.12983462397949" lon="3.125367288927156"><ele>338.0</ele><time>2026-04-26T09:33:48.999Z</time></trkpt><trkpt lat="47.12977363421817" lon="3.125417566611177"><ele>338.0</ele><time>2026-04-26T09:33:52.999Z</time></trkpt><trkpt lat="47.129710472830354" lon="3.1254412234485422"><ele>337.5</ele><time>2026-04-26T09:33:55.999Z</time></trkpt><trkpt lat="47.1296387587951" lon="3.1254733092304448"><ele>337.0</ele><time>2026-04-26T09:33:58.999Z</time></trkpt><trkpt lat="47.129578929789645" lon="3.1255231388982456"><ele>336.5</ele><time>2026-04-26T09:34:01.999Z</time></trkpt><trkpt lat="47.12953954363616" lon="3.125614904276277"><ele>336.0</ele><time>2026-04-26T09:34:06.999Z</time></trkpt><trkpt lat="47.12944516878031" lon="3.125631989013283"><ele>335.5</ele><time>2026-04-26T09:34:10.999Z</time></trkpt><trkpt lat="47.12938138135371" lon="3.1255874716531746"><ele>335.0</ele><time>2026-04-26T09:34:13.998Z</time></trkpt><trkpt lat="47.129311031539736" lon="3.1255506694255653"><ele>335.0</ele><time>2026-04-26T09:37:43.999Z</time></trkpt></trkseg></trk></gpx>